<?xml version='1.0' encoding='UTF-8'?><gpx version="1.1" creator="JPX - https://github.com/jenetics/jpx" xmlns="http://www.topografix.com/GPX/1/1"><trk><trkseg><trkpt lat="41.335178" lon="14.0726571"><ele>180.0</ele><time>2026-05-02T13:04:51.331Z</time></trkpt><trkpt lat="41.3353653" lon="14.0731525"><ele>180.0</ele><time>2026-05-02T13:04:55.748Z</time></trkpt><trkpt lat="41.3354217" lon="14.0731115"><ele>180.0</ele><time>2026-05-02T13:05:24.753Z</time></trkpt><trkpt lat="41.335366" lon="14.0730315"><ele>180.0</ele><time>2026-05-02T13:05:27.758Z</time></trkpt><trkpt lat="41.3352643" lon="14.0730505"><ele>180.0</ele><time>2026-05-02T13:05:29.76Z</time></trkpt><trkpt lat="41.3351977" lon="14.0730502"><ele>180.0</ele><time>2026-05-02T13:05:30.754Z</time></trkpt><trkpt lat="41.3351272" lon="14.0730378"><ele>180.0</ele><time>2026-05-02T13:05:31.753Z</time></trkpt><trkpt lat="41.3350508" lon="14.073019"><ele>180.0</ele><time>2026-05-02T13:05:32.754Z</time></trkpt><trkpt lat="41.3349705" lon="14.0729883"><ele>180.0</ele><time>2026-05-02T13:05:33.755Z</time></trkpt><trkpt lat="41.3348808" lon="14.0729457"><ele>180.0</ele><time>2026-05-02T13:05:34.757Z</time></trkpt><trkpt lat="41.3347897" lon="14.0728967"><ele>180.0</ele><time>2026-05-02T13:05:35.756Z</time></trkpt><trkpt lat="41.3346967" lon="14.0728457"><ele>180.0</ele><time>2026-05-02T13:05:36.757Z</time></trkpt><trkpt lat="41.3346015" lon="14.0727957"><ele>180.0</ele><time>2026-05-02T13:05:37.756Z</time></trkpt><trkpt lat="41.334503" lon="14.0727477"><ele>180.6</ele><time>2026-05-02T13:05:38.756Z</time></trkpt><trkpt lat="41.3344045" lon="14.0726975"><ele>181.2</ele><time>2026-05-02T13:05:39.756Z</time></trkpt><trkpt lat="41.3343058" lon="14.0726415"><ele>181.8</ele><time>2026-05-02T13:05:40.757Z</time></trkpt><trkpt lat="41.3342088" lon="14.0725767"><ele>182.4</ele><time>2026-05-02T13:05:41.756Z</time></trkpt><trkpt lat="41.33411" lon="14.0725017"><ele>183.0</ele><time>2026-05-02T13:05:42.753Z</time></trkpt><trkpt lat="41.334012" lon="14.0724135"><ele>183.5</ele><time>2026-05-02T13:05:43.756Z</time></trkpt><trkpt lat="41.3339183" lon="14.0723123"><ele>184.0</ele><time>2026-05-02T13:05:44.755Z</time></trkpt><trkpt lat="41.333831" lon="14.0722017"><ele>184.5</ele><time>2026-05-02T13:05:45.755Z</time></trkpt><trkpt lat="41.3337508" lon="14.0720843"><ele>185.0</ele><time>2026-05-02T13:05:46.754Z</time></trkpt><trkpt lat="41.3336747" lon="14.0719652"><ele>185.75</ele><time>2026-05-02T13:05:47.752Z</time></trkpt><trkpt lat="41.333602" lon="14.0718428"><ele>186.5</ele><time>2026-05-02T13:05:48.753Z</time></trkpt><trkpt lat="41.3335348" lon="14.0717172"><ele>187.25</ele><time>2026-05-02T13:05:49.755Z</time></trkpt><trkpt lat="41.3334743" lon="14.071585"><ele>188.0</ele><time>2026-05-02T13:05:50.755Z</time></trkpt><trkpt lat="41.333418" lon="14.0714488"><ele>188.0</ele><time>2026-05-02T13:05:51.756Z</time></trkpt><trkpt lat="41.3333648" lon="14.0713092"><ele>188.0</ele><time>2026-05-02T13:05:52.756Z</time></trkpt><trkpt lat="41.3333133" lon="14.0711668"><ele>188.0</ele><time>2026-05-02T13:05:53.752Z</time></trkpt><trkpt lat="41.3332572" lon="14.0710248"><ele>188.0</ele><time>2026-05-02T13:05:54.752Z</time></trkpt><trkpt lat="41.333198" lon="14.0708867"><ele>188.0</ele><time>2026-05-02T13:05:55.752Z</time></trkpt><trkpt lat="41.3331355" lon="14.0707502"><ele>188.0</ele><time>2026-05-02T13:05:56.754Z</time></trkpt><trkpt lat="41.3330702" lon="14.0706162"><ele>188.0</ele><time>2026-05-02T13:05:57.753Z</time></trkpt><trkpt lat="41.3330102" lon="14.070492"><ele>188.0</ele><time>2026-05-02T13:05:58.757Z</time></trkpt><trkpt lat="41.3329575" lon="14.07038"><ele>188.0</ele><time>2026-05-02T13:05:59.754Z</time></trkpt><trkpt lat="41.3329057" lon="14.0702733"><ele>188.0</ele><time>2026-05-02T13:06:00.752Z</time></trkpt><trkpt lat="41.3328515" lon="14.0701678"><ele>188.0</ele><time>2026-05-02T13:06:01.753Z</time></trkpt><trkpt lat="41.3327978" lon="14.070064"><ele>188.0</ele><time>2026-05-02T13:06:02.756Z</time></trkpt><trkpt lat="41.332747" lon="14.0699737"><ele>188.0</ele><time>2026-05-02T13:06:03.755Z</time></trkpt><trkpt lat="41.3326983" lon="14.06989"><ele>188.0</ele><time>2026-05-02T13:06:04.755Z</time></trkpt><trkpt lat="41.3326485" lon="14.0698068"><ele>188.0</ele><time>2026-05-02T13:06:05.756Z</time></trkpt><trkpt lat="41.332594" lon="14.0697217"><ele>188.0</ele><time>2026-05-02T13:06:06.752Z</time></trkpt><trkpt lat="41.3325358" lon="14.069634"><ele>188.0</ele><time>2026-05-02T13:06:07.76Z</time></trkpt><trkpt lat="41.3324737" lon="14.0695467"><ele>188.0</ele><time>2026-05-02T13:06:08.755Z</time></trkpt><trkpt lat="41.3324082" lon="14.0694553"><ele>188.0</ele><time>2026-05-02T13:06:09.755Z</time></trkpt><trkpt lat="41.3323385" lon="14.0693612"><ele>188.0</ele><time>2026-05-02T13:06:10.752Z</time></trkpt><trkpt lat="41.3322642" lon="14.0692633"><ele>188.0</ele><time>2026-05-02T13:06:11.751Z</time></trkpt><trkpt lat="41.3321873" lon="14.069161"><ele>188.0</ele><time>2026-05-02T13:06:12.752Z</time></trkpt><trkpt lat="41.332108" lon="14.0690567"><ele>188.0</ele><time>2026-05-02T13:06:13.753Z</time></trkpt><trkpt lat="41.332028" lon="14.0689515"><ele>188.0</ele><time>2026-05-02T13:06:14.756Z</time></trkpt><trkpt lat="41.3319503" lon="14.0688418"><ele>188.2</ele><time>2026-05-02T13:06:15.753Z</time></trkpt><trkpt lat="41.3318813" lon="14.068725"><ele>188.4</ele><time>2026-05-02T13:06:16.758Z</time></trkpt><trkpt lat="41.3318272" lon="14.0686017"><ele>188.6</ele><time>2026-05-02T13:06:17.756Z</time></trkpt><trkpt lat="41.3317883" lon="14.068471"><ele>188.79999999999998</ele><time>2026-05-02T13:06:18.759Z</time></trkpt><trkpt lat="41.3317625" lon="14.0683342"><ele>189.0</ele><time>2026-05-02T13:06:19.754Z</time></trkpt><trkpt lat="41.3317513" lon="14.0681928"><ele>189.0</ele><time>2026-05-02T13:06:20.757Z</time></trkpt><trkpt lat="41.3317538" lon="14.0680512"><ele>189.0</ele><time>2026-05-02T13:06:21.756Z</time></trkpt><trkpt lat="41.3317682" lon="14.0679055"><ele>189.0</ele><time>2026-05-02T13:06:22.758Z</time></trkpt><trkpt lat="41.3317953" lon="14.0677582"><ele>189.0</ele><time>2026-05-02T13:06:23.757Z</time></trkpt><trkpt lat="41.3318332" lon="14.0676117"><ele>189.0</ele><time>2026-05-02T13:06:24.754Z</time></trkpt><trkpt lat="41.3318763" lon="14.0674647"><ele>189.5</ele><time>2026-05-02T13:06:25.755Z</time></trkpt><trkpt lat="41.3319217" lon="14.0673165"><ele>190.0</ele><time>2026-05-02T13:06:26.753Z</time></trkpt><trkpt lat="41.3319662" lon="14.0671732"><ele>190.5</ele><time>2026-05-02T13:06:27.753Z</time></trkpt><trkpt lat="41.3320078" lon="14.0670322"><ele>191.0</ele><time>2026-05-02T13:06:28.758Z</time></trkpt><trkpt lat="41.332047" lon="14.0668912"><ele>191.0</ele><time>2026-05-02T13:06:29.757Z</time></trkpt><trkpt lat="41.3320825" lon="14.0667487"><ele>191.0</ele><time>2026-05-02T13:06:30.757Z</time></trkpt><trkpt lat="41.3321127" lon="14.0666042"><ele>191.0</ele><time>2026-05-02T13:06:31.755Z</time></trkpt><trkpt lat="41.3321342" lon="14.0664565"><ele>191.0</ele><time>2026-05-02T13:06:32.755Z</time></trkpt><trkpt lat="41.3321422" lon="14.0663058"><ele>191.25</ele><time>2026-05-02T13:06:33.754Z</time></trkpt><trkpt lat="41.3321432" lon="14.0661543"><ele>191.5</ele><time>2026-05-02T13:06:34.757Z</time></trkpt><trkpt lat="41.332138" lon="14.0660015"><ele>191.75</ele><time>2026-05-02T13:06:35.755Z</time></trkpt><trkpt lat="41.3321175" lon="14.0658492"><ele>192.0</ele><time>2026-05-02T13:06:36.755Z</time></trkpt><trkpt lat="41.3320747" lon="14.0657017"><ele>193.5</ele><time>2026-05-02T13:06:37.755Z</time></trkpt><trkpt lat="41.3320137" lon="14.0655602"><ele>195.0</ele><time>2026-05-02T13:06:38.754Z</time></trkpt><trkpt lat="41.3319448" lon="14.0654217"><ele>196.5</ele><time>2026-05-02T13:06:39.755Z</time></trkpt><trkpt lat="41.3318742" lon="14.0652838"><ele>198.0</ele><time>2026-05-02T13:06:40.754Z</time></trkpt><trkpt lat="41.3318063" lon="14.065145"><ele>198.0</ele><time>2026-05-02T13:06:41.754Z</time></trkpt><trkpt lat="41.3317447" lon="14.0649993"><ele>198.0</ele><time>2026-05-02T13:06:42.755Z</time></trkpt><trkpt lat="41.3316842" lon="14.0648507"><ele>198.0</ele><time>2026-05-02T13:06:43.757Z</time></trkpt><trkpt lat="41.3316253" lon="14.0647058"><ele>198.0</ele><time>2026-05-02T13:06:44.755Z</time></trkpt><trkpt lat="41.3315692" lon="14.0645638"><ele>198.75</ele><time>2026-05-02T13:06:45.754Z</time></trkpt><trkpt lat="41.331517" lon="14.0644193"><ele>199.5</ele><time>2026-05-02T13:06:46.751Z</time></trkpt><trkpt lat="41.331466" lon="14.0642713"><ele>200.25</ele><time>2026-05-02T13:06:47.753Z</time></trkpt><trkpt lat="41.3314157" lon="14.0641198"><ele>201.0</ele><time>2026-05-02T13:06:48.753Z</time></trkpt><trkpt lat="41.3313682" lon="14.063966"><ele>202.25</ele><time>2026-05-02T13:06:49.755Z</time></trkpt><trkpt lat="41.3313297" lon="14.063808"><ele>203.5</ele><time>2026-05-02T13:06:50.75Z</time></trkpt><trkpt lat="41.3312887" lon="14.0636487"><ele>204.75</ele><time>2026-05-02T13:06:51.751Z</time></trkpt><trkpt lat="41.331247" lon="14.0634905"><ele>206.0</ele><time>2026-05-02T13:06:52.75Z</time></trkpt><trkpt lat="41.3312047" lon="14.0633323"><ele>208.0</ele><time>2026-05-02T13:06:53.752Z</time></trkpt><trkpt lat="41.3311577" lon="14.0631733"><ele>210.0</ele><time>2026-05-02T13:06:54.752Z</time></trkpt><trkpt lat="41.3311028" lon="14.0630157"><ele>212.0</ele><time>2026-05-02T13:06:55.753Z</time></trkpt><trkpt lat="41.331045" lon="14.0628585"><ele>214.0</ele><time>2026-05-02T13:06:56.753Z</time></trkpt><trkpt lat="41.330994" lon="14.0626992"><ele>214.0</ele><time>2026-05-02T13:06:57.75Z</time></trkpt><trkpt lat="41.330932" lon="14.0625467"><ele>214.0</ele><time>2026-05-02T13:06:58.753Z</time></trkpt><trkpt lat="41.3308743" lon="14.0623983"><ele>214.0</ele><time>2026-05-02T13:06:59.753Z</time></trkpt><trkpt lat="41.3308078" lon="14.0622542"><ele>214.0</ele><time>2026-05-02T13:07:00.752Z</time></trkpt><trkpt lat="41.3307413" lon="14.0621077"><ele>214.25</ele><time>2026-05-02T13:07:01.75Z</time></trkpt><trkpt lat="41.3306797" lon="14.0619503"><ele>214.5</ele><time>2026-05-02T13:07:02.75Z</time></trkpt><trkpt lat="41.3306233" lon="14.0617828"><ele>214.75</ele><time>2026-05-02T13:07:03.75Z</time></trkpt><trkpt lat="41.3305742" lon="14.0616137"><ele>215.0</ele><time>2026-05-02T13:07:04.751Z</time></trkpt><trkpt lat="41.3305277" lon="14.0614567"><ele>216.75</ele><time>2026-05-02T13:07:05.751Z</time></trkpt><trkpt lat="41.3304762" lon="14.0613003"><ele>218.5</ele><time>2026-05-02T13:07:06.754Z</time></trkpt><trkpt lat="41.3304143" lon="14.0611462"><ele>220.25</ele><time>2026-05-02T13:07:07.754Z</time></trkpt><trkpt lat="41.3303462" lon="14.0609953"><ele>222.0</ele><time>2026-05-02T13:07:08.753Z</time></trkpt><trkpt lat="41.3302723" lon="14.060847"><ele>223.25</ele><time>2026-05-02T13:07:09.754Z</time></trkpt><trkpt lat="41.3301943" lon="14.0606945"><ele>224.5</ele><time>2026-05-02T13:07:10.752Z</time></trkpt><trkpt lat="41.3301137" lon="14.060539"><ele>225.75</ele><time>2026-05-02T13:07:11.754Z</time></trkpt><trkpt lat="41.3300337" lon="14.0603802"><ele>227.0</ele><time>2026-05-02T13:07:12.754Z</time></trkpt><trkpt lat="41.3299558" lon="14.0602185"><ele>227.0</ele><time>2026-05-02T13:07:13.755Z</time></trkpt><trkpt lat="41.329871" lon="14.0600633"><ele>227.0</ele><time>2026-05-02T13:07:14.753Z</time></trkpt><trkpt lat="41.3297745" lon="14.0599213"><ele>227.0</ele><time>2026-05-02T13:07:15.751Z</time></trkpt><trkpt lat="41.3296685" lon="14.0597892"><ele>227.0</ele><time>2026-05-02T13:07:16.75Z</time></trkpt><trkpt lat="41.3295617" lon="14.059655"><ele>229.5</ele><time>2026-05-02T13:07:17.75Z</time></trkpt><trkpt lat="41.3294632" lon="14.0595167"><ele>232.0</ele><time>2026-05-02T13:07:18.753Z</time></trkpt><trkpt lat="41.3293783" lon="14.0593867"><ele>234.5</ele><time>2026-05-02T13:07:19.753Z</time></trkpt><trkpt lat="41.329308" lon="14.0592598"><ele>237.0</ele><time>2026-05-02T13:07:20.752Z</time></trkpt><trkpt lat="41.3292472" lon="14.0591282"><ele>238.25</ele><time>2026-05-02T13:07:21.751Z</time></trkpt><trkpt lat="41.3292065" lon="14.0589865"><ele>239.5</ele><time>2026-05-02T13:07:22.751Z</time></trkpt><trkpt lat="41.3291847" lon="14.0588363"><ele>240.75</ele><time>2026-05-02T13:07:23.755Z</time></trkpt><trkpt lat="41.3291827" lon="14.0586788"><ele>242.0</ele><time>2026-05-02T13:07:24.75Z</time></trkpt><trkpt lat="41.3292023" lon="14.0585212"><ele>242.0</ele><time>2026-05-02T13:07:25.753Z</time></trkpt><trkpt lat="41.329243" lon="14.0583665"><ele>242.0</ele><time>2026-05-02T13:07:26.752Z</time></trkpt><trkpt lat="41.3293023" lon="14.0582165"><ele>242.0</ele><time>2026-05-02T13:07:27.75Z</time></trkpt><trkpt lat="41.3293748" lon="14.0580678"><ele>242.0</ele><time>2026-05-02T13:07:28.754Z</time></trkpt><trkpt lat="41.329453" lon="14.0579133"><ele>242.25</ele><time>2026-05-02T13:07:29.754Z</time></trkpt><trkpt lat="41.3295285" lon="14.0577525"><ele>242.5</ele><time>2026-05-02T13:07:30.754Z</time></trkpt><trkpt lat="41.3295987" lon="14.0575815"><ele>242.75</ele><time>2026-05-02T13:07:31.753Z</time></trkpt><trkpt lat="41.329658" lon="14.0573993"><ele>243.0</ele><time>2026-05-02T13:07:32.751Z</time></trkpt><trkpt lat="41.3297143" lon="14.0572158"><ele>243.25</ele><time>2026-05-02T13:07:33.75Z</time></trkpt><trkpt lat="41.3297665" lon="14.0570382"><ele>243.5</ele><time>2026-05-02T13:07:34.753Z</time></trkpt><trkpt lat="41.3298153" lon="14.0568747"><ele>243.75</ele><time>2026-05-02T13:07:35.752Z</time></trkpt><trkpt lat="41.3298622" lon="14.0567237"><ele>244.0</ele><time>2026-05-02T13:07:36.752Z</time></trkpt><trkpt lat="41.3299102" lon="14.056582"><ele>242.75</ele><time>2026-05-02T13:07:37.752Z</time></trkpt><trkpt lat="41.3299555" lon="14.056443"><ele>241.5</ele><time>2026-05-02T13:07:38.755Z</time></trkpt><trkpt lat="41.3299862" lon="14.0563022"><ele>240.25</ele><time>2026-05-02T13:07:39.754Z</time></trkpt><trkpt lat="41.3299927" lon="14.0561573"><ele>239.0</ele><time>2026-05-02T13:07:40.755Z</time></trkpt><trkpt lat="41.3299712" lon="14.0560032"><ele>239.0</ele><time>2026-05-02T13:07:41.753Z</time></trkpt><trkpt lat="41.3299202" lon="14.0558428"><ele>239.0</ele><time>2026-05-02T13:07:42.753Z</time></trkpt><trkpt lat="41.329849" lon="14.0556798"><ele>239.0</ele><time>2026-05-02T13:07:43.753Z</time></trkpt><trkpt lat="41.3297648" lon="14.0555175"><ele>239.0</ele><time>2026-05-02T13:07:44.756Z</time></trkpt><trkpt lat="41.3296758" lon="14.05535"><ele>238.66666666666669</ele><time>2026-05-02T13:07:45.756Z</time></trkpt><trkpt lat="41.3295957" lon="14.0551723"><ele>238.33333333333331</ele><time>2026-05-02T13:07:46.758Z</time></trkpt><trkpt lat="41.329524" lon="14.054991"><ele>238.0</ele><time>2026-05-02T13:07:47.754Z</time></trkpt><trkpt lat="41.3294675" lon="14.0548017"><ele>238.5</ele><time>2026-05-02T13:07:48.754Z</time></trkpt><trkpt lat="41.3294253" lon="14.0545975"><ele>239.0</ele><time>2026-05-02T13:07:49.754Z</time></trkpt><trkpt lat="41.329395" lon="14.0544015"><ele>239.5</ele><time>2026-05-02T13:07:50.754Z</time></trkpt><trkpt lat="41.3293717" lon="14.0542388"><ele>240.0</ele><time>2026-05-02T13:07:51.753Z</time></trkpt><trkpt lat="41.3293578" lon="14.0541125"><ele>240.0</ele><time>2026-05-02T13:07:52.753Z</time></trkpt><trkpt lat="41.3293548" lon="14.0540248"><ele>240.0</ele><time>2026-05-02T13:07:53.754Z</time></trkpt><trkpt lat="41.3293165" lon="14.053894"><ele>240.0</ele><time>2026-05-02T13:07:55.755Z</time></trkpt><trkpt lat="41.329254" lon="14.0537568"><ele>240.0</ele><time>2026-05-02T13:07:57.754Z</time></trkpt><trkpt lat="41.3292188" lon="14.0536592"><ele>240.0</ele><time>2026-05-02T13:07:58.752Z</time></trkpt><trkpt lat="41.3291707" lon="14.0535502"><ele>240.0</ele><time>2026-05-02T13:07:59.754Z</time></trkpt><trkpt lat="41.3291162" lon="14.0534478"><ele>240.0</ele><time>2026-05-02T13:08:00.754Z</time></trkpt><trkpt lat="41.3290497" lon="14.0533498"><ele>240.0</ele><time>2026-05-02T13:08:01.756Z</time></trkpt><trkpt lat="41.3289708" lon="14.0532532"><ele>240.0</ele><time>2026-05-02T13:08:02.752Z</time></trkpt><trkpt lat="41.3288787" lon="14.0531577"><ele>240.0</ele><time>2026-05-02T13:08:03.751Z</time></trkpt><trkpt lat="41.3287785" lon="14.0530667"><ele>237.5</ele><time>2026-05-02T13:08:04.752Z</time></trkpt><trkpt lat="41.3286728" lon="14.0529768"><ele>235.0</ele><time>2026-05-02T13:08:05.753Z</time></trkpt><trkpt lat="41.328573" lon="14.0528838"><ele>232.5</ele><time>2026-05-02T13:08:06.752Z</time></trkpt><trkpt lat="41.3284872" lon="14.0527818"><ele>230.0</ele><time>2026-05-02T13:08:07.753Z</time></trkpt><trkpt lat="41.3284043" lon="14.0526683"><ele>230.0</ele><time>2026-05-02T13:08:08.753Z</time></trkpt><trkpt lat="41.328324" lon="14.0525377"><ele>230.0</ele><time>2026-05-02T13:08:09.751Z</time></trkpt><trkpt lat="41.3282485" lon="14.0523907"><ele>230.0</ele><time>2026-05-02T13:08:10.751Z</time></trkpt><trkpt lat="41.3281853" lon="14.0522255"><ele>230.0</ele><time>2026-05-02T13:08:11.754Z</time></trkpt><trkpt lat="41.3281328" lon="14.0520507"><ele>229.5</ele><time>2026-05-02T13:08:12.752Z</time></trkpt><trkpt lat="41.3280882" lon="14.0518858"><ele>229.0</ele><time>2026-05-02T13:08:13.749Z</time></trkpt><trkpt lat="41.3280398" lon="14.0517343"><ele>228.5</ele><time>2026-05-02T13:08:14.75Z</time></trkpt><trkpt lat="41.327981" lon="14.0515997"><ele>228.0</ele><time>2026-05-02T13:08:15.749Z</time></trkpt><trkpt lat="41.3279138" lon="14.0514782"><ele>228.0</ele><time>2026-05-02T13:08:16.749Z</time></trkpt><trkpt lat="41.3278265" lon="14.0513742"><ele>228.0</ele><time>2026-05-02T13:08:17.751Z</time></trkpt><trkpt lat="41.3277242" lon="14.0512792"><ele>228.0</ele><time>2026-05-02T13:08:18.752Z</time></trkpt><trkpt lat="41.3276192" lon="14.0511865"><ele>228.0</ele><time>2026-05-02T13:08:19.754Z</time></trkpt><trkpt lat="41.3275195" lon="14.0510973"><ele>228.0</ele><time>2026-05-02T13:08:20.755Z</time></trkpt><trkpt lat="41.3274312" lon="14.0510055"><ele>228.0</ele><time>2026-05-02T13:08:21.755Z</time></trkpt><trkpt lat="41.3273503" lon="14.0509092"><ele>228.0</ele><time>2026-05-02T13:08:22.751Z</time></trkpt><trkpt lat="41.3272737" lon="14.0508067"><ele>228.0</ele><time>2026-05-02T13:08:23.751Z</time></trkpt><trkpt lat="41.3271982" lon="14.0506917"><ele>228.0</ele><time>2026-05-02T13:08:24.754Z</time></trkpt><trkpt lat="41.3271225" lon="14.0505692"><ele>226.25</ele><time>2026-05-02T13:08:25.754Z</time></trkpt><trkpt lat="41.3270435" lon="14.0504442"><ele>224.5</ele><time>2026-05-02T13:08:26.753Z</time></trkpt><trkpt lat="41.3269632" lon="14.0503158"><ele>222.75</ele><time>2026-05-02T13:08:27.754Z</time></trkpt><trkpt lat="41.3268782" lon="14.0501893"><ele>221.0</ele><time>2026-05-02T13:08:28.75Z</time></trkpt><trkpt lat="41.3267878" lon="14.0500632"><ele>221.75</ele><time>2026-05-02T13:08:29.752Z</time></trkpt><trkpt lat="41.326692" lon="14.0499478"><ele>222.5</ele><time>2026-05-02T13:08:30.753Z</time></trkpt><trkpt lat="41.3265957" lon="14.0498555"><ele>223.25</ele><time>2026-05-02T13:08:31.756Z</time></trkpt><trkpt lat="41.3264858" lon="14.0498013"><ele>224.0</ele><time>2026-05-02T13:08:32.752Z</time></trkpt><trkpt lat="41.3263663" lon="14.0497748"><ele>224.0</ele><time>2026-05-02T13:08:33.75Z</time></trkpt><trkpt lat="41.326242" lon="14.0497717"><ele>224.0</ele><time>2026-05-02T13:08:34.751Z</time></trkpt><trkpt lat="41.3261223" lon="14.049774"><ele>224.0</ele><time>2026-05-02T13:08:35.752Z</time></trkpt><trkpt lat="41.326008" lon="14.0497717"><ele>224.0</ele><time>2026-05-02T13:08:36.751Z</time></trkpt><trkpt lat="41.3258923" lon="14.0497642"><ele>224.0</ele><time>2026-05-02T13:08:37.75Z</time></trkpt><trkpt lat="41.3257797" lon="14.0497503"><ele>223.99999999999997</ele><time>2026-05-02T13:08:38.749Z</time></trkpt><trkpt lat="41.3256807" lon="14.049715"><ele>223.99999999999997</ele><time>2026-05-02T13:08:39.748Z</time></trkpt><trkpt lat="41.3255903" lon="14.0496578"><ele>224.0</ele><time>2026-05-02T13:08:40.75Z</time></trkpt><trkpt lat="41.3254975" lon="14.0495677"><ele>224.0</ele><time>2026-05-02T13:08:41.752Z</time></trkpt><trkpt lat="41.3254027" lon="14.0494493"><ele>227.5</ele><time>2026-05-02T13:08:42.755Z</time></trkpt><trkpt lat="41.3253045" lon="14.049314"><ele>231.0</ele><time>2026-05-02T13:08:43.755Z</time></trkpt><trkpt lat="41.3252123" lon="14.049173"><ele>234.5</ele><time>2026-05-02T13:08:44.753Z</time></trkpt><trkpt lat="41.3251287" lon="14.0490412"><ele>238.0</ele><time>2026-05-02T13:08:45.751Z</time></trkpt><trkpt lat="41.3250455" lon="14.0489182"><ele>238.0</ele><time>2026-05-02T13:08:46.754Z</time></trkpt><trkpt lat="41.3249585" lon="14.048805"><ele>238.0</ele><time>2026-05-02T13:08:47.753Z</time></trkpt><trkpt lat="41.32487" lon="14.0486982"><ele>238.0</ele><time>2026-05-02T13:08:48.753Z</time></trkpt><trkpt lat="41.3247815" lon="14.0485942"><ele>238.0</ele><time>2026-05-02T13:08:49.751Z</time></trkpt><trkpt lat="41.3246915" lon="14.048485"><ele>240.2</ele><time>2026-05-02T13:08:50.752Z</time></trkpt><trkpt lat="41.324603" lon="14.0483748"><ele>242.4</ele><time>2026-05-02T13:08:51.753Z</time></trkpt><trkpt lat="41.3245193" lon="14.0482818"><ele>244.59999999999997</ele><time>2026-05-02T13:08:52.754Z</time></trkpt><trkpt lat="41.3244473" lon="14.0481975"><ele>246.79999999999998</ele><time>2026-05-02T13:08:53.755Z</time></trkpt><trkpt lat="41.3243838" lon="14.0481138"><ele>249.0</ele><time>2026-05-02T13:08:54.749Z</time></trkpt><trkpt lat="41.3243348" lon="14.0480277"><ele>249.0</ele><time>2026-05-02T13:08:55.75Z</time></trkpt><trkpt lat="41.3242923" lon="14.0479305"><ele>249.0</ele><time>2026-05-02T13:08:56.752Z</time></trkpt><trkpt lat="41.324252" lon="14.0478243"><ele>249.0</ele><time>2026-05-02T13:08:57.751Z</time></trkpt><trkpt lat="41.324252" lon="14.0478243"><ele>249.0</ele><time>2026-05-02T13:08:57.751Z</time></trkpt><trkpt lat="41.3238665" lon="14.0468342"><ele>251.6</ele><time>2026-05-02T13:09:06.752Z</time></trkpt><trkpt lat="41.3238245" lon="14.0467542"><ele>254.2</ele><time>2026-05-02T13:09:07.756Z</time></trkpt><trkpt lat="41.323787" lon="14.0466818"><ele>256.79999999999995</ele><time>2026-05-02T13:09:08.761Z</time></trkpt><trkpt lat="41.3236192" lon="14.046474"><ele>259.4</ele><time>2026-05-02T13:09:12.754Z</time></trkpt><trkpt lat="41.3235553" lon="14.0464315"><ele>262.0</ele><time>2026-05-02T13:09:13.754Z</time></trkpt><trkpt lat="41.3234353" lon="14.0463605"><ele>263.0</ele><time>2026-05-02T13:09:15.75Z</time></trkpt><trkpt lat="41.3233753" lon="14.0463303"><ele>264.0</ele><time>2026-05-02T13:09:16.751Z</time></trkpt><trkpt lat="41.3232038" lon="14.0461992"><ele>265.0</ele><time>2026-05-02T13:09:19.753Z</time></trkpt><trkpt lat="41.323031" lon="14.0460592"><ele>265.0</ele><time>2026-05-02T13:09:22.754Z</time></trkpt><trkpt lat="41.3228695" lon="14.0459455"><ele>265.0</ele><time>2026-05-02T13:09:25.75Z</time></trkpt><trkpt lat="41.3227433" lon="14.0458665"><ele>265.0</ele><time>2026-05-02T13:09:27.749Z</time></trkpt><trkpt lat="41.3226022" lon="14.045768"><ele>265.0</ele><time>2026-05-02T13:09:29.75Z</time></trkpt><trkpt lat="41.3225288" lon="14.045722"><ele>265.0</ele><time>2026-05-02T13:09:30.75Z</time></trkpt><trkpt lat="41.3223825" lon="14.0456372"><ele>265.0</ele><time>2026-05-02T13:09:32.751Z</time></trkpt><trkpt lat="41.3223058" lon="14.045598"><ele>265.0</ele><time>2026-05-02T13:09:33.75Z</time></trkpt><trkpt lat="41.3222373" lon="14.0455593"><ele>265.0</ele><time>2026-05-02T13:09:34.751Z</time></trkpt><trkpt lat="41.3221282" lon="14.0454767"><ele>266.6</ele><time>2026-05-02T13:09:36.753Z</time></trkpt><trkpt lat="41.3220172" lon="14.0453637"><ele>268.2</ele><time>2026-05-02T13:09:39.753Z</time></trkpt><trkpt lat="41.321963" lon="14.0453012"><ele>269.8</ele><time>2026-05-02T13:09:41.754Z</time></trkpt><trkpt lat="41.3218752" lon="14.0452482"><ele>271.4</ele><time>2026-05-02T13:10:00.754Z</time></trkpt><trkpt lat="41.3217643" lon="14.0451512"><ele>273.0</ele><time>2026-05-02T13:10:02.751Z</time></trkpt><trkpt lat="41.3216853" lon="14.0450753"><ele>273.0</ele><time>2026-05-02T13:10:03.751Z</time></trkpt><trkpt lat="41.3215948" lon="14.0449907"><ele>273.0</ele><time>2026-05-02T13:10:04.75Z</time></trkpt><trkpt lat="41.321498" lon="14.0449013"><ele>273.0</ele><time>2026-05-02T13:10:05.75Z</time></trkpt><trkpt lat="41.3213963" lon="14.0448063"><ele>273.0</ele><time>2026-05-02T13:10:06.749Z</time></trkpt><trkpt lat="41.321287" lon="14.0446978"><ele>273.0</ele><time>2026-05-02T13:10:07.753Z</time></trkpt><trkpt lat="41.3211727" lon="14.0445848"><ele>273.0</ele><time>2026-05-02T13:10:08.752Z</time></trkpt><trkpt lat="41.3210535" lon="14.0444723"><ele>273.0</ele><time>2026-05-02T13:10:09.755Z</time></trkpt><trkpt lat="41.3209377" lon="14.0443548"><ele>273.0</ele><time>2026-05-02T13:10:10.751Z</time></trkpt><trkpt lat="41.3208237" lon="14.0442377"><ele>273.0</ele><time>2026-05-02T13:10:11.752Z</time></trkpt><trkpt lat="41.3207177" lon="14.0441308"><ele>273.0</ele><time>2026-05-02T13:10:12.753Z</time></trkpt><trkpt lat="41.320624" lon="14.044034"><ele>273.0</ele><time>2026-05-02T13:10:13.753Z</time></trkpt><trkpt lat="41.3205395" lon="14.0439438"><ele>273.0</ele><time>2026-05-02T13:10:14.749Z</time></trkpt><trkpt lat="41.3204555" lon="14.0438445"><ele>274.25</ele><time>2026-05-02T13:10:15.753Z</time></trkpt><trkpt lat="41.3203793" lon="14.0437325"><ele>275.5</ele><time>2026-05-02T13:10:16.752Z</time></trkpt><trkpt lat="41.3203068" lon="14.0436065"><ele>276.75</ele><time>2026-05-02T13:10:17.751Z</time></trkpt><trkpt lat="41.32024" lon="14.0434713"><ele>278.0</ele><time>2026-05-02T13:10:18.75Z</time></trkpt><trkpt lat="41.3201725" lon="14.0433337"><ele>281.75</ele><time>2026-05-02T13:10:19.752Z</time></trkpt><trkpt lat="41.3201017" lon="14.0432005"><ele>285.5</ele><time>2026-05-02T13:10:20.75Z</time></trkpt><trkpt lat="41.3200192" lon="14.0430787"><ele>289.25</ele><time>2026-05-02T13:10:21.75Z</time></trkpt><trkpt lat="41.3199325" lon="14.042959"><ele>293.0</ele><time>2026-05-02T13:10:22.75Z</time></trkpt><trkpt lat="41.3198538" lon="14.0428325"><ele>293.0</ele><time>2026-05-02T13:10:23.752Z</time></trkpt><trkpt lat="41.31979" lon="14.0426957"><ele>293.0</ele><time>2026-05-02T13:10:24.75Z</time></trkpt><trkpt lat="41.3197327" lon="14.0425557"><ele>293.0</ele><time>2026-05-02T13:10:25.75Z</time></trkpt><trkpt lat="41.31967" lon="14.0424207"><ele>293.0</ele><time>2026-05-02T13:10:26.749Z</time></trkpt><trkpt lat="41.3196003" lon="14.0422975"><ele>293.6666666666667</ele><time>2026-05-02T13:10:27.753Z</time></trkpt><trkpt lat="41.3195345" lon="14.0421978"><ele>294.33333333333337</ele><time>2026-05-02T13:10:28.752Z</time></trkpt><trkpt lat="41.3194785" lon="14.0421192"><ele>295.0</ele><time>2026-05-02T13:10:29.753Z</time></trkpt><trkpt lat="41.3194278" lon="14.0420533"><ele>295.6666666666667</ele><time>2026-05-02T13:10:30.754Z</time></trkpt><trkpt lat="41.3193775" lon="14.0419958"><ele>296.3333333333333</ele><time>2026-05-02T13:10:31.754Z</time></trkpt><trkpt lat="41.319325" lon="14.0419367"><ele>297.0</ele><time>2026-05-02T13:10:32.751Z</time></trkpt><trkpt lat="41.3192765" lon="14.041862"><ele>297.0</ele><time>2026-05-02T13:10:33.752Z</time></trkpt><trkpt lat="41.3192273" lon="14.0417815"><ele>297.0</ele><time>2026-05-02T13:10:34.753Z</time></trkpt><trkpt lat="41.3191728" lon="14.0416975"><ele>297.0</ele><time>2026-05-02T13:10:35.748Z</time></trkpt><trkpt lat="41.3191222" lon="14.0416177"><ele>297.0</ele><time>2026-05-02T13:10:36.749Z</time></trkpt><trkpt lat="41.319078" lon="14.0415408"><ele>297.0</ele><time>2026-05-02T13:10:37.753Z</time></trkpt><trkpt lat="41.3190343" lon="14.0414672"><ele>297.0</ele><time>2026-05-02T13:10:38.752Z</time></trkpt><trkpt lat="41.3189902" lon="14.0413972"><ele>297.6666666666667</ele><time>2026-05-02T13:10:39.753Z</time></trkpt><trkpt lat="41.318946" lon="14.041331"><ele>298.3333333333333</ele><time>2026-05-02T13:10:40.75Z</time></trkpt><trkpt lat="41.3189002" lon="14.0412677"><ele>299.0</ele><time>2026-05-02T13:10:41.748Z</time></trkpt><trkpt lat="41.3188208" lon="14.0411667"><ele>299.66666666666663</ele><time>2026-05-02T13:10:43.75Z</time></trkpt><trkpt lat="41.3187218" lon="14.0411518"><ele>300.3333333333333</ele><time>2026-05-02T13:10:45.753Z</time></trkpt><trkpt lat="41.31866" lon="14.0411785"><ele>301.0</ele><time>2026-05-02T13:10:46.752Z</time></trkpt><trkpt lat="41.318583" lon="14.0411995"><ele>302.0</ele><time>2026-05-02T13:10:47.75Z</time></trkpt><trkpt lat="41.318493" lon="14.041227"><ele>303.0</ele><time>2026-05-02T13:10:48.752Z</time></trkpt><trkpt lat="41.3183992" lon="14.0412462"><ele>304.0</ele><time>2026-05-02T13:10:49.752Z</time></trkpt><trkpt lat="41.3183007" lon="14.0412472"><ele>305.0</ele><time>2026-05-02T13:10:50.756Z</time></trkpt><trkpt lat="41.3181932" lon="14.0412413"><ele>306.0</ele><time>2026-05-02T13:10:51.751Z</time></trkpt><trkpt lat="41.3180722" lon="14.041251"><ele>307.5</ele><time>2026-05-02T13:10:52.751Z</time></trkpt><trkpt lat="41.317946" lon="14.0412755"><ele>309.0</ele><time>2026-05-02T13:10:53.752Z</time></trkpt><trkpt lat="41.3178082" lon="14.041319"><ele>310.5</ele><time>2026-05-02T13:10:54.754Z</time></trkpt><trkpt lat="41.3176648" lon="14.0413573"><ele>312.0</ele><time>2026-05-02T13:10:55.754Z</time></trkpt><trkpt lat="41.3175323" lon="14.0413963"><ele>312.0</ele><time>2026-05-02T13:10:56.759Z</time></trkpt><trkpt lat="41.3174192" lon="14.0414318"><ele>312.0</ele><time>2026-05-02T13:10:57.755Z</time></trkpt><trkpt lat="41.3173233" lon="14.041462"><ele>312.0</ele><time>2026-05-02T13:10:58.749Z</time></trkpt><trkpt lat="41.3172507" lon="14.041479"><ele>312.0</ele><time>2026-05-02T13:10:59.749Z</time></trkpt><trkpt lat="41.317175" lon="14.0415018"><ele>312.0</ele><time>2026-05-02T13:11:01.753Z</time></trkpt><trkpt lat="41.3171402" lon="14.0416208"><ele>312.0</ele><time>2026-05-02T13:11:05.753Z</time></trkpt><trkpt lat="41.317155" lon="14.0417193"><ele>312.0</ele><time>2026-05-02T13:11:06.752Z</time></trkpt><trkpt lat="41.3171785" lon="14.0418543"><ele>312.0</ele><time>2026-05-02T13:11:07.754Z</time></trkpt><trkpt lat="41.3171988" lon="14.042005"><ele>312.0</ele><time>2026-05-02T13:11:08.749Z</time></trkpt><trkpt lat="41.3172155" lon="14.0421632"><ele>312.0</ele><time>2026-05-02T13:11:09.75Z</time></trkpt><trkpt lat="41.3172305" lon="14.0423225"><ele>311.0</ele><time>2026-05-02T13:11:10.762Z</time></trkpt><trkpt lat="41.3172415" lon="14.0424582"><ele>310.0</ele><time>2026-05-02T13:11:11.754Z</time></trkpt><trkpt lat="41.3172502" lon="14.042564"><ele>309.0</ele><time>2026-05-02T13:11:12.752Z</time></trkpt><trkpt lat="41.3172533" lon="14.0427023"><ele>308.0</ele><time>2026-05-02T13:11:14.751Z</time></trkpt><trkpt lat="41.3171813" lon="14.04277"><ele>307.0</ele><time>2026-05-02T13:11:16.751Z</time></trkpt><trkpt lat="41.317114" lon="14.04279"><ele>306.0</ele><time>2026-05-02T13:11:17.751Z</time></trkpt><trkpt lat="41.317044" lon="14.0428257"><ele>305.6666666666667</ele><time>2026-05-02T13:11:18.752Z</time></trkpt><trkpt lat="41.3169743" lon="14.042878"><ele>305.3333333333333</ele><time>2026-05-02T13:11:19.751Z</time></trkpt><trkpt lat="41.316912" lon="14.0429437"><ele>305.0</ele><time>2026-05-02T13:11:20.748Z</time></trkpt><trkpt lat="41.3168462" lon="14.0429907"><ele>304.66666666666663</ele><time>2026-05-02T13:11:21.75Z</time></trkpt><trkpt lat="41.3167668" lon="14.043008"><ele>304.3333333333333</ele><time>2026-05-02T13:11:22.754Z</time></trkpt><trkpt lat="41.316679" lon="14.0430267"><ele>304.0</ele><time>2026-05-02T13:11:23.755Z</time></trkpt><trkpt lat="41.3165828" lon="14.0430483"><ele>304.0</ele><time>2026-05-02T13:11:24.754Z</time></trkpt><trkpt lat="41.3164812" lon="14.0430668"><ele>304.0</ele><time>2026-05-02T13:11:25.751Z</time></trkpt><trkpt lat="41.3163812" lon="14.043084"><ele>304.0</ele><time>2026-05-02T13:11:26.754Z</time></trkpt><trkpt lat="41.3162887" lon="14.043108"><ele>304.0</ele><time>2026-05-02T13:11:27.754Z</time></trkpt><trkpt lat="41.3162085" lon="14.0431367"><ele>304.0</ele><time>2026-05-02T13:11:28.753Z</time></trkpt><trkpt lat="41.3161385" lon="14.0431517"><ele>302.2</ele><time>2026-05-02T13:11:29.751Z</time></trkpt><trkpt lat="41.3160337" lon="14.0431652"><ele>300.4</ele><time>2026-05-02T13:11:31.753Z</time></trkpt><trkpt lat="41.3159667" lon="14.043113"><ele>298.6</ele><time>2026-05-02T13:11:34.75Z</time></trkpt><trkpt lat="41.3160297" lon="14.0429967"><ele>296.8</ele><time>2026-05-02T13:11:37.749Z</time></trkpt><trkpt lat="41.3161098" lon="14.0428743"><ele>295.0</ele><time>2026-05-02T13:11:39.749Z</time></trkpt><trkpt lat="41.3162047" lon="14.0427748"><ele>295.0</ele><time>2026-05-02T13:11:41.753Z</time></trkpt><trkpt lat="41.3162815" lon="14.0426648"><ele>295.0</ele><time>2026-05-02T13:11:43.75Z</time></trkpt><trkpt lat="41.316273" lon="14.04256"><ele>295.0</ele><time>2026-05-02T13:11:45.75Z</time></trkpt><trkpt lat="41.316185" lon="14.0425067"><ele>295.0</ele><time>2026-05-02T13:11:47.75Z</time></trkpt><trkpt lat="41.3161263" lon="14.0424183"><ele>295.0</ele><time>2026-05-02T13:11:49.752Z</time></trkpt><trkpt lat="41.3161068" lon="14.0422848"><ele>296.4</ele><time>2026-05-02T13:11:51.75Z</time></trkpt><trkpt lat="41.3161125" lon="14.0421503"><ele>297.8</ele><time>2026-05-02T13:11:53.748Z</time></trkpt><trkpt lat="41.316145" lon="14.0420148"><ele>299.2</ele><time>2026-05-02T13:11:55.75Z</time></trkpt><trkpt lat="41.3161608" lon="14.041882"><ele>300.6</ele><time>2026-05-02T13:11:57.748Z</time></trkpt><trkpt lat="41.3161705" lon="14.0417528"><ele>302.0</ele><time>2026-05-02T13:11:59.75Z</time></trkpt><trkpt lat="41.31617" lon="14.041651"><ele>302.1666666666667</ele><time>2026-05-02T13:12:01.747Z</time></trkpt><trkpt lat="41.3161833" lon="14.0415652"><ele>302.33333333333337</ele><time>2026-05-02T13:12:03.749Z</time></trkpt><trkpt lat="41.3162133" lon="14.0414573"><ele>302.5</ele><time>2026-05-02T13:12:05.748Z</time></trkpt><trkpt lat="41.316247" lon="14.0413223"><ele>302.6666666666667</ele><time>2026-05-02T13:12:07.744Z</time></trkpt><trkpt lat="41.3162635" lon="14.0412408"><ele>302.8333333333333</ele><time>2026-05-02T13:12:08.745Z</time></trkpt><trkpt lat="41.3162995" lon="14.0411082"><ele>303.0</ele><time>2026-05-02T13:12:10.751Z</time></trkpt><trkpt lat="41.3163307" lon="14.0409898"><ele>303.0</ele><time>2026-05-02T13:12:12.751Z</time></trkpt><trkpt lat="41.3163658" lon="14.0408797"><ele>303.0</ele><time>2026-05-02T13:12:14.753Z</time></trkpt><trkpt lat="41.3163017" lon="14.0409198"><ele>303.0</ele><time>2026-05-02T13:12:19.753Z</time></trkpt><trkpt lat="41.3162803" lon="14.0410383"><ele>303.0</ele><time>2026-05-02T13:12:21.754Z</time></trkpt><trkpt lat="41.3162525" lon="14.0411608"><ele>303.0</ele><time>2026-05-02T13:12:23.753Z</time></trkpt><trkpt lat="41.3162207" lon="14.041285"><ele>303.0</ele><time>2026-05-02T13:12:25.747Z</time></trkpt><trkpt lat="41.3161972" lon="14.0414032"><ele>303.0</ele><time>2026-05-02T13:12:27.75Z</time></trkpt><trkpt lat="41.3161625" lon="14.0415123"><ele>303.0</ele><time>2026-05-02T13:12:29.746Z</time></trkpt><trkpt lat="41.3161532" lon="14.0416387"><ele>303.0</ele><time>2026-05-02T13:12:31.753Z</time></trkpt><trkpt lat="41.3161423" lon="14.041765"><ele>303.0</ele><time>2026-05-02T13:12:33.75Z</time></trkpt><trkpt lat="41.3161298" lon="14.0418875"><ele>303.0</ele><time>2026-05-02T13:12:35.75Z</time></trkpt><trkpt lat="41.3161173" lon="14.0419863"><ele>303.0</ele><time>2026-05-02T13:12:37.752Z</time></trkpt><trkpt lat="41.3161138" lon="14.0420775"><ele>302.8333333333333</ele><time>2026-05-02T13:12:39.751Z</time></trkpt><trkpt lat="41.3161237" lon="14.042178"><ele>302.6666666666667</ele><time>2026-05-02T13:12:41.75Z</time></trkpt><trkpt lat="41.3161132" lon="14.0422828"><ele>302.5</ele><time>2026-05-02T13:12:44.748Z</time></trkpt><trkpt lat="41.3161238" lon="14.0423727"><ele>302.33333333333337</ele><time>2026-05-02T13:12:46.754Z</time></trkpt><trkpt lat="41.3161835" lon="14.0424302"><ele>302.1666666666667</ele><time>2026-05-02T13:12:48.752Z</time></trkpt><trkpt lat="41.3162568" lon="14.0424788"><ele>302.0</ele><time>2026-05-02T13:12:51.754Z</time></trkpt><trkpt lat="41.3162497" lon="14.0425735"><ele>300.83333333333337</ele><time>2026-05-02T13:12:54.75Z</time></trkpt><trkpt lat="41.3161933" lon="14.0426762"><ele>299.6666666666667</ele><time>2026-05-02T13:12:58.747Z</time></trkpt><trkpt lat="41.3161368" lon="14.0427155"><ele>298.5</ele><time>2026-05-02T13:13:04.749Z</time></trkpt><trkpt lat="41.3160672" lon="14.0428072"><ele>297.3333333333333</ele><time>2026-05-02T13:13:08.748Z</time></trkpt><trkpt lat="41.3160172" lon="14.0428863"><ele>296.16666666666663</ele><time>2026-05-02T13:13:10.747Z</time></trkpt><trkpt lat="41.3159528" lon="14.0429662"><ele>295.0</ele><time>2026-05-02T13:13:13.747Z</time></trkpt><trkpt lat="41.3159562" lon="14.0430615"><ele>295.0</ele><time>2026-05-02T13:13:16.749Z</time></trkpt><trkpt lat="41.3158787" lon="14.0430553"><ele>295.0</ele><time>2026-05-02T13:13:22.748Z</time></trkpt><trkpt lat="41.3158372" lon="14.042974"><ele>295.0</ele><time>2026-05-02T13:13:25.749Z</time></trkpt><trkpt lat="41.3157678" lon="14.0430138"><ele>295.0</ele><time>2026-05-02T13:13:29.752Z</time></trkpt><trkpt lat="41.3156992" lon="14.0430877"><ele>295.0</ele><time>2026-05-02T13:13:31.752Z</time></trkpt><trkpt lat="41.3156165" lon="14.0431783"><ele>295.0</ele><time>2026-05-02T13:13:33.754Z</time></trkpt><trkpt lat="41.3155313" lon="14.0432748"><ele>292.2</ele><time>2026-05-02T13:13:35.753Z</time></trkpt><trkpt lat="41.3154227" lon="14.0433325"><ele>289.4</ele><time>2026-05-02T13:13:37.756Z</time></trkpt><trkpt lat="41.3153392" lon="14.0433488"><ele>286.6</ele><time>2026-05-02T13:13:39.754Z</time></trkpt><trkpt lat="41.3152893" lon="14.0432762"><ele>283.8</ele><time>2026-05-02T13:13:42.754Z</time></trkpt><trkpt lat="41.3153127" lon="14.0431595"><ele>281.0</ele><time>2026-05-02T13:13:44.751Z</time></trkpt><trkpt lat="41.3153582" lon="14.042995"><ele>280.7142857142857</ele><time>2026-05-02T13:13:46.755Z</time></trkpt><trkpt lat="41.31538" lon="14.0429135"><ele>280.42857142857144</ele><time>2026-05-02T13:13:47.758Z</time></trkpt><trkpt lat="41.3154013" lon="14.0428295"><ele>280.1428571428571</ele><time>2026-05-02T13:13:48.753Z</time></trkpt><trkpt lat="41.3154208" lon="14.0427427"><ele>279.8571428571429</ele><time>2026-05-02T13:13:49.751Z</time></trkpt><trkpt lat="41.3154363" lon="14.0426503"><ele>279.57142857142856</ele><time>2026-05-02T13:13:50.754Z</time></trkpt><trkpt lat="41.3154472" lon="14.0425483"><ele>279.2857142857143</ele><time>2026-05-02T13:13:51.755Z</time></trkpt><trkpt lat="41.3154578" lon="14.0424387"><ele>279.0</ele><time>2026-05-02T13:13:52.755Z</time></trkpt><trkpt lat="41.3154662" lon="14.0423253"><ele>280.2</ele><time>2026-05-02T13:13:53.752Z</time></trkpt><trkpt lat="41.3154762" lon="14.0422097"><ele>281.4</ele><time>2026-05-02T13:13:54.75Z</time></trkpt><trkpt lat="41.3154882" lon="14.0420908"><ele>282.6</ele><time>2026-05-02T13:13:55.753Z</time></trkpt><trkpt lat="41.3155002" lon="14.0419698"><ele>283.8</ele><time>2026-05-02T13:13:56.75Z</time></trkpt><trkpt lat="41.3155132" lon="14.0418467"><ele>285.0</ele><time>2026-05-02T13:13:57.751Z</time></trkpt><trkpt lat="41.315525" lon="14.0417198"><ele>285.0</ele><time>2026-05-02T13:13:58.749Z</time></trkpt><trkpt lat="41.3155355" lon="14.0415892"><ele>285.0</ele><time>2026-05-02T13:13:59.752Z</time></trkpt><trkpt lat="41.3155467" lon="14.0414537"><ele>285.0</ele><time>2026-05-02T13:14:00.751Z</time></trkpt><trkpt lat="41.315557" lon="14.0413163"><ele>285.0</ele><time>2026-05-02T13:14:01.754Z</time></trkpt><trkpt lat="41.3155628" lon="14.041177"><ele>285.0</ele><time>2026-05-02T13:14:02.753Z</time></trkpt><trkpt lat="41.3155575" lon="14.0410337"><ele>285.0</ele><time>2026-05-02T13:14:03.751Z</time></trkpt><trkpt lat="41.3155368" lon="14.0408948"><ele>285.0</ele><time>2026-05-02T13:14:04.755Z</time></trkpt><trkpt lat="41.3155028" lon="14.0407655"><ele>285.0</ele><time>2026-05-02T13:14:05.754Z</time></trkpt><trkpt lat="41.315463" lon="14.0406417"><ele>285.0</ele><time>2026-05-02T13:14:06.757Z</time></trkpt><trkpt lat="41.3154222" lon="14.0405242"><ele>285.0</ele><time>2026-05-02T13:14:07.754Z</time></trkpt><trkpt lat="41.3153772" lon="14.0404137"><ele>286.5</ele><time>2026-05-02T13:14:08.753Z</time></trkpt><trkpt lat="41.3153313" lon="14.0403075"><ele>288.0</ele><time>2026-05-02T13:14:09.753Z</time></trkpt><trkpt lat="41.315289" lon="14.0402025"><ele>289.5</ele><time>2026-05-02T13:14:10.755Z</time></trkpt><trkpt lat="41.3152477" lon="14.0401"><ele>291.0</ele><time>2026-05-02T13:14:11.753Z</time></trkpt><trkpt lat="41.3152118" lon="14.0399998"><ele>292.5</ele><time>2026-05-02T13:14:12.749Z</time></trkpt><trkpt lat="41.3151755" lon="14.0399"><ele>294.0</ele><time>2026-05-02T13:14:13.751Z</time></trkpt><trkpt lat="41.3151423" lon="14.0398013"><ele>296.3333333333333</ele><time>2026-05-02T13:14:14.755Z</time></trkpt><trkpt lat="41.3151073" lon="14.0397028"><ele>298.6666666666667</ele><time>2026-05-02T13:14:15.753Z</time></trkpt><trkpt lat="41.3150705" lon="14.0396055"><ele>301.0</ele><time>2026-05-02T13:14:16.755Z</time></trkpt><trkpt lat="41.3150382" lon="14.0395078"><ele>303.33333333333337</ele><time>2026-05-02T13:14:17.751Z</time></trkpt><trkpt lat="41.315005" lon="14.0394117"><ele>305.6666666666667</ele><time>2026-05-02T13:14:18.751Z</time></trkpt><trkpt lat="41.3149732" lon="14.0393152"><ele>308.0</ele><time>2026-05-02T13:14:19.751Z</time></trkpt><trkpt lat="41.3149362" lon="14.039217"><ele>310.0</ele><time>2026-05-02T13:14:20.749Z</time></trkpt><trkpt lat="41.3148955" lon="14.0391167"><ele>312.0</ele><time>2026-05-02T13:14:21.751Z</time></trkpt><trkpt lat="41.3148558" lon="14.0390143"><ele>314.0</ele><time>2026-05-02T13:14:22.751Z</time></trkpt><trkpt lat="41.3148173" lon="14.0389115"><ele>316.0</ele><time>2026-05-02T13:14:23.75Z</time></trkpt><trkpt lat="41.3147798" lon="14.038807"><ele>318.0</ele><time>2026-05-02T13:14:24.754Z</time></trkpt><trkpt lat="41.3147398" lon="14.0386947"><ele>320.0</ele><time>2026-05-02T13:14:25.75Z</time></trkpt><trkpt lat="41.3146997" lon="14.0385665"><ele>315.25</ele><time>2026-05-02T13:14:26.752Z</time></trkpt><trkpt lat="41.3146645" lon="14.0384165"><ele>310.5</ele><time>2026-05-02T13:14:27.754Z</time></trkpt><trkpt lat="41.3146433" lon="14.0382563"><ele>305.75</ele><time>2026-05-02T13:14:28.755Z</time></trkpt><trkpt lat="41.3146475" lon="14.0380905"><ele>301.0</ele><time>2026-05-02T13:14:29.756Z</time></trkpt><trkpt lat="41.314684" lon="14.0379278"><ele>305.5</ele><time>2026-05-02T13:14:30.753Z</time></trkpt><trkpt lat="41.3147535" lon="14.0377718"><ele>310.0</ele><time>2026-05-02T13:14:31.751Z</time></trkpt><trkpt lat="41.3148495" lon="14.0376243"><ele>314.5</ele><time>2026-05-02T13:14:32.755Z</time></trkpt><trkpt lat="41.3149522" lon="14.037484"><ele>319.0</ele><time>2026-05-02T13:14:33.755Z</time></trkpt><trkpt lat="41.3150535" lon="14.0373637"><ele>319.4</ele><time>2026-05-02T13:14:34.755Z</time></trkpt><trkpt lat="41.315145" lon="14.0372635"><ele>319.79999999999995</ele><time>2026-05-02T13:14:35.753Z</time></trkpt><trkpt lat="41.315225" lon="14.0371825"><ele>320.20000000000005</ele><time>2026-05-02T13:14:36.754Z</time></trkpt><trkpt lat="41.3152965" lon="14.0371098"><ele>320.6</ele><time>2026-05-02T13:14:37.755Z</time></trkpt><trkpt lat="41.3153643" lon="14.0370427"><ele>321.0</ele><time>2026-05-02T13:14:38.755Z</time></trkpt><trkpt lat="41.3154267" lon="14.0369742"><ele>321.0</ele><time>2026-05-02T13:14:39.757Z</time></trkpt><trkpt lat="41.3154643" lon="14.0368877"><ele>321.0</ele><time>2026-05-02T13:14:40.754Z</time></trkpt><trkpt lat="41.3154685" lon="14.0367882"><ele>321.0</ele><time>2026-05-02T13:14:41.753Z</time></trkpt><trkpt lat="41.3154382" lon="14.0366823"><ele>321.0</ele><time>2026-05-02T13:14:42.754Z</time></trkpt><trkpt lat="41.3153877" lon="14.0365687"><ele>321.0</ele><time>2026-05-02T13:14:43.754Z</time></trkpt><trkpt lat="41.3153313" lon="14.0364412"><ele>321.0</ele><time>2026-05-02T13:14:44.754Z</time></trkpt><trkpt lat="41.3152702" lon="14.0362985"><ele>322.5</ele><time>2026-05-02T13:14:45.747Z</time></trkpt><trkpt lat="41.3152052" lon="14.0361467"><ele>324.0</ele><time>2026-05-02T13:14:46.748Z</time></trkpt><trkpt lat="41.3151337" lon="14.0359892"><ele>325.5</ele><time>2026-05-02T13:14:47.749Z</time></trkpt><trkpt lat="41.3150597" lon="14.0358248"><ele>327.0</ele><time>2026-05-02T13:14:48.749Z</time></trkpt><trkpt lat="41.3149878" lon="14.0356573"><ele>329.0</ele><time>2026-05-02T13:14:49.754Z</time></trkpt><trkpt lat="41.3149168" lon="14.0354855"><ele>331.0</ele><time>2026-05-02T13:14:50.753Z</time></trkpt><trkpt lat="41.3148458" lon="14.0353098"><ele>333.0</ele><time>2026-05-02T13:14:51.752Z</time></trkpt><trkpt lat="41.3147737" lon="14.0351343"><ele>335.0</ele><time>2026-05-02T13:14:52.752Z</time></trkpt><trkpt lat="41.3147098" lon="14.03497"><ele>336.0</ele><time>2026-05-02T13:14:53.755Z</time></trkpt><trkpt lat="41.314654" lon="14.0348272"><ele>337.0</ele><time>2026-05-02T13:14:54.754Z</time></trkpt><trkpt lat="41.3146122" lon="14.0346922"><ele>338.0</ele><time>2026-05-02T13:14:55.756Z</time></trkpt><trkpt lat="41.3145885" lon="14.0345637"><ele>339.0</ele><time>2026-05-02T13:14:56.752Z</time></trkpt><trkpt lat="41.3145663" lon="14.034458"><ele>340.0</ele><time>2026-05-02T13:14:57.75Z</time></trkpt><trkpt lat="41.314514" lon="14.0343248"><ele>340.0</ele><time>2026-05-02T13:14:59.751Z</time></trkpt><trkpt lat="41.314461" lon="14.0342643"><ele>340.0</ele><time>2026-05-02T13:15:00.751Z</time></trkpt><trkpt lat="41.3143777" lon="14.0341925"><ele>340.0</ele><time>2026-05-02T13:15:01.754Z</time></trkpt><trkpt lat="41.3142797" lon="14.0341012"><ele>340.0</ele><time>2026-05-02T13:15:02.753Z</time></trkpt><trkpt lat="41.314183" lon="14.0339955"><ele>340.0</ele><time>2026-05-02T13:15:03.756Z</time></trkpt><trkpt lat="41.3140797" lon="14.0338775"><ele>342.5</ele><time>2026-05-02T13:15:04.755Z</time></trkpt><trkpt lat="41.3139782" lon="14.0337555"><ele>345.0</ele><time>2026-05-02T13:15:05.752Z</time></trkpt><trkpt lat="41.3138847" lon="14.0336257"><ele>347.5</ele><time>2026-05-02T13:15:06.753Z</time></trkpt><trkpt lat="41.3138028" lon="14.0334977"><ele>350.0</ele><time>2026-05-02T13:15:07.752Z</time></trkpt><trkpt lat="41.3137228" lon="14.0333888"><ele>350.0</ele><time>2026-05-02T13:15:08.754Z</time></trkpt><trkpt lat="41.3136202" lon="14.0333233"><ele>350.0</ele><time>2026-05-02T13:15:09.752Z</time></trkpt><trkpt lat="41.3135105" lon="14.0332843"><ele>350.0</ele><time>2026-05-02T13:15:10.748Z</time></trkpt><trkpt lat="41.3134045" lon="14.0332285"><ele>350.0</ele><time>2026-05-02T13:15:11.75Z</time></trkpt><trkpt lat="41.3133068" lon="14.0331345"><ele>348.25</ele><time>2026-05-02T13:15:12.753Z</time></trkpt><trkpt lat="41.3132113" lon="14.0330182"><ele>346.5</ele><time>2026-05-02T13:15:13.751Z</time></trkpt><trkpt lat="41.3131128" lon="14.0328927"><ele>344.75</ele><time>2026-05-02T13:15:14.751Z</time></trkpt><trkpt lat="41.3130128" lon="14.0327572"><ele>343.0</ele><time>2026-05-02T13:15:15.753Z</time></trkpt><trkpt lat="41.3129117" lon="14.0326205"><ele>343.0</ele><time>2026-05-02T13:15:16.753Z</time></trkpt><trkpt lat="41.3128127" lon="14.0324792"><ele>343.0</ele><time>2026-05-02T13:15:17.751Z</time></trkpt><trkpt lat="41.3127287" lon="14.032328"><ele>343.0</ele><time>2026-05-02T13:15:18.75Z</time></trkpt><trkpt lat="41.312671" lon="14.0321697"><ele>343.0</ele><time>2026-05-02T13:15:19.753Z</time></trkpt><trkpt lat="41.3126402" lon="14.0319938"><ele>347.25</ele><time>2026-05-02T13:15:20.751Z</time></trkpt><trkpt lat="41.3126098" lon="14.031815"><ele>351.5</ele><time>2026-05-02T13:15:21.75Z</time></trkpt><trkpt lat="41.3125658" lon="14.0316442"><ele>355.75</ele><time>2026-05-02T13:15:22.751Z</time></trkpt><trkpt lat="41.3125045" lon="14.0314962"><ele>360.0</ele><time>2026-05-02T13:15:23.749Z</time></trkpt><trkpt lat="41.312435" lon="14.0313743"><ele>359.5</ele><time>2026-05-02T13:15:24.749Z</time></trkpt><trkpt lat="41.3123628" lon="14.0312858"><ele>359.0</ele><time>2026-05-02T13:15:25.748Z</time></trkpt><trkpt lat="41.3122932" lon="14.0312152"><ele>358.5</ele><time>2026-05-02T13:15:26.748Z</time></trkpt><trkpt lat="41.3122213" lon="14.0311543"><ele>358.0</ele><time>2026-05-02T13:15:27.752Z</time></trkpt><trkpt lat="41.3121512" lon="14.031094"><ele>357.5</ele><time>2026-05-02T13:15:28.751Z</time></trkpt><trkpt lat="41.31208" lon="14.031034"><ele>357.0</ele><time>2026-05-02T13:15:29.75Z</time></trkpt><trkpt lat="41.3120097" lon="14.0309675"><ele>357.0</ele><time>2026-05-02T13:15:30.75Z</time></trkpt><trkpt lat="41.3119358" lon="14.0308952"><ele>357.0</ele><time>2026-05-02T13:15:31.75Z</time></trkpt><trkpt lat="41.3118562" lon="14.0308127"><ele>357.0</ele><time>2026-05-02T13:15:32.75Z</time></trkpt><trkpt lat="41.311766" lon="14.0307275"><ele>357.0</ele><time>2026-05-02T13:15:33.751Z</time></trkpt><trkpt lat="41.3116672" lon="14.0306413"><ele>357.0</ele><time>2026-05-02T13:15:34.749Z</time></trkpt><trkpt lat="41.3115688" lon="14.0305385"><ele>357.0</ele><time>2026-05-02T13:15:35.748Z</time></trkpt><trkpt lat="41.3114763" lon="14.0304142"><ele>357.0</ele><time>2026-05-02T13:15:36.747Z</time></trkpt><trkpt lat="41.3113975" lon="14.0302762"><ele>357.0</ele><time>2026-05-02T13:15:37.746Z</time></trkpt><trkpt lat="41.3113417" lon="14.0301153"><ele>357.0</ele><time>2026-05-02T13:15:38.749Z</time></trkpt><trkpt lat="41.3113015" lon="14.0299388"><ele>357.0</ele><time>2026-05-02T13:15:39.75Z</time></trkpt><trkpt lat="41.3112847" lon="14.0297593"><ele>357.0</ele><time>2026-05-02T13:15:40.749Z</time></trkpt><trkpt lat="41.311272" lon="14.029571"><ele>357.0</ele><time>2026-05-02T13:15:41.751Z</time></trkpt><trkpt lat="41.3112523" lon="14.0293903"><ele>357.0</ele><time>2026-05-02T13:15:42.75Z</time></trkpt><trkpt lat="41.3112518" lon="14.0291978"><ele>357.5</ele><time>2026-05-02T13:15:43.749Z</time></trkpt><trkpt lat="41.3112582" lon="14.02901"><ele>358.0</ele><time>2026-05-02T13:15:44.749Z</time></trkpt><trkpt lat="41.3112705" lon="14.0288465"><ele>358.5</ele><time>2026-05-02T13:15:45.751Z</time></trkpt><trkpt lat="41.311307" lon="14.0287052"><ele>359.0</ele><time>2026-05-02T13:15:46.75Z</time></trkpt><trkpt lat="41.311373" lon="14.0285817"><ele>362.0</ele><time>2026-05-02T13:15:47.748Z</time></trkpt><trkpt lat="41.3114823" lon="14.0284828"><ele>365.0</ele><time>2026-05-02T13:15:48.749Z</time></trkpt><trkpt lat="41.3115958" lon="14.028401"><ele>368.0</ele><time>2026-05-02T13:15:49.75Z</time></trkpt><trkpt lat="41.3117102" lon="14.0283218"><ele>371.0</ele><time>2026-05-02T13:15:50.751Z</time></trkpt><trkpt lat="41.3118388" lon="14.0282698"><ele>371.0</ele><time>2026-05-02T13:15:51.753Z</time></trkpt><trkpt lat="41.3119757" lon="14.0282277"><ele>371.0</ele><time>2026-05-02T13:15:52.751Z</time></trkpt><trkpt lat="41.3121132" lon="14.0281822"><ele>371.0</ele><time>2026-05-02T13:15:53.755Z</time></trkpt><trkpt lat="41.3122483" lon="14.0281263"><ele>371.0</ele><time>2026-05-02T13:15:54.754Z</time></trkpt><trkpt lat="41.3123762" lon="14.028052"><ele>374.75</ele><time>2026-05-02T13:15:55.752Z</time></trkpt><trkpt lat="41.3124915" lon="14.0279548"><ele>378.5</ele><time>2026-05-02T13:15:56.75Z</time></trkpt><trkpt lat="41.3125785" lon="14.027828"><ele>382.25</ele><time>2026-05-02T13:15:57.749Z</time></trkpt><trkpt lat="41.3126542" lon="14.0276982"><ele>386.0</ele><time>2026-05-02T13:15:58.75Z</time></trkpt><trkpt lat="41.312724" lon="14.027589"><ele>385.99999999999994</ele><time>2026-05-02T13:15:59.751Z</time></trkpt><trkpt lat="41.3127877" lon="14.0275048"><ele>386.0</ele><time>2026-05-02T13:16:00.752Z</time></trkpt><trkpt lat="41.3128517" lon="14.0274433"><ele>386.0</ele><time>2026-05-02T13:16:01.751Z</time></trkpt><trkpt lat="41.312923" lon="14.0273947"><ele>386.0</ele><time>2026-05-02T13:16:02.751Z</time></trkpt><trkpt lat="41.3130008" lon="14.0273522"><ele>385.99999999999994</ele><time>2026-05-02T13:16:03.754Z</time></trkpt><trkpt lat="41.313084" lon="14.0273135"><ele>386.0</ele><time>2026-05-02T13:16:04.755Z</time></trkpt><trkpt lat="41.313164" lon="14.0272547"><ele>387.4</ele><time>2026-05-02T13:16:05.754Z</time></trkpt><trkpt lat="41.313221" lon="14.0271633"><ele>388.8</ele><time>2026-05-02T13:16:06.754Z</time></trkpt><trkpt lat="41.3132425" lon="14.0270463"><ele>390.2</ele><time>2026-05-02T13:16:07.75Z</time></trkpt><trkpt lat="41.3132377" lon="14.0269013"><ele>391.59999999999997</ele><time>2026-05-02T13:16:08.753Z</time></trkpt><trkpt lat="41.313224" lon="14.0267308"><ele>393.0</ele><time>2026-05-02T13:16:09.752Z</time></trkpt><trkpt lat="41.3132083" lon="14.0265397"><ele>395.0</ele><time>2026-05-02T13:16:10.753Z</time></trkpt><trkpt lat="41.3131982" lon="14.0263372"><ele>397.0</ele><time>2026-05-02T13:16:11.753Z</time></trkpt><trkpt lat="41.3131918" lon="14.0261363"><ele>399.0</ele><time>2026-05-02T13:16:12.753Z</time></trkpt><trkpt lat="41.3131822" lon="14.0259382"><ele>399.5</ele><time>2026-05-02T13:16:13.755Z</time></trkpt><trkpt lat="41.313171" lon="14.025739"><ele>400.0</ele><time>2026-05-02T13:16:14.754Z</time></trkpt><trkpt lat="41.3131582" lon="14.0255392"><ele>400.5</ele><time>2026-05-02T13:16:15.753Z</time></trkpt><trkpt lat="41.3131433" lon="14.0253548"><ele>401.0</ele><time>2026-05-02T13:16:16.751Z</time></trkpt><trkpt lat="41.3131242" lon="14.0251758"><ele>401.0</ele><time>2026-05-02T13:16:17.751Z</time></trkpt><trkpt lat="41.3131" lon="14.0250013"><ele>401.0</ele><time>2026-05-02T13:16:18.752Z</time></trkpt><trkpt lat="41.3130783" lon="14.0248285"><ele>401.0</ele><time>2026-05-02T13:16:19.755Z</time></trkpt><trkpt lat="41.3130587" lon="14.024658"><ele>401.0</ele><time>2026-05-02T13:16:20.755Z</time></trkpt><trkpt lat="41.3130435" lon="14.0244915"><ele>406.25</ele><time>2026-05-02T13:16:21.753Z</time></trkpt><trkpt lat="41.3130355" lon="14.0243305"><ele>411.5</ele><time>2026-05-02T13:16:22.751Z</time></trkpt><trkpt lat="41.3129978" lon="14.0241702"><ele>416.75</ele><time>2026-05-02T13:16:23.751Z</time></trkpt><trkpt lat="41.3129422" lon="14.0240187"><ele>422.0</ele><time>2026-05-02T13:16:24.751Z</time></trkpt><trkpt lat="41.3128567" lon="14.0238877"><ele>422.0</ele><time>2026-05-02T13:16:25.75Z</time></trkpt><trkpt lat="41.3127748" lon="14.023793"><ele>422.0</ele><time>2026-05-02T13:16:26.749Z</time></trkpt><trkpt lat="41.3126983" lon="14.0237152"><ele>422.0</ele><time>2026-05-02T13:16:27.75Z</time></trkpt><trkpt lat="41.3126257" lon="14.023621"><ele>422.0</ele><time>2026-05-02T13:16:28.753Z</time></trkpt><trkpt lat="41.3125722" lon="14.0234983"><ele>422.0</ele><time>2026-05-02T13:16:29.751Z</time></trkpt><trkpt lat="41.3125408" lon="14.0233443"><ele>421.75</ele><time>2026-05-02T13:16:30.752Z</time></trkpt><trkpt lat="41.3125132" lon="14.0231762"><ele>421.5</ele><time>2026-05-02T13:16:31.754Z</time></trkpt><trkpt lat="41.3124837" lon="14.0230025"><ele>421.25</ele><time>2026-05-02T13:16:32.754Z</time></trkpt><trkpt lat="41.3124553" lon="14.0228293"><ele>421.0</ele><time>2026-05-02T13:16:33.754Z</time></trkpt><trkpt lat="41.3124215" lon="14.0226667"><ele>421.0</ele><time>2026-05-02T13:16:34.752Z</time></trkpt><trkpt lat="41.3123787" lon="14.0225327"><ele>421.0</ele><time>2026-05-02T13:16:35.751Z</time></trkpt><trkpt lat="41.312304" lon="14.0224265"><ele>421.0</ele><time>2026-05-02T13:16:36.753Z</time></trkpt><trkpt lat="41.3122028" lon="14.0223333"><ele>421.0</ele><time>2026-05-02T13:16:37.754Z</time></trkpt><trkpt lat="41.3120893" lon="14.0222405"><ele>425.5</ele><time>2026-05-02T13:16:38.753Z</time></trkpt><trkpt lat="41.311968" lon="14.0221495"><ele>430.0</ele><time>2026-05-02T13:16:39.755Z</time></trkpt><trkpt lat="41.311839" lon="14.0220642"><ele>434.5</ele><time>2026-05-02T13:16:40.752Z</time></trkpt><trkpt lat="41.3117193" lon="14.021978"><ele>439.0</ele><time>2026-05-02T13:16:41.752Z</time></trkpt><trkpt lat="41.311604" lon="14.0218982"><ele>439.0</ele><time>2026-05-02T13:16:42.754Z</time></trkpt><trkpt lat="41.311492" lon="14.02182"><ele>439.0</ele><time>2026-05-02T13:16:43.755Z</time></trkpt><trkpt lat="41.3113873" lon="14.0217315"><ele>439.0</ele><time>2026-05-02T13:16:44.753Z</time></trkpt><trkpt lat="41.3112787" lon="14.0216413"><ele>439.0</ele><time>2026-05-02T13:16:45.754Z</time></trkpt><trkpt lat="41.311174" lon="14.0215417"><ele>441.5</ele><time>2026-05-02T13:16:46.749Z</time></trkpt><trkpt lat="41.3110743" lon="14.0214152"><ele>444.0</ele><time>2026-05-02T13:16:47.749Z</time></trkpt><trkpt lat="41.3109898" lon="14.0212753"><ele>446.5</ele><time>2026-05-02T13:16:48.748Z</time></trkpt><trkpt lat="41.310897" lon="14.0211407"><ele>449.0</ele><time>2026-05-02T13:16:49.751Z</time></trkpt><trkpt lat="41.3107845" lon="14.021026"><ele>449.0</ele><time>2026-05-02T13:16:50.751Z</time></trkpt><trkpt lat="41.3106632" lon="14.0209335"><ele>449.0</ele><time>2026-05-02T13:16:51.75Z</time></trkpt><trkpt lat="41.3105217" lon="14.0208667"><ele>449.0</ele><time>2026-05-02T13:16:52.755Z</time></trkpt><trkpt lat="41.3103838" lon="14.0208355"><ele>449.0</ele><time>2026-05-02T13:16:53.751Z</time></trkpt><trkpt lat="41.3102442" lon="14.0208082"><ele>453.75</ele><time>2026-05-02T13:16:54.751Z</time></trkpt><trkpt lat="41.3101085" lon="14.020786"><ele>458.5</ele><time>2026-05-02T13:16:55.752Z</time></trkpt><trkpt lat="41.3099773" lon="14.0207552"><ele>463.25</ele><time>2026-05-02T13:16:56.752Z</time></trkpt><trkpt lat="41.3098573" lon="14.0207017"><ele>468.0</ele><time>2026-05-02T13:16:57.75Z</time></trkpt><trkpt lat="41.309752" lon="14.0206188"><ele>463.0</ele><time>2026-05-02T13:16:58.753Z</time></trkpt><trkpt lat="41.3096553" lon="14.0205032"><ele>458.0</ele><time>2026-05-02T13:16:59.752Z</time></trkpt><trkpt lat="41.3095573" lon="14.0203888"><ele>453.0</ele><time>2026-05-02T13:17:00.753Z</time></trkpt><trkpt lat="41.3094728" lon="14.0202577"><ele>448.0</ele><time>2026-05-02T13:17:01.753Z</time></trkpt><trkpt lat="41.309407" lon="14.0201233"><ele>448.75</ele><time>2026-05-02T13:17:02.748Z</time></trkpt><trkpt lat="41.3093618" lon="14.0199765"><ele>449.5</ele><time>2026-05-02T13:17:03.75Z</time></trkpt><trkpt lat="41.3093385" lon="14.019818"><ele>450.25</ele><time>2026-05-02T13:17:04.75Z</time></trkpt><trkpt lat="41.3093242" lon="14.0196507"><ele>451.0</ele><time>2026-05-02T13:17:05.751Z</time></trkpt><trkpt lat="41.309325" lon="14.0194825"><ele>451.0</ele><time>2026-05-02T13:17:06.753Z</time></trkpt><trkpt lat="41.3093322" lon="14.019314"><ele>451.0</ele><time>2026-05-02T13:17:07.752Z</time></trkpt><trkpt lat="41.3093352" lon="14.0191387"><ele>451.0</ele><time>2026-05-02T13:17:08.751Z</time></trkpt><trkpt lat="41.3093413" lon="14.0189595"><ele>451.0</ele><time>2026-05-02T13:17:09.749Z</time></trkpt><trkpt lat="41.3093493" lon="14.0187827"><ele>452.25</ele><time>2026-05-02T13:17:10.749Z</time></trkpt><trkpt lat="41.3093547" lon="14.0186122"><ele>453.5</ele><time>2026-05-02T13:17:11.751Z</time></trkpt><trkpt lat="41.3093477" lon="14.0184628"><ele>454.75</ele><time>2026-05-02T13:17:12.749Z</time></trkpt><trkpt lat="41.3093017" lon="14.018325"><ele>456.0</ele><time>2026-05-02T13:17:13.75Z</time></trkpt><trkpt lat="41.3092397" lon="14.0181808"><ele>452.75</ele><time>2026-05-02T13:17:14.751Z</time></trkpt><trkpt lat="41.3091587" lon="14.0180357"><ele>449.5</ele><time>2026-05-02T13:17:15.747Z</time></trkpt><trkpt lat="41.3090735" lon="14.0178827"><ele>446.25</ele><time>2026-05-02T13:17:16.748Z</time></trkpt><trkpt lat="41.3089838" lon="14.017724"><ele>443.0</ele><time>2026-05-02T13:17:17.75Z</time></trkpt><trkpt lat="41.3088987" lon="14.0175595"><ele>445.75</ele><time>2026-05-02T13:17:18.75Z</time></trkpt><trkpt lat="41.3088207" lon="14.0173892"><ele>448.5</ele><time>2026-05-02T13:17:19.749Z</time></trkpt><trkpt lat="41.308743" lon="14.0172257"><ele>451.25</ele><time>2026-05-02T13:17:20.748Z</time></trkpt><trkpt lat="41.308674" lon="14.0170588"><ele>454.0</ele><time>2026-05-02T13:17:21.75Z</time></trkpt><trkpt lat="41.3086123" lon="14.0168908"><ele>454.0</ele><time>2026-05-02T13:17:22.75Z</time></trkpt><trkpt lat="41.308571" lon="14.0167078"><ele>454.0</ele><time>2026-05-02T13:17:23.749Z</time></trkpt><trkpt lat="41.308558" lon="14.0165435"><ele>454.0</ele><time>2026-05-02T13:17:24.75Z</time></trkpt><trkpt lat="41.3085782" lon="14.0163752"><ele>454.0</ele><time>2026-05-02T13:17:25.754Z</time></trkpt><trkpt lat="41.3086222" lon="14.016209"><ele>454.25</ele><time>2026-05-02T13:17:26.751Z</time></trkpt><trkpt lat="41.3086607" lon="14.0160297"><ele>454.5</ele><time>2026-05-02T13:17:27.751Z</time></trkpt><trkpt lat="41.3086977" lon="14.0158412"><ele>454.75</ele><time>2026-05-02T13:17:28.75Z</time></trkpt><trkpt lat="41.308739" lon="14.0156557"><ele>455.0</ele><time>2026-05-02T13:17:29.748Z</time></trkpt><trkpt lat="41.308781" lon="14.0154763"><ele>456.25</ele><time>2026-05-02T13:17:30.75Z</time></trkpt><trkpt lat="41.3088258" lon="14.0152922"><ele>457.5</ele><time>2026-05-02T13:17:31.751Z</time></trkpt><trkpt lat="41.3088552" lon="14.015108"><ele>458.75</ele><time>2026-05-02T13:17:32.75Z</time></trkpt><trkpt lat="41.3088693" lon="14.0149168"><ele>460.0</ele><time>2026-05-02T13:17:33.749Z</time></trkpt><trkpt lat="41.3088638" lon="14.0147278"><ele>463.0</ele><time>2026-05-02T13:17:34.747Z</time></trkpt><trkpt lat="41.3088268" lon="14.0145452"><ele>466.0</ele><time>2026-05-02T13:17:35.75Z</time></trkpt><trkpt lat="41.3087627" lon="14.0143733"><ele>469.0</ele><time>2026-05-02T13:17:36.747Z</time></trkpt><trkpt lat="41.3086833" lon="14.0142082"><ele>472.0</ele><time>2026-05-02T13:17:37.747Z</time></trkpt><trkpt lat="41.3086175" lon="14.0140417"><ele>476.0</ele><time>2026-05-02T13:17:38.748Z</time></trkpt><trkpt lat="41.3085793" lon="14.01386"><ele>480.0</ele><time>2026-05-02T13:17:39.749Z</time></trkpt><trkpt lat="41.308551" lon="14.0136737"><ele>484.0</ele><time>2026-05-02T13:17:40.75Z</time></trkpt><trkpt lat="41.3085163" lon="14.013492"><ele>488.0</ele><time>2026-05-02T13:17:41.752Z</time></trkpt><trkpt lat="41.3084465" lon="14.0133318"><ele>490.25</ele><time>2026-05-02T13:17:42.753Z</time></trkpt><trkpt lat="41.3083493" lon="14.0131947"><ele>492.5</ele><time>2026-05-02T13:17:43.753Z</time></trkpt><trkpt lat="41.3082468" lon="14.0130607"><ele>494.75</ele><time>2026-05-02T13:17:44.75Z</time></trkpt><trkpt lat="41.3081528" lon="14.0129172"><ele>497.0</ele><time>2026-05-02T13:17:45.751Z</time></trkpt><trkpt lat="41.308053" lon="14.0127868"><ele>497.0</ele><time>2026-05-02T13:17:46.75Z</time></trkpt><trkpt lat="41.3079425" lon="14.0126722"><ele>497.0</ele><time>2026-05-02T13:17:47.749Z</time></trkpt><trkpt lat="41.3078215" lon="14.0125625"><ele>497.0</ele><time>2026-05-02T13:17:48.748Z</time></trkpt><trkpt lat="41.3077053" lon="14.0124542"><ele>497.0</ele><time>2026-05-02T13:17:49.751Z</time></trkpt><trkpt lat="41.3076072" lon="14.0123232"><ele>502.25</ele><time>2026-05-02T13:17:50.752Z</time></trkpt><trkpt lat="41.3075138" lon="14.0121935"><ele>507.5</ele><time>2026-05-02T13:17:51.75Z</time></trkpt><trkpt lat="41.3074078" lon="14.0120792"><ele>512.75</ele><time>2026-05-02T13:17:52.751Z</time></trkpt><trkpt lat="41.3073038" lon="14.0120078"><ele>518.0</ele><time>2026-05-02T13:17:53.748Z</time></trkpt><trkpt lat="41.3072022" lon="14.0119955"><ele>519.0</ele><time>2026-05-02T13:17:54.75Z</time></trkpt><trkpt lat="41.3071112" lon="14.0120268"><ele>520.0</ele><time>2026-05-02T13:17:55.751Z</time></trkpt><trkpt lat="41.3070623" lon="14.0121135"><ele>521.0</ele><time>2026-05-02T13:17:56.75Z</time></trkpt><trkpt lat="41.307029" lon="14.0122435"><ele>522.0</ele><time>2026-05-02T13:17:57.748Z</time></trkpt><trkpt lat="41.3069947" lon="14.0123963"><ele>523.0</ele><time>2026-05-02T13:17:58.748Z</time></trkpt><trkpt lat="41.3069583" lon="14.0125678"><ele>520.25</ele><time>2026-05-02T13:17:59.75Z</time></trkpt><trkpt lat="41.3069245" lon="14.0127362"><ele>517.5</ele><time>2026-05-02T13:18:00.75Z</time></trkpt><trkpt lat="41.3069135" lon="14.012904"><ele>514.75</ele><time>2026-05-02T13:18:01.748Z</time></trkpt><trkpt lat="41.3069263" lon="14.013066"><ele>512.0</ele><time>2026-05-02T13:18:02.747Z</time></trkpt><trkpt lat="41.3069717" lon="14.013229"><ele>511.0</ele><time>2026-05-02T13:18:03.747Z</time></trkpt><trkpt lat="41.3070172" lon="14.0133875"><ele>510.0</ele><time>2026-05-02T13:18:04.75Z</time></trkpt><trkpt lat="41.3070533" lon="14.0135557"><ele>509.0</ele><time>2026-05-02T13:18:05.755Z</time></trkpt><trkpt lat="41.3070612" lon="14.0137323"><ele>508.0</ele><time>2026-05-02T13:18:06.753Z</time></trkpt><trkpt lat="41.3070472" lon="14.0138992"><ele>508.0</ele><time>2026-05-02T13:18:07.751Z</time></trkpt><trkpt lat="41.3070182" lon="14.0140552"><ele>508.0</ele><time>2026-05-02T13:18:08.75Z</time></trkpt><trkpt lat="41.306972" lon="14.0142032"><ele>508.0</ele><time>2026-05-02T13:18:09.751Z</time></trkpt><trkpt lat="41.306898" lon="14.0143235"><ele>508.0</ele><time>2026-05-02T13:18:10.753Z</time></trkpt><trkpt lat="41.3068172" lon="14.0144118"><ele>508.00000000000006</ele><time>2026-05-02T13:18:11.753Z</time></trkpt><trkpt lat="41.3067373" lon="14.0144323"><ele>508.0</ele><time>2026-05-02T13:18:12.753Z</time></trkpt><trkpt lat="41.3066693" lon="14.0143985"><ele>508.0</ele><time>2026-05-02T13:18:13.751Z</time></trkpt><trkpt lat="41.3066253" lon="14.0143292"><ele>508.0</ele><time>2026-05-02T13:18:14.752Z</time></trkpt><trkpt lat="41.3066135" lon="14.01423"><ele>508.00000000000006</ele><time>2026-05-02T13:18:15.753Z</time></trkpt><trkpt lat="41.3066233" lon="14.0141163"><ele>508.0</ele><time>2026-05-02T13:18:16.753Z</time></trkpt><trkpt lat="41.3066568" lon="14.014"><ele>508.0</ele><time>2026-05-02T13:18:17.75Z</time></trkpt><trkpt lat="41.3066982" lon="14.0138767"><ele>507.99999999999994</ele><time>2026-05-02T13:18:18.754Z</time></trkpt><trkpt lat="41.3067428" lon="14.0137423"><ele>507.99999999999994</ele><time>2026-05-02T13:18:19.753Z</time></trkpt><trkpt lat="41.306772" lon="14.0136025"><ele>508.0</ele><time>2026-05-02T13:18:20.751Z</time></trkpt><trkpt lat="41.3067727" lon="14.0134523"><ele>508.0</ele><time>2026-05-02T13:18:21.754Z</time></trkpt><trkpt lat="41.3067368" lon="14.0132987"><ele>509.0</ele><time>2026-05-02T13:18:22.753Z</time></trkpt><trkpt lat="41.3066818" lon="14.0131403"><ele>510.0</ele><time>2026-05-02T13:18:23.753Z</time></trkpt><trkpt lat="41.3066225" lon="14.0129708"><ele>511.0</ele><time>2026-05-02T13:18:24.751Z</time></trkpt><trkpt lat="41.3065482" lon="14.0127862"><ele>512.0</ele><time>2026-05-02T13:18:25.75Z</time></trkpt><trkpt lat="41.3064775" lon="14.0125898"><ele>510.0</ele><time>2026-05-02T13:18:26.749Z</time></trkpt><trkpt lat="41.3064152" lon="14.0123855"><ele>508.0</ele><time>2026-05-02T13:18:27.748Z</time></trkpt><trkpt lat="41.3063643" lon="14.0121765"><ele>506.0</ele><time>2026-05-02T13:18:28.748Z</time></trkpt><trkpt lat="41.306316" lon="14.011979"><ele>506.0</ele><time>2026-05-02T13:18:29.751Z</time></trkpt><trkpt lat="41.3062782" lon="14.0118058"><ele>506.0</ele><time>2026-05-02T13:18:30.752Z</time></trkpt><trkpt lat="41.3062692" lon="14.011657"><ele>506.0</ele><time>2026-05-02T13:18:31.752Z</time></trkpt><trkpt lat="41.3062883" lon="14.0115273"><ele>506.0</ele><time>2026-05-02T13:18:32.752Z</time></trkpt><trkpt lat="41.3063357" lon="14.011402"><ele>506.5</ele><time>2026-05-02T13:18:33.752Z</time></trkpt><trkpt lat="41.3064012" lon="14.0112763"><ele>507.0</ele><time>2026-05-02T13:18:34.753Z</time></trkpt><trkpt lat="41.306461" lon="14.011141"><ele>507.5</ele><time>2026-05-02T13:18:35.754Z</time></trkpt><trkpt lat="41.3065137" lon="14.0109898"><ele>508.0</ele><time>2026-05-02T13:18:36.75Z</time></trkpt><trkpt lat="41.3065217" lon="14.0108178"><ele>508.33333333333337</ele><time>2026-05-02T13:18:37.751Z</time></trkpt><trkpt lat="41.3064902" lon="14.0106332"><ele>508.66666666666663</ele><time>2026-05-02T13:18:38.753Z</time></trkpt><trkpt lat="41.3064405" lon="14.010443"><ele>509.0</ele><time>2026-05-02T13:18:39.751Z</time></trkpt><trkpt lat="41.3063977" lon="14.0102413"><ele>509.0</ele><time>2026-05-02T13:18:40.75Z</time></trkpt><trkpt lat="41.3063797" lon="14.010036"><ele>509.0</ele><time>2026-05-02T13:18:41.752Z</time></trkpt><trkpt lat="41.30639" lon="14.009846"><ele>509.0</ele><time>2026-05-02T13:18:42.754Z</time></trkpt><trkpt lat="41.3064295" lon="14.0096717"><ele>509.0</ele><time>2026-05-02T13:18:43.752Z</time></trkpt><trkpt lat="41.3064912" lon="14.0095078"><ele>516.2</ele><time>2026-05-02T13:18:44.751Z</time></trkpt><trkpt lat="41.3065457" lon="14.0093612"><ele>523.4</ele><time>2026-05-02T13:18:45.751Z</time></trkpt><trkpt lat="41.3065788" lon="14.009236"><ele>530.6</ele><time>2026-05-02T13:18:46.753Z</time></trkpt><trkpt lat="41.306564" lon="14.0091132"><ele>537.8</ele><time>2026-05-02T13:18:47.751Z</time></trkpt><trkpt lat="41.3065" lon="14.0089847"><ele>545.0</ele><time>2026-05-02T13:18:48.75Z</time></trkpt><trkpt lat="41.3063962" lon="14.0088773"><ele>545.0</ele><time>2026-05-02T13:18:49.751Z</time></trkpt><trkpt lat="41.3062777" lon="14.0087755"><ele>545.0</ele><time>2026-05-02T13:18:50.747Z</time></trkpt><trkpt lat="41.3061565" lon="14.008673"><ele>545.0</ele><time>2026-05-02T13:18:51.748Z</time></trkpt><trkpt lat="41.3060633" lon="14.0085322"><ele>545.0</ele><time>2026-05-02T13:18:52.748Z</time></trkpt><trkpt lat="41.3060005" lon="14.0083527"><ele>550.5</ele><time>2026-05-02T13:18:53.746Z</time></trkpt><trkpt lat="41.3059487" lon="14.0081592"><ele>556.0</ele><time>2026-05-02T13:18:54.749Z</time></trkpt><trkpt lat="41.305883" lon="14.0079968"><ele>561.5</ele><time>2026-05-02T13:18:55.75Z</time></trkpt><trkpt lat="41.3057948" lon="14.007887"><ele>567.0</ele><time>2026-05-02T13:18:56.749Z</time></trkpt><trkpt lat="41.3056797" lon="14.0078282"><ele>566.5</ele><time>2026-05-02T13:18:57.75Z</time></trkpt><trkpt lat="41.3055448" lon="14.0078033"><ele>566.0</ele><time>2026-05-02T13:18:58.751Z</time></trkpt><trkpt lat="41.305403" lon="14.0077817"><ele>565.5</ele><time>2026-05-02T13:18:59.751Z</time></trkpt><trkpt lat="41.3052523" lon="14.007761"><ele>565.0</ele><time>2026-05-02T13:19:00.751Z</time></trkpt><trkpt lat="41.3051285" lon="14.0077718"><ele>565.0</ele><time>2026-05-02T13:19:01.753Z</time></trkpt><trkpt lat="41.305022" lon="14.0078155"><ele>565.0</ele><time>2026-05-02T13:19:02.753Z</time></trkpt><trkpt lat="41.30494" lon="14.0079073"><ele>565.0</ele><time>2026-05-02T13:19:03.752Z</time></trkpt><trkpt lat="41.3048808" lon="14.008045"><ele>565.0</ele><time>2026-05-02T13:19:04.75Z</time></trkpt><trkpt lat="41.304828" lon="14.0081995"><ele>562.0</ele><time>2026-05-02T13:19:05.752Z</time></trkpt><trkpt lat="41.3047657" lon="14.008331"><ele>559.0</ele><time>2026-05-02T13:19:06.752Z</time></trkpt><trkpt lat="41.3046968" lon="14.0084115"><ele>556.0</ele><time>2026-05-02T13:19:07.752Z</time></trkpt><trkpt lat="41.3046223" lon="14.0084395"><ele>553.0</ele><time>2026-05-02T13:19:08.751Z</time></trkpt><trkpt lat="41.3045362" lon="14.0084138"><ele>550.0</ele><time>2026-05-02T13:19:09.749Z</time></trkpt><trkpt lat="41.3044427" lon="14.0083403"><ele>553.0</ele><time>2026-05-02T13:19:10.751Z</time></trkpt><trkpt lat="41.304354" lon="14.0082152"><ele>556.0</ele><time>2026-05-02T13:19:11.751Z</time></trkpt><trkpt lat="41.3042772" lon="14.0080617"><ele>559.0</ele><time>2026-05-02T13:19:12.752Z</time></trkpt><trkpt lat="41.304218" lon="14.0078788"><ele>562.0</ele><time>2026-05-02T13:19:13.753Z</time></trkpt><trkpt lat="41.3041883" lon="14.0076825"><ele>564.0</ele><time>2026-05-02T13:19:14.75Z</time></trkpt><trkpt lat="41.304183" lon="14.0074685"><ele>566.0</ele><time>2026-05-02T13:19:15.748Z</time></trkpt><trkpt lat="41.3041887" lon="14.0072593"><ele>568.0</ele><time>2026-05-02T13:19:16.751Z</time></trkpt><trkpt lat="41.3042042" lon="14.0070547"><ele>568.0</ele><time>2026-05-02T13:19:17.749Z</time></trkpt><trkpt lat="41.304234" lon="14.0068568"><ele>568.0</ele><time>2026-05-02T13:19:18.75Z</time></trkpt><trkpt lat="41.3042752" lon="14.0066667"><ele>568.0</ele><time>2026-05-02T13:19:19.752Z</time></trkpt><trkpt lat="41.30433" lon="14.0064895"><ele>568.0</ele><time>2026-05-02T13:19:20.749Z</time></trkpt><trkpt lat="41.3043823" lon="14.006324"><ele>569.8</ele><time>2026-05-02T13:19:21.752Z</time></trkpt><trkpt lat="41.3044115" lon="14.0061752"><ele>571.5999999999999</ele><time>2026-05-02T13:19:22.753Z</time></trkpt><trkpt lat="41.3044158" lon="14.0060455"><ele>573.4000000000001</ele><time>2026-05-02T13:19:23.751Z</time></trkpt><trkpt lat="41.3043882" lon="14.0059263"><ele>575.2</ele><time>2026-05-02T13:19:24.752Z</time></trkpt><trkpt lat="41.3043387" lon="14.0058408"><ele>577.0</ele><time>2026-05-02T13:19:25.749Z</time></trkpt><trkpt lat="41.3042672" lon="14.0057687"><ele>583.75</ele><time>2026-05-02T13:19:26.75Z</time></trkpt><trkpt lat="41.3041638" lon="14.0057018"><ele>590.5</ele><time>2026-05-02T13:19:27.755Z</time></trkpt><trkpt lat="41.3040373" lon="14.0056427"><ele>597.25</ele><time>2026-05-02T13:19:28.752Z</time></trkpt><trkpt lat="41.303902" lon="14.0055948"><ele>604.0</ele><time>2026-05-02T13:19:29.751Z</time></trkpt><trkpt lat="41.3037515" lon="14.00558"><ele>604.3333333333334</ele><time>2026-05-02T13:19:30.749Z</time></trkpt><trkpt lat="41.3036023" lon="14.0056112"><ele>604.6666666666666</ele><time>2026-05-02T13:19:31.752Z</time></trkpt><trkpt lat="41.303455" lon="14.0056855"><ele>605.0</ele><time>2026-05-02T13:19:32.751Z</time></trkpt><trkpt lat="41.3033118" lon="14.0057682"><ele>605.0</ele><time>2026-05-02T13:19:33.75Z</time></trkpt><trkpt lat="41.303166" lon="14.0058167"><ele>605.0</ele><time>2026-05-02T13:19:34.749Z</time></trkpt><trkpt lat="41.3030272" lon="14.0058645"><ele>605.0</ele><time>2026-05-02T13:19:35.751Z</time></trkpt><trkpt lat="41.3028995" lon="14.0059352"><ele>605.0</ele><time>2026-05-02T13:19:36.75Z</time></trkpt><trkpt lat="41.3027812" lon="14.0060273"><ele>602.5</ele><time>2026-05-02T13:19:37.75Z</time></trkpt><trkpt lat="41.3026598" lon="14.0061108"><ele>600.0</ele><time>2026-05-02T13:19:38.751Z</time></trkpt><trkpt lat="41.3025318" lon="14.0061787"><ele>597.5</ele><time>2026-05-02T13:19:39.747Z</time></trkpt><trkpt lat="41.302397" lon="14.0062358"><ele>595.0</ele><time>2026-05-02T13:19:40.748Z</time></trkpt><trkpt lat="41.3022717" lon="14.006283"><ele>594.4</ele><time>2026-05-02T13:19:41.749Z</time></trkpt><trkpt lat="41.3021567" lon="14.0063333"><ele>593.8</ele><time>2026-05-02T13:19:42.749Z</time></trkpt><trkpt lat="41.3020557" lon="14.0063613"><ele>593.2</ele><time>2026-05-02T13:19:43.751Z</time></trkpt><trkpt lat="41.3019682" lon="14.0063533"><ele>592.6</ele><time>2026-05-02T13:19:44.751Z</time></trkpt><trkpt lat="41.30189" lon="14.0063148"><ele>592.0</ele><time>2026-05-02T13:19:45.752Z</time></trkpt><trkpt lat="41.3018263" lon="14.0062528"><ele>592.0</ele><time>2026-05-02T13:19:46.754Z</time></trkpt><trkpt lat="41.3017827" lon="14.0061463"><ele>592.0</ele><time>2026-05-02T13:19:47.751Z</time></trkpt><trkpt lat="41.3017507" lon="14.005998"><ele>592.0</ele><time>2026-05-02T13:19:48.751Z</time></trkpt><trkpt lat="41.3017318" lon="14.0058143"><ele>592.0</ele><time>2026-05-02T13:19:49.75Z</time></trkpt><trkpt lat="41.3017298" lon="14.0056048"><ele>593.25</ele><time>2026-05-02T13:19:50.751Z</time></trkpt><trkpt lat="41.3017425" lon="14.0053937"><ele>594.5</ele><time>2026-05-02T13:19:51.753Z</time></trkpt><trkpt lat="41.3017668" lon="14.0052072"><ele>595.75</ele><time>2026-05-02T13:19:52.752Z</time></trkpt><trkpt lat="41.3017808" lon="14.0050425"><ele>597.0</ele><time>2026-05-02T13:19:53.75Z</time></trkpt><trkpt lat="41.3017593" lon="14.0048877"><ele>599.0</ele><time>2026-05-02T13:19:54.751Z</time></trkpt><trkpt lat="41.3017073" lon="14.0047213"><ele>601.0</ele><time>2026-05-02T13:19:55.751Z</time></trkpt><trkpt lat="41.301663" lon="14.0045422"><ele>603.0</ele><time>2026-05-02T13:19:56.75Z</time></trkpt><trkpt lat="41.3016307" lon="14.0043462"><ele>605.0</ele><time>2026-05-02T13:19:57.751Z</time></trkpt><trkpt lat="41.3016037" lon="14.0041425"><ele>606.5</ele><time>2026-05-02T13:19:58.751Z</time></trkpt><trkpt lat="41.3015697" lon="14.0039428"><ele>608.0</ele><time>2026-05-02T13:19:59.75Z</time></trkpt><trkpt lat="41.3015205" lon="14.0037643"><ele>609.5</ele><time>2026-05-02T13:20:00.75Z</time></trkpt><trkpt lat="41.3014522" lon="14.0035973"><ele>611.0</ele><time>2026-05-02T13:20:01.751Z</time></trkpt><trkpt lat="41.3013855" lon="14.003449"><ele>608.4</ele><time>2026-05-02T13:20:02.748Z</time></trkpt><trkpt lat="41.3013328" lon="14.0033128"><ele>605.8</ele><time>2026-05-02T13:20:03.749Z</time></trkpt><trkpt lat="41.30132" lon="14.0031845"><ele>603.1999999999999</ele><time>2026-05-02T13:20:04.749Z</time></trkpt><trkpt lat="41.3013342" lon="14.0030363"><ele>600.6</ele><time>2026-05-02T13:20:05.748Z</time></trkpt><trkpt lat="41.3013632" lon="14.002889"><ele>598.0</ele><time>2026-05-02T13:20:06.748Z</time></trkpt><trkpt lat="41.3013757" lon="14.0027472"><ele>598.0</ele><time>2026-05-02T13:20:07.748Z</time></trkpt><trkpt lat="41.301349" lon="14.0025945"><ele>598.0</ele><time>2026-05-02T13:20:08.749Z</time></trkpt><trkpt lat="41.3013082" lon="14.0024197"><ele>598.0</ele><time>2026-05-02T13:20:09.749Z</time></trkpt><trkpt lat="41.3012533" lon="14.002272"><ele>598.0</ele><time>2026-05-02T13:20:10.751Z</time></trkpt><trkpt lat="41.3011642" lon="14.002148"><ele>601.0</ele><time>2026-05-02T13:20:11.752Z</time></trkpt><trkpt lat="41.3010577" lon="14.0020405"><ele>604.0</ele><time>2026-05-02T13:20:12.751Z</time></trkpt><trkpt lat="41.3009457" lon="14.001942"><ele>607.0</ele><time>2026-05-02T13:20:13.751Z</time></trkpt><trkpt lat="41.3008485" lon="14.0018495"><ele>610.0</ele><time>2026-05-02T13:20:14.751Z</time></trkpt><trkpt lat="41.3007552" lon="14.0017462"><ele>610.25</ele><time>2026-05-02T13:20:15.751Z</time></trkpt><trkpt lat="41.3006675" lon="14.0016297"><ele>610.5</ele><time>2026-05-02T13:20:16.751Z</time></trkpt><trkpt lat="41.3005882" lon="14.0014863"><ele>610.75</ele><time>2026-05-02T13:20:17.75Z</time></trkpt><trkpt lat="41.3005232" lon="14.001321"><ele>611.0</ele><time>2026-05-02T13:20:18.749Z</time></trkpt><trkpt lat="41.3004627" lon="14.0011473"><ele>611.0</ele><time>2026-05-02T13:20:19.75Z</time></trkpt><trkpt lat="41.3004237" lon="14.0009897"><ele>611.0</ele><time>2026-05-02T13:20:20.749Z</time></trkpt><trkpt lat="41.3004043" lon="14.000842"><ele>611.0</ele><time>2026-05-02T13:20:21.749Z</time></trkpt><trkpt lat="41.3004017" lon="14.0006885"><ele>611.0</ele><time>2026-05-02T13:20:22.75Z</time></trkpt><trkpt lat="41.3004198" lon="14.0005238"><ele>611.0</ele><time>2026-05-02T13:20:23.749Z</time></trkpt><trkpt lat="41.3004523" lon="14.000345"><ele>611.0</ele><time>2026-05-02T13:20:24.753Z</time></trkpt><trkpt lat="41.3004832" lon="14.0001588"><ele>611.0</ele><time>2026-05-02T13:20:25.753Z</time></trkpt><trkpt lat="41.3005128" lon="13.9999713"><ele>611.0</ele><time>2026-05-02T13:20:26.751Z</time></trkpt><trkpt lat="41.3005422" lon="13.999776"><ele>611.0</ele><time>2026-05-02T13:20:27.75Z</time></trkpt><trkpt lat="41.3005758" lon="13.9995842"><ele>611.0</ele><time>2026-05-02T13:20:28.751Z</time></trkpt><trkpt lat="41.300606" lon="13.9993955"><ele>611.0</ele><time>2026-05-02T13:20:29.75Z</time></trkpt><trkpt lat="41.3006308" lon="13.999202"><ele>611.0</ele><time>2026-05-02T13:20:30.751Z</time></trkpt><trkpt lat="41.3006605" lon="13.9990242"><ele>610.25</ele><time>2026-05-02T13:20:31.748Z</time></trkpt><trkpt lat="41.3006867" lon="13.9988353"><ele>609.5</ele><time>2026-05-02T13:20:32.751Z</time></trkpt><trkpt lat="41.3007182" lon="13.9986615"><ele>608.75</ele><time>2026-05-02T13:20:33.752Z</time></trkpt><trkpt lat="41.3007463" lon="13.9984887"><ele>608.0</ele><time>2026-05-02T13:20:34.753Z</time></trkpt><trkpt lat="41.30077" lon="13.998328"><ele>607.6</ele><time>2026-05-02T13:20:35.75Z</time></trkpt><trkpt lat="41.3007872" lon="13.9981888"><ele>607.1999999999999</ele><time>2026-05-02T13:20:36.751Z</time></trkpt><trkpt lat="41.3008068" lon="13.9980618"><ele>606.8</ele><time>2026-05-02T13:20:37.751Z</time></trkpt><trkpt lat="41.3008227" lon="13.9979498"><ele>606.4</ele><time>2026-05-02T13:20:38.752Z</time></trkpt><trkpt lat="41.3008605" lon="13.9978078"><ele>606.0</ele><time>2026-05-02T13:20:40.754Z</time></trkpt><trkpt lat="41.300945" lon="13.9977218"><ele>606.0</ele><time>2026-05-02T13:20:45.752Z</time></trkpt><trkpt lat="41.3010302" lon="13.9976488"><ele>606.0</ele><time>2026-05-02T13:20:48.751Z</time></trkpt><trkpt lat="41.3011352" lon="13.9975767"><ele>606.0</ele><time>2026-05-02T13:20:51.751Z</time></trkpt><trkpt lat="41.3013428" lon="13.997376"><ele>605.8571428571429</ele><time>2026-05-02T13:20:56.75Z</time></trkpt><trkpt lat="41.301399" lon="13.9973287"><ele>605.7142857142857</ele><time>2026-05-02T13:20:57.755Z</time></trkpt><trkpt lat="41.3014625" lon="13.9972778"><ele>605.5714285714286</ele><time>2026-05-02T13:20:58.753Z</time></trkpt><trkpt lat="41.3015248" lon="13.9972257"><ele>605.4285714285714</ele><time>2026-05-02T13:20:59.752Z</time></trkpt><trkpt lat="41.3015832" lon="13.9971775"><ele>605.2857142857143</ele><time>2026-05-02T13:21:00.753Z</time></trkpt><trkpt lat="41.3016478" lon="13.9971313"><ele>605.1428571428571</ele><time>2026-05-02T13:21:01.751Z</time></trkpt><trkpt lat="41.3017257" lon="13.9970898"><ele>605.0</ele><time>2026-05-02T13:21:02.754Z</time></trkpt><trkpt lat="41.3018103" lon="13.9970502"><ele>605.4</ele><time>2026-05-02T13:21:03.753Z</time></trkpt><trkpt lat="41.3018973" lon="13.9970112"><ele>605.8</ele><time>2026-05-02T13:21:04.753Z</time></trkpt><trkpt lat="41.3019855" lon="13.9969733"><ele>606.2</ele><time>2026-05-02T13:21:05.752Z</time></trkpt><trkpt lat="41.3020712" lon="13.996934"><ele>606.6</ele><time>2026-05-02T13:21:06.751Z</time></trkpt><trkpt lat="41.302159" lon="13.9968952"><ele>607.0</ele><time>2026-05-02T13:21:07.753Z</time></trkpt><trkpt lat="41.3022397" lon="13.9968532"><ele>607.4</ele><time>2026-05-02T13:21:08.754Z</time></trkpt><trkpt lat="41.3023162" lon="13.9968153"><ele>607.8000000000001</ele><time>2026-05-02T13:21:09.753Z</time></trkpt><trkpt lat="41.3023917" lon="13.9967792"><ele>608.2</ele><time>2026-05-02T13:21:10.752Z</time></trkpt><trkpt lat="41.3024575" lon="13.9967427"><ele>608.6</ele><time>2026-05-02T13:21:11.75Z</time></trkpt><trkpt lat="41.3025642" lon="13.9966877"><ele>609.0</ele><time>2026-05-02T13:21:13.753Z</time></trkpt><trkpt lat="41.3026832" lon="13.9965867"><ele>609.0</ele><time>2026-05-02T13:21:15.753Z</time></trkpt><trkpt lat="41.3027667" lon="13.9965152"><ele>609.0</ele><time>2026-05-02T13:21:16.751Z</time></trkpt><trkpt lat="41.302844" lon="13.9964403"><ele>609.0</ele><time>2026-05-02T13:21:17.749Z</time></trkpt><trkpt lat="41.3029233" lon="13.9963718"><ele>609.0</ele><time>2026-05-02T13:21:18.748Z</time></trkpt><trkpt lat="41.3030078" lon="13.9963093"><ele>609.0</ele><time>2026-05-02T13:21:19.748Z</time></trkpt><trkpt lat="41.3030955" lon="13.996254"><ele>609.4</ele><time>2026-05-02T13:21:20.749Z</time></trkpt><trkpt lat="41.303185" lon="13.9961907"><ele>609.8</ele><time>2026-05-02T13:21:21.749Z</time></trkpt><trkpt lat="41.3032753" lon="13.996133"><ele>610.2</ele><time>2026-05-02T13:21:22.75Z</time></trkpt><trkpt lat="41.3033598" lon="13.9960585"><ele>610.6</ele><time>2026-05-02T13:21:23.75Z</time></trkpt><trkpt lat="41.3034363" lon="13.9959883"><ele>611.0</ele><time>2026-05-02T13:21:24.75Z</time></trkpt><trkpt lat="41.3035005" lon="13.9959198"><ele>611.0</ele><time>2026-05-02T13:21:25.754Z</time></trkpt><trkpt lat="41.3035573" lon="13.9958588"><ele>611.0</ele><time>2026-05-02T13:21:26.753Z</time></trkpt><trkpt lat="41.3036072" lon="13.9958018"><ele>611.0</ele><time>2026-05-02T13:21:27.752Z</time></trkpt><trkpt lat="41.3036938" lon="13.9957242"><ele>611.0</ele><time>2026-05-02T13:21:29.75Z</time></trkpt><trkpt lat="41.303756" lon="13.995668"><ele>611.0</ele><time>2026-05-02T13:21:31.752Z</time></trkpt><trkpt lat="41.3038085" lon="13.9956138"><ele>611.0</ele><time>2026-05-02T13:21:33.753Z</time></trkpt><trkpt lat="41.3038762" lon="13.9955317"><ele>611.5</ele><time>2026-05-02T13:21:36.749Z</time></trkpt><trkpt lat="41.3039293" lon="13.9954737"><ele>612.0</ele><time>2026-05-02T13:21:38.75Z</time></trkpt><trkpt lat="41.3039853" lon="13.9954055"><ele>612.5</ele><time>2026-05-02T13:21:40.752Z</time></trkpt><trkpt lat="41.3040623" lon="13.9953112"><ele>613.0</ele><time>2026-05-02T13:21:42.75Z</time></trkpt><trkpt lat="41.3041177" lon="13.9952622"><ele>613.5</ele><time>2026-05-02T13:21:43.751Z</time></trkpt><trkpt lat="41.304172" lon="13.9952155"><ele>614.0</ele><time>2026-05-02T13:21:44.749Z</time></trkpt><trkpt lat="41.3042315" lon="13.9951582"><ele>614.0</ele><time>2026-05-02T13:21:45.749Z</time></trkpt><trkpt lat="41.3042945" lon="13.9950957"><ele>614.0</ele><time>2026-05-02T13:21:46.75Z</time></trkpt><trkpt lat="41.3043535" lon="13.9950257"><ele>614.0</ele><time>2026-05-02T13:21:47.75Z</time></trkpt><trkpt lat="41.3044113" lon="13.9949468"><ele>614.0</ele><time>2026-05-02T13:21:48.75Z</time></trkpt><trkpt lat="41.304477" lon="13.994871"><ele>614.0</ele><time>2026-05-02T13:21:49.751Z</time></trkpt><trkpt lat="41.3045537" lon="13.9947858"><ele>614.0</ele><time>2026-05-02T13:21:50.751Z</time></trkpt><trkpt lat="41.3046347" lon="13.9946963"><ele>614.0</ele><time>2026-05-02T13:21:51.75Z</time></trkpt><trkpt lat="41.3047192" lon="13.9945917"><ele>614.0</ele><time>2026-05-02T13:21:52.75Z</time></trkpt><trkpt lat="41.3047942" lon="13.9944943"><ele>614.0</ele><time>2026-05-02T13:21:53.752Z</time></trkpt><trkpt lat="41.3048638" lon="13.994419"><ele>614.0</ele><time>2026-05-02T13:21:54.754Z</time></trkpt><trkpt lat="41.304923" lon="13.994351"><ele>614.0</ele><time>2026-05-02T13:21:55.753Z</time></trkpt><trkpt lat="41.304987" lon="13.994278"><ele>613.8</ele><time>2026-05-02T13:21:56.754Z</time></trkpt><trkpt lat="41.3050587" lon="13.9942082"><ele>613.5999999999999</ele><time>2026-05-02T13:21:57.752Z</time></trkpt><trkpt lat="41.3051297" lon="13.9941342"><ele>613.4</ele><time>2026-05-02T13:21:58.751Z</time></trkpt><trkpt lat="41.3051973" lon="13.9940513"><ele>613.1999999999999</ele><time>2026-05-02T13:21:59.753Z</time></trkpt><trkpt lat="41.305268" lon="13.9939682"><ele>613.0</ele><time>2026-05-02T13:22:00.752Z</time></trkpt><trkpt lat="41.305345" lon="13.9938853"><ele>613.0</ele><time>2026-05-02T13:22:01.752Z</time></trkpt><trkpt lat="41.305422" lon="13.9938178"><ele>613.0</ele><time>2026-05-02T13:22:02.749Z</time></trkpt><trkpt lat="41.3054877" lon="13.9937483"><ele>613.0</ele><time>2026-05-02T13:22:03.748Z</time></trkpt><trkpt lat="41.3055452" lon="13.9936747"><ele>613.0</ele><time>2026-05-02T13:22:04.749Z</time></trkpt><trkpt lat="41.3056113" lon="13.9935975"><ele>613.0</ele><time>2026-05-02T13:22:05.749Z</time></trkpt><trkpt lat="41.3056835" lon="13.9935088"><ele>613.0</ele><time>2026-05-02T13:22:06.746Z</time></trkpt><trkpt lat="41.3057502" lon="13.9934243"><ele>612.6666666666667</ele><time>2026-05-02T13:22:07.747Z</time></trkpt><trkpt lat="41.3058125" lon="13.9933358"><ele>612.3333333333334</ele><time>2026-05-02T13:22:08.751Z</time></trkpt><trkpt lat="41.3058745" lon="13.9932518"><ele>612.0</ele><time>2026-05-02T13:22:09.749Z</time></trkpt><trkpt lat="41.3059327" lon="13.9931723"><ele>611.6666666666666</ele><time>2026-05-02T13:22:10.752Z</time></trkpt><trkpt lat="41.3059902" lon="13.993093"><ele>611.3333333333333</ele><time>2026-05-02T13:22:11.751Z</time></trkpt><trkpt lat="41.3060422" lon="13.9930188"><ele>611.0</ele><time>2026-05-02T13:22:12.748Z</time></trkpt><trkpt lat="41.3060953" lon="13.9929472"><ele>611.0</ele><time>2026-05-02T13:22:13.75Z</time></trkpt><trkpt lat="41.3061477" lon="13.9928658"><ele>611.0</ele><time>2026-05-02T13:22:14.751Z</time></trkpt><trkpt lat="41.3061998" lon="13.9927905"><ele>611.0</ele><time>2026-05-02T13:22:15.75Z</time></trkpt><trkpt lat="41.306237" lon="13.9927142"><ele>611.0</ele><time>2026-05-02T13:22:16.753Z</time></trkpt><trkpt lat="41.3062705" lon="13.99263"><ele>611.0</ele><time>2026-05-02T13:22:17.75Z</time></trkpt><trkpt lat="41.3063045" lon="13.9924903"><ele>611.0</ele><time>2026-05-02T13:22:19.749Z</time></trkpt><trkpt lat="41.3063235" lon="13.992404"><ele>611.2</ele><time>2026-05-02T13:22:20.749Z</time></trkpt><trkpt lat="41.3063585" lon="13.992284"><ele>611.4000000000001</ele><time>2026-05-02T13:22:21.749Z</time></trkpt><trkpt lat="41.3064037" lon="13.9921673"><ele>611.6</ele><time>2026-05-02T13:22:22.749Z</time></trkpt><trkpt lat="41.306454" lon="13.9920368"><ele>611.8000000000001</ele><time>2026-05-02T13:22:23.749Z</time></trkpt><trkpt lat="41.3065017" lon="13.9919198"><ele>612.0</ele><time>2026-05-02T13:22:24.75Z</time></trkpt><trkpt lat="41.3065467" lon="13.9918163"><ele>613.3333333333334</ele><time>2026-05-02T13:22:25.749Z</time></trkpt><trkpt lat="41.3065867" lon="13.9917218"><ele>614.6666666666666</ele><time>2026-05-02T13:22:26.747Z</time></trkpt><trkpt lat="41.3066365" lon="13.9916257"><ele>616.0</ele><time>2026-05-02T13:22:27.75Z</time></trkpt><trkpt lat="41.3066903" lon="13.9915308"><ele>617.3333333333333</ele><time>2026-05-02T13:22:28.75Z</time></trkpt><trkpt lat="41.306751" lon="13.9914433"><ele>618.6666666666666</ele><time>2026-05-02T13:22:29.75Z</time></trkpt><trkpt lat="41.3068128" lon="13.9913612"><ele>620.0</ele><time>2026-05-02T13:22:30.748Z</time></trkpt><trkpt lat="41.306874" lon="13.991271"><ele>620.0</ele><time>2026-05-02T13:22:31.747Z</time></trkpt><trkpt lat="41.3069367" lon="13.9911755"><ele>620.0</ele><time>2026-05-02T13:22:32.749Z</time></trkpt><trkpt lat="41.3070043" lon="13.991081"><ele>620.0</ele><time>2026-05-02T13:22:33.749Z</time></trkpt><trkpt lat="41.3070682" lon="13.9909878"><ele>620.0</ele><time>2026-05-02T13:22:34.75Z</time></trkpt><trkpt lat="41.3071238" lon="13.9908963"><ele>620.0</ele><time>2026-05-02T13:22:35.751Z</time></trkpt><trkpt lat="41.3071813" lon="13.9907958"><ele>620.8</ele><time>2026-05-02T13:22:36.751Z</time></trkpt><trkpt lat="41.3072445" lon="13.9906957"><ele>621.6</ele><time>2026-05-02T13:22:37.754Z</time></trkpt><trkpt lat="41.3073118" lon="13.9905993"><ele>622.4</ele><time>2026-05-02T13:22:38.751Z</time></trkpt><trkpt lat="41.307377" lon="13.9905022"><ele>623.2</ele><time>2026-05-02T13:22:39.752Z</time></trkpt><trkpt lat="41.3074445" lon="13.9904035"><ele>624.0</ele><time>2026-05-02T13:22:40.75Z</time></trkpt><trkpt lat="41.3075052" lon="13.9902977"><ele>624.0</ele><time>2026-05-02T13:22:41.752Z</time></trkpt><trkpt lat="41.3075668" lon="13.990198"><ele>624.0</ele><time>2026-05-02T13:22:42.751Z</time></trkpt><trkpt lat="41.3076343" lon="13.9901122"><ele>624.0</ele><time>2026-05-02T13:22:43.751Z</time></trkpt><trkpt lat="41.3077012" lon="13.990022"><ele>624.0</ele><time>2026-05-02T13:22:44.75Z</time></trkpt><trkpt lat="41.3077742" lon="13.9899403"><ele>624.0</ele><time>2026-05-02T13:22:45.751Z</time></trkpt><trkpt lat="41.3078418" lon="13.9898665"><ele>624.5</ele><time>2026-05-02T13:22:46.752Z</time></trkpt><trkpt lat="41.3079082" lon="13.9897917"><ele>625.0</ele><time>2026-05-02T13:22:47.752Z</time></trkpt><trkpt lat="41.3079638" lon="13.989701"><ele>625.5</ele><time>2026-05-02T13:22:48.75Z</time></trkpt><trkpt lat="41.3079968" lon="13.9896078"><ele>626.0</ele><time>2026-05-02T13:22:49.749Z</time></trkpt><trkpt lat="41.3080298" lon="13.9894763"><ele>626.5</ele><time>2026-05-02T13:22:51.749Z</time></trkpt><trkpt lat="41.3080642" lon="13.9893838"><ele>627.0</ele><time>2026-05-02T13:22:53.753Z</time></trkpt><trkpt lat="41.3081002" lon="13.9892863"><ele>627.0</ele><time>2026-05-02T13:22:55.749Z</time></trkpt><trkpt lat="41.3081685" lon="13.9892183"><ele>627.0</ele><time>2026-05-02T13:22:58.748Z</time></trkpt><trkpt lat="41.3082697" lon="13.989224"><ele>627.0</ele><time>2026-05-02T13:23:01.75Z</time></trkpt><trkpt lat="41.3083705" lon="13.9892673"><ele>627.0</ele><time>2026-05-02T13:23:03.749Z</time></trkpt><trkpt lat="41.3084467" lon="13.9893222"><ele>627.0</ele><time>2026-05-02T13:23:05.749Z</time></trkpt><trkpt lat="41.3085313" lon="13.9894042"><ele>627.0</ele><time>2026-05-02T13:23:07.75Z</time></trkpt><trkpt lat="41.3086017" lon="13.9894548"><ele>627.0</ele><time>2026-05-02T13:23:08.753Z</time></trkpt><trkpt lat="41.308669" lon="13.989506"><ele>627.0</ele><time>2026-05-02T13:23:09.755Z</time></trkpt><trkpt lat="41.308729" lon="13.9895497"><ele>627.0</ele><time>2026-05-02T13:23:10.753Z</time></trkpt><trkpt lat="41.308791" lon="13.9895927"><ele>627.0</ele><time>2026-05-02T13:23:11.753Z</time></trkpt><trkpt lat="41.3088497" lon="13.9896353"><ele>627.0</ele><time>2026-05-02T13:23:12.751Z</time></trkpt><trkpt lat="41.3089083" lon="13.9896727"><ele>627.0</ele><time>2026-05-02T13:23:13.751Z</time></trkpt><trkpt lat="41.309029" lon="13.9897435"><ele>628.8000000000001</ele><time>2026-05-02T13:23:15.752Z</time></trkpt><trkpt lat="41.309096" lon="13.9897775"><ele>630.6</ele><time>2026-05-02T13:23:16.752Z</time></trkpt><trkpt lat="41.3091873" lon="13.9898497"><ele>632.4000000000001</ele><time>2026-05-02T13:23:18.752Z</time></trkpt><trkpt lat="41.3092892" lon="13.9899318"><ele>634.2</ele><time>2026-05-02T13:23:20.748Z</time></trkpt><trkpt lat="41.3093947" lon="13.9899845"><ele>636.0</ele><time>2026-05-02T13:23:22.747Z</time></trkpt><trkpt lat="41.3095007" lon="13.9900312"><ele>636.8333333333334</ele><time>2026-05-02T13:23:24.749Z</time></trkpt><trkpt lat="41.3095618" lon="13.9900573"><ele>637.6666666666666</ele><time>2026-05-02T13:23:25.749Z</time></trkpt><trkpt lat="41.3096253" lon="13.9900827"><ele>638.5</ele><time>2026-05-02T13:23:26.751Z</time></trkpt><trkpt lat="41.3096872" lon="13.990118"><ele>639.3333333333333</ele><time>2026-05-02T13:23:27.752Z</time></trkpt><trkpt lat="41.3097902" lon="13.9902072"><ele>640.1666666666666</ele><time>2026-05-02T13:23:29.751Z</time></trkpt><trkpt lat="41.309853" lon="13.9902442"><ele>641.0</ele><time>2026-05-02T13:23:30.753Z</time></trkpt><trkpt lat="41.3099263" lon="13.9902828"><ele>642.8</ele><time>2026-05-02T13:23:31.753Z</time></trkpt><trkpt lat="41.3099903" lon="13.9903197"><ele>644.5999999999999</ele><time>2026-05-02T13:23:32.753Z</time></trkpt><trkpt lat="41.310106" lon="13.9903987"><ele>646.4</ele><time>2026-05-02T13:23:34.75Z</time></trkpt><trkpt lat="41.3101623" lon="13.9904447"><ele>648.2</ele><time>2026-05-02T13:23:35.753Z</time></trkpt><trkpt lat="41.310259" lon="13.9905398"><ele>650.0</ele><time>2026-05-02T13:23:37.752Z</time></trkpt><trkpt lat="41.3103355" lon="13.9906062"><ele>650.0</ele><time>2026-05-02T13:23:39.748Z</time></trkpt><trkpt lat="41.310397" lon="13.9906252"><ele>650.0</ele><time>2026-05-02T13:23:41.75Z</time></trkpt><trkpt lat="41.3104992" lon="13.9906388"><ele>650.0</ele><time>2026-05-02T13:23:43.749Z</time></trkpt><trkpt lat="41.3106087" lon="13.9906742"><ele>650.0</ele><time>2026-05-02T13:23:45.75Z</time></trkpt><trkpt lat="41.3107188" lon="13.9906943"><ele>650.0</ele><time>2026-05-02T13:23:47.748Z</time></trkpt><trkpt lat="41.3108405" lon="13.9906908"><ele>650.6666666666666</ele><time>2026-05-02T13:23:49.752Z</time></trkpt><trkpt lat="41.310906" lon="13.9906982"><ele>651.3333333333333</ele><time>2026-05-02T13:23:50.751Z</time></trkpt><trkpt lat="41.311034" lon="13.9907237"><ele>652.0</ele><time>2026-05-02T13:23:52.747Z</time></trkpt><trkpt lat="41.3111127" lon="13.9907517"><ele>652.6666666666666</ele><time>2026-05-02T13:23:53.748Z</time></trkpt><trkpt lat="41.3111838" lon="13.990793"><ele>653.3333333333334</ele><time>2026-05-02T13:23:54.749Z</time></trkpt><trkpt lat="41.3112588" lon="13.990839"><ele>654.0</ele><time>2026-05-02T13:23:55.748Z</time></trkpt><trkpt lat="41.3113352" lon="13.990881"><ele>657.3333333333334</ele><time>2026-05-02T13:23:56.749Z</time></trkpt><trkpt lat="41.3114098" lon="13.990921"><ele>660.6666666666666</ele><time>2026-05-02T13:23:57.748Z</time></trkpt><trkpt lat="41.3114953" lon="13.9909613"><ele>664.0</ele><time>2026-05-02T13:23:58.748Z</time></trkpt><trkpt lat="41.3115757" lon="13.991005"><ele>667.3333333333333</ele><time>2026-05-02T13:23:59.748Z</time></trkpt><trkpt lat="41.3116483" lon="13.9910577"><ele>670.6666666666666</ele><time>2026-05-02T13:24:00.749Z</time></trkpt><trkpt lat="41.311724" lon="13.9911193"><ele>674.0</ele><time>2026-05-02T13:24:01.751Z</time></trkpt><trkpt lat="41.311809" lon="13.9911775"><ele>674.0</ele><time>2026-05-02T13:24:02.748Z</time></trkpt><trkpt lat="41.311901" lon="13.9912282"><ele>674.0</ele><time>2026-05-02T13:24:03.749Z</time></trkpt><trkpt lat="41.3119877" lon="13.9912815"><ele>674.0</ele><time>2026-05-02T13:24:04.75Z</time></trkpt><trkpt lat="41.3120627" lon="13.9913263"><ele>674.0</ele><time>2026-05-02T13:24:05.75Z</time></trkpt><trkpt lat="41.3121493" lon="13.9913785"><ele>674.0</ele><time>2026-05-02T13:24:06.752Z</time></trkpt><trkpt lat="41.3122353" lon="13.991441"><ele>673.2</ele><time>2026-05-02T13:24:07.752Z</time></trkpt><trkpt lat="41.3123222" lon="13.9914955"><ele>672.4000000000001</ele><time>2026-05-02T13:24:08.751Z</time></trkpt><trkpt lat="41.3123868" lon="13.9915468"><ele>671.6</ele><time>2026-05-02T13:24:09.748Z</time></trkpt><trkpt lat="41.3124473" lon="13.991592"><ele>670.8</ele><time>2026-05-02T13:24:10.75Z</time></trkpt><trkpt lat="41.3125417" lon="13.9916892"><ele>670.0</ele><time>2026-05-02T13:24:12.748Z</time></trkpt><trkpt lat="41.3126308" lon="13.991815"><ele>674.0</ele><time>2026-05-02T13:24:14.748Z</time></trkpt><trkpt lat="41.3126907" lon="13.9918827"><ele>678.0</ele><time>2026-05-02T13:24:15.751Z</time></trkpt><trkpt lat="41.3127513" lon="13.9919552"><ele>682.0</ele><time>2026-05-02T13:24:16.752Z</time></trkpt><trkpt lat="41.3128135" lon="13.9920125"><ele>686.0</ele><time>2026-05-02T13:24:17.752Z</time></trkpt><trkpt lat="41.3128757" lon="13.9920623"><ele>690.0</ele><time>2026-05-02T13:24:18.75Z</time></trkpt><trkpt lat="41.3129362" lon="13.9921177"><ele>694.0</ele><time>2026-05-02T13:24:19.749Z</time></trkpt><trkpt lat="41.3130075" lon="13.9921798"><ele>692.5</ele><time>2026-05-02T13:24:20.75Z</time></trkpt><trkpt lat="41.3130782" lon="13.9922527"><ele>691.0</ele><time>2026-05-02T13:24:21.748Z</time></trkpt><trkpt lat="41.3131465" lon="13.9923148"><ele>689.5</ele><time>2026-05-02T13:24:22.75Z</time></trkpt><trkpt lat="41.3132173" lon="13.9923725"><ele>688.0</ele><time>2026-05-02T13:24:23.748Z</time></trkpt><trkpt lat="41.3132885" lon="13.9924195"><ele>686.5</ele><time>2026-05-02T13:24:24.749Z</time></trkpt><trkpt lat="41.3133552" lon="13.992464"><ele>685.0</ele><time>2026-05-02T13:24:25.748Z</time></trkpt><trkpt lat="41.313434" lon="13.9925095"><ele>690.4</ele><time>2026-05-02T13:24:26.747Z</time></trkpt><trkpt lat="41.313524" lon="13.9925647"><ele>695.8</ele><time>2026-05-02T13:24:27.748Z</time></trkpt><trkpt lat="41.3136168" lon="13.9926213"><ele>701.2</ele><time>2026-05-02T13:24:28.75Z</time></trkpt><trkpt lat="41.3137013" lon="13.9926753"><ele>706.6</ele><time>2026-05-02T13:24:29.749Z</time></trkpt><trkpt lat="41.3137905" lon="13.9927303"><ele>712.0</ele><time>2026-05-02T13:24:30.753Z</time></trkpt><trkpt lat="41.3138762" lon="13.9927848"><ele>707.8</ele><time>2026-05-02T13:24:31.755Z</time></trkpt><trkpt lat="41.3139585" lon="13.9928412"><ele>703.6</ele><time>2026-05-02T13:24:32.753Z</time></trkpt><trkpt lat="41.3140368" lon="13.9928987"><ele>699.4</ele><time>2026-05-02T13:24:33.749Z</time></trkpt><trkpt lat="41.314119" lon="13.9929597"><ele>695.1999999999999</ele><time>2026-05-02T13:24:34.75Z</time></trkpt><trkpt lat="41.3142038" lon="13.9930253"><ele>691.0</ele><time>2026-05-02T13:24:35.75Z</time></trkpt><trkpt lat="41.314298" lon="13.9930907"><ele>691.0</ele><time>2026-05-02T13:24:36.751Z</time></trkpt><trkpt lat="41.3143893" lon="13.9931463"><ele>691.0</ele><time>2026-05-02T13:24:37.754Z</time></trkpt><trkpt lat="41.3144788" lon="13.9932"><ele>691.0</ele><time>2026-05-02T13:24:38.751Z</time></trkpt><trkpt lat="41.3145597" lon="13.9932525"><ele>691.0</ele><time>2026-05-02T13:24:39.749Z</time></trkpt><trkpt lat="41.3146312" lon="13.993321"><ele>691.0</ele><time>2026-05-02T13:24:40.758Z</time></trkpt><trkpt lat="41.314705" lon="13.9934003"><ele>686.5</ele><time>2026-05-02T13:24:41.754Z</time></trkpt><trkpt lat="41.3147968" lon="13.9934967"><ele>682.0</ele><time>2026-05-02T13:24:42.753Z</time></trkpt><trkpt lat="41.3148858" lon="13.9935903"><ele>677.5</ele><time>2026-05-02T13:24:43.752Z</time></trkpt><trkpt lat="41.3149702" lon="13.9936963"><ele>673.0</ele><time>2026-05-02T13:24:44.751Z</time></trkpt><trkpt lat="41.3150597" lon="13.9938158"><ele>673.0</ele><time>2026-05-02T13:24:45.752Z</time></trkpt><trkpt lat="41.3151367" lon="13.99392"><ele>673.0</ele><time>2026-05-02T13:24:46.753Z</time></trkpt><trkpt lat="41.3152103" lon="13.994013"><ele>673.0</ele><time>2026-05-02T13:24:47.754Z</time></trkpt><trkpt lat="41.3152755" lon="13.9940982"><ele>673.0</ele><time>2026-05-02T13:24:48.753Z</time></trkpt><trkpt lat="41.3153397" lon="13.9941785"><ele>673.0</ele><time>2026-05-02T13:24:49.753Z</time></trkpt><trkpt lat="41.3154125" lon="13.9942582"><ele>674.0</ele><time>2026-05-02T13:24:50.752Z</time></trkpt><trkpt lat="41.3154918" lon="13.9943367"><ele>675.0</ele><time>2026-05-02T13:24:51.752Z</time></trkpt><trkpt lat="41.3155688" lon="13.9944098"><ele>676.0</ele><time>2026-05-02T13:24:52.752Z</time></trkpt><trkpt lat="41.3156377" lon="13.9944752"><ele>677.0</ele><time>2026-05-02T13:24:53.755Z</time></trkpt><trkpt lat="41.3157025" lon="13.994528"><ele>678.0</ele><time>2026-05-02T13:24:54.758Z</time></trkpt><trkpt lat="41.3157642" lon="13.9945753"><ele>679.0</ele><time>2026-05-02T13:24:55.755Z</time></trkpt><trkpt lat="41.3158503" lon="13.9946867"><ele>679.0</ele><time>2026-05-02T13:24:57.754Z</time></trkpt><trkpt lat="41.3158947" lon="13.994763"><ele>679.0</ele><time>2026-05-02T13:24:58.751Z</time></trkpt><trkpt lat="41.3159423" lon="13.9948438"><ele>679.0</ele><time>2026-05-02T13:24:59.751Z</time></trkpt><trkpt lat="41.315998" lon="13.9949202"><ele>679.0</ele><time>2026-05-02T13:25:00.753Z</time></trkpt><trkpt lat="41.3160597" lon="13.9950038"><ele>679.0</ele><time>2026-05-02T13:25:01.753Z</time></trkpt><trkpt lat="41.3161222" lon="13.995089"><ele>679.0</ele><time>2026-05-02T13:25:02.751Z</time></trkpt><trkpt lat="41.3161892" lon="13.9951757"><ele>679.6</ele><time>2026-05-02T13:25:03.752Z</time></trkpt><trkpt lat="41.3162592" lon="13.9952652"><ele>680.2</ele><time>2026-05-02T13:25:04.756Z</time></trkpt><trkpt lat="41.3163305" lon="13.9953587"><ele>680.8000000000001</ele><time>2026-05-02T13:25:05.755Z</time></trkpt><trkpt lat="41.3164028" lon="13.9954593"><ele>681.4000000000001</ele><time>2026-05-02T13:25:06.755Z</time></trkpt><trkpt lat="41.316485" lon="13.995559"><ele>682.0</ele><time>2026-05-02T13:25:07.754Z</time></trkpt><trkpt lat="41.3165697" lon="13.9956532"><ele>682.0</ele><time>2026-05-02T13:25:08.752Z</time></trkpt><trkpt lat="41.3166588" lon="13.9957413"><ele>682.0</ele><time>2026-05-02T13:25:09.755Z</time></trkpt><trkpt lat="41.3167433" lon="13.9958215"><ele>682.0</ele><time>2026-05-02T13:25:10.755Z</time></trkpt><trkpt lat="41.3168233" lon="13.9959037"><ele>682.0</ele><time>2026-05-02T13:25:11.755Z</time></trkpt><trkpt lat="41.3169093" lon="13.9960013"><ele>682.0</ele><time>2026-05-02T13:25:12.755Z</time></trkpt><trkpt lat="41.3169958" lon="13.9961123"><ele>680.5</ele><time>2026-05-02T13:25:13.755Z</time></trkpt><trkpt lat="41.3170802" lon="13.996222"><ele>679.0</ele><time>2026-05-02T13:25:14.752Z</time></trkpt><trkpt lat="41.317168" lon="13.9963333"><ele>677.5</ele><time>2026-05-02T13:25:15.753Z</time></trkpt><trkpt lat="41.3172552" lon="13.9964408"><ele>676.0</ele><time>2026-05-02T13:25:16.749Z</time></trkpt><trkpt lat="41.3173363" lon="13.996543"><ele>675.5999999999999</ele><time>2026-05-02T13:25:17.752Z</time></trkpt><trkpt lat="41.3174133" lon="13.9966403"><ele>675.2</ele><time>2026-05-02T13:25:18.753Z</time></trkpt><trkpt lat="41.3174843" lon="13.99674"><ele>674.8</ele><time>2026-05-02T13:25:19.754Z</time></trkpt><trkpt lat="41.3175523" lon="13.9968493"><ele>674.4000000000001</ele><time>2026-05-02T13:25:20.754Z</time></trkpt><trkpt lat="41.3176153" lon="13.9969642"><ele>674.0</ele><time>2026-05-02T13:25:21.751Z</time></trkpt><trkpt lat="41.317672" lon="13.997072"><ele>671.8333333333333</ele><time>2026-05-02T13:25:22.75Z</time></trkpt><trkpt lat="41.317722" lon="13.997165"><ele>669.6666666666666</ele><time>2026-05-02T13:25:23.749Z</time></trkpt><trkpt lat="41.3177738" lon="13.9972435"><ele>667.5</ele><time>2026-05-02T13:25:24.752Z</time></trkpt><trkpt lat="41.3178297" lon="13.9973157"><ele>665.3333333333334</ele><time>2026-05-02T13:25:25.751Z</time></trkpt><trkpt lat="41.3178903" lon="13.9973737"><ele>663.1666666666667</ele><time>2026-05-02T13:25:26.754Z</time></trkpt><trkpt lat="41.3179595" lon="13.9974338"><ele>661.0</ele><time>2026-05-02T13:25:27.751Z</time></trkpt><trkpt lat="41.318033" lon="13.9974837"><ele>657.5999999999999</ele><time>2026-05-02T13:25:28.75Z</time></trkpt><trkpt lat="41.318098" lon="13.997533"><ele>654.2</ele><time>2026-05-02T13:25:29.752Z</time></trkpt><trkpt lat="41.3181617" lon="13.997573"><ele>650.8</ele><time>2026-05-02T13:25:30.747Z</time></trkpt><trkpt lat="41.318265" lon="13.997649"><ele>647.4000000000001</ele><time>2026-05-02T13:25:32.753Z</time></trkpt><trkpt lat="41.318353" lon="13.997736"><ele>644.0</ele><time>2026-05-02T13:25:34.752Z</time></trkpt><trkpt lat="41.3184417" lon="13.9977955"><ele>644.0</ele><time>2026-05-02T13:25:36.748Z</time></trkpt><trkpt lat="41.3185367" lon="13.9978393"><ele>644.0</ele><time>2026-05-02T13:25:38.75Z</time></trkpt><trkpt lat="41.318647" lon="13.9978722"><ele>644.0</ele><time>2026-05-02T13:25:40.751Z</time></trkpt><trkpt lat="41.3187582" lon="13.9979213"><ele>644.0</ele><time>2026-05-02T13:25:42.752Z</time></trkpt><trkpt lat="41.318873" lon="13.9979682"><ele>642.8000000000001</ele><time>2026-05-02T13:25:44.749Z</time></trkpt><trkpt lat="41.3189795" lon="13.9980282"><ele>641.6</ele><time>2026-05-02T13:25:46.747Z</time></trkpt><trkpt lat="41.3190705" lon="13.9980968"><ele>640.4</ele><time>2026-05-02T13:25:48.746Z</time></trkpt><trkpt lat="41.319162" lon="13.9981892"><ele>639.2</ele><time>2026-05-02T13:25:50.747Z</time></trkpt><trkpt lat="41.319212" lon="13.9982568"><ele>638.0</ele><time>2026-05-02T13:25:51.747Z</time></trkpt><trkpt lat="41.3193055" lon="13.998376"><ele>633.5</ele><time>2026-05-02T13:25:53.752Z</time></trkpt><trkpt lat="41.3193703" lon="13.9984388"><ele>629.0</ele><time>2026-05-02T13:25:54.751Z</time></trkpt><trkpt lat="41.3194393" lon="13.9984957"><ele>624.5</ele><time>2026-05-02T13:25:55.752Z</time></trkpt><trkpt lat="41.3195095" lon="13.9985495"><ele>620.0</ele><time>2026-05-02T13:25:56.748Z</time></trkpt><trkpt lat="41.319584" lon="13.9986122"><ele>615.5</ele><time>2026-05-02T13:25:57.749Z</time></trkpt><trkpt lat="41.3196482" lon="13.998672"><ele>611.0</ele><time>2026-05-02T13:25:58.751Z</time></trkpt><trkpt lat="41.3197053" lon="13.998719"><ele>612.0</ele><time>2026-05-02T13:25:59.752Z</time></trkpt><trkpt lat="41.319765" lon="13.9987665"><ele>613.0</ele><time>2026-05-02T13:26:00.748Z</time></trkpt><trkpt lat="41.3198343" lon="13.99882"><ele>614.0</ele><time>2026-05-02T13:26:01.748Z</time></trkpt><trkpt lat="41.3199043" lon="13.9988788"><ele>615.0</ele><time>2026-05-02T13:26:02.748Z</time></trkpt><trkpt lat="41.3199733" lon="13.9989433"><ele>616.0</ele><time>2026-05-02T13:26:03.752Z</time></trkpt><trkpt lat="41.3200437" lon="13.9990095"><ele>617.0</ele><time>2026-05-02T13:26:04.753Z</time></trkpt><trkpt lat="41.3201197" lon="13.999102"><ele>615.0</ele><time>2026-05-02T13:26:05.753Z</time></trkpt><trkpt lat="41.3201922" lon="13.9992107"><ele>613.0</ele><time>2026-05-02T13:26:06.754Z</time></trkpt><trkpt lat="41.3202582" lon="13.9993288"><ele>611.0</ele><time>2026-05-02T13:26:07.755Z</time></trkpt><trkpt lat="41.3203145" lon="13.9994552"><ele>609.0</ele><time>2026-05-02T13:26:08.755Z</time></trkpt><trkpt lat="41.3203693" lon="13.9995908"><ele>607.0</ele><time>2026-05-02T13:26:09.754Z</time></trkpt><trkpt lat="41.320431" lon="13.999732"><ele>607.0</ele><time>2026-05-02T13:26:10.754Z</time></trkpt><trkpt lat="41.3204947" lon="13.9998705"><ele>607.0</ele><time>2026-05-02T13:26:11.752Z</time></trkpt><trkpt lat="41.3205535" lon="14.0000132"><ele>607.0</ele><time>2026-05-02T13:26:12.752Z</time></trkpt><trkpt lat="41.3206113" lon="14.0001572"><ele>607.0</ele><time>2026-05-02T13:26:13.75Z</time></trkpt><trkpt lat="41.3206627" lon="14.0002872"><ele>607.2</ele><time>2026-05-02T13:26:14.752Z</time></trkpt><trkpt lat="41.3207058" lon="14.0004092"><ele>607.4000000000001</ele><time>2026-05-02T13:26:15.751Z</time></trkpt><trkpt lat="41.3207445" lon="14.0005242"><ele>607.5999999999999</ele><time>2026-05-02T13:26:16.753Z</time></trkpt><trkpt lat="41.3207882" lon="14.0006288"><ele>607.8</ele><time>2026-05-02T13:26:17.751Z</time></trkpt><trkpt lat="41.3208392" lon="14.0007252"><ele>608.0</ele><time>2026-05-02T13:26:18.752Z</time></trkpt><trkpt lat="41.320899" lon="14.0008182"><ele>607.8</ele><time>2026-05-02T13:26:19.752Z</time></trkpt><trkpt lat="41.3209637" lon="14.0009"><ele>607.5999999999999</ele><time>2026-05-02T13:26:20.75Z</time></trkpt><trkpt lat="41.321023" lon="14.0009635"><ele>607.4000000000001</ele><time>2026-05-02T13:26:21.757Z</time></trkpt><trkpt lat="41.3211078" lon="14.0010547"><ele>607.2</ele><time>2026-05-02T13:26:23.75Z</time></trkpt><trkpt lat="41.32119" lon="14.0011787"><ele>607.0</ele><time>2026-05-02T13:26:25.752Z</time></trkpt><trkpt lat="41.321225" lon="14.0012538"><ele>607.0</ele><time>2026-05-02T13:26:26.752Z</time></trkpt><trkpt lat="41.3212638" lon="14.0013423"><ele>607.0</ele><time>2026-05-02T13:26:27.754Z</time></trkpt><trkpt lat="41.3213217" lon="14.00143"><ele>607.0</ele><time>2026-05-02T13:26:28.753Z</time></trkpt><trkpt lat="41.3213837" lon="14.001518"><ele>607.0</ele><time>2026-05-02T13:26:29.755Z</time></trkpt><trkpt lat="41.3214388" lon="14.0015953"><ele>607.0</ele><time>2026-05-02T13:26:30.753Z</time></trkpt><trkpt lat="41.3214858" lon="14.0016698"><ele>607.0</ele><time>2026-05-02T13:26:31.754Z</time></trkpt><trkpt lat="41.3215342" lon="14.00173"><ele>606.0</ele><time>2026-05-02T13:26:32.752Z</time></trkpt><trkpt lat="41.3216075" lon="14.001838"><ele>605.0</ele><time>2026-05-02T13:26:34.75Z</time></trkpt><trkpt lat="41.3216658" lon="14.0019523"><ele>604.0</ele><time>2026-05-02T13:26:36.747Z</time></trkpt><trkpt lat="41.3217183" lon="14.0020912"><ele>603.0</ele><time>2026-05-02T13:26:38.748Z</time></trkpt><trkpt lat="41.3217385" lon="14.0021728"><ele>602.0</ele><time>2026-05-02T13:26:39.749Z</time></trkpt><trkpt lat="41.3217598" lon="14.002339"><ele>602.0</ele><time>2026-05-02T13:26:41.754Z</time></trkpt><trkpt lat="41.3217642" lon="14.0024295"><ele>602.0</ele><time>2026-05-02T13:26:42.752Z</time></trkpt><trkpt lat="41.3217455" lon="14.0025138"><ele>602.0</ele><time>2026-05-02T13:26:43.75Z</time></trkpt><trkpt lat="41.3217257" lon="14.0026628"><ele>602.0</ele><time>2026-05-02T13:26:45.75Z</time></trkpt><trkpt lat="41.321726" lon="14.0028013"><ele>602.0</ele><time>2026-05-02T13:26:47.749Z</time></trkpt><trkpt lat="41.3217157" lon="14.0029578"><ele>601.8333333333333</ele><time>2026-05-02T13:26:49.756Z</time></trkpt><trkpt lat="41.321708" lon="14.0030413"><ele>601.6666666666666</ele><time>2026-05-02T13:26:50.752Z</time></trkpt><trkpt lat="41.3217008" lon="14.0031248"><ele>601.5</ele><time>2026-05-02T13:26:51.753Z</time></trkpt><trkpt lat="41.3216853" lon="14.0032763"><ele>601.3333333333334</ele><time>2026-05-02T13:26:53.75Z</time></trkpt><trkpt lat="41.3217003" lon="14.0034222"><ele>601.1666666666667</ele><time>2026-05-02T13:26:55.756Z</time></trkpt><trkpt lat="41.3217238" lon="14.0035328"><ele>601.0</ele><time>2026-05-02T13:26:57.754Z</time></trkpt><trkpt lat="41.321774" lon="14.003588"><ele>601.0</ele><time>2026-05-02T13:27:00.75Z</time></trkpt><trkpt lat="41.321775" lon="14.0034868"><ele>601.0</ele><time>2026-05-02T13:27:04.75Z</time></trkpt><trkpt lat="41.3217912" lon="14.003355"><ele>601.0</ele><time>2026-05-02T13:27:06.753Z</time></trkpt><trkpt lat="41.3218195" lon="14.0032162"><ele>601.0</ele><time>2026-05-02T13:27:08.752Z</time></trkpt><trkpt lat="41.3218253" lon="14.0031225"><ele>601.0</ele><time>2026-05-02T13:27:10.751Z</time></trkpt><trkpt lat="41.3218448" lon="14.003013"><ele>601.0</ele><time>2026-05-02T13:27:13.751Z</time></trkpt><trkpt lat="41.3218517" lon="14.0028998"><ele>601.0</ele><time>2026-05-02T13:27:15.749Z</time></trkpt><trkpt lat="41.3219052" lon="14.0028145"><ele>601.0</ele><time>2026-05-02T13:27:18.749Z</time></trkpt><trkpt lat="41.3219725" lon="14.0028082"><ele>601.0</ele><time>2026-05-02T13:27:20.748Z</time></trkpt><trkpt lat="41.3220618" lon="14.0027948"><ele>601.0</ele><time>2026-05-02T13:27:22.749Z</time></trkpt><trkpt lat="41.3221738" lon="14.002774"><ele>601.0</ele><time>2026-05-02T13:27:24.748Z</time></trkpt><trkpt lat="41.3222873" lon="14.0027653"><ele>600.25</ele><time>2026-05-02T13:27:26.752Z</time></trkpt><trkpt lat="41.3223972" lon="14.0027815"><ele>599.5</ele><time>2026-05-02T13:27:28.753Z</time></trkpt><trkpt lat="41.3225028" lon="14.0028348"><ele>598.75</ele><time>2026-05-02T13:27:30.754Z</time></trkpt><trkpt lat="41.3226085" lon="14.0028818"><ele>598.0</ele><time>2026-05-02T13:27:32.753Z</time></trkpt><trkpt lat="41.3227235" lon="14.0029092"><ele>598.0</ele><time>2026-05-02T13:27:34.752Z</time></trkpt><trkpt lat="41.3228485" lon="14.0029063"><ele>598.0</ele><time>2026-05-02T13:27:36.753Z</time></trkpt><trkpt lat="41.3229123" lon="14.0029018"><ele>598.0</ele><time>2026-05-02T13:27:37.753Z</time></trkpt><trkpt lat="41.3230262" lon="14.0028863"><ele>598.0</ele><time>2026-05-02T13:27:39.757Z</time></trkpt><trkpt lat="41.3231503" lon="14.0028787"><ele>598.0</ele><time>2026-05-02T13:27:41.752Z</time></trkpt><trkpt lat="41.3232173" lon="14.0028692"><ele>597.6666666666667</ele><time>2026-05-02T13:27:42.754Z</time></trkpt><trkpt lat="41.3232902" lon="14.0028658"><ele>597.3333333333334</ele><time>2026-05-02T13:27:43.755Z</time></trkpt><trkpt lat="41.3233565" lon="14.0028727"><ele>597.0</ele><time>2026-05-02T13:27:44.754Z</time></trkpt><trkpt lat="41.3234782" lon="14.0028873"><ele>596.6666666666666</ele><time>2026-05-02T13:27:46.755Z</time></trkpt><trkpt lat="41.323591" lon="14.0029415"><ele>596.3333333333333</ele><time>2026-05-02T13:27:48.754Z</time></trkpt><trkpt lat="41.323648" lon="14.0029813"><ele>596.0</ele><time>2026-05-02T13:27:49.752Z</time></trkpt><trkpt lat="41.3237122" lon="14.0030363"><ele>596.0</ele><time>2026-05-02T13:27:50.749Z</time></trkpt><trkpt lat="41.3237715" lon="14.003112"><ele>596.0</ele><time>2026-05-02T13:27:51.752Z</time></trkpt><trkpt lat="41.323823" lon="14.0031968"><ele>596.0</ele><time>2026-05-02T13:27:52.753Z</time></trkpt><trkpt lat="41.3238657" lon="14.0032725"><ele>596.0</ele><time>2026-05-02T13:27:53.754Z</time></trkpt><trkpt lat="41.3239102" lon="14.0033443"><ele>596.0</ele><time>2026-05-02T13:27:54.755Z</time></trkpt><trkpt lat="41.3239547" lon="14.003422"><ele>596.0</ele><time>2026-05-02T13:27:55.751Z</time></trkpt><trkpt lat="41.3239985" lon="14.0035033"><ele>596.5714285714286</ele><time>2026-05-02T13:27:56.752Z</time></trkpt><trkpt lat="41.3240418" lon="14.0035902"><ele>597.1428571428571</ele><time>2026-05-02T13:27:57.752Z</time></trkpt><trkpt lat="41.324084" lon="14.003681"><ele>597.7142857142857</ele><time>2026-05-02T13:27:58.754Z</time></trkpt><trkpt lat="41.3241277" lon="14.0037658"><ele>598.2857142857142</ele><time>2026-05-02T13:27:59.755Z</time></trkpt><trkpt lat="41.3241578" lon="14.0038422"><ele>598.8571428571429</ele><time>2026-05-02T13:28:00.752Z</time></trkpt><trkpt lat="41.3241892" lon="14.0039158"><ele>599.4285714285713</ele><time>2026-05-02T13:28:01.752Z</time></trkpt><trkpt lat="41.3242217" lon="14.0039908"><ele>600.0</ele><time>2026-05-02T13:28:02.751Z</time></trkpt><trkpt lat="41.3242723" lon="14.0040637"><ele>600.0</ele><time>2026-05-02T13:28:03.753Z</time></trkpt><trkpt lat="41.3243272" lon="14.0041253"><ele>600.0</ele><time>2026-05-02T13:28:04.752Z</time></trkpt><trkpt lat="41.3244122" lon="14.0042358"><ele>600.0</ele><time>2026-05-02T13:28:06.752Z</time></trkpt><trkpt lat="41.3244788" lon="14.0043525"><ele>600.0</ele><time>2026-05-02T13:28:08.75Z</time></trkpt><trkpt lat="41.3245282" lon="14.0044052"><ele>600.0</ele><time>2026-05-02T13:28:09.753Z</time></trkpt><trkpt lat="41.324589" lon="14.0044545"><ele>600.0</ele><time>2026-05-02T13:28:10.752Z</time></trkpt><trkpt lat="41.3246458" lon="14.0045095"><ele>601.3333333333334</ele><time>2026-05-02T13:28:11.752Z</time></trkpt><trkpt lat="41.324707" lon="14.0045688"><ele>602.6666666666666</ele><time>2026-05-02T13:28:12.751Z</time></trkpt><trkpt lat="41.3247547" lon="14.004642"><ele>604.0</ele><time>2026-05-02T13:28:13.751Z</time></trkpt><trkpt lat="41.324811" lon="14.0047205"><ele>605.3333333333333</ele><time>2026-05-02T13:28:14.75Z</time></trkpt><trkpt lat="41.3248677" lon="14.0047952"><ele>606.6666666666666</ele><time>2026-05-02T13:28:15.75Z</time></trkpt><trkpt lat="41.324926" lon="14.0048627"><ele>608.0</ele><time>2026-05-02T13:28:16.751Z</time></trkpt><trkpt lat="41.3249975" lon="14.0049287"><ele>606.0</ele><time>2026-05-02T13:28:17.749Z</time></trkpt><trkpt lat="41.3250653" lon="14.0049817"><ele>604.0</ele><time>2026-05-02T13:28:18.751Z</time></trkpt><trkpt lat="41.3251298" lon="14.0050295"><ele>602.0</ele><time>2026-05-02T13:28:19.749Z</time></trkpt><trkpt lat="41.3251938" lon="14.005084"><ele>600.0</ele><time>2026-05-02T13:28:20.748Z</time></trkpt><trkpt lat="41.3252613" lon="14.0051478"><ele>598.0</ele><time>2026-05-02T13:28:21.752Z</time></trkpt><trkpt lat="41.3253352" lon="14.0052112"><ele>596.0</ele><time>2026-05-02T13:28:22.752Z</time></trkpt><trkpt lat="41.325405" lon="14.0052637"><ele>596.0</ele><time>2026-05-02T13:28:23.752Z</time></trkpt><trkpt lat="41.3254708" lon="14.005315"><ele>596.0</ele><time>2026-05-02T13:28:24.752Z</time></trkpt><trkpt lat="41.3255318" lon="14.0053615"><ele>596.0</ele><time>2026-05-02T13:28:25.75Z</time></trkpt><trkpt lat="41.3256353" lon="14.0054068"><ele>596.0</ele><time>2026-05-02T13:28:27.754Z</time></trkpt><trkpt lat="41.3257305" lon="14.0054305"><ele>596.0</ele><time>2026-05-02T13:28:29.75Z</time></trkpt><trkpt lat="41.3258117" lon="14.0054705"><ele>596.0</ele><time>2026-05-02T13:28:31.75Z</time></trkpt><trkpt lat="41.3258963" lon="14.005522"><ele>595.6</ele><time>2026-05-02T13:28:33.75Z</time></trkpt><trkpt lat="41.326005" lon="14.0055428"><ele>595.2</ele><time>2026-05-02T13:28:35.75Z</time></trkpt><trkpt lat="41.3260917" lon="14.0055773"><ele>594.8</ele><time>2026-05-02T13:28:37.749Z</time></trkpt><trkpt lat="41.3261585" lon="14.0056468"><ele>594.4</ele><time>2026-05-02T13:28:39.748Z</time></trkpt><trkpt lat="41.3262338" lon="14.0057575"><ele>594.0</ele><time>2026-05-02T13:28:41.752Z</time></trkpt><trkpt lat="41.32629" lon="14.0058793"><ele>594.0</ele><time>2026-05-02T13:28:43.752Z</time></trkpt><trkpt lat="41.3263292" lon="14.005972"><ele>594.0</ele><time>2026-05-02T13:28:45.752Z</time></trkpt><trkpt lat="41.3263155" lon="14.00608"><ele>594.0</ele><time>2026-05-02T13:28:48.751Z</time></trkpt><trkpt lat="41.3262673" lon="14.0061768"><ele>594.0</ele><time>2026-05-02T13:28:51.749Z</time></trkpt><trkpt lat="41.326234" lon="14.0062748"><ele>594.0</ele><time>2026-05-02T13:28:53.75Z</time></trkpt><trkpt lat="41.3262087" lon="14.0063685"><ele>594.0</ele><time>2026-05-02T13:28:55.75Z</time></trkpt><trkpt lat="41.3262" lon="14.0064598"><ele>594.0</ele><time>2026-05-02T13:28:57.754Z</time></trkpt><trkpt lat="41.3262042" lon="14.0065998"><ele>594.0</ele><time>2026-05-02T13:28:59.752Z</time></trkpt><trkpt lat="41.3262175" lon="14.0066952"><ele>594.0</ele><time>2026-05-02T13:29:00.752Z</time></trkpt><trkpt lat="41.3262277" lon="14.006797"><ele>594.0</ele><time>2026-05-02T13:29:01.754Z</time></trkpt><trkpt lat="41.3262433" lon="14.0069022"><ele>594.0</ele><time>2026-05-02T13:29:03.748Z</time></trkpt><trkpt lat="41.3262652" lon="14.0069815"><ele>594.0</ele><time>2026-05-02T13:29:05.751Z</time></trkpt><trkpt lat="41.3262645" lon="14.0070797"><ele>592.5</ele><time>2026-05-02T13:29:07.753Z</time></trkpt><trkpt lat="41.3263092" lon="14.0071732"><ele>591.0</ele><time>2026-05-02T13:29:09.749Z</time></trkpt><trkpt lat="41.3263648" lon="14.0072743"><ele>589.5</ele><time>2026-05-02T13:29:11.751Z</time></trkpt><trkpt lat="41.3263962" lon="14.0073747"><ele>588.0</ele><time>2026-05-02T13:29:13.75Z</time></trkpt><trkpt lat="41.3264587" lon="14.0074535"><ele>586.5</ele><time>2026-05-02T13:29:15.748Z</time></trkpt><trkpt lat="41.3265265" lon="14.0075162"><ele>585.0</ele><time>2026-05-02T13:29:17.752Z</time></trkpt><trkpt lat="41.3265815" lon="14.0075692"><ele>578.8333333333334</ele><time>2026-05-02T13:29:19.751Z</time></trkpt><trkpt lat="41.3266295" lon="14.0076523"><ele>572.6666666666666</ele><time>2026-05-02T13:29:21.748Z</time></trkpt><trkpt lat="41.326683" lon="14.00774"><ele>566.5</ele><time>2026-05-02T13:29:23.75Z</time></trkpt><trkpt lat="41.32673" lon="14.0078018"><ele>560.3333333333333</ele><time>2026-05-02T13:29:26.749Z</time></trkpt><trkpt lat="41.3268148" lon="14.0078035"><ele>554.1666666666666</ele><time>2026-05-02T13:29:30.746Z</time></trkpt><trkpt lat="41.3268957" lon="14.0078028"><ele>548.0</ele><time>2026-05-02T13:29:32.748Z</time></trkpt><trkpt lat="41.3269738" lon="14.0077627"><ele>548.0000000000001</ele><time>2026-05-02T13:29:34.749Z</time></trkpt><trkpt lat="41.327036" lon="14.0077915"><ele>548.0</ele><time>2026-05-02T13:29:36.75Z</time></trkpt><trkpt lat="41.3270747" lon="14.0078803"><ele>548.0</ele><time>2026-05-02T13:29:38.749Z</time></trkpt><trkpt lat="41.3270695" lon="14.007969"><ele>548.0</ele><time>2026-05-02T13:29:40.752Z</time></trkpt><trkpt lat="41.3270642" lon="14.00807"><ele>548.0</ele><time>2026-05-02T13:29:43.751Z</time></trkpt><trkpt lat="41.32703" lon="14.0081438"><ele>548.0000000000001</ele><time>2026-05-02T13:29:47.749Z</time></trkpt><trkpt lat="41.3270185" lon="14.0082317"><ele>548.0</ele><time>2026-05-02T13:29:53.749Z</time></trkpt><trkpt lat="41.3269802" lon="14.0083155"><ele>546.1428571428572</ele><time>2026-05-02T13:29:56.752Z</time></trkpt><trkpt lat="41.3269258" lon="14.0083822"><ele>544.2857142857143</ele><time>2026-05-02T13:30:00.75Z</time></trkpt><trkpt lat="41.3268935" lon="14.0084658"><ele>542.4285714285714</ele><time>2026-05-02T13:30:05.748Z</time></trkpt><trkpt lat="41.326868" lon="14.008544"><ele>540.5714285714287</ele><time>2026-05-02T13:30:07.748Z</time></trkpt><trkpt lat="41.3268357" lon="14.0086342"><ele>538.7142857142858</ele><time>2026-05-02T13:30:09.748Z</time></trkpt><trkpt lat="41.3268167" lon="14.0087142"><ele>536.8571428571429</ele><time>2026-05-02T13:30:11.747Z</time></trkpt><trkpt lat="41.3267963" lon="14.0087993"><ele>535.0</ele><time>2026-05-02T13:30:13.75Z</time></trkpt><trkpt lat="41.3267767" lon="14.0089137"><ele>535.0</ele><time>2026-05-02T13:30:15.75Z</time></trkpt><trkpt lat="41.326758" lon="14.0090168"><ele>535.0</ele><time>2026-05-02T13:30:17.749Z</time></trkpt><trkpt lat="41.3267617" lon="14.0091465"><ele>535.0</ele><time>2026-05-02T13:30:19.751Z</time></trkpt><trkpt lat="41.3267765" lon="14.0092628"><ele>535.0</ele><time>2026-05-02T13:30:21.751Z</time></trkpt><trkpt lat="41.3268273" lon="14.0093487"><ele>535.0</ele><time>2026-05-02T13:30:23.755Z</time></trkpt><trkpt lat="41.326908" lon="14.0094555"><ele>531.1666666666667</ele><time>2026-05-02T13:30:25.752Z</time></trkpt><trkpt lat="41.3269517" lon="14.0095188"><ele>527.3333333333334</ele><time>2026-05-02T13:30:26.754Z</time></trkpt><trkpt lat="41.3269985" lon="14.0095883"><ele>523.5</ele><time>2026-05-02T13:30:27.753Z</time></trkpt><trkpt lat="41.3270517" lon="14.009669"><ele>519.6666666666666</ele><time>2026-05-02T13:30:28.755Z</time></trkpt><trkpt lat="41.3270992" lon="14.009753"><ele>515.8333333333333</ele><time>2026-05-02T13:30:29.751Z</time></trkpt><trkpt lat="41.3271357" lon="14.0098493"><ele>512.0</ele><time>2026-05-02T13:30:30.754Z</time></trkpt><trkpt lat="41.3271695" lon="14.0099433"><ele>509.66666666666663</ele><time>2026-05-02T13:30:31.754Z</time></trkpt><trkpt lat="41.3272087" lon="14.0100307"><ele>507.3333333333333</ele><time>2026-05-02T13:30:32.753Z</time></trkpt><trkpt lat="41.3272457" lon="14.0101183"><ele>505.0</ele><time>2026-05-02T13:30:33.752Z</time></trkpt><trkpt lat="41.3272827" lon="14.0101938"><ele>502.66666666666663</ele><time>2026-05-02T13:30:34.752Z</time></trkpt><trkpt lat="41.3273452" lon="14.0103055"><ele>500.3333333333333</ele><time>2026-05-02T13:30:36.754Z</time></trkpt><trkpt lat="41.3274263" lon="14.0103975"><ele>498.0</ele><time>2026-05-02T13:30:38.75Z</time></trkpt><trkpt lat="41.3275022" lon="14.010461"><ele>497.4</ele><time>2026-05-02T13:30:40.75Z</time></trkpt><trkpt lat="41.3275762" lon="14.0105057"><ele>496.79999999999995</ele><time>2026-05-02T13:30:42.75Z</time></trkpt><trkpt lat="41.3276705" lon="14.0105308"><ele>496.2</ele><time>2026-05-02T13:30:44.752Z</time></trkpt><trkpt lat="41.3277813" lon="14.010599"><ele>495.6</ele><time>2026-05-02T13:30:46.754Z</time></trkpt><trkpt lat="41.3278652" lon="14.0106755"><ele>495.0</ele><time>2026-05-02T13:30:48.751Z</time></trkpt><trkpt lat="41.3279198" lon="14.010726"><ele>495.0</ele><time>2026-05-02T13:30:49.752Z</time></trkpt><trkpt lat="41.3279662" lon="14.0107865"><ele>495.0</ele><time>2026-05-02T13:30:50.752Z</time></trkpt><trkpt lat="41.3280442" lon="14.0109005"><ele>495.0</ele><time>2026-05-02T13:30:52.755Z</time></trkpt><trkpt lat="41.3281195" lon="14.0110008"><ele>495.0</ele><time>2026-05-02T13:30:54.753Z</time></trkpt><trkpt lat="41.3281768" lon="14.011074"><ele>495.0</ele><time>2026-05-02T13:30:56.75Z</time></trkpt><trkpt lat="41.3282337" lon="14.0111402"><ele>495.0</ele><time>2026-05-02T13:30:58.75Z</time></trkpt><trkpt lat="41.3282928" lon="14.0111968"><ele>494.2857142857142</ele><time>2026-05-02T13:31:00.751Z</time></trkpt><trkpt lat="41.3283498" lon="14.011242"><ele>493.57142857142856</ele><time>2026-05-02T13:31:02.75Z</time></trkpt><trkpt lat="41.3284225" lon="14.011295"><ele>492.85714285714283</ele><time>2026-05-02T13:31:05.749Z</time></trkpt><trkpt lat="41.3284865" lon="14.0113033"><ele>492.1428571428571</ele><time>2026-05-02T13:31:07.749Z</time></trkpt><trkpt lat="41.328567" lon="14.011298"><ele>491.42857142857144</ele><time>2026-05-02T13:31:09.75Z</time></trkpt><trkpt lat="41.3286447" lon="14.011273"><ele>490.7142857142857</ele><time>2026-05-02T13:31:11.751Z</time></trkpt><trkpt lat="41.328705" lon="14.0112333"><ele>490.0</ele><time>2026-05-02T13:31:13.754Z</time></trkpt><trkpt lat="41.3287783" lon="14.011161"><ele>490.00000000000006</ele><time>2026-05-02T13:31:16.755Z</time></trkpt><trkpt lat="41.328842" lon="14.0111078"><ele>490.0</ele><time>2026-05-02T13:31:18.754Z</time></trkpt><trkpt lat="41.3288995" lon="14.0110448"><ele>490.0</ele><time>2026-05-02T13:31:20.754Z</time></trkpt><trkpt lat="41.3289687" lon="14.010972"><ele>490.0</ele><time>2026-05-02T13:31:22.753Z</time></trkpt><trkpt lat="41.329045" lon="14.0109038"><ele>490.00000000000006</ele><time>2026-05-02T13:31:24.755Z</time></trkpt><trkpt lat="41.3291285" lon="14.0108313"><ele>490.0</ele><time>2026-05-02T13:31:26.752Z</time></trkpt><trkpt lat="41.3292112" lon="14.0107495"><ele>485.8</ele><time>2026-05-02T13:31:28.751Z</time></trkpt><trkpt lat="41.329296" lon="14.0106653"><ele>481.6</ele><time>2026-05-02T13:31:30.75Z</time></trkpt><trkpt lat="41.3293742" lon="14.0105858"><ele>477.4</ele><time>2026-05-02T13:31:32.751Z</time></trkpt><trkpt lat="41.3294488" lon="14.0105045"><ele>473.2</ele><time>2026-05-02T13:31:34.755Z</time></trkpt><trkpt lat="41.3295127" lon="14.0104208"><ele>469.0</ele><time>2026-05-02T13:31:36.754Z</time></trkpt><trkpt lat="41.329557" lon="14.0103333"><ele>469.00000000000006</ele><time>2026-05-02T13:31:38.752Z</time></trkpt><trkpt lat="41.329593" lon="14.0102475"><ele>469.0</ele><time>2026-05-02T13:31:40.751Z</time></trkpt><trkpt lat="41.3296682" lon="14.0101977"><ele>469.0</ele><time>2026-05-02T13:31:43.751Z</time></trkpt><trkpt lat="41.3297252" lon="14.0102527"><ele>469.0</ele><time>2026-05-02T13:31:45.753Z</time></trkpt><trkpt lat="41.3297975" lon="14.0103092"><ele>469.00000000000006</ele><time>2026-05-02T13:31:48.754Z</time></trkpt><trkpt lat="41.3298563" lon="14.0103648"><ele>469.0</ele><time>2026-05-02T13:31:51.749Z</time></trkpt><trkpt lat="41.3298242" lon="14.0104563"><ele>470.50000000000006</ele><time>2026-05-02T13:31:55.751Z</time></trkpt><trkpt lat="41.3297905" lon="14.010528"><ele>472.0</ele><time>2026-05-02T13:31:58.754Z</time></trkpt><trkpt lat="41.3297495" lon="14.0106327"><ele>473.5</ele><time>2026-05-02T13:32:01.752Z</time></trkpt><trkpt lat="41.3297427" lon="14.0107343"><ele>475.0</ele><time>2026-05-02T13:32:04.751Z</time></trkpt><trkpt lat="41.3297745" lon="14.0108128"><ele>476.50000000000006</ele><time>2026-05-02T13:32:07.754Z</time></trkpt><trkpt lat="41.329739" lon="14.0109313"><ele>478.0</ele><time>2026-05-02T13:32:10.751Z</time></trkpt><trkpt lat="41.3297192" lon="14.0110628"><ele>478.0</ele><time>2026-05-02T13:32:12.751Z</time></trkpt><trkpt lat="41.3297082" lon="14.0112093"><ele>478.0</ele><time>2026-05-02T13:32:14.753Z</time></trkpt><trkpt lat="41.3296967" lon="14.0113497"><ele>478.0</ele><time>2026-05-02T13:32:16.754Z</time></trkpt><trkpt lat="41.3296842" lon="14.0115057"><ele>478.0</ele><time>2026-05-02T13:32:18.753Z</time></trkpt><trkpt lat="41.3296762" lon="14.011667"><ele>477.6666666666667</ele><time>2026-05-02T13:32:20.752Z</time></trkpt><trkpt lat="41.3296618" lon="14.0117558"><ele>477.33333333333337</ele><time>2026-05-02T13:32:21.749Z</time></trkpt><trkpt lat="41.3296527" lon="14.0118513"><ele>477.0</ele><time>2026-05-02T13:32:22.751Z</time></trkpt><trkpt lat="41.3296407" lon="14.0119692"><ele>476.66666666666663</ele><time>2026-05-02T13:32:23.752Z</time></trkpt><trkpt lat="41.3296288" lon="14.0120967"><ele>476.3333333333333</ele><time>2026-05-02T13:32:24.754Z</time></trkpt><trkpt lat="41.3296205" lon="14.0122273"><ele>476.0</ele><time>2026-05-02T13:32:25.755Z</time></trkpt><trkpt lat="41.3296138" lon="14.0123477"><ele>475.99999999999994</ele><time>2026-05-02T13:32:26.754Z</time></trkpt><trkpt lat="41.3296123" lon="14.0124653"><ele>476.0</ele><time>2026-05-02T13:32:27.751Z</time></trkpt><trkpt lat="41.329613" lon="14.0125735"><ele>476.0</ele><time>2026-05-02T13:32:28.755Z</time></trkpt><trkpt lat="41.3296293" lon="14.0126787"><ele>476.0</ele><time>2026-05-02T13:32:29.754Z</time></trkpt><trkpt lat="41.3296537" lon="14.012785"><ele>475.99999999999994</ele><time>2026-05-02T13:32:30.754Z</time></trkpt><trkpt lat="41.3296793" lon="14.0128898"><ele>476.0</ele><time>2026-05-02T13:32:31.751Z</time></trkpt><trkpt lat="41.3297083" lon="14.012998"><ele>466.4</ele><time>2026-05-02T13:32:32.751Z</time></trkpt><trkpt lat="41.3297398" lon="14.013105"><ele>456.8</ele><time>2026-05-02T13:32:33.752Z</time></trkpt><trkpt lat="41.3297737" lon="14.0132182"><ele>447.19999999999993</ele><time>2026-05-02T13:32:34.752Z</time></trkpt><trkpt lat="41.3298113" lon="14.0133355"><ele>437.59999999999997</ele><time>2026-05-02T13:32:35.751Z</time></trkpt><trkpt lat="41.3298498" lon="14.013454"><ele>428.0</ele><time>2026-05-02T13:32:36.75Z</time></trkpt><trkpt lat="41.3298847" lon="14.0135672"><ele>427.5714285714286</ele><time>2026-05-02T13:32:37.752Z</time></trkpt><trkpt lat="41.3299155" lon="14.0136725"><ele>427.14285714285717</ele><time>2026-05-02T13:32:38.752Z</time></trkpt><trkpt lat="41.329944" lon="14.0137668"><ele>426.7142857142857</ele><time>2026-05-02T13:32:39.752Z</time></trkpt><trkpt lat="41.329966" lon="14.0138468"><ele>426.28571428571433</ele><time>2026-05-02T13:32:40.753Z</time></trkpt><trkpt lat="41.3299952" lon="14.0139228"><ele>425.85714285714283</ele><time>2026-05-02T13:32:41.75Z</time></trkpt><trkpt lat="41.3300297" lon="14.0140052"><ele>425.42857142857144</ele><time>2026-05-02T13:32:42.749Z</time></trkpt><trkpt lat="41.3300595" lon="14.014091"><ele>425.0</ele><time>2026-05-02T13:32:43.748Z</time></trkpt><trkpt lat="41.330102" lon="14.0141798"><ele>423.49999999999994</ele><time>2026-05-02T13:32:44.748Z</time></trkpt><trkpt lat="41.3301532" lon="14.0142633"><ele>422.0</ele><time>2026-05-02T13:32:45.749Z</time></trkpt><trkpt lat="41.3302108" lon="14.0143417"><ele>420.5</ele><time>2026-05-02T13:32:46.751Z</time></trkpt><trkpt lat="41.3302777" lon="14.0144122"><ele>419.0</ele><time>2026-05-02T13:32:47.754Z</time></trkpt><trkpt lat="41.330347" lon="14.014478"><ele>417.49999999999994</ele><time>2026-05-02T13:32:48.752Z</time></trkpt><trkpt lat="41.3304175" lon="14.0145462"><ele>416.0</ele><time>2026-05-02T13:32:49.754Z</time></trkpt><trkpt lat="41.3304912" lon="14.014614"><ele>415.49999999999994</ele><time>2026-05-02T13:32:50.75Z</time></trkpt><trkpt lat="41.3305663" lon="14.014681"><ele>415.0</ele><time>2026-05-02T13:32:51.751Z</time></trkpt><trkpt lat="41.330638" lon="14.0147493"><ele>414.5</ele><time>2026-05-02T13:32:52.752Z</time></trkpt><trkpt lat="41.3307062" lon="14.0148275"><ele>414.0</ele><time>2026-05-02T13:32:53.751Z</time></trkpt><trkpt lat="41.3307695" lon="14.0149107"><ele>413.49999999999994</ele><time>2026-05-02T13:32:54.75Z</time></trkpt><trkpt lat="41.330826" lon="14.0149978"><ele>413.0</ele><time>2026-05-02T13:32:55.755Z</time></trkpt><trkpt lat="41.3308772" lon="14.015094"><ele>413.0</ele><time>2026-05-02T13:32:56.752Z</time></trkpt><trkpt lat="41.3309298" lon="14.015192"><ele>413.0</ele><time>2026-05-02T13:32:57.751Z</time></trkpt><trkpt lat="41.330985" lon="14.0152917"><ele>413.0</ele><time>2026-05-02T13:32:58.751Z</time></trkpt><trkpt lat="41.3310437" lon="14.0153937"><ele>413.0</ele><time>2026-05-02T13:32:59.75Z</time></trkpt><trkpt lat="41.3311037" lon="14.0154997"><ele>413.0</ele><time>2026-05-02T13:33:00.756Z</time></trkpt><trkpt lat="41.3311602" lon="14.0156023"><ele>412.99999999999994</ele><time>2026-05-02T13:33:01.753Z</time></trkpt><trkpt lat="41.331217" lon="14.0156942"><ele>413.0</ele><time>2026-05-02T13:33:02.753Z</time></trkpt><trkpt lat="41.331276" lon="14.0157705"><ele>413.0</ele><time>2026-05-02T13:33:03.749Z</time></trkpt><trkpt lat="41.3313393" lon="14.0158207"><ele>413.0</ele><time>2026-05-02T13:33:04.753Z</time></trkpt><trkpt lat="41.3314063" lon="14.0158443"><ele>412.99999999999994</ele><time>2026-05-02T13:33:05.751Z</time></trkpt><trkpt lat="41.3314783" lon="14.015854"><ele>413.0</ele><time>2026-05-02T13:33:06.752Z</time></trkpt><trkpt lat="41.3315477" lon="14.0158587"><ele>412.0</ele><time>2026-05-02T13:33:07.754Z</time></trkpt><trkpt lat="41.3316132" lon="14.0158537"><ele>411.0</ele><time>2026-05-02T13:33:08.748Z</time></trkpt><trkpt lat="41.3316837" lon="14.0158473"><ele>410.0</ele><time>2026-05-02T13:33:09.747Z</time></trkpt><trkpt lat="41.3317615" lon="14.0158478"><ele>409.0</ele><time>2026-05-02T13:33:10.749Z</time></trkpt><trkpt lat="41.3318447" lon="14.0158457"><ele>408.0</ele><time>2026-05-02T13:33:11.75Z</time></trkpt><trkpt lat="41.331923" lon="14.0158458"><ele>407.0</ele><time>2026-05-02T13:33:12.752Z</time></trkpt><trkpt lat="41.3319948" lon="14.015843"><ele>406.0</ele><time>2026-05-02T13:33:13.757Z</time></trkpt><trkpt lat="41.33206" lon="14.0158387"><ele>406.0</ele><time>2026-05-02T13:33:14.756Z</time></trkpt><trkpt lat="41.33218" lon="14.0158363"><ele>406.0</ele><time>2026-05-02T13:33:16.757Z</time></trkpt><trkpt lat="41.3322707" lon="14.0158218"><ele>406.0</ele><time>2026-05-02T13:33:18.754Z</time></trkpt><trkpt lat="41.3323748" lon="14.015827"><ele>406.0</ele><time>2026-05-02T13:33:20.753Z</time></trkpt><trkpt lat="41.3324755" lon="14.0158507"><ele>406.0</ele><time>2026-05-02T13:33:22.749Z</time></trkpt><trkpt lat="41.332568" lon="14.0158742"><ele>405.33333333333337</ele><time>2026-05-02T13:33:24.748Z</time></trkpt><trkpt lat="41.3326762" lon="14.0159533"><ele>404.6666666666667</ele><time>2026-05-02T13:33:26.749Z</time></trkpt><trkpt lat="41.3327355" lon="14.015992"><ele>404.0</ele><time>2026-05-02T13:33:27.753Z</time></trkpt><trkpt lat="41.3328012" lon="14.0160323"><ele>403.33333333333337</ele><time>2026-05-02T13:33:28.751Z</time></trkpt><trkpt lat="41.3328717" lon="14.0160745"><ele>402.6666666666667</ele><time>2026-05-02T13:33:29.754Z</time></trkpt><trkpt lat="41.3329447" lon="14.0161237"><ele>402.0</ele><time>2026-05-02T13:33:30.752Z</time></trkpt><trkpt lat="41.3330168" lon="14.016169"><ele>400.1666666666667</ele><time>2026-05-02T13:33:31.751Z</time></trkpt><trkpt lat="41.3330923" lon="14.016214"><ele>398.33333333333337</ele><time>2026-05-02T13:33:32.752Z</time></trkpt><trkpt lat="41.3331723" lon="14.0162532"><ele>396.5</ele><time>2026-05-02T13:33:33.753Z</time></trkpt><trkpt lat="41.3332497" lon="14.016287"><ele>394.6666666666667</ele><time>2026-05-02T13:33:34.751Z</time></trkpt><trkpt lat="41.3333195" lon="14.0163168"><ele>392.83333333333337</ele><time>2026-05-02T13:33:35.753Z</time></trkpt><trkpt lat="41.333382" lon="14.0163402"><ele>391.0</ele><time>2026-05-02T13:33:36.754Z</time></trkpt><trkpt lat="41.3334937" lon="14.0163778"><ele>391.0</ele><time>2026-05-02T13:33:38.751Z</time></trkpt><trkpt lat="41.3335918" lon="14.0164153"><ele>391.0</ele><time>2026-05-02T13:33:40.753Z</time></trkpt><trkpt lat="41.3336898" lon="14.0164527"><ele>391.0</ele><time>2026-05-02T13:33:42.754Z</time></trkpt><trkpt lat="41.3337917" lon="14.0164983"><ele>391.0</ele><time>2026-05-02T13:33:44.752Z</time></trkpt><trkpt lat="41.3339007" lon="14.0165457"><ele>391.0</ele><time>2026-05-02T13:33:46.752Z</time></trkpt><trkpt lat="41.3340253" lon="14.016568"><ele>388.6666666666667</ele><time>2026-05-02T13:33:48.753Z</time></trkpt><trkpt lat="41.3341528" lon="14.0165832"><ele>386.33333333333337</ele><time>2026-05-02T13:33:50.755Z</time></trkpt><trkpt lat="41.3342263" lon="14.0165852"><ele>384.0</ele><time>2026-05-02T13:33:51.754Z</time></trkpt><trkpt lat="41.3343068" lon="14.0165878"><ele>381.6666666666667</ele><time>2026-05-02T13:33:52.755Z</time></trkpt><trkpt lat="41.334386" lon="14.0165897"><ele>379.33333333333337</ele><time>2026-05-02T13:33:53.754Z</time></trkpt><trkpt lat="41.3344643" lon="14.0165898"><ele>377.0</ele><time>2026-05-02T13:33:54.757Z</time></trkpt><trkpt lat="41.334536" lon="14.016591"><ele>377.0</ele><time>2026-05-02T13:33:55.755Z</time></trkpt><trkpt lat="41.334603" lon="14.016585"><ele>377.0</ele><time>2026-05-02T13:33:56.753Z</time></trkpt><trkpt lat="41.3346632" lon="14.0165565"><ele>377.0</ele><time>2026-05-02T13:33:57.754Z</time></trkpt><trkpt lat="41.3347497" lon="14.0164522"><ele>377.0</ele><time>2026-05-02T13:33:59.753Z</time></trkpt><trkpt lat="41.3347758" lon="14.0163158"><ele>377.0</ele><time>2026-05-02T13:34:01.755Z</time></trkpt><trkpt lat="41.3347403" lon="14.016205"><ele>377.0</ele><time>2026-05-02T13:34:03.754Z</time></trkpt><trkpt lat="41.3346812" lon="14.0161145"><ele>377.0</ele><time>2026-05-02T13:34:05.751Z</time></trkpt><trkpt lat="41.334612" lon="14.0160173"><ele>377.0</ele><time>2026-05-02T13:34:07.754Z</time></trkpt><trkpt lat="41.3345652" lon="14.0158975"><ele>377.0</ele><time>2026-05-02T13:34:09.753Z</time></trkpt><trkpt lat="41.33462" lon="14.01578"><ele>377.0</ele><time>2026-05-02T13:34:11.753Z</time></trkpt><trkpt lat="41.3347198" lon="14.0157958"><ele>377.0</ele><time>2026-05-02T13:34:13.756Z</time></trkpt><trkpt lat="41.3348072" lon="14.015912"><ele>374.40000000000003</ele><time>2026-05-02T13:34:15.755Z</time></trkpt><trkpt lat="41.3348505" lon="14.0159828"><ele>371.8</ele><time>2026-05-02T13:34:16.756Z</time></trkpt><trkpt lat="41.334887" lon="14.016052"><ele>369.2</ele><time>2026-05-02T13:34:17.754Z</time></trkpt><trkpt lat="41.334957" lon="14.0161763"><ele>366.6</ele><time>2026-05-02T13:34:19.756Z</time></trkpt><trkpt lat="41.3350225" lon="14.0162923"><ele>364.0</ele><time>2026-05-02T13:34:21.751Z</time></trkpt><trkpt lat="41.3350873" lon="14.016406"><ele>364.0</ele><time>2026-05-02T13:34:23.754Z</time></trkpt><trkpt lat="41.3351442" lon="14.016507"><ele>364.0</ele><time>2026-05-02T13:34:25.755Z</time></trkpt><trkpt lat="41.3352073" lon="14.0165722"><ele>364.0</ele><time>2026-05-02T13:34:27.753Z</time></trkpt><trkpt lat="41.335277" lon="14.0165823"><ele>364.0</ele><time>2026-05-02T13:34:29.749Z</time></trkpt><trkpt lat="41.3353" lon="14.0165037"><ele>364.0</ele><time>2026-05-02T13:34:32.753Z</time></trkpt><trkpt lat="41.3352035" lon="14.0165153"><ele>364.0</ele><time>2026-05-02T13:34:35.752Z</time></trkpt><trkpt lat="41.3351238" lon="14.0164417"><ele>364.0</ele><time>2026-05-02T13:34:37.755Z</time></trkpt><trkpt lat="41.3350613" lon="14.0163032"><ele>364.0</ele><time>2026-05-02T13:34:39.753Z</time></trkpt><trkpt lat="41.3350252" lon="14.0162297"><ele>364.0</ele><time>2026-05-02T13:34:40.751Z</time></trkpt><trkpt lat="41.3349867" lon="14.0161555"><ele>364.0</ele><time>2026-05-02T13:34:41.75Z</time></trkpt><trkpt lat="41.3349465" lon="14.0160822"><ele>364.0</ele><time>2026-05-02T13:34:42.751Z</time></trkpt><trkpt lat="41.3349065" lon="14.0160083"><ele>364.0</ele><time>2026-05-02T13:34:43.755Z</time></trkpt><trkpt lat="41.3348678" lon="14.0159355"><ele>364.0</ele><time>2026-05-02T13:34:44.754Z</time></trkpt><trkpt lat="41.3348298" lon="14.0158657"><ele>364.0</ele><time>2026-05-02T13:34:45.752Z</time></trkpt><trkpt lat="41.3347905" lon="14.0157992"><ele>364.0</ele><time>2026-05-02T13:34:46.753Z</time></trkpt><trkpt lat="41.3346905" lon="14.0157103"><ele>364.0</ele><time>2026-05-02T13:34:48.753Z</time></trkpt><trkpt lat="41.3345878" lon="14.0157537"><ele>364.0</ele><time>2026-05-02T13:34:50.754Z</time></trkpt><trkpt lat="41.3345882" lon="14.0158902"><ele>364.0</ele><time>2026-05-02T13:34:52.755Z</time></trkpt><trkpt lat="41.33467" lon="14.0160172"><ele>364.0</ele><time>2026-05-02T13:34:54.753Z</time></trkpt><trkpt lat="41.3347167" lon="14.0160753"><ele>364.0</ele><time>2026-05-02T13:34:55.755Z</time></trkpt><trkpt lat="41.334764" lon="14.0161335"><ele>364.0</ele><time>2026-05-02T13:34:56.755Z</time></trkpt><trkpt lat="41.3348037" lon="14.0162025"><ele>364.0</ele><time>2026-05-02T13:34:57.754Z</time></trkpt><trkpt lat="41.3348303" lon="14.0163562"><ele>364.0</ele><time>2026-05-02T13:34:59.755Z</time></trkpt><trkpt lat="41.3347658" lon="14.0164715"><ele>367.25</ele><time>2026-05-02T13:35:01.755Z</time></trkpt><trkpt lat="41.3346468" lon="14.016513"><ele>370.5</ele><time>2026-05-02T13:35:03.753Z</time></trkpt><trkpt lat="41.3345227" lon="14.0165243"><ele>373.75</ele><time>2026-05-02T13:35:05.752Z</time></trkpt><trkpt lat="41.3344015" lon="14.0165383"><ele>377.0</ele><time>2026-05-02T13:35:07.755Z</time></trkpt><trkpt lat="41.3343183" lon="14.0165438"><ele>377.0</ele><time>2026-05-02T13:35:09.755Z</time></trkpt><trkpt lat="41.3342533" lon="14.0165395"><ele>377.0</ele><time>2026-05-02T13:35:11.752Z</time></trkpt><trkpt lat="41.3341893" lon="14.0165415"><ele>377.0</ele><time>2026-05-02T13:35:14.753Z</time></trkpt><trkpt lat="41.3342547" lon="14.0165847"><ele>377.0</ele><time>2026-05-02T13:35:19.749Z</time></trkpt><trkpt lat="41.3343413" lon="14.0165982"><ele>377.0</ele><time>2026-05-02T13:35:21.747Z</time></trkpt><trkpt lat="41.3344365" lon="14.0166255"><ele>377.0</ele><time>2026-05-02T13:35:23.751Z</time></trkpt><trkpt lat="41.3345288" lon="14.0166555"><ele>376.8</ele><time>2026-05-02T13:35:25.752Z</time></trkpt><trkpt lat="41.3346243" lon="14.0166763"><ele>376.6</ele><time>2026-05-02T13:35:27.751Z</time></trkpt><trkpt lat="41.3347192" lon="14.0166935"><ele>376.40000000000003</ele><time>2026-05-02T13:35:29.754Z</time></trkpt><trkpt lat="41.3348162" lon="14.0167027"><ele>376.20000000000005</ele><time>2026-05-02T13:35:31.754Z</time></trkpt><trkpt lat="41.3349135" lon="14.0167023"><ele>376.0</ele><time>2026-05-02T13:35:33.749Z</time></trkpt><trkpt lat="41.3350075" lon="14.0167125"><ele>376.0</ele><time>2026-05-02T13:35:35.748Z</time></trkpt><trkpt lat="41.3351" lon="14.0167318"><ele>376.0</ele><time>2026-05-02T13:35:37.747Z</time></trkpt><trkpt lat="41.3351702" lon="14.0167667"><ele>376.0</ele><time>2026-05-02T13:35:39.749Z</time></trkpt><trkpt lat="41.3352312" lon="14.0168325"><ele>376.0</ele><time>2026-05-02T13:35:41.749Z</time></trkpt><trkpt lat="41.3353013" lon="14.0169468"><ele>376.0</ele><time>2026-05-02T13:35:43.751Z</time></trkpt><trkpt lat="41.3353402" lon="14.017021"><ele>376.0</ele><time>2026-05-02T13:35:44.752Z</time></trkpt><trkpt lat="41.335391" lon="14.0171115"><ele>376.0</ele><time>2026-05-02T13:35:45.752Z</time></trkpt><trkpt lat="41.3354493" lon="14.0172158"><ele>376.0</ele><time>2026-05-02T13:35:46.752Z</time></trkpt><trkpt lat="41.3354998" lon="14.017311"><ele>376.0</ele><time>2026-05-02T13:35:47.749Z</time></trkpt><trkpt lat="41.335549" lon="14.0173917"><ele>376.0</ele><time>2026-05-02T13:35:48.749Z</time></trkpt><trkpt lat="41.3355953" lon="14.0174693"><ele>376.0</ele><time>2026-05-02T13:35:49.75Z</time></trkpt><trkpt lat="41.335649" lon="14.0175465"><ele>376.0</ele><time>2026-05-02T13:35:50.751Z</time></trkpt><trkpt lat="41.3357107" lon="14.0176322"><ele>373.4</ele><time>2026-05-02T13:35:51.751Z</time></trkpt><trkpt lat="41.3357833" lon="14.0177207"><ele>370.8</ele><time>2026-05-02T13:35:52.753Z</time></trkpt><trkpt lat="41.3358642" lon="14.0178128"><ele>368.2</ele><time>2026-05-02T13:35:53.752Z</time></trkpt><trkpt lat="41.3359422" lon="14.0179078"><ele>365.59999999999997</ele><time>2026-05-02T13:35:54.75Z</time></trkpt><trkpt lat="41.3360152" lon="14.0180058"><ele>363.0</ele><time>2026-05-02T13:35:55.749Z</time></trkpt><trkpt lat="41.3360815" lon="14.0181062"><ele>363.0</ele><time>2026-05-02T13:35:56.75Z</time></trkpt><trkpt lat="41.3361393" lon="14.018216"><ele>363.0</ele><time>2026-05-02T13:35:57.748Z</time></trkpt><trkpt lat="41.3361933" lon="14.0183345"><ele>363.0</ele><time>2026-05-02T13:35:58.753Z</time></trkpt><trkpt lat="41.3362385" lon="14.0184617"><ele>363.0</ele><time>2026-05-02T13:35:59.749Z</time></trkpt><trkpt lat="41.3362788" lon="14.018594"><ele>363.0</ele><time>2026-05-02T13:36:00.749Z</time></trkpt><trkpt lat="41.3363153" lon="14.0187183"><ele>361.0</ele><time>2026-05-02T13:36:01.749Z</time></trkpt><trkpt lat="41.3363595" lon="14.018841"><ele>359.0</ele><time>2026-05-02T13:36:02.749Z</time></trkpt><trkpt lat="41.3364037" lon="14.018958"><ele>357.0</ele><time>2026-05-02T13:36:03.748Z</time></trkpt><trkpt lat="41.3364377" lon="14.0190603"><ele>355.0</ele><time>2026-05-02T13:36:04.75Z</time></trkpt><trkpt lat="41.3364627" lon="14.0191452"><ele>353.0</ele><time>2026-05-02T13:36:05.753Z</time></trkpt><trkpt lat="41.3364737" lon="14.019269"><ele>351.0</ele><time>2026-05-02T13:36:07.753Z</time></trkpt><trkpt lat="41.3365072" lon="14.0193603"><ele>347.6</ele><time>2026-05-02T13:36:09.755Z</time></trkpt><trkpt lat="41.336593" lon="14.019502"><ele>344.20000000000005</ele><time>2026-05-02T13:36:11.754Z</time></trkpt><trkpt lat="41.336636" lon="14.0195927"><ele>340.79999999999995</ele><time>2026-05-02T13:36:12.751Z</time></trkpt><trkpt lat="41.3366905" lon="14.019694"><ele>337.4</ele><time>2026-05-02T13:36:13.75Z</time></trkpt><trkpt lat="41.3367433" lon="14.0197975"><ele>334.0</ele><time>2026-05-02T13:36:14.75Z</time></trkpt><trkpt lat="41.336807" lon="14.0199"><ele>332.79999999999995</ele><time>2026-05-02T13:36:15.75Z</time></trkpt><trkpt lat="41.3368772" lon="14.0199988"><ele>331.59999999999997</ele><time>2026-05-02T13:36:16.752Z</time></trkpt><trkpt lat="41.3369565" lon="14.0200898"><ele>330.4</ele><time>2026-05-02T13:36:17.752Z</time></trkpt><trkpt lat="41.3370358" lon="14.0201902"><ele>329.2</ele><time>2026-05-02T13:36:18.752Z</time></trkpt><trkpt lat="41.3371098" lon="14.0203002"><ele>328.0</ele><time>2026-05-02T13:36:19.752Z</time></trkpt><trkpt lat="41.3371803" lon="14.0204173"><ele>326.25</ele><time>2026-05-02T13:36:20.75Z</time></trkpt><trkpt lat="41.3372497" lon="14.0205392"><ele>324.5</ele><time>2026-05-02T13:36:21.752Z</time></trkpt><trkpt lat="41.3373163" lon="14.0206685"><ele>322.75</ele><time>2026-05-02T13:36:22.752Z</time></trkpt><trkpt lat="41.337377" lon="14.0207987"><ele>321.0</ele><time>2026-05-02T13:36:23.751Z</time></trkpt><trkpt lat="41.3374285" lon="14.0209425"><ele>321.0</ele><time>2026-05-02T13:36:24.749Z</time></trkpt><trkpt lat="41.3374847" lon="14.02109"><ele>321.0</ele><time>2026-05-02T13:36:25.751Z</time></trkpt><trkpt lat="41.3375507" lon="14.0212358"><ele>321.0</ele><time>2026-05-02T13:36:26.75Z</time></trkpt><trkpt lat="41.3376245" lon="14.0213817"><ele>321.0</ele><time>2026-05-02T13:36:27.752Z</time></trkpt><trkpt lat="41.337709" lon="14.0215252"><ele>320.0</ele><time>2026-05-02T13:36:28.754Z</time></trkpt><trkpt lat="41.3378015" lon="14.0216613"><ele>319.0</ele><time>2026-05-02T13:36:29.751Z</time></trkpt><trkpt lat="41.3378955" lon="14.0217833"><ele>318.0</ele><time>2026-05-02T13:36:30.752Z</time></trkpt><trkpt lat="41.33799" lon="14.0218898"><ele>317.0</ele><time>2026-05-02T13:36:31.752Z</time></trkpt><trkpt lat="41.3380823" lon="14.0219775"><ele>316.25</ele><time>2026-05-02T13:36:32.752Z</time></trkpt><trkpt lat="41.338184" lon="14.022046"><ele>315.5</ele><time>2026-05-02T13:36:33.751Z</time></trkpt><trkpt lat="41.3383" lon="14.0221077"><ele>314.75</ele><time>2026-05-02T13:36:34.751Z</time></trkpt><trkpt lat="41.338415" lon="14.0221657"><ele>314.0</ele><time>2026-05-02T13:36:35.748Z</time></trkpt><trkpt lat="41.3385182" lon="14.0222175"><ele>314.0</ele><time>2026-05-02T13:36:36.753Z</time></trkpt><trkpt lat="41.338612" lon="14.0222705"><ele>314.0</ele><time>2026-05-02T13:36:37.756Z</time></trkpt><trkpt lat="41.3386923" lon="14.0223157"><ele>314.0</ele><time>2026-05-02T13:36:38.753Z</time></trkpt><trkpt lat="41.338757" lon="14.0223532"><ele>314.0</ele><time>2026-05-02T13:36:39.751Z</time></trkpt><trkpt lat="41.3388345" lon="14.0223498"><ele>314.0</ele><time>2026-05-02T13:36:41.752Z</time></trkpt><trkpt lat="41.3387812" lon="14.022277"><ele>314.0</ele><time>2026-05-02T13:36:44.752Z</time></trkpt><trkpt lat="41.3387093" lon="14.0222427"><ele>314.0</ele><time>2026-05-02T13:36:46.755Z</time></trkpt><trkpt lat="41.3386362" lon="14.022193"><ele>314.0</ele><time>2026-05-02T13:36:48.751Z</time></trkpt><trkpt lat="41.338623" lon="14.0220948"><ele>314.0</ele><time>2026-05-02T13:36:50.749Z</time></trkpt><trkpt lat="41.3386763" lon="14.0219942"><ele>314.0</ele><time>2026-05-02T13:36:52.754Z</time></trkpt><trkpt lat="41.3387362" lon="14.0218918"><ele>314.0</ele><time>2026-05-02T13:36:54.75Z</time></trkpt><trkpt lat="41.3387878" lon="14.021798"><ele>314.0</ele><time>2026-05-02T13:36:56.753Z</time></trkpt><trkpt lat="41.338838" lon="14.0217138"><ele>314.0</ele><time>2026-05-02T13:36:58.754Z</time></trkpt><trkpt lat="41.3388937" lon="14.0216443"><ele>314.0</ele><time>2026-05-02T13:37:01.753Z</time></trkpt><trkpt lat="41.3388182" lon="14.0217767"><ele>314.0</ele><time>2026-05-02T13:38:27.75Z</time></trkpt><trkpt lat="41.33878" lon="14.0218528"><ele>314.0</ele><time>2026-05-02T13:38:28.751Z</time></trkpt><trkpt lat="41.3387425" lon="14.0219223"><ele>314.0</ele><time>2026-05-02T13:38:29.748Z</time></trkpt><trkpt lat="41.3386762" lon="14.0220443"><ele>314.0</ele><time>2026-05-02T13:38:31.752Z</time></trkpt><trkpt lat="41.3386273" lon="14.0221312"><ele>314.0</ele><time>2026-05-02T13:38:33.752Z</time></trkpt><trkpt lat="41.3385423" lon="14.0221242"><ele>314.0</ele><time>2026-05-02T13:38:54.752Z</time></trkpt><trkpt lat="41.3384637" lon="14.0220655"><ele>314.0</ele><time>2026-05-02T13:38:56.751Z</time></trkpt><trkpt lat="41.3384015" lon="14.0220063"><ele>314.0</ele><time>2026-05-02T13:38:58.751Z</time></trkpt><trkpt lat="41.3383643" lon="14.0219272"><ele>314.0</ele><time>2026-05-02T13:39:01.753Z</time></trkpt><trkpt lat="41.3383957" lon="14.0218518"><ele>314.0</ele><time>2026-05-02T13:39:04.749Z</time></trkpt><trkpt lat="41.338445" lon="14.0217557"><ele>314.0</ele><time>2026-05-02T13:39:07.753Z</time></trkpt><trkpt lat="41.3384868" lon="14.0216793"><ele>314.0</ele><time>2026-05-02T13:39:09.747Z</time></trkpt><trkpt lat="41.3385342" lon="14.0215898"><ele>314.0</ele><time>2026-05-02T13:39:11.749Z</time></trkpt><trkpt lat="41.3385818" lon="14.0215198"><ele>314.0</ele><time>2026-05-02T13:39:13.751Z</time></trkpt><trkpt lat="41.3386417" lon="14.0214572"><ele>314.0</ele><time>2026-05-02T13:39:15.749Z</time></trkpt><trkpt lat="41.3387163" lon="14.0213858"><ele>314.0</ele><time>2026-05-02T13:39:17.748Z</time></trkpt><trkpt lat="41.3388508" lon="14.0212252"><ele>310.4</ele><time>2026-05-02T13:39:21.747Z</time></trkpt><trkpt lat="41.3390308" lon="14.0212057"><ele>306.79999999999995</ele><time>2026-05-02T13:39:25.748Z</time></trkpt><trkpt lat="41.3390992" lon="14.0211705"><ele>303.20000000000005</ele><time>2026-05-02T13:39:27.745Z</time></trkpt><trkpt lat="41.3391322" lon="14.0210755"><ele>299.6</ele><time>2026-05-02T13:39:29.747Z</time></trkpt><trkpt lat="41.3391738" lon="14.0209885"><ele>296.0</ele><time>2026-05-02T13:39:31.75Z</time></trkpt><trkpt lat="41.3392127" lon="14.0208873"><ele>294.5</ele><time>2026-05-02T13:39:34.748Z</time></trkpt><trkpt lat="41.339266" lon="14.0208127"><ele>293.0</ele><time>2026-05-02T13:39:36.747Z</time></trkpt><trkpt lat="41.3393333" lon="14.0207388"><ele>291.5</ele><time>2026-05-02T13:39:38.75Z</time></trkpt><trkpt lat="41.3393733" lon="14.0206668"><ele>290.0</ele><time>2026-05-02T13:39:40.748Z</time></trkpt><trkpt lat="41.339415" lon="14.020573"><ele>288.5</ele><time>2026-05-02T13:39:43.749Z</time></trkpt><trkpt lat="41.3394522" lon="14.0204608"><ele>287.0</ele><time>2026-05-02T13:39:46.747Z</time></trkpt><trkpt lat="41.3394567" lon="14.0203677"><ele>287.0</ele><time>2026-05-02T13:39:51.747Z</time></trkpt><trkpt lat="41.33951" lon="14.020315"><ele>287.0</ele><time>2026-05-02T13:39:57.747Z</time></trkpt><trkpt lat="41.3395333" lon="14.020223"><ele>287.0</ele><time>2026-05-02T13:40:00.749Z</time></trkpt><trkpt lat="41.339578" lon="14.0201613"><ele>287.0</ele><time>2026-05-02T13:40:05.744Z</time></trkpt><trkpt lat="41.3396407" lon="14.0201168"><ele>287.0</ele><time>2026-05-02T13:40:07.745Z</time></trkpt><trkpt lat="41.3396967" lon="14.0200393"><ele>287.0</ele><time>2026-05-02T13:40:10.746Z</time></trkpt><trkpt lat="41.3397042" lon="14.0199418"><ele>287.0</ele><time>2026-05-02T13:40:13.746Z</time></trkpt><trkpt lat="41.3397418" lon="14.019869"><ele>286.5</ele><time>2026-05-02T13:40:16.748Z</time></trkpt><trkpt lat="41.3398037" lon="14.0197967"><ele>286.0</ele><time>2026-05-02T13:40:19.747Z</time></trkpt><trkpt lat="41.339853" lon="14.0197365"><ele>285.5</ele><time>2026-05-02T13:40:25.745Z</time></trkpt><trkpt lat="41.3399018" lon="14.0196685"><ele>285.0</ele><time>2026-05-02T13:40:30.745Z</time></trkpt><trkpt lat="41.3399218" lon="14.0195693"><ele>284.5</ele><time>2026-05-02T13:40:33.744Z</time></trkpt><trkpt lat="41.3399588" lon="14.0194632"><ele>284.0</ele><time>2026-05-02T13:40:36.744Z</time></trkpt><trkpt lat="41.3399863" lon="14.0193812"><ele>284.0</ele><time>2026-05-02T13:40:41.747Z</time></trkpt><trkpt lat="41.3399868" lon="14.0192825"><ele>284.0</ele><time>2026-05-02T13:40:45.745Z</time></trkpt><trkpt lat="41.3399663" lon="14.019179"><ele>284.0</ele><time>2026-05-02T13:41:13.744Z</time></trkpt><trkpt lat="41.3400687" lon="14.0191212"><ele>284.0</ele><time>2026-05-02T13:43:12.748Z</time></trkpt><trkpt lat="41.3400023" lon="14.0191048"><ele>284.0</ele><time>2026-05-02T13:45:15.747Z</time></trkpt><trkpt lat="41.339975" lon="14.0191842"><ele>284.0</ele><time>2026-05-02T13:46:18.747Z</time></trkpt><trkpt lat="41.3399495" lon="14.0192685"><ele>284.0</ele><time>2026-05-02T13:46:57.746Z</time></trkpt><trkpt lat="41.3399917" lon="14.0193618"><ele>284.0</ele><time>2026-05-02T13:47:18.747Z</time></trkpt><trkpt lat="41.3400038" lon="14.0194467"><ele>284.0</ele><time>2026-05-02T13:47:34.747Z</time></trkpt><trkpt lat="41.3399663" lon="14.0193597"><ele>284.0</ele><time>2026-05-02T13:48:15.748Z</time></trkpt><trkpt lat="41.3399027" lon="14.019384"><ele>284.0</ele><time>2026-05-02T13:48:21.747Z</time></trkpt><trkpt lat="41.3398387" lon="14.0193835"><ele>284.0</ele><time>2026-05-02T13:48:29.747Z</time></trkpt><trkpt lat="41.339788" lon="14.0194965"><ele>284.0</ele><time>2026-05-02T13:48:33.75Z</time></trkpt><trkpt lat="41.3397343" lon="14.0195815"><ele>284.0</ele><time>2026-05-02T13:48:36.747Z</time></trkpt><trkpt lat="41.3396663" lon="14.0196672"><ele>284.0</ele><time>2026-05-02T13:48:39.747Z</time></trkpt><trkpt lat="41.3396178" lon="14.0197405"><ele>284.0</ele><time>2026-05-02T13:48:42.748Z</time></trkpt><trkpt lat="41.33958" lon="14.0198445"><ele>284.0</ele><time>2026-05-02T13:48:45.747Z</time></trkpt><trkpt lat="41.3395655" lon="14.0199263"><ele>284.0</ele><time>2026-05-02T13:48:49.75Z</time></trkpt><trkpt lat="41.3395227" lon="14.020044"><ele>284.5</ele><time>2026-05-02T13:48:52.749Z</time></trkpt><trkpt lat="41.3394797" lon="14.0201463"><ele>285.0</ele><time>2026-05-02T13:48:54.75Z</time></trkpt><trkpt lat="41.3394507" lon="14.0202413"><ele>285.5</ele><time>2026-05-02T13:48:56.748Z</time></trkpt><trkpt lat="41.339401" lon="14.0203555"><ele>286.0</ele><time>2026-05-02T13:48:58.755Z</time></trkpt><trkpt lat="41.3393477" lon="14.0204537"><ele>286.5</ele><time>2026-05-02T13:49:00.751Z</time></trkpt><trkpt lat="41.339292" lon="14.020531"><ele>287.0</ele><time>2026-05-02T13:49:02.748Z</time></trkpt><trkpt lat="41.3392265" lon="14.0205853"><ele>287.0</ele><time>2026-05-02T13:49:04.748Z</time></trkpt><trkpt lat="41.3391645" lon="14.0206382"><ele>287.0</ele><time>2026-05-02T13:49:06.75Z</time></trkpt><trkpt lat="41.3390877" lon="14.0207028"><ele>287.0</ele><time>2026-05-02T13:49:08.747Z</time></trkpt><trkpt lat="41.339009" lon="14.0207662"><ele>287.0</ele><time>2026-05-02T13:49:10.748Z</time></trkpt><trkpt lat="41.3389288" lon="14.0208257"><ele>287.0</ele><time>2026-05-02T13:49:12.748Z</time></trkpt><trkpt lat="41.3388575" lon="14.0209155"><ele>287.0</ele><time>2026-05-02T13:49:14.746Z</time></trkpt><trkpt lat="41.3387817" lon="14.0209593"><ele>290.83333333333337</ele><time>2026-05-02T13:49:16.746Z</time></trkpt><trkpt lat="41.3386938" lon="14.0210672"><ele>294.6666666666667</ele><time>2026-05-02T13:49:18.746Z</time></trkpt><trkpt lat="41.3386242" lon="14.0211655"><ele>298.5</ele><time>2026-05-02T13:49:20.75Z</time></trkpt><trkpt lat="41.33859" lon="14.0212468"><ele>302.3333333333333</ele><time>2026-05-02T13:49:21.748Z</time></trkpt><trkpt lat="41.3385628" lon="14.0213228"><ele>306.16666666666663</ele><time>2026-05-02T13:49:22.75Z</time></trkpt><trkpt lat="41.3385142" lon="14.0214275"><ele>310.0</ele><time>2026-05-02T13:49:24.75Z</time></trkpt><trkpt lat="41.3384862" lon="14.0215652"><ele>310.8</ele><time>2026-05-02T13:49:26.749Z</time></trkpt><trkpt lat="41.3385052" lon="14.0216978"><ele>311.6</ele><time>2026-05-02T13:49:28.749Z</time></trkpt><trkpt lat="41.3385657" lon="14.0218153"><ele>312.4</ele><time>2026-05-02T13:49:30.747Z</time></trkpt><trkpt lat="41.33865" lon="14.0219265"><ele>313.2</ele><time>2026-05-02T13:49:32.751Z</time></trkpt><trkpt lat="41.3387297" lon="14.0220167"><ele>314.0</ele><time>2026-05-02T13:49:34.755Z</time></trkpt><trkpt lat="41.3388127" lon="14.0220978"><ele>311.8</ele><time>2026-05-02T13:49:36.753Z</time></trkpt><trkpt lat="41.3388932" lon="14.0221917"><ele>309.59999999999997</ele><time>2026-05-02T13:49:38.753Z</time></trkpt><trkpt lat="41.3389762" lon="14.0222923"><ele>307.4</ele><time>2026-05-02T13:49:40.752Z</time></trkpt><trkpt lat="41.3390827" lon="14.0223882"><ele>305.2</ele><time>2026-05-02T13:49:42.753Z</time></trkpt><trkpt lat="41.3391505" lon="14.0224325"><ele>303.0</ele><time>2026-05-02T13:49:43.754Z</time></trkpt><trkpt lat="41.3392233" lon="14.0224775"><ele>305.0</ele><time>2026-05-02T13:49:44.752Z</time></trkpt><trkpt lat="41.3392968" lon="14.0225212"><ele>307.0</ele><time>2026-05-02T13:49:45.754Z</time></trkpt><trkpt lat="41.3393705" lon="14.0225598"><ele>309.0</ele><time>2026-05-02T13:49:46.757Z</time></trkpt><trkpt lat="41.3394442" lon="14.0225927"><ele>311.0</ele><time>2026-05-02T13:49:47.758Z</time></trkpt><trkpt lat="41.3395188" lon="14.0226205"><ele>313.0</ele><time>2026-05-02T13:49:48.754Z</time></trkpt><trkpt lat="41.3395883" lon="14.0226425"><ele>315.0</ele><time>2026-05-02T13:49:49.752Z</time></trkpt><trkpt lat="41.3396993" lon="14.0226792"><ele>311.4</ele><time>2026-05-02T13:49:51.753Z</time></trkpt><trkpt lat="41.339791" lon="14.022727"><ele>307.8</ele><time>2026-05-02T13:49:53.752Z</time></trkpt><trkpt lat="41.3398738" lon="14.0228023"><ele>304.2</ele><time>2026-05-02T13:49:55.75Z</time></trkpt><trkpt lat="41.3399457" lon="14.0228833"><ele>300.6</ele><time>2026-05-02T13:49:57.751Z</time></trkpt><trkpt lat="41.3400132" lon="14.022963"><ele>297.0</ele><time>2026-05-02T13:49:59.751Z</time></trkpt><trkpt lat="41.340082" lon="14.0230497"><ele>297.0</ele><time>2026-05-02T13:50:01.751Z</time></trkpt><trkpt lat="41.3401448" lon="14.0231467"><ele>297.0</ele><time>2026-05-02T13:50:03.754Z</time></trkpt><trkpt lat="41.3402005" lon="14.0232968"><ele>297.0</ele><time>2026-05-02T13:50:06.753Z</time></trkpt><trkpt lat="41.3402928" lon="14.0235053"><ele>297.0</ele><time>2026-05-02T13:50:10.754Z</time></trkpt><trkpt lat="41.3403632" lon="14.0236848"><ele>296.0</ele><time>2026-05-02T13:50:13.75Z</time></trkpt><trkpt lat="41.340418" lon="14.0237952"><ele>295.0</ele><time>2026-05-02T13:50:15.754Z</time></trkpt><trkpt lat="41.3405132" lon="14.023949"><ele>294.0</ele><time>2026-05-02T13:50:18.752Z</time></trkpt><trkpt lat="41.3406107" lon="14.0240938"><ele>293.0</ele><time>2026-05-02T13:50:21.755Z</time></trkpt><trkpt lat="41.3407293" lon="14.024234"><ele>293.0</ele><time>2026-05-02T13:50:24.756Z</time></trkpt><trkpt lat="41.3408667" lon="14.0243668"><ele>293.0</ele><time>2026-05-02T13:50:27.76Z</time></trkpt><trkpt lat="41.3409928" lon="14.0244907"><ele>293.0</ele><time>2026-05-02T13:50:30.757Z</time></trkpt><trkpt lat="41.3410805" lon="14.0245723"><ele>293.0</ele><time>2026-05-02T13:50:32.754Z</time></trkpt><trkpt lat="41.3411585" lon="14.0246457"><ele>293.0</ele><time>2026-05-02T13:50:34.755Z</time></trkpt><trkpt lat="41.3413247" lon="14.0247312"><ele>293.0</ele><time>2026-05-02T13:50:39.754Z</time></trkpt><trkpt lat="41.3413935" lon="14.0247767"><ele>293.0</ele><time>2026-05-02T13:50:56.756Z</time></trkpt><trkpt lat="41.3414165" lon="14.0248587"><ele>293.0</ele><time>2026-05-02T13:51:01.756Z</time></trkpt><trkpt lat="41.3412675" lon="14.0247153"><ele>293.0</ele><time>2026-05-02T13:51:06.753Z</time></trkpt><trkpt lat="41.341097" lon="14.0245187"><ele>293.0</ele><time>2026-05-02T13:51:09.754Z</time></trkpt><trkpt lat="41.3408957" lon="14.0242885"><ele>293.0</ele><time>2026-05-02T13:51:12.753Z</time></trkpt><trkpt lat="41.3408245" lon="14.0242018"><ele>293.0</ele><time>2026-05-02T13:51:13.756Z</time></trkpt><trkpt lat="41.340621" lon="14.0239195"><ele>293.0</ele><time>2026-05-02T13:51:16.757Z</time></trkpt><trkpt lat="41.3403547" lon="14.023417"><ele>293.8</ele><time>2026-05-02T13:51:21.758Z</time></trkpt><trkpt lat="41.340298" lon="14.0233158"><ele>294.6</ele><time>2026-05-02T13:51:22.752Z</time></trkpt><trkpt lat="41.3402288" lon="14.0232138"><ele>295.4</ele><time>2026-05-02T13:51:23.752Z</time></trkpt><trkpt lat="41.3401507" lon="14.0231092"><ele>296.2</ele><time>2026-05-02T13:51:24.754Z</time></trkpt><trkpt lat="41.3400687" lon="14.023008"><ele>297.0</ele><time>2026-05-02T13:51:25.754Z</time></trkpt><trkpt lat="41.3399847" lon="14.0229142"><ele>297.0</ele><time>2026-05-02T13:51:26.754Z</time></trkpt><trkpt lat="41.3398983" lon="14.0228313"><ele>297.0</ele><time>2026-05-02T13:51:27.751Z</time></trkpt><trkpt lat="41.3398077" lon="14.0227638"><ele>297.0</ele><time>2026-05-02T13:51:28.751Z</time></trkpt><trkpt lat="41.3397135" lon="14.0227142"><ele>297.0</ele><time>2026-05-02T13:51:29.756Z</time></trkpt><trkpt lat="41.339623" lon="14.0226762"><ele>297.0</ele><time>2026-05-02T13:51:30.751Z</time></trkpt><trkpt lat="41.3395442" lon="14.0226492"><ele>298.0</ele><time>2026-05-02T13:51:31.751Z</time></trkpt><trkpt lat="41.3394718" lon="14.0226252"><ele>299.0</ele><time>2026-05-02T13:51:32.751Z</time></trkpt><trkpt lat="41.3394013" lon="14.0225968"><ele>300.0</ele><time>2026-05-02T13:51:33.75Z</time></trkpt><trkpt lat="41.3393282" lon="14.0225688"><ele>301.0</ele><time>2026-05-02T13:51:34.753Z</time></trkpt><trkpt lat="41.3392532" lon="14.0225363"><ele>302.0</ele><time>2026-05-02T13:51:35.756Z</time></trkpt><trkpt lat="41.3391765" lon="14.0225003"><ele>303.0</ele><time>2026-05-02T13:51:36.754Z</time></trkpt><trkpt lat="41.3390973" lon="14.0224633"><ele>303.0</ele><time>2026-05-02T13:51:37.754Z</time></trkpt><trkpt lat="41.3390147" lon="14.0224268"><ele>303.0</ele><time>2026-05-02T13:51:38.751Z</time></trkpt><trkpt lat="41.3389282" lon="14.0223925"><ele>303.0</ele><time>2026-05-02T13:51:39.752Z</time></trkpt><trkpt lat="41.3388408" lon="14.0223545"><ele>303.0</ele><time>2026-05-02T13:51:40.75Z</time></trkpt><trkpt lat="41.3387537" lon="14.0223153"><ele>303.0</ele><time>2026-05-02T13:51:41.751Z</time></trkpt><trkpt lat="41.3386653" lon="14.0222745"><ele>305.2</ele><time>2026-05-02T13:51:42.752Z</time></trkpt><trkpt lat="41.3385763" lon="14.0222293"><ele>307.4</ele><time>2026-05-02T13:51:43.753Z</time></trkpt><trkpt lat="41.3384877" lon="14.0221863"><ele>309.59999999999997</ele><time>2026-05-02T13:51:44.754Z</time></trkpt><trkpt lat="41.3383998" lon="14.022148"><ele>311.8</ele><time>2026-05-02T13:51:45.754Z</time></trkpt><trkpt lat="41.3383133" lon="14.0221092"><ele>314.0</ele><time>2026-05-02T13:51:46.751Z</time></trkpt><trkpt lat="41.3382293" lon="14.0220717"><ele>314.0</ele><time>2026-05-02T13:51:47.75Z</time></trkpt><trkpt lat="41.3381478" lon="14.0220347"><ele>314.0</ele><time>2026-05-02T13:51:48.749Z</time></trkpt><trkpt lat="41.338086" lon="14.0219688"><ele>314.0</ele><time>2026-05-02T13:51:49.75Z</time></trkpt><trkpt lat="41.3380255" lon="14.021901"><ele>314.0</ele><time>2026-05-02T13:51:50.756Z</time></trkpt><trkpt lat="41.3379682" lon="14.0218372"><ele>314.0</ele><time>2026-05-02T13:51:51.75Z</time></trkpt><trkpt lat="41.3379158" lon="14.0217698"><ele>314.0</ele><time>2026-05-02T13:51:52.753Z</time></trkpt><trkpt lat="41.3378645" lon="14.0217038"><ele>314.99999999999994</ele><time>2026-05-02T13:51:53.751Z</time></trkpt><trkpt lat="41.3378158" lon="14.0216375"><ele>316.0</ele><time>2026-05-02T13:51:54.748Z</time></trkpt><trkpt lat="41.337772" lon="14.021569"><ele>317.0</ele><time>2026-05-02T13:51:55.748Z</time></trkpt><trkpt lat="41.3377272" lon="14.0215035"><ele>318.0</ele><time>2026-05-02T13:51:56.748Z</time></trkpt><trkpt lat="41.3376833" lon="14.0214383"><ele>319.0</ele><time>2026-05-02T13:51:57.748Z</time></trkpt><trkpt lat="41.3376435" lon="14.0213705"><ele>319.99999999999994</ele><time>2026-05-02T13:51:58.75Z</time></trkpt><trkpt lat="41.337605" lon="14.0213025"><ele>321.0</ele><time>2026-05-02T13:51:59.749Z</time></trkpt><trkpt lat="41.337574" lon="14.0212263"><ele>320.99999999999994</ele><time>2026-05-02T13:52:00.753Z</time></trkpt><trkpt lat="41.3375428" lon="14.021149"><ele>321.0</ele><time>2026-05-02T13:52:01.755Z</time></trkpt><trkpt lat="41.3375115" lon="14.0210702"><ele>321.0</ele><time>2026-05-02T13:52:02.754Z</time></trkpt><trkpt lat="41.3374793" lon="14.0209912"><ele>321.0</ele><time>2026-05-02T13:52:03.754Z</time></trkpt><trkpt lat="41.337447" lon="14.0209092"><ele>321.0</ele><time>2026-05-02T13:52:04.75Z</time></trkpt><trkpt lat="41.3374148" lon="14.020827"><ele>320.99999999999994</ele><time>2026-05-02T13:52:05.752Z</time></trkpt><trkpt lat="41.3373888" lon="14.0207428"><ele>321.0</ele><time>2026-05-02T13:52:06.75Z</time></trkpt><trkpt lat="41.3373542" lon="14.0206647"><ele>320.4285714285714</ele><time>2026-05-02T13:52:07.749Z</time></trkpt><trkpt lat="41.3373232" lon="14.0205845"><ele>319.85714285714283</ele><time>2026-05-02T13:52:08.748Z</time></trkpt><trkpt lat="41.3372798" lon="14.0205127"><ele>319.2857142857143</ele><time>2026-05-02T13:52:09.751Z</time></trkpt><trkpt lat="41.3372423" lon="14.0204355"><ele>318.71428571428567</ele><time>2026-05-02T13:52:10.752Z</time></trkpt><trkpt lat="41.3372018" lon="14.0203612"><ele>318.1428571428571</ele><time>2026-05-02T13:52:11.749Z</time></trkpt><trkpt lat="41.3371515" lon="14.0202922"><ele>317.57142857142856</ele><time>2026-05-02T13:52:12.75Z</time></trkpt><trkpt lat="41.337099" lon="14.0202268"><ele>317.0</ele><time>2026-05-02T13:52:13.751Z</time></trkpt><trkpt lat="41.337046" lon="14.0201622"><ele>318.57142857142856</ele><time>2026-05-02T13:52:14.749Z</time></trkpt><trkpt lat="41.3369947" lon="14.0200963"><ele>320.1428571428571</ele><time>2026-05-02T13:52:15.749Z</time></trkpt><trkpt lat="41.3369435" lon="14.0200337"><ele>321.71428571428567</ele><time>2026-05-02T13:52:16.749Z</time></trkpt><trkpt lat="41.3368917" lon="14.0199713"><ele>323.2857142857143</ele><time>2026-05-02T13:52:17.749Z</time></trkpt><trkpt lat="41.3368488" lon="14.019903"><ele>324.85714285714283</ele><time>2026-05-02T13:52:18.749Z</time></trkpt><trkpt lat="41.3368098" lon="14.0198297"><ele>326.4285714285714</ele><time>2026-05-02T13:52:19.749Z</time></trkpt><trkpt lat="41.336773" lon="14.0197537"><ele>328.0</ele><time>2026-05-02T13:52:20.751Z</time></trkpt><trkpt lat="41.3367372" lon="14.0196807"><ele>329.0</ele><time>2026-05-02T13:52:21.748Z</time></trkpt><trkpt lat="41.336704" lon="14.0196055"><ele>330.0</ele><time>2026-05-02T13:52:22.748Z</time></trkpt><trkpt lat="41.3366713" lon="14.01953"><ele>331.0</ele><time>2026-05-02T13:52:23.75Z</time></trkpt><trkpt lat="41.3366418" lon="14.0194533"><ele>332.0</ele><time>2026-05-02T13:52:24.752Z</time></trkpt><trkpt lat="41.3366182" lon="14.0193755"><ele>333.0</ele><time>2026-05-02T13:52:25.753Z</time></trkpt><trkpt lat="41.3366287" lon="14.0192183"><ele>334.0</ele><time>2026-05-02T13:52:27.755Z</time></trkpt><trkpt lat="41.3366902" lon="14.0190725"><ele>335.79999999999995</ele><time>2026-05-02T13:52:29.752Z</time></trkpt><trkpt lat="41.3367272" lon="14.0189948"><ele>337.59999999999997</ele><time>2026-05-02T13:52:30.751Z</time></trkpt><trkpt lat="41.3367627" lon="14.018917"><ele>339.4</ele><time>2026-05-02T13:52:31.754Z</time></trkpt><trkpt lat="41.3368205" lon="14.018808"><ele>341.2</ele><time>2026-05-02T13:52:33.752Z</time></trkpt><trkpt lat="41.3368363" lon="14.0185905"><ele>343.0</ele><time>2026-05-02T13:52:36.753Z</time></trkpt><trkpt lat="41.3368167" lon="14.0184917"><ele>343.0</ele><time>2026-05-02T13:52:37.751Z</time></trkpt><trkpt lat="41.3367952" lon="14.0183793"><ele>343.0</ele><time>2026-05-02T13:52:38.752Z</time></trkpt><trkpt lat="41.3367772" lon="14.0182635"><ele>343.0</ele><time>2026-05-02T13:52:39.752Z</time></trkpt><trkpt lat="41.336767" lon="14.0181605"><ele>343.0</ele><time>2026-05-02T13:52:40.752Z</time></trkpt><trkpt lat="41.3367692" lon="14.0180562"><ele>343.0</ele><time>2026-05-02T13:52:41.751Z</time></trkpt><trkpt lat="41.3367822" lon="14.0179572"><ele>343.0</ele><time>2026-05-02T13:52:42.751Z</time></trkpt><trkpt lat="41.3368085" lon="14.017859"><ele>342.8333333333333</ele><time>2026-05-02T13:52:43.751Z</time></trkpt><trkpt lat="41.3368545" lon="14.017768"><ele>342.66666666666663</ele><time>2026-05-02T13:52:44.75Z</time></trkpt><trkpt lat="41.3369162" lon="14.0176838"><ele>342.5</ele><time>2026-05-02T13:52:45.75Z</time></trkpt><trkpt lat="41.336986" lon="14.0176112"><ele>342.3333333333333</ele><time>2026-05-02T13:52:46.75Z</time></trkpt><trkpt lat="41.3370617" lon="14.0175412"><ele>342.1666666666667</ele><time>2026-05-02T13:52:47.752Z</time></trkpt><trkpt lat="41.337142" lon="14.0174758"><ele>342.0</ele><time>2026-05-02T13:52:48.751Z</time></trkpt><trkpt lat="41.33722" lon="14.017411"><ele>339.20000000000005</ele><time>2026-05-02T13:52:49.751Z</time></trkpt><trkpt lat="41.3372785" lon="14.0173405"><ele>336.4</ele><time>2026-05-02T13:52:50.751Z</time></trkpt><trkpt lat="41.3373143" lon="14.0172597"><ele>333.6</ele><time>2026-05-02T13:52:51.752Z</time></trkpt><trkpt lat="41.3373242" lon="14.0171112"><ele>330.79999999999995</ele><time>2026-05-02T13:52:53.755Z</time></trkpt><trkpt lat="41.3372233" lon="14.0170035"><ele>328.0</ele><time>2026-05-02T13:52:55.754Z</time></trkpt><trkpt lat="41.3371605" lon="14.0169567"><ele>328.0</ele><time>2026-05-02T13:52:56.75Z</time></trkpt><trkpt lat="41.337103" lon="14.0169078"><ele>328.0</ele><time>2026-05-02T13:52:57.75Z</time></trkpt><trkpt lat="41.3370118" lon="14.0168232"><ele>328.0</ele><time>2026-05-02T13:52:59.751Z</time></trkpt><trkpt lat="41.3369552" lon="14.0166968"><ele>328.0</ele><time>2026-05-02T13:53:01.752Z</time></trkpt><trkpt lat="41.3369308" lon="14.0165355"><ele>328.0</ele><time>2026-05-02T13:53:03.75Z</time></trkpt><trkpt lat="41.3369383" lon="14.0164392"><ele>326.8333333333333</ele><time>2026-05-02T13:53:04.751Z</time></trkpt><trkpt lat="41.3369457" lon="14.016336"><ele>325.66666666666663</ele><time>2026-05-02T13:53:05.752Z</time></trkpt><trkpt lat="41.3369535" lon="14.0162277"><ele>324.5</ele><time>2026-05-02T13:53:06.75Z</time></trkpt><trkpt lat="41.3369863" lon="14.0161253"><ele>323.3333333333333</ele><time>2026-05-02T13:53:07.75Z</time></trkpt><trkpt lat="41.3370077" lon="14.0160295"><ele>322.1666666666667</ele><time>2026-05-02T13:53:08.749Z</time></trkpt><trkpt lat="41.3370935" lon="14.0159258"><ele>321.0</ele><time>2026-05-02T13:53:10.749Z</time></trkpt><trkpt lat="41.3372038" lon="14.0159243"><ele>318.8</ele><time>2026-05-02T13:53:12.75Z</time></trkpt><trkpt lat="41.3372712" lon="14.0159657"><ele>316.6</ele><time>2026-05-02T13:53:13.75Z</time></trkpt><trkpt lat="41.3373512" lon="14.016026"><ele>314.4</ele><time>2026-05-02T13:53:14.75Z</time></trkpt><trkpt lat="41.3374412" lon="14.0160893"><ele>312.2</ele><time>2026-05-02T13:53:15.752Z</time></trkpt><trkpt lat="41.3375367" lon="14.0161302"><ele>310.0</ele><time>2026-05-02T13:53:16.755Z</time></trkpt><trkpt lat="41.3376423" lon="14.0161438"><ele>310.0</ele><time>2026-05-02T13:53:17.753Z</time></trkpt><trkpt lat="41.3377502" lon="14.0161188"><ele>310.0</ele><time>2026-05-02T13:53:18.754Z</time></trkpt><trkpt lat="41.3378388" lon="14.0160657"><ele>310.0</ele><time>2026-05-02T13:53:19.755Z</time></trkpt><trkpt lat="41.3379037" lon="14.0159812"><ele>310.0</ele><time>2026-05-02T13:53:20.76Z</time></trkpt><trkpt lat="41.337952" lon="14.0158697"><ele>310.0</ele><time>2026-05-02T13:53:21.754Z</time></trkpt><trkpt lat="41.3379897" lon="14.0157408"><ele>312.2</ele><time>2026-05-02T13:53:22.754Z</time></trkpt><trkpt lat="41.3380305" lon="14.0156033"><ele>314.4</ele><time>2026-05-02T13:53:23.753Z</time></trkpt><trkpt lat="41.3380755" lon="14.015479"><ele>316.6</ele><time>2026-05-02T13:53:24.756Z</time></trkpt><trkpt lat="41.3381248" lon="14.0153615"><ele>318.8</ele><time>2026-05-02T13:53:25.757Z</time></trkpt><trkpt lat="41.3381775" lon="14.0152338"><ele>321.0</ele><time>2026-05-02T13:53:26.755Z</time></trkpt><trkpt lat="41.3382327" lon="14.0150953"><ele>323.75</ele><time>2026-05-02T13:53:27.756Z</time></trkpt><trkpt lat="41.338289" lon="14.0149493"><ele>326.5</ele><time>2026-05-02T13:53:28.754Z</time></trkpt><trkpt lat="41.3383447" lon="14.0147988"><ele>329.25</ele><time>2026-05-02T13:53:29.757Z</time></trkpt><trkpt lat="41.3384003" lon="14.0146452"><ele>332.0</ele><time>2026-05-02T13:53:30.757Z</time></trkpt><trkpt lat="41.3384535" lon="14.0145023"><ele>332.0</ele><time>2026-05-02T13:53:31.758Z</time></trkpt><trkpt lat="41.3385017" lon="14.0143707"><ele>332.0</ele><time>2026-05-02T13:53:32.755Z</time></trkpt><trkpt lat="41.3385375" lon="14.0142545"><ele>332.0</ele><time>2026-05-02T13:53:33.753Z</time></trkpt><trkpt lat="41.3385502" lon="14.0141417"><ele>332.0</ele><time>2026-05-02T13:53:34.754Z</time></trkpt><trkpt lat="41.3385357" lon="14.0140238"><ele>332.0</ele><time>2026-05-02T13:53:35.752Z</time></trkpt><trkpt lat="41.33849" lon="14.0139178"><ele>334.33333333333337</ele><time>2026-05-02T13:53:36.761Z</time></trkpt><trkpt lat="41.338421" lon="14.013833"><ele>336.6666666666667</ele><time>2026-05-02T13:53:37.759Z</time></trkpt><trkpt lat="41.3383558" lon="14.0137555"><ele>339.0</ele><time>2026-05-02T13:53:38.758Z</time></trkpt><trkpt lat="41.3383195" lon="14.0136795"><ele>341.3333333333333</ele><time>2026-05-02T13:53:39.756Z</time></trkpt><trkpt lat="41.3383322" lon="14.0135532"><ele>343.66666666666663</ele><time>2026-05-02T13:53:41.753Z</time></trkpt><trkpt lat="41.3383732" lon="14.0134848"><ele>346.0</ele><time>2026-05-02T13:53:42.753Z</time></trkpt><trkpt lat="41.338424" lon="14.0134058"><ele>350.0</ele><time>2026-05-02T13:53:43.752Z</time></trkpt><trkpt lat="41.3384783" lon="14.013317"><ele>354.0</ele><time>2026-05-02T13:53:44.752Z</time></trkpt><trkpt lat="41.3385208" lon="14.0132152"><ele>358.0</ele><time>2026-05-02T13:53:45.756Z</time></trkpt><trkpt lat="41.3385553" lon="14.0130925"><ele>362.0</ele><time>2026-05-02T13:53:46.755Z</time></trkpt><trkpt lat="41.3385823" lon="14.0129567"><ele>366.0</ele><time>2026-05-02T13:53:47.754Z</time></trkpt><trkpt lat="41.3386093" lon="14.0128227"><ele>366.0</ele><time>2026-05-02T13:53:48.754Z</time></trkpt><trkpt lat="41.338646" lon="14.0127228"><ele>366.0</ele><time>2026-05-02T13:53:49.753Z</time></trkpt><trkpt lat="41.3386895" lon="14.012629"><ele>366.0</ele><time>2026-05-02T13:53:50.752Z</time></trkpt><trkpt lat="41.3387517" lon="14.0125473"><ele>366.0</ele><time>2026-05-02T13:53:51.752Z</time></trkpt><trkpt lat="41.3388285" lon="14.0124792"><ele>366.0</ele><time>2026-05-02T13:53:52.756Z</time></trkpt><trkpt lat="41.338918" lon="14.012432"><ele>366.0</ele><time>2026-05-02T13:53:53.752Z</time></trkpt><trkpt lat="41.3390102" lon="14.012412"><ele>367.3333333333333</ele><time>2026-05-02T13:53:54.752Z</time></trkpt><trkpt lat="41.3390932" lon="14.0124137"><ele>368.6666666666667</ele><time>2026-05-02T13:53:55.755Z</time></trkpt><trkpt lat="41.3391653" lon="14.0124327"><ele>370.0</ele><time>2026-05-02T13:53:56.754Z</time></trkpt><trkpt lat="41.3392335" lon="14.0124727"><ele>371.33333333333337</ele><time>2026-05-02T13:53:57.752Z</time></trkpt><trkpt lat="41.339306" lon="14.0125403"><ele>372.6666666666667</ele><time>2026-05-02T13:53:58.754Z</time></trkpt><trkpt lat="41.3393838" lon="14.0126377"><ele>374.0</ele><time>2026-05-02T13:53:59.752Z</time></trkpt><trkpt lat="41.3394632" lon="14.012757"><ele>375.75</ele><time>2026-05-02T13:54:00.753Z</time></trkpt><trkpt lat="41.3395462" lon="14.0128873"><ele>377.5</ele><time>2026-05-02T13:54:01.752Z</time></trkpt><trkpt lat="41.3396367" lon="14.0130122"><ele>379.25</ele><time>2026-05-02T13:54:02.753Z</time></trkpt><trkpt lat="41.3397327" lon="14.0131292"><ele>381.0</ele><time>2026-05-02T13:54:03.752Z</time></trkpt><trkpt lat="41.3398405" lon="14.0132332"><ele>381.0</ele><time>2026-05-02T13:54:04.753Z</time></trkpt><trkpt lat="41.3399573" lon="14.0133157"><ele>381.0</ele><time>2026-05-02T13:54:05.753Z</time></trkpt><trkpt lat="41.3400803" lon="14.0133752"><ele>381.0</ele><time>2026-05-02T13:54:06.755Z</time></trkpt><trkpt lat="41.3402127" lon="14.0134253"><ele>381.0</ele><time>2026-05-02T13:54:07.758Z</time></trkpt><trkpt lat="41.3403448" lon="14.0134705"><ele>379.0</ele><time>2026-05-02T13:54:08.755Z</time></trkpt><trkpt lat="41.3404648" lon="14.0135103"><ele>377.0</ele><time>2026-05-02T13:54:09.753Z</time></trkpt><trkpt lat="41.3405732" lon="14.0135493"><ele>375.0</ele><time>2026-05-02T13:54:10.752Z</time></trkpt><trkpt lat="41.3406778" lon="14.0135955"><ele>373.0</ele><time>2026-05-02T13:54:11.752Z</time></trkpt><trkpt lat="41.3407787" lon="14.0136502"><ele>373.0</ele><time>2026-05-02T13:54:12.752Z</time></trkpt><trkpt lat="41.3408692" lon="14.0137117"><ele>373.0</ele><time>2026-05-02T13:54:13.752Z</time></trkpt><trkpt lat="41.3409442" lon="14.0137852"><ele>373.0</ele><time>2026-05-02T13:54:14.752Z</time></trkpt><trkpt lat="41.3410067" lon="14.0138817"><ele>373.0</ele><time>2026-05-02T13:54:15.751Z</time></trkpt><trkpt lat="41.341058" lon="14.0139967"><ele>373.0</ele><time>2026-05-02T13:54:16.756Z</time></trkpt><trkpt lat="41.3411025" lon="14.014124"><ele>368.59999999999997</ele><time>2026-05-02T13:54:17.752Z</time></trkpt><trkpt lat="41.341145" lon="14.0142582"><ele>364.2</ele><time>2026-05-02T13:54:18.75Z</time></trkpt><trkpt lat="41.3411852" lon="14.0143943"><ele>359.8</ele><time>2026-05-02T13:54:19.752Z</time></trkpt><trkpt lat="41.3412227" lon="14.0145307"><ele>355.4</ele><time>2026-05-02T13:54:20.754Z</time></trkpt><trkpt lat="41.3412598" lon="14.0146632"><ele>351.0</ele><time>2026-05-02T13:54:21.751Z</time></trkpt><trkpt lat="41.341298" lon="14.0147935"><ele>351.0</ele><time>2026-05-02T13:54:22.751Z</time></trkpt><trkpt lat="41.3413322" lon="14.0149118"><ele>351.0</ele><time>2026-05-02T13:54:23.752Z</time></trkpt><trkpt lat="41.3413672" lon="14.0150215"><ele>351.0</ele><time>2026-05-02T13:54:24.75Z</time></trkpt><trkpt lat="41.3414022" lon="14.0151325"><ele>351.0</ele><time>2026-05-02T13:54:25.753Z</time></trkpt><trkpt lat="41.3414372" lon="14.015243"><ele>351.0</ele><time>2026-05-02T13:54:26.756Z</time></trkpt><trkpt lat="41.3414715" lon="14.015351"><ele>351.8333333333333</ele><time>2026-05-02T13:54:27.756Z</time></trkpt><trkpt lat="41.3415077" lon="14.0154517"><ele>352.6666666666667</ele><time>2026-05-02T13:54:28.755Z</time></trkpt><trkpt lat="41.341558" lon="14.0155477"><ele>353.5</ele><time>2026-05-02T13:54:29.754Z</time></trkpt><trkpt lat="41.3416185" lon="14.0156293"><ele>354.33333333333337</ele><time>2026-05-02T13:54:30.752Z</time></trkpt><trkpt lat="41.3416798" lon="14.0156992"><ele>355.1666666666667</ele><time>2026-05-02T13:54:31.751Z</time></trkpt><trkpt lat="41.3417405" lon="14.0157533"><ele>356.0</ele><time>2026-05-02T13:54:32.754Z</time></trkpt><trkpt lat="41.3418053" lon="14.0157953"><ele>354.25</ele><time>2026-05-02T13:54:33.751Z</time></trkpt><trkpt lat="41.3419217" lon="14.0158433"><ele>352.5</ele><time>2026-05-02T13:54:35.751Z</time></trkpt><trkpt lat="41.3420257" lon="14.015891"><ele>350.75</ele><time>2026-05-02T13:54:37.752Z</time></trkpt><trkpt lat="41.3421397" lon="14.0159575"><ele>349.0</ele><time>2026-05-02T13:54:39.75Z</time></trkpt><trkpt lat="41.3422588" lon="14.0159628"><ele>349.0</ele><time>2026-05-02T13:54:41.754Z</time></trkpt><trkpt lat="41.3423453" lon="14.0158435"><ele>349.0</ele><time>2026-05-02T13:54:43.752Z</time></trkpt><trkpt lat="41.3423905" lon="14.0157483"><ele>349.0</ele><time>2026-05-02T13:54:44.755Z</time></trkpt><trkpt lat="41.3424252" lon="14.0156375"><ele>349.0</ele><time>2026-05-02T13:54:45.753Z</time></trkpt><trkpt lat="41.3424697" lon="14.0155263"><ele>349.0</ele><time>2026-05-02T13:54:46.75Z</time></trkpt><trkpt lat="41.3425207" lon="14.0154323"><ele>350.3333333333333</ele><time>2026-05-02T13:54:47.752Z</time></trkpt><trkpt lat="41.342578" lon="14.0153468"><ele>351.66666666666663</ele><time>2026-05-02T13:54:48.749Z</time></trkpt><trkpt lat="41.342648" lon="14.0152693"><ele>353.0</ele><time>2026-05-02T13:54:49.751Z</time></trkpt><trkpt lat="41.3427093" lon="14.0152015"><ele>354.3333333333333</ele><time>2026-05-02T13:54:50.752Z</time></trkpt><trkpt lat="41.3427678" lon="14.015144"><ele>355.6666666666667</ele><time>2026-05-02T13:54:51.752Z</time></trkpt><trkpt lat="41.342829" lon="14.0150923"><ele>357.0</ele><time>2026-05-02T13:54:52.754Z</time></trkpt><trkpt lat="41.3428975" lon="14.015052"><ele>357.0</ele><time>2026-05-02T13:54:53.751Z</time></trkpt><trkpt lat="41.3429782" lon="14.015008"><ele>357.0</ele><time>2026-05-02T13:54:54.755Z</time></trkpt><trkpt lat="41.3430565" lon="14.0149652"><ele>357.0</ele><time>2026-05-02T13:54:55.756Z</time></trkpt><trkpt lat="41.343132" lon="14.0149302"><ele>357.0</ele><time>2026-05-02T13:54:56.755Z</time></trkpt><trkpt lat="41.3432047" lon="14.0148875"><ele>357.0</ele><time>2026-05-02T13:54:57.758Z</time></trkpt><trkpt lat="41.3432673" lon="14.0148353"><ele>357.0</ele><time>2026-05-02T13:54:58.757Z</time></trkpt><trkpt lat="41.3433202" lon="14.0147743"><ele>357.0</ele><time>2026-05-02T13:54:59.753Z</time></trkpt><trkpt lat="41.3433622" lon="14.0147103"><ele>357.0</ele><time>2026-05-02T13:55:00.754Z</time></trkpt><trkpt lat="41.3434613" lon="14.0146068"><ele>357.0</ele><time>2026-05-02T13:55:02.752Z</time></trkpt><trkpt lat="41.3435157" lon="14.0145438"><ele>357.0</ele><time>2026-05-02T13:55:03.75Z</time></trkpt><trkpt lat="41.3435622" lon="14.0144862"><ele>357.0</ele><time>2026-05-02T13:55:04.75Z</time></trkpt><trkpt lat="41.3436153" lon="14.0144325"><ele>357.0</ele><time>2026-05-02T13:55:05.752Z</time></trkpt><trkpt lat="41.3436655" lon="14.0143758"><ele>357.0</ele><time>2026-05-02T13:55:06.751Z</time></trkpt><trkpt lat="41.3437508" lon="14.0142457"><ele>357.0</ele><time>2026-05-02T13:55:08.754Z</time></trkpt><trkpt lat="41.3437887" lon="14.014168"><ele>357.0</ele><time>2026-05-02T13:55:09.755Z</time></trkpt><trkpt lat="41.3438248" lon="14.0140967"><ele>357.0</ele><time>2026-05-02T13:55:10.752Z</time></trkpt><trkpt lat="41.3438793" lon="14.0139573"><ele>357.0</ele><time>2026-05-02T13:55:12.75Z</time></trkpt><trkpt lat="41.3439293" lon="14.0138218"><ele>354.6666666666667</ele><time>2026-05-02T13:55:14.751Z</time></trkpt><trkpt lat="41.3439832" lon="14.0136888"><ele>352.3333333333333</ele><time>2026-05-02T13:55:16.753Z</time></trkpt><trkpt lat="41.3440193" lon="14.0135773"><ele>350.0</ele><time>2026-05-02T13:55:18.751Z</time></trkpt><trkpt lat="41.3440812" lon="14.013544"><ele>347.66666666666663</ele><time>2026-05-02T13:55:20.754Z</time></trkpt><trkpt lat="41.344145" lon="14.0135422"><ele>345.3333333333333</ele><time>2026-05-02T13:55:25.754Z</time></trkpt><trkpt lat="41.344141" lon="14.0136262"><ele>343.0</ele><time>2026-05-02T13:55:37.75Z</time></trkpt><trkpt lat="41.3441177" lon="14.0137263"><ele>343.0</ele><time>2026-05-02T13:55:41.752Z</time></trkpt><trkpt lat="41.3440897" lon="14.013813"><ele>343.0</ele><time>2026-05-02T13:55:43.753Z</time></trkpt><trkpt lat="41.3440247" lon="14.0139975"><ele>343.0</ele><time>2026-05-02T13:55:46.754Z</time></trkpt><trkpt lat="41.3439308" lon="14.0141875"><ele>343.0</ele><time>2026-05-02T13:55:50.755Z</time></trkpt><trkpt lat="41.3438667" lon="14.0142815"><ele>345.3333333333333</ele><time>2026-05-02T13:55:52.752Z</time></trkpt><trkpt lat="41.3437943" lon="14.0143497"><ele>347.66666666666663</ele><time>2026-05-02T13:55:54.75Z</time></trkpt><trkpt lat="41.343736" lon="14.0144127"><ele>350.0</ele><time>2026-05-02T13:55:56.75Z</time></trkpt><trkpt lat="41.3436712" lon="14.014496"><ele>352.3333333333333</ele><time>2026-05-02T13:55:58.751Z</time></trkpt><trkpt lat="41.3436188" lon="14.0145895"><ele>354.6666666666667</ele><time>2026-05-02T13:56:00.748Z</time></trkpt><trkpt lat="41.3435693" lon="14.0146583"><ele>357.0</ele><time>2026-05-02T13:56:02.751Z</time></trkpt><trkpt lat="41.3434915" lon="14.0147227"><ele>357.0</ele><time>2026-05-02T13:56:04.753Z</time></trkpt><trkpt lat="41.3433908" lon="14.0147753"><ele>357.0</ele><time>2026-05-02T13:56:06.751Z</time></trkpt><trkpt lat="41.3432818" lon="14.0148337"><ele>357.0</ele><time>2026-05-02T13:56:08.752Z</time></trkpt><trkpt lat="41.3431798" lon="14.0148705"><ele>357.0</ele><time>2026-05-02T13:56:10.754Z</time></trkpt><trkpt lat="41.3430985" lon="14.0149037"><ele>357.0</ele><time>2026-05-02T13:56:12.754Z</time></trkpt><trkpt lat="41.3430267" lon="14.0149535"><ele>357.0</ele><time>2026-05-02T13:56:14.75Z</time></trkpt><trkpt lat="41.3429293" lon="14.0150428"><ele>357.0</ele><time>2026-05-02T13:56:16.752Z</time></trkpt><trkpt lat="41.3428765" lon="14.015111"><ele>357.0</ele><time>2026-05-02T13:56:18.751Z</time></trkpt><trkpt lat="41.3429542" lon="14.0151157"><ele>357.0</ele><time>2026-05-02T13:56:41.75Z</time></trkpt><trkpt lat="41.3430017" lon="14.0150558"><ele>357.0</ele><time>2026-05-02T13:56:43.75Z</time></trkpt><trkpt lat="41.3430255" lon="14.014973"><ele>357.0</ele><time>2026-05-02T13:56:46.75Z</time></trkpt><trkpt lat="41.3430528" lon="14.014884"><ele>357.0</ele><time>2026-05-02T13:56:50.748Z</time></trkpt><trkpt lat="41.3430525" lon="14.0147957"><ele>357.0</ele><time>2026-05-02T13:56:53.751Z</time></trkpt><trkpt lat="41.3430855" lon="14.0146587"><ele>357.0</ele><time>2026-05-02T13:56:56.751Z</time></trkpt><trkpt lat="41.3430915" lon="14.0145465"><ele>357.0</ele><time>2026-05-02T13:56:58.751Z</time></trkpt><trkpt lat="41.3431147" lon="14.0144525"><ele>357.0</ele><time>2026-05-02T13:57:00.752Z</time></trkpt><trkpt lat="41.3431355" lon="14.0143453"><ele>357.0</ele><time>2026-05-02T13:57:02.749Z</time></trkpt><trkpt lat="41.3431507" lon="14.0142515"><ele>357.0</ele><time>2026-05-02T13:57:04.75Z</time></trkpt><trkpt lat="41.3431582" lon="14.0141602"><ele>357.0</ele><time>2026-05-02T13:57:06.751Z</time></trkpt><trkpt lat="41.3431522" lon="14.0140553"><ele>357.0</ele><time>2026-05-02T13:57:09.749Z</time></trkpt><trkpt lat="41.343178" lon="14.0139725"><ele>357.0</ele><time>2026-05-02T13:57:18.75Z</time></trkpt><trkpt lat="41.3431797" lon="14.0138873"><ele>357.0</ele><time>2026-05-02T13:57:34.751Z</time></trkpt><trkpt lat="41.3431718" lon="14.0138015"><ele>357.0</ele><time>2026-05-02T13:57:53.75Z</time></trkpt><trkpt lat="41.3431505" lon="14.0139272"><ele>357.0</ele><time>2026-05-02T13:59:38.755Z</time></trkpt><trkpt lat="41.343139" lon="14.0140108"><ele>357.0</ele><time>2026-05-02T13:59:41.75Z</time></trkpt><trkpt lat="41.3431297" lon="14.0141037"><ele>357.0</ele><time>2026-05-02T13:59:44.752Z</time></trkpt><trkpt lat="41.3431117" lon="14.014185"><ele>357.0</ele><time>2026-05-02T13:59:48.753Z</time></trkpt><trkpt lat="41.3430918" lon="14.014296"><ele>357.0</ele><time>2026-05-02T14:00:19.749Z</time></trkpt><trkpt lat="41.343069" lon="14.0143862"><ele>357.0</ele><time>2026-05-02T14:00:21.751Z</time></trkpt><trkpt lat="41.3430528" lon="14.0145765"><ele>357.0</ele><time>2026-05-02T14:00:25.75Z</time></trkpt><trkpt lat="41.3430343" lon="14.0147043"><ele>357.0</ele><time>2026-05-02T14:00:28.75Z</time></trkpt><trkpt lat="41.3430292" lon="14.0148102"><ele>357.0</ele><time>2026-05-02T14:00:31.754Z</time></trkpt><trkpt lat="41.3430122" lon="14.0149115"><ele>357.0</ele><time>2026-05-02T14:00:35.752Z</time></trkpt><trkpt lat="41.3431962" lon="14.0148527"><ele>357.0</ele><time>2026-05-02T14:00:52.754Z</time></trkpt><trkpt lat="41.343312" lon="14.014804"><ele>357.0</ele><time>2026-05-02T14:00:54.752Z</time></trkpt><trkpt lat="41.3435318" lon="14.014628"><ele>357.0</ele><time>2026-05-02T14:00:59.755Z</time></trkpt><trkpt lat="41.3436545" lon="14.0145077"><ele>357.0</ele><time>2026-05-02T14:01:02.75Z</time></trkpt><trkpt lat="41.3438308" lon="14.0143375"><ele>353.5</ele><time>2026-05-02T14:01:06.751Z</time></trkpt><trkpt lat="41.3439242" lon="14.0141942"><ele>350.0</ele><time>2026-05-02T14:01:09.752Z</time></trkpt><trkpt lat="41.3440457" lon="14.013921"><ele>346.5</ele><time>2026-05-02T14:01:13.755Z</time></trkpt><trkpt lat="41.3440798" lon="14.0138435"><ele>343.0</ele><time>2026-05-02T14:01:14.751Z</time></trkpt><trkpt lat="41.3441165" lon="14.013775"><ele>343.0</ele><time>2026-05-02T14:01:15.751Z</time></trkpt><trkpt lat="41.3441625" lon="14.0136613"><ele>343.0</ele><time>2026-05-02T14:01:17.75Z</time></trkpt><trkpt lat="41.3442127" lon="14.0135867"><ele>343.0</ele><time>2026-05-02T14:01:20.75Z</time></trkpt><trkpt lat="41.3442148" lon="14.0134802"><ele>343.0</ele><time>2026-05-02T14:01:27.753Z</time></trkpt><trkpt lat="41.3441672" lon="14.0133852"><ele>343.0</ele><time>2026-05-02T14:01:29.752Z</time></trkpt><trkpt lat="41.3441245" lon="14.013277"><ele>343.0</ele><time>2026-05-02T14:01:31.752Z</time></trkpt><trkpt lat="41.34406" lon="14.0131313"><ele>343.66666666666663</ele><time>2026-05-02T14:01:33.75Z</time></trkpt><trkpt lat="41.344025" lon="14.0130538"><ele>344.3333333333333</ele><time>2026-05-02T14:01:34.753Z</time></trkpt><trkpt lat="41.343988" lon="14.0129818"><ele>345.0</ele><time>2026-05-02T14:01:35.751Z</time></trkpt><trkpt lat="41.3439118" lon="14.0128487"><ele>345.6666666666667</ele><time>2026-05-02T14:01:37.754Z</time></trkpt><trkpt lat="41.3438718" lon="14.0127778"><ele>346.33333333333337</ele><time>2026-05-02T14:01:38.75Z</time></trkpt><trkpt lat="41.3438348" lon="14.012709"><ele>347.0</ele><time>2026-05-02T14:01:39.751Z</time></trkpt><trkpt lat="41.3437843" lon="14.0125698"><ele>350.20000000000005</ele><time>2026-05-02T14:01:41.753Z</time></trkpt><trkpt lat="41.3437517" lon="14.0124625"><ele>353.4</ele><time>2026-05-02T14:01:43.75Z</time></trkpt><trkpt lat="41.3437438" lon="14.012362"><ele>356.6</ele><time>2026-05-02T14:01:45.747Z</time></trkpt><trkpt lat="41.3437238" lon="14.0122402"><ele>359.79999999999995</ele><time>2026-05-02T14:01:47.75Z</time></trkpt><trkpt lat="41.3436915" lon="14.012107"><ele>363.0</ele><time>2026-05-02T14:01:49.749Z</time></trkpt><trkpt lat="41.3436523" lon="14.0119655"><ele>363.0</ele><time>2026-05-02T14:01:51.75Z</time></trkpt><trkpt lat="41.3436202" lon="14.0118523"><ele>363.0</ele><time>2026-05-02T14:01:53.749Z</time></trkpt><trkpt lat="41.3435625" lon="14.0117665"><ele>363.0</ele><time>2026-05-02T14:01:56.75Z</time></trkpt><trkpt lat="41.3434905" lon="14.0117767"><ele>363.0</ele><time>2026-05-02T14:01:59.757Z</time></trkpt><trkpt lat="41.3434458" lon="14.0118437"><ele>363.0</ele><time>2026-05-02T14:02:01.755Z</time></trkpt><trkpt lat="41.3433848" lon="14.0119398"><ele>363.0</ele><time>2026-05-02T14:02:03.755Z</time></trkpt><trkpt lat="41.343342" lon="14.012042"><ele>363.0</ele><time>2026-05-02T14:02:05.758Z</time></trkpt><trkpt lat="41.3433238" lon="14.0121502"><ele>363.0</ele><time>2026-05-02T14:02:07.752Z</time></trkpt><trkpt lat="41.3433195" lon="14.012248"><ele>363.0</ele><time>2026-05-02T14:02:09.75Z</time></trkpt><trkpt lat="41.3433093" lon="14.0123345"><ele>363.0</ele><time>2026-05-02T14:02:11.755Z</time></trkpt><trkpt lat="41.3433012" lon="14.0124298"><ele>363.0</ele><time>2026-05-02T14:02:13.759Z</time></trkpt><trkpt lat="41.3432948" lon="14.012535"><ele>363.0</ele><time>2026-05-02T14:02:15.756Z</time></trkpt><trkpt lat="41.3432853" lon="14.0126555"><ele>362.79999999999995</ele><time>2026-05-02T14:02:17.754Z</time></trkpt><trkpt lat="41.3432723" lon="14.01278"><ele>362.6</ele><time>2026-05-02T14:02:19.755Z</time></trkpt><trkpt lat="41.343257" lon="14.0129012"><ele>362.4</ele><time>2026-05-02T14:02:21.753Z</time></trkpt><trkpt lat="41.34325" lon="14.013038"><ele>362.20000000000005</ele><time>2026-05-02T14:02:23.752Z</time></trkpt><trkpt lat="41.3432308" lon="14.0131665"><ele>362.0</ele><time>2026-05-02T14:02:25.753Z</time></trkpt><trkpt lat="41.343199" lon="14.0132852"><ele>362.0</ele><time>2026-05-02T14:02:27.754Z</time></trkpt><trkpt lat="41.3431383" lon="14.013335"><ele>362.0</ele><time>2026-05-02T14:02:30.756Z</time></trkpt><trkpt lat="41.343053" lon="14.0132747"><ele>362.0</ele><time>2026-05-02T14:02:33.751Z</time></trkpt><trkpt lat="41.3430215" lon="14.0131882"><ele>362.0</ele><time>2026-05-02T14:02:35.751Z</time></trkpt><trkpt lat="41.3430197" lon="14.0130923"><ele>362.0</ele><time>2026-05-02T14:02:37.755Z</time></trkpt><trkpt lat="41.3430187" lon="14.0129738"><ele>362.0</ele><time>2026-05-02T14:02:39.756Z</time></trkpt><trkpt lat="41.3430168" lon="14.0128412"><ele>364.5</ele><time>2026-05-02T14:02:41.755Z</time></trkpt><trkpt lat="41.3430167" lon="14.0127222"><ele>367.0</ele><time>2026-05-02T14:02:43.752Z</time></trkpt><trkpt lat="41.3430165" lon="14.0126175"><ele>369.5</ele><time>2026-05-02T14:02:45.752Z</time></trkpt><trkpt lat="41.3430057" lon="14.0125012"><ele>372.0</ele><time>2026-05-02T14:02:47.753Z</time></trkpt><trkpt lat="41.3429997" lon="14.0123872"><ele>374.5</ele><time>2026-05-02T14:02:49.753Z</time></trkpt><trkpt lat="41.3429937" lon="14.0122642"><ele>377.0</ele><time>2026-05-02T14:02:51.757Z</time></trkpt><trkpt lat="41.3429778" lon="14.0121545"><ele>377.0</ele><time>2026-05-02T14:02:53.754Z</time></trkpt><trkpt lat="41.342971" lon="14.0120593"><ele>377.0</ele><time>2026-05-02T14:02:55.753Z</time></trkpt><trkpt lat="41.3429683" lon="14.01196"><ele>377.0</ele><time>2026-05-02T14:02:57.754Z</time></trkpt><trkpt lat="41.3429447" lon="14.0118758"><ele>377.0</ele><time>2026-05-02T14:02:59.754Z</time></trkpt><trkpt lat="41.3428987" lon="14.0117745"><ele>377.0</ele><time>2026-05-02T14:03:02.756Z</time></trkpt><trkpt lat="41.3428397" lon="14.0116765"><ele>377.0</ele><time>2026-05-02T14:03:05.751Z</time></trkpt><trkpt lat="41.3428075" lon="14.0115945"><ele>376.83333333333337</ele><time>2026-05-02T14:03:07.752Z</time></trkpt><trkpt lat="41.3427772" lon="14.0114967"><ele>376.6666666666667</ele><time>2026-05-02T14:03:10.753Z</time></trkpt><trkpt lat="41.3427715" lon="14.0114003"><ele>376.5</ele><time>2026-05-02T14:03:13.753Z</time></trkpt><trkpt lat="41.3427278" lon="14.0114668"><ele>376.3333333333333</ele><time>2026-05-02T14:03:18.752Z</time></trkpt><trkpt lat="41.3427847" lon="14.0115695"><ele>376.16666666666663</ele><time>2026-05-02T14:03:21.749Z</time></trkpt><trkpt lat="41.3428297" lon="14.0116335"><ele>376.0</ele><time>2026-05-02T14:03:23.751Z</time></trkpt><trkpt lat="41.3429005" lon="14.0116532"><ele>376.16666666666663</ele><time>2026-05-02T14:03:26.752Z</time></trkpt><trkpt lat="41.3429652" lon="14.0116747"><ele>376.3333333333333</ele><time>2026-05-02T14:03:29.751Z</time></trkpt><trkpt lat="41.3430318" lon="14.0117195"><ele>376.5</ele><time>2026-05-02T14:03:32.756Z</time></trkpt><trkpt lat="41.3431073" lon="14.0117177"><ele>376.6666666666667</ele><time>2026-05-02T14:03:35.751Z</time></trkpt><trkpt lat="41.3431983" lon="14.011706"><ele>376.83333333333337</ele><time>2026-05-02T14:03:38.752Z</time></trkpt><trkpt lat="41.3432663" lon="14.0117045"><ele>377.0</ele><time>2026-05-02T14:03:40.753Z</time></trkpt><trkpt lat="41.3433567" lon="14.0117023"><ele>374.99999999999994</ele><time>2026-05-02T14:03:43.756Z</time></trkpt><trkpt lat="41.3434345" lon="14.0116612"><ele>373.0</ele><time>2026-05-02T14:03:46.75Z</time></trkpt><trkpt lat="41.3434823" lon="14.011596"><ele>371.0</ele><time>2026-05-02T14:03:48.749Z</time></trkpt><trkpt lat="41.3435473" lon="14.0115588"><ele>369.0</ele><time>2026-05-02T14:03:50.754Z</time></trkpt><trkpt lat="41.3435863" lon="14.0114917"><ele>367.0</ele><time>2026-05-02T14:03:52.755Z</time></trkpt><trkpt lat="41.3436243" lon="14.0114158"><ele>364.99999999999994</ele><time>2026-05-02T14:03:54.752Z</time></trkpt><trkpt lat="41.3436735" lon="14.0113167"><ele>363.0</ele><time>2026-05-02T14:03:56.754Z</time></trkpt><trkpt lat="41.3437277" lon="14.011214"><ele>363.0</ele><time>2026-05-02T14:03:58.753Z</time></trkpt><trkpt lat="41.3437557" lon="14.011071"><ele>363.0</ele><time>2026-05-02T14:04:00.753Z</time></trkpt><trkpt lat="41.3437747" lon="14.0109392"><ele>363.0</ele><time>2026-05-02T14:04:02.755Z</time></trkpt><trkpt lat="41.3437893" lon="14.010833"><ele>363.0</ele><time>2026-05-02T14:04:04.751Z</time></trkpt><trkpt lat="41.3437868" lon="14.0107277"><ele>363.0</ele><time>2026-05-02T14:04:07.753Z</time></trkpt><trkpt lat="41.343787" lon="14.0106167"><ele>363.0</ele><time>2026-05-02T14:04:10.752Z</time></trkpt><trkpt lat="41.3437762" lon="14.010507"><ele>363.0</ele><time>2026-05-02T14:04:13.75Z</time></trkpt><trkpt lat="41.3437452" lon="14.0104055"><ele>363.0</ele><time>2026-05-02T14:04:15.751Z</time></trkpt><trkpt lat="41.3436883" lon="14.010308"><ele>363.0</ele><time>2026-05-02T14:04:17.753Z</time></trkpt><trkpt lat="41.3436053" lon="14.0102207"><ele>363.0</ele><time>2026-05-02T14:04:19.752Z</time></trkpt><trkpt lat="41.343531" lon="14.01013"><ele>363.0</ele><time>2026-05-02T14:04:21.751Z</time></trkpt><trkpt lat="41.3434603" lon="14.0100353"><ele>363.0</ele><time>2026-05-02T14:04:23.753Z</time></trkpt><trkpt lat="41.3434117" lon="14.0099653"><ele>363.0</ele><time>2026-05-02T14:04:25.753Z</time></trkpt><trkpt lat="41.3433512" lon="14.0098958"><ele>363.0</ele><time>2026-05-02T14:04:27.751Z</time></trkpt><trkpt lat="41.3432768" lon="14.0097988"><ele>363.0</ele><time>2026-05-02T14:04:29.751Z</time></trkpt><trkpt lat="41.3431792" lon="14.0097182"><ele>362.25</ele><time>2026-05-02T14:04:31.75Z</time></trkpt><trkpt lat="41.343073" lon="14.0096558"><ele>361.5</ele><time>2026-05-02T14:04:33.752Z</time></trkpt><trkpt lat="41.3429795" lon="14.0095867"><ele>360.75</ele><time>2026-05-02T14:04:35.749Z</time></trkpt><trkpt lat="41.3428847" lon="14.0095113"><ele>360.0</ele><time>2026-05-02T14:04:37.75Z</time></trkpt><trkpt lat="41.3427755" lon="14.00943"><ele>360.0</ele><time>2026-05-02T14:04:39.75Z</time></trkpt><trkpt lat="41.3427162" lon="14.0093875"><ele>360.0</ele><time>2026-05-02T14:04:40.751Z</time></trkpt><trkpt lat="41.3426565" lon="14.009349"><ele>360.0</ele><time>2026-05-02T14:04:41.752Z</time></trkpt><trkpt lat="41.3426015" lon="14.009306"><ele>360.0</ele><time>2026-05-02T14:04:42.751Z</time></trkpt><trkpt lat="41.3424963" lon="14.0092322"><ele>360.0</ele><time>2026-05-02T14:04:44.751Z</time></trkpt><trkpt lat="41.342382" lon="14.009165"><ele>360.0</ele><time>2026-05-02T14:04:46.752Z</time></trkpt><trkpt lat="41.3423232" lon="14.0091253"><ele>360.6666666666667</ele><time>2026-05-02T14:04:47.751Z</time></trkpt><trkpt lat="41.3422188" lon="14.0090582"><ele>361.3333333333333</ele><time>2026-05-02T14:04:49.752Z</time></trkpt><trkpt lat="41.3421285" lon="14.0089642"><ele>362.0</ele><time>2026-05-02T14:04:51.752Z</time></trkpt><trkpt lat="41.3420825" lon="14.0089045"><ele>362.66666666666663</ele><time>2026-05-02T14:04:52.754Z</time></trkpt><trkpt lat="41.3420335" lon="14.0088468"><ele>363.3333333333333</ele><time>2026-05-02T14:04:53.754Z</time></trkpt><trkpt lat="41.3419797" lon="14.008783"><ele>364.0</ele><time>2026-05-02T14:04:54.754Z</time></trkpt><trkpt lat="41.341928" lon="14.008715"><ele>364.0</ele><time>2026-05-02T14:04:55.754Z</time></trkpt><trkpt lat="41.341879" lon="14.0086462"><ele>364.0</ele><time>2026-05-02T14:04:56.751Z</time></trkpt><trkpt lat="41.3418297" lon="14.0085758"><ele>364.0</ele><time>2026-05-02T14:04:57.752Z</time></trkpt><trkpt lat="41.3417813" lon="14.0085103"><ele>364.0</ele><time>2026-05-02T14:04:58.752Z</time></trkpt><trkpt lat="41.3417303" lon="14.0084603"><ele>364.0</ele><time>2026-05-02T14:04:59.75Z</time></trkpt><trkpt lat="41.3416748" lon="14.0084128"><ele>364.0</ele><time>2026-05-02T14:05:00.75Z</time></trkpt><trkpt lat="41.3415665" lon="14.0083417"><ele>365.0</ele><time>2026-05-02T14:05:02.753Z</time></trkpt><trkpt lat="41.3415072" lon="14.0083133"><ele>366.0</ele><time>2026-05-02T14:05:03.754Z</time></trkpt><trkpt lat="41.3413957" lon="14.008277"><ele>367.0</ele><time>2026-05-02T14:05:05.752Z</time></trkpt><trkpt lat="41.3412895" lon="14.008247"><ele>368.0</ele><time>2026-05-02T14:05:07.751Z</time></trkpt><trkpt lat="41.3411887" lon="14.0082265"><ele>369.0</ele><time>2026-05-02T14:05:09.751Z</time></trkpt><trkpt lat="41.3410775" lon="14.0081748"><ele>369.0</ele><time>2026-05-02T14:05:11.751Z</time></trkpt><trkpt lat="41.3410197" lon="14.0081333"><ele>369.0</ele><time>2026-05-02T14:05:12.752Z</time></trkpt><trkpt lat="41.3409658" lon="14.0080695"><ele>369.0</ele><time>2026-05-02T14:05:13.752Z</time></trkpt><trkpt lat="41.3409115" lon="14.0079993"><ele>369.0</ele><time>2026-05-02T14:05:14.75Z</time></trkpt><trkpt lat="41.340869" lon="14.0079313"><ele>369.0</ele><time>2026-05-02T14:05:15.751Z</time></trkpt><trkpt lat="41.3408307" lon="14.0078602"><ele>369.0</ele><time>2026-05-02T14:05:16.751Z</time></trkpt><trkpt lat="41.3407953" lon="14.0077457"><ele>369.0</ele><time>2026-05-02T14:05:18.75Z</time></trkpt><trkpt lat="41.3408207" lon="14.0076217"><ele>369.0</ele><time>2026-05-02T14:05:20.751Z</time></trkpt><trkpt lat="41.3408562" lon="14.007496"><ele>369.0</ele><time>2026-05-02T14:05:22.751Z</time></trkpt><trkpt lat="41.3409102" lon="14.0073522"><ele>369.0</ele><time>2026-05-02T14:05:24.749Z</time></trkpt><trkpt lat="41.3409323" lon="14.0072713"><ele>369.0</ele><time>2026-05-02T14:05:25.749Z</time></trkpt><trkpt lat="41.3409548" lon="14.0071872"><ele>369.0</ele><time>2026-05-02T14:05:26.749Z</time></trkpt><trkpt lat="41.3409958" lon="14.0070448"><ele>369.4</ele><time>2026-05-02T14:05:28.75Z</time></trkpt><trkpt lat="41.34103" lon="14.0069422"><ele>369.79999999999995</ele><time>2026-05-02T14:05:30.749Z</time></trkpt><trkpt lat="41.3410575" lon="14.0068235"><ele>370.20000000000005</ele><time>2026-05-02T14:05:32.75Z</time></trkpt><trkpt lat="41.3410745" lon="14.0066975"><ele>370.6</ele><time>2026-05-02T14:05:34.749Z</time></trkpt><trkpt lat="41.3410553" lon="14.0065615"><ele>371.0</ele><time>2026-05-02T14:05:36.749Z</time></trkpt><trkpt lat="41.3409565" lon="14.0064788"><ele>369.83333333333337</ele><time>2026-05-02T14:05:38.75Z</time></trkpt><trkpt lat="41.340863" lon="14.0063977"><ele>368.6666666666667</ele><time>2026-05-02T14:05:40.752Z</time></trkpt><trkpt lat="41.340804" lon="14.0063445"><ele>367.5</ele><time>2026-05-02T14:05:41.751Z</time></trkpt><trkpt lat="41.340738" lon="14.0062958"><ele>366.3333333333333</ele><time>2026-05-02T14:05:42.752Z</time></trkpt><trkpt lat="41.340674" lon="14.0062535"><ele>365.16666666666663</ele><time>2026-05-02T14:05:43.75Z</time></trkpt><trkpt lat="41.3406062" lon="14.0062153"><ele>364.0</ele><time>2026-05-02T14:05:44.749Z</time></trkpt><trkpt lat="41.3405443" lon="14.0061843"><ele>367.0</ele><time>2026-05-02T14:05:45.751Z</time></trkpt><trkpt lat="41.340442" lon="14.0061213"><ele>370.0</ele><time>2026-05-02T14:05:47.75Z</time></trkpt><trkpt lat="41.3403762" lon="14.0060613"><ele>373.0</ele><time>2026-05-02T14:05:49.749Z</time></trkpt><trkpt lat="41.3403108" lon="14.0059787"><ele>376.0</ele><time>2026-05-02T14:05:52.751Z</time></trkpt><trkpt lat="41.3402427" lon="14.005921"><ele>379.0</ele><time>2026-05-02T14:05:54.749Z</time></trkpt><trkpt lat="41.3401633" lon="14.0058523"><ele>375.0</ele><time>2026-05-02T14:05:56.751Z</time></trkpt><trkpt lat="41.3400972" lon="14.005772"><ele>371.0</ele><time>2026-05-02T14:05:58.751Z</time></trkpt><trkpt lat="41.3400247" lon="14.0056995"><ele>367.0</ele><time>2026-05-02T14:06:00.75Z</time></trkpt><trkpt lat="41.3399322" lon="14.0056305"><ele>363.0</ele><time>2026-05-02T14:06:02.749Z</time></trkpt><trkpt lat="41.3398205" lon="14.0055675"><ele>359.0</ele><time>2026-05-02T14:06:04.75Z</time></trkpt><trkpt lat="41.3397543" lon="14.0055432"><ele>362.1666666666667</ele><time>2026-05-02T14:06:05.75Z</time></trkpt><trkpt lat="41.3396998" lon="14.0055005"><ele>365.33333333333337</ele><time>2026-05-02T14:06:06.751Z</time></trkpt><trkpt lat="41.3396263" lon="14.0054108"><ele>368.5</ele><time>2026-05-02T14:06:08.751Z</time></trkpt><trkpt lat="41.3395363" lon="14.0053483"><ele>371.6666666666667</ele><time>2026-05-02T14:06:10.752Z</time></trkpt><trkpt lat="41.3394442" lon="14.0052792"><ele>374.8333333333333</ele><time>2026-05-02T14:06:12.75Z</time></trkpt><trkpt lat="41.3394058" lon="14.0052125"><ele>378.0</ele><time>2026-05-02T14:06:13.751Z</time></trkpt><trkpt lat="41.3393003" lon="14.0051122"><ele>378.0</ele><time>2026-05-02T14:06:15.749Z</time></trkpt><trkpt lat="41.339239" lon="14.005075"><ele>378.0</ele><time>2026-05-02T14:06:16.751Z</time></trkpt><trkpt lat="41.339131" lon="14.0050152"><ele>378.0</ele><time>2026-05-02T14:06:18.751Z</time></trkpt><trkpt lat="41.3390345" lon="14.0049362"><ele>378.0</ele><time>2026-05-02T14:06:20.751Z</time></trkpt><trkpt lat="41.33895" lon="14.0048202"><ele>378.0</ele><time>2026-05-02T14:06:22.751Z</time></trkpt><trkpt lat="41.3389048" lon="14.0047572"><ele>381.0</ele><time>2026-05-02T14:06:23.752Z</time></trkpt><trkpt lat="41.3388563" lon="14.0046885"><ele>384.0</ele><time>2026-05-02T14:06:24.751Z</time></trkpt><trkpt lat="41.3387848" lon="14.0046185"><ele>387.0</ele><time>2026-05-02T14:06:25.752Z</time></trkpt><trkpt lat="41.3387062" lon="14.0045422"><ele>390.0</ele><time>2026-05-02T14:06:26.75Z</time></trkpt><trkpt lat="41.33865" lon="14.0044942"><ele>393.0</ele><time>2026-05-02T14:06:27.752Z</time></trkpt><trkpt lat="41.338547" lon="14.0043868"><ele>393.0</ele><time>2026-05-02T14:06:29.751Z</time></trkpt><trkpt lat="41.3385043" lon="14.0043202"><ele>393.0</ele><time>2026-05-02T14:06:30.75Z</time></trkpt><trkpt lat="41.338421" lon="14.0042182"><ele>393.0</ele><time>2026-05-02T14:06:32.75Z</time></trkpt><trkpt lat="41.3383072" lon="14.0041517"><ele>393.0</ele><time>2026-05-02T14:06:34.751Z</time></trkpt><trkpt lat="41.3382445" lon="14.0041292"><ele>393.0</ele><time>2026-05-02T14:06:35.753Z</time></trkpt><trkpt lat="41.338137" lon="14.0040797"><ele>392.1666666666667</ele><time>2026-05-02T14:06:37.75Z</time></trkpt><trkpt lat="41.3380615" lon="14.003971"><ele>391.33333333333337</ele><time>2026-05-02T14:06:39.75Z</time></trkpt><trkpt lat="41.3380027" lon="14.0039002"><ele>390.5</ele><time>2026-05-02T14:06:41.752Z</time></trkpt><trkpt lat="41.3379292" lon="14.0038832"><ele>389.6666666666667</ele><time>2026-05-02T14:06:43.754Z</time></trkpt><trkpt lat="41.3378537" lon="14.00385"><ele>388.83333333333337</ele><time>2026-05-02T14:06:45.754Z</time></trkpt><trkpt lat="41.3377652" lon="14.003795"><ele>388.0</ele><time>2026-05-02T14:06:47.75Z</time></trkpt><trkpt lat="41.3376738" lon="14.003765"><ele>388.0</ele><time>2026-05-02T14:06:49.751Z</time></trkpt><trkpt lat="41.3375947" lon="14.0037245"><ele>388.0</ele><time>2026-05-02T14:06:51.751Z</time></trkpt><trkpt lat="41.3375332" lon="14.0036455"><ele>388.0</ele><time>2026-05-02T14:06:53.75Z</time></trkpt><trkpt lat="41.337494" lon="14.003506"><ele>388.0</ele><time>2026-05-02T14:06:55.751Z</time></trkpt><trkpt lat="41.3375037" lon="14.0033567"><ele>388.0</ele><time>2026-05-02T14:06:57.748Z</time></trkpt><trkpt lat="41.3375247" lon="14.003228"><ele>385.0</ele><time>2026-05-02T14:06:59.749Z</time></trkpt><trkpt lat="41.3375487" lon="14.0030818"><ele>382.0</ele><time>2026-05-02T14:07:01.747Z</time></trkpt><trkpt lat="41.3375493" lon="14.0029353"><ele>379.0</ele><time>2026-05-02T14:07:03.749Z</time></trkpt><trkpt lat="41.337578" lon="14.0027963"><ele>376.0</ele><time>2026-05-02T14:07:05.75Z</time></trkpt><trkpt lat="41.3376228" lon="14.0026423"><ele>376.0</ele><time>2026-05-02T14:07:07.752Z</time></trkpt><trkpt lat="41.3376692" lon="14.00253"><ele>376.0</ele><time>2026-05-02T14:07:09.75Z</time></trkpt><trkpt lat="41.337732" lon="14.0024732"><ele>376.0</ele><time>2026-05-02T14:07:11.752Z</time></trkpt><trkpt lat="41.3378267" lon="14.0024993"><ele>376.0</ele><time>2026-05-02T14:07:14.75Z</time></trkpt><trkpt lat="41.3378937" lon="14.0025227"><ele>376.0</ele><time>2026-05-02T14:07:16.752Z</time></trkpt><trkpt lat="41.3379435" lon="14.0024682"><ele>376.0</ele><time>2026-05-02T14:07:23.751Z</time></trkpt><trkpt lat="41.3378658" lon="14.0024333"><ele>377.3333333333333</ele><time>2026-05-02T14:07:28.753Z</time></trkpt><trkpt lat="41.33781" lon="14.0023935"><ele>378.66666666666663</ele><time>2026-05-02T14:07:30.753Z</time></trkpt><trkpt lat="41.3378145" lon="14.0022973"><ele>380.0</ele><time>2026-05-02T14:07:32.751Z</time></trkpt><trkpt lat="41.3378583" lon="14.0022082"><ele>381.3333333333333</ele><time>2026-05-02T14:07:34.753Z</time></trkpt><trkpt lat="41.3379287" lon="14.0021953"><ele>382.6666666666667</ele><time>2026-05-02T14:07:36.75Z</time></trkpt><trkpt lat="41.3380243" lon="14.0022255"><ele>384.0</ele><time>2026-05-02T14:07:38.754Z</time></trkpt><trkpt lat="41.3381367" lon="14.0022472"><ele>380.6</ele><time>2026-05-02T14:07:40.754Z</time></trkpt><trkpt lat="41.3382525" lon="14.0022148"><ele>377.2</ele><time>2026-05-02T14:07:42.752Z</time></trkpt><trkpt lat="41.33836" lon="14.0021963"><ele>373.8</ele><time>2026-05-02T14:07:44.752Z</time></trkpt><trkpt lat="41.3384527" lon="14.0022125"><ele>370.40000000000003</ele><time>2026-05-02T14:07:46.752Z</time></trkpt><trkpt lat="41.3385415" lon="14.0022312"><ele>367.0</ele><time>2026-05-02T14:07:48.752Z</time></trkpt><trkpt lat="41.3386487" lon="14.002217"><ele>367.0</ele><time>2026-05-02T14:07:50.749Z</time></trkpt><trkpt lat="41.3387118" lon="14.0022052"><ele>367.0</ele><time>2026-05-02T14:07:51.752Z</time></trkpt><trkpt lat="41.3387755" lon="14.0021878"><ele>367.0</ele><time>2026-05-02T14:07:52.754Z</time></trkpt><trkpt lat="41.3388975" lon="14.0021438"><ele>367.0</ele><time>2026-05-02T14:07:54.753Z</time></trkpt><trkpt lat="41.3389615" lon="14.0021113"><ele>367.0</ele><time>2026-05-02T14:07:55.752Z</time></trkpt><trkpt lat="41.3390273" lon="14.0020752"><ele>367.0</ele><time>2026-05-02T14:07:56.751Z</time></trkpt><trkpt lat="41.3390947" lon="14.0020373"><ele>363.40000000000003</ele><time>2026-05-02T14:07:57.751Z</time></trkpt><trkpt lat="41.3391597" lon="14.0019985"><ele>359.8</ele><time>2026-05-02T14:07:58.752Z</time></trkpt><trkpt lat="41.3392708" lon="14.0019333"><ele>356.2</ele><time>2026-05-02T14:08:00.752Z</time></trkpt><trkpt lat="41.3393727" lon="14.0018702"><ele>352.6</ele><time>2026-05-02T14:08:02.752Z</time></trkpt><trkpt lat="41.339473" lon="14.001802"><ele>349.0</ele><time>2026-05-02T14:08:04.753Z</time></trkpt><trkpt lat="41.3395452" lon="14.0017365"><ele>349.0</ele><time>2026-05-02T14:08:06.753Z</time></trkpt><trkpt lat="41.3395995" lon="14.0016865"><ele>349.0</ele><time>2026-05-02T14:08:12.752Z</time></trkpt><trkpt lat="41.3396693" lon="14.0016102"><ele>349.0</ele><time>2026-05-02T14:08:15.749Z</time></trkpt><trkpt lat="41.3397555" lon="14.0015322"><ele>349.0</ele><time>2026-05-02T14:08:17.749Z</time></trkpt><trkpt lat="41.3398628" lon="14.001459"><ele>349.0</ele><time>2026-05-02T14:08:19.752Z</time></trkpt><trkpt lat="41.3399257" lon="14.001441"><ele>349.0</ele><time>2026-05-02T14:08:20.752Z</time></trkpt><trkpt lat="41.3400435" lon="14.0013908"><ele>345.5</ele><time>2026-05-02T14:08:22.755Z</time></trkpt><trkpt lat="41.3401262" lon="14.0013725"><ele>342.0</ele><time>2026-05-02T14:08:24.752Z</time></trkpt><trkpt lat="41.3401888" lon="14.001358"><ele>338.5</ele><time>2026-05-02T14:08:26.753Z</time></trkpt><trkpt lat="41.3402035" lon="14.0012737"><ele>335.0</ele><time>2026-05-02T14:08:29.752Z</time></trkpt><trkpt lat="41.3401385" lon="14.001171"><ele>331.5</ele><time>2026-05-02T14:08:32.751Z</time></trkpt><trkpt lat="41.3401123" lon="14.0010845"><ele>328.0</ele><time>2026-05-02T14:08:34.749Z</time></trkpt><trkpt lat="41.3401227" lon="14.0009868"><ele>328.0</ele><time>2026-05-02T14:08:36.749Z</time></trkpt><trkpt lat="41.3401595" lon="14.000866"><ele>328.0</ele><time>2026-05-02T14:08:38.75Z</time></trkpt><trkpt lat="41.3402205" lon="14.0008212"><ele>328.0</ele><time>2026-05-02T14:08:40.748Z</time></trkpt><trkpt lat="41.3403025" lon="14.0008333"><ele>328.0</ele><time>2026-05-02T14:08:42.746Z</time></trkpt><trkpt lat="41.3404248" lon="14.0009027"><ele>328.0</ele><time>2026-05-02T14:08:44.748Z</time></trkpt><trkpt lat="41.3405202" lon="14.0009367"><ele>329.1428571428571</ele><time>2026-05-02T14:08:46.748Z</time></trkpt><trkpt lat="41.340592" lon="14.0009472"><ele>330.2857142857143</ele><time>2026-05-02T14:08:48.747Z</time></trkpt><trkpt lat="41.3406663" lon="14.0009483"><ele>331.42857142857144</ele><time>2026-05-02T14:08:50.747Z</time></trkpt><trkpt lat="41.3407208" lon="14.0010033"><ele>332.57142857142856</ele><time>2026-05-02T14:08:52.748Z</time></trkpt><trkpt lat="41.3407837" lon="14.0010515"><ele>333.7142857142857</ele><time>2026-05-02T14:08:54.747Z</time></trkpt><trkpt lat="41.340851" lon="14.0010865"><ele>334.85714285714283</ele><time>2026-05-02T14:08:56.748Z</time></trkpt><trkpt lat="41.3409177" lon="14.0010922"><ele>336.0</ele><time>2026-05-02T14:08:58.747Z</time></trkpt><trkpt lat="41.3410025" lon="14.001017"><ele>336.0</ele><time>2026-05-02T14:09:00.748Z</time></trkpt><trkpt lat="41.3410747" lon="14.0009118"><ele>336.0</ele><time>2026-05-02T14:09:02.747Z</time></trkpt><trkpt lat="41.3411365" lon="14.0008073"><ele>336.0</ele><time>2026-05-02T14:09:04.746Z</time></trkpt><trkpt lat="41.3411795" lon="14.0007322"><ele>336.0</ele><time>2026-05-02T14:09:06.746Z</time></trkpt><trkpt lat="41.3412377" lon="14.0006258"><ele>336.0</ele><time>2026-05-02T14:09:08.748Z</time></trkpt><trkpt lat="41.3412605" lon="14.0005467"><ele>336.0</ele><time>2026-05-02T14:09:10.747Z</time></trkpt><trkpt lat="41.341308" lon="14.0004585"><ele>339.0</ele><time>2026-05-02T14:09:12.747Z</time></trkpt><trkpt lat="41.3413267" lon="14.0003468"><ele>342.0</ele><time>2026-05-02T14:09:14.747Z</time></trkpt><trkpt lat="41.341382" lon="14.0002147"><ele>345.0</ele><time>2026-05-02T14:09:16.751Z</time></trkpt><trkpt lat="41.3414558" lon="14.0000973"><ele>348.0</ele><time>2026-05-02T14:09:18.75Z</time></trkpt><trkpt lat="41.3414983" lon="13.999966"><ele>351.0</ele><time>2026-05-02T14:09:20.751Z</time></trkpt><trkpt lat="41.3415828" lon="13.9998628"><ele>352.5714285714286</ele><time>2026-05-02T14:09:22.748Z</time></trkpt><trkpt lat="41.3416298" lon="13.9997985"><ele>354.14285714285717</ele><time>2026-05-02T14:09:23.748Z</time></trkpt><trkpt lat="41.3416778" lon="13.9997378"><ele>355.7142857142857</ele><time>2026-05-02T14:09:24.75Z</time></trkpt><trkpt lat="41.341735" lon="13.9996962"><ele>357.28571428571433</ele><time>2026-05-02T14:09:25.748Z</time></trkpt><trkpt lat="41.3418213" lon="13.9996517"><ele>358.85714285714283</ele><time>2026-05-02T14:09:27.749Z</time></trkpt><trkpt lat="41.3418897" lon="13.9996285"><ele>360.42857142857144</ele><time>2026-05-02T14:09:29.746Z</time></trkpt><trkpt lat="41.3419703" lon="13.9996107"><ele>362.0</ele><time>2026-05-02T14:09:31.748Z</time></trkpt><trkpt lat="41.3420333" lon="13.9996403"><ele>362.0</ele><time>2026-05-02T14:09:33.75Z</time></trkpt><trkpt lat="41.3420933" lon="13.9997303"><ele>362.0</ele><time>2026-05-02T14:09:35.751Z</time></trkpt><trkpt lat="41.3421363" lon="13.9998125"><ele>362.0</ele><time>2026-05-02T14:09:37.753Z</time></trkpt><trkpt lat="41.3421927" lon="13.9999423"><ele>362.0</ele><time>2026-05-02T14:09:39.751Z</time></trkpt><trkpt lat="41.3422163" lon="14.0000233"><ele>362.0</ele><time>2026-05-02T14:09:40.751Z</time></trkpt><trkpt lat="41.3422463" lon="14.0001652"><ele>362.0</ele><time>2026-05-02T14:09:42.753Z</time></trkpt><trkpt lat="41.3422897" lon="14.0002803"><ele>362.0</ele><time>2026-05-02T14:09:44.752Z</time></trkpt><trkpt lat="41.3423332" lon="14.0003907"><ele>362.0</ele><time>2026-05-02T14:09:46.75Z</time></trkpt><trkpt lat="41.3424108" lon="14.0003922"><ele>362.0</ele><time>2026-05-02T14:09:49.75Z</time></trkpt><trkpt lat="41.3423525" lon="14.0002663"><ele>362.0</ele><time>2026-05-02T14:09:53.747Z</time></trkpt><trkpt lat="41.342333" lon="14.000184"><ele>362.0</ele><time>2026-05-02T14:09:54.748Z</time></trkpt><trkpt lat="41.3423148" lon="14.0000947"><ele>362.0</ele><time>2026-05-02T14:09:55.75Z</time></trkpt><trkpt lat="41.3422963" lon="14.0000015"><ele>362.0</ele><time>2026-05-02T14:09:56.749Z</time></trkpt><trkpt lat="41.3422702" lon="13.9999112"><ele>362.0</ele><time>2026-05-02T14:09:57.752Z</time></trkpt><trkpt lat="41.3422352" lon="13.999826"><ele>362.0</ele><time>2026-05-02T14:09:58.751Z</time></trkpt><trkpt lat="41.3421957" lon="13.9997513"><ele>362.0</ele><time>2026-05-02T14:09:59.752Z</time></trkpt><trkpt lat="41.3421575" lon="13.999679"><ele>362.0</ele><time>2026-05-02T14:10:00.751Z</time></trkpt><trkpt lat="41.3421278" lon="13.9995988"><ele>362.0</ele><time>2026-05-02T14:10:01.752Z</time></trkpt><trkpt lat="41.3421107" lon="13.999514"><ele>362.0</ele><time>2026-05-02T14:10:02.749Z</time></trkpt><trkpt lat="41.342111" lon="13.9993548"><ele>362.0</ele><time>2026-05-02T14:10:04.753Z</time></trkpt><trkpt lat="41.3421885" lon="13.999208"><ele>362.0</ele><time>2026-05-02T14:10:06.753Z</time></trkpt><trkpt lat="41.3422518" lon="13.999133"><ele>362.0</ele><time>2026-05-02T14:10:07.752Z</time></trkpt><trkpt lat="41.342331" lon="13.9990547"><ele>362.0</ele><time>2026-05-02T14:10:08.752Z</time></trkpt><trkpt lat="41.3424288" lon="13.998981"><ele>363.0</ele><time>2026-05-02T14:10:09.75Z</time></trkpt><trkpt lat="41.3425255" lon="13.9989215"><ele>364.0</ele><time>2026-05-02T14:10:10.752Z</time></trkpt><trkpt lat="41.34262" lon="13.9988682"><ele>365.0</ele><time>2026-05-02T14:10:11.751Z</time></trkpt><trkpt lat="41.3427155" lon="13.9988172"><ele>366.0</ele><time>2026-05-02T14:10:12.755Z</time></trkpt><trkpt lat="41.3428087" lon="13.998772"><ele>367.0</ele><time>2026-05-02T14:10:13.753Z</time></trkpt><trkpt lat="41.3428998" lon="13.9987272"><ele>367.0</ele><time>2026-05-02T14:10:14.751Z</time></trkpt><trkpt lat="41.342986" lon="13.99868"><ele>367.0</ele><time>2026-05-02T14:10:15.752Z</time></trkpt><trkpt lat="41.343069" lon="13.99863"><ele>367.0</ele><time>2026-05-02T14:10:16.752Z</time></trkpt><trkpt lat="41.3431497" lon="13.9985783"><ele>367.0</ele><time>2026-05-02T14:10:17.749Z</time></trkpt><trkpt lat="41.3432305" lon="13.9985282"><ele>367.0</ele><time>2026-05-02T14:10:18.751Z</time></trkpt><trkpt lat="41.3433118" lon="13.998485"><ele>365.66666666666663</ele><time>2026-05-02T14:10:19.75Z</time></trkpt><trkpt lat="41.3433927" lon="13.9984475"><ele>364.3333333333333</ele><time>2026-05-02T14:10:20.751Z</time></trkpt><trkpt lat="41.343473" lon="13.9984122"><ele>363.0</ele><time>2026-05-02T14:10:21.754Z</time></trkpt><trkpt lat="41.3435502" lon="13.9983702"><ele>361.6666666666667</ele><time>2026-05-02T14:10:22.754Z</time></trkpt><trkpt lat="41.3436238" lon="13.998313"><ele>360.33333333333337</ele><time>2026-05-02T14:10:23.753Z</time></trkpt><trkpt lat="41.3436908" lon="13.9982458"><ele>359.0</ele><time>2026-05-02T14:10:24.751Z</time></trkpt><trkpt lat="41.3437542" lon="13.9981752"><ele>360.6666666666667</ele><time>2026-05-02T14:10:25.752Z</time></trkpt><trkpt lat="41.3438147" lon="13.9981102"><ele>362.33333333333337</ele><time>2026-05-02T14:10:26.751Z</time></trkpt><trkpt lat="41.3438727" lon="13.9980503"><ele>364.0</ele><time>2026-05-02T14:10:27.753Z</time></trkpt><trkpt lat="41.3439577" lon="13.9979817"><ele>365.6666666666667</ele><time>2026-05-02T14:10:29.755Z</time></trkpt><trkpt lat="41.3440587" lon="13.9979148"><ele>367.3333333333333</ele><time>2026-05-02T14:10:31.755Z</time></trkpt><trkpt lat="41.3441328" lon="13.9978915"><ele>369.0</ele><time>2026-05-02T14:10:32.755Z</time></trkpt><trkpt lat="41.3442173" lon="13.9978813"><ele>369.0</ele><time>2026-05-02T14:10:33.755Z</time></trkpt><trkpt lat="41.3443045" lon="13.9978892"><ele>369.0</ele><time>2026-05-02T14:10:34.753Z</time></trkpt><trkpt lat="41.3443892" lon="13.9979147"><ele>369.0</ele><time>2026-05-02T14:10:35.753Z</time></trkpt><trkpt lat="41.3444678" lon="13.99795"><ele>369.0</ele><time>2026-05-02T14:10:36.752Z</time></trkpt><trkpt lat="41.3445375" lon="13.9979893"><ele>369.0</ele><time>2026-05-02T14:10:37.753Z</time></trkpt><trkpt lat="41.3446" lon="13.9980282"><ele>369.0</ele><time>2026-05-02T14:10:38.757Z</time></trkpt><trkpt lat="41.3446608" lon="13.9980693"><ele>369.1666666666667</ele><time>2026-05-02T14:10:39.756Z</time></trkpt><trkpt lat="41.3447223" lon="13.9981027"><ele>369.3333333333333</ele><time>2026-05-02T14:10:40.755Z</time></trkpt><trkpt lat="41.3447875" lon="13.9981268"><ele>369.5</ele><time>2026-05-02T14:10:41.751Z</time></trkpt><trkpt lat="41.3448607" lon="13.9981345"><ele>369.66666666666663</ele><time>2026-05-02T14:10:42.751Z</time></trkpt><trkpt lat="41.344938" lon="13.9981323"><ele>369.8333333333333</ele><time>2026-05-02T14:10:43.75Z</time></trkpt><trkpt lat="41.3450198" lon="13.9981318"><ele>370.0</ele><time>2026-05-02T14:10:44.751Z</time></trkpt><trkpt lat="41.3451062" lon="13.9981362"><ele>370.0</ele><time>2026-05-02T14:10:45.75Z</time></trkpt><trkpt lat="41.3451955" lon="13.9981337"><ele>370.0</ele><time>2026-05-02T14:10:46.75Z</time></trkpt><trkpt lat="41.3452828" lon="13.9981185"><ele>370.0</ele><time>2026-05-02T14:10:47.75Z</time></trkpt><trkpt lat="41.3453832" lon="13.9981168"><ele>370.0</ele><time>2026-05-02T14:10:48.748Z</time></trkpt><trkpt lat="41.3454833" lon="13.9981172"><ele>370.0</ele><time>2026-05-02T14:10:49.752Z</time></trkpt><trkpt lat="41.3455878" lon="13.998122"><ele>369.4</ele><time>2026-05-02T14:10:50.75Z</time></trkpt><trkpt lat="41.3456923" lon="13.9981305"><ele>368.8</ele><time>2026-05-02T14:10:51.752Z</time></trkpt><trkpt lat="41.3457975" lon="13.9981425"><ele>368.20000000000005</ele><time>2026-05-02T14:10:52.751Z</time></trkpt><trkpt lat="41.3459018" lon="13.998158"><ele>367.6</ele><time>2026-05-02T14:10:53.75Z</time></trkpt><trkpt lat="41.3460082" lon="13.9981725"><ele>367.0</ele><time>2026-05-02T14:10:54.752Z</time></trkpt><trkpt lat="41.3461132" lon="13.9981852"><ele>367.0</ele><time>2026-05-02T14:10:55.75Z</time></trkpt><trkpt lat="41.3462182" lon="13.9981932"><ele>367.0</ele><time>2026-05-02T14:10:56.752Z</time></trkpt><trkpt lat="41.3463253" lon="13.9982023"><ele>367.0</ele><time>2026-05-02T14:10:57.752Z</time></trkpt><trkpt lat="41.3464303" lon="13.9982212"><ele>367.0</ele><time>2026-05-02T14:10:58.752Z</time></trkpt><trkpt lat="41.34653" lon="13.9982448"><ele>367.0</ele><time>2026-05-02T14:10:59.752Z</time></trkpt><trkpt lat="41.3466257" lon="13.9982647"><ele>367.0</ele><time>2026-05-02T14:11:00.75Z</time></trkpt><trkpt lat="41.3467167" lon="13.9982845"><ele>367.0</ele><time>2026-05-02T14:11:01.751Z</time></trkpt><trkpt lat="41.3468038" lon="13.9983143"><ele>367.0</ele><time>2026-05-02T14:11:02.749Z</time></trkpt><trkpt lat="41.3468908" lon="13.9983547"><ele>367.0</ele><time>2026-05-02T14:11:03.749Z</time></trkpt><trkpt lat="41.3469653" lon="13.9984152"><ele>367.0</ele><time>2026-05-02T14:11:04.75Z</time></trkpt><trkpt lat="41.3470287" lon="13.9984993"><ele>365.20000000000005</ele><time>2026-05-02T14:11:05.75Z</time></trkpt><trkpt lat="41.3470887" lon="13.9985942"><ele>363.4</ele><time>2026-05-02T14:11:06.749Z</time></trkpt><trkpt lat="41.3471475" lon="13.998693"><ele>361.6</ele><time>2026-05-02T14:11:07.748Z</time></trkpt><trkpt lat="41.3472062" lon="13.9987895"><ele>359.79999999999995</ele><time>2026-05-02T14:11:08.748Z</time></trkpt><trkpt lat="41.3472627" lon="13.9988842"><ele>358.0</ele><time>2026-05-02T14:11:09.749Z</time></trkpt><trkpt lat="41.3473163" lon="13.998975"><ele>358.0</ele><time>2026-05-02T14:11:10.749Z</time></trkpt><trkpt lat="41.34737" lon="13.9990675"><ele>358.0</ele><time>2026-05-02T14:11:11.751Z</time></trkpt><trkpt lat="41.3474235" lon="13.9991613"><ele>358.0</ele><time>2026-05-02T14:11:12.749Z</time></trkpt><trkpt lat="41.3474768" lon="13.9992532"><ele>358.0</ele><time>2026-05-02T14:11:13.751Z</time></trkpt><trkpt lat="41.3475347" lon="13.9993368"><ele>358.0</ele><time>2026-05-02T14:11:14.751Z</time></trkpt><trkpt lat="41.3475933" lon="13.9994145"><ele>358.0</ele><time>2026-05-02T14:11:15.753Z</time></trkpt><trkpt lat="41.3476505" lon="13.9994687"><ele>356.5</ele><time>2026-05-02T14:11:16.749Z</time></trkpt><trkpt lat="41.3477082" lon="13.9995137"><ele>355.0</ele><time>2026-05-02T14:11:17.748Z</time></trkpt><trkpt lat="41.3477738" lon="13.9995612"><ele>353.5</ele><time>2026-05-02T14:11:18.748Z</time></trkpt><trkpt lat="41.3478637" lon="13.9995788"><ele>352.0</ele><time>2026-05-02T14:11:19.749Z</time></trkpt><trkpt lat="41.3479487" lon="13.9995912"><ele>350.5</ele><time>2026-05-02T14:11:20.749Z</time></trkpt><trkpt lat="41.3480377" lon="13.9996082"><ele>349.0</ele><time>2026-05-02T14:11:21.748Z</time></trkpt><trkpt lat="41.3481337" lon="13.9996353"><ele>348.3333333333333</ele><time>2026-05-02T14:11:22.748Z</time></trkpt><trkpt lat="41.3482148" lon="13.9996602"><ele>347.66666666666663</ele><time>2026-05-02T14:11:23.747Z</time></trkpt><trkpt lat="41.3482987" lon="13.9996802"><ele>347.0</ele><time>2026-05-02T14:11:24.747Z</time></trkpt><trkpt lat="41.3483787" lon="13.9996982"><ele>346.3333333333333</ele><time>2026-05-02T14:11:25.747Z</time></trkpt><trkpt lat="41.3484527" lon="13.999717"><ele>345.6666666666667</ele><time>2026-05-02T14:11:26.748Z</time></trkpt><trkpt lat="41.3485317" lon="13.9997317"><ele>345.0</ele><time>2026-05-02T14:11:27.747Z</time></trkpt><trkpt lat="41.348619" lon="13.9997458"><ele>345.0</ele><time>2026-05-02T14:11:28.749Z</time></trkpt><trkpt lat="41.34871" lon="13.9997453"><ele>345.0</ele><time>2026-05-02T14:11:29.748Z</time></trkpt><trkpt lat="41.3488057" lon="13.9997487"><ele>345.0</ele><time>2026-05-02T14:11:30.746Z</time></trkpt><trkpt lat="41.3488953" lon="13.9997353"><ele>345.0</ele><time>2026-05-02T14:11:31.746Z</time></trkpt><trkpt lat="41.3489855" lon="13.9997303"><ele>345.0</ele><time>2026-05-02T14:11:32.745Z</time></trkpt><trkpt lat="41.3490732" lon="13.9997253"><ele>344.6</ele><time>2026-05-02T14:11:33.748Z</time></trkpt><trkpt lat="41.3491632" lon="13.9997208"><ele>344.2</ele><time>2026-05-02T14:11:34.751Z</time></trkpt><trkpt lat="41.3492497" lon="13.9997117"><ele>343.79999999999995</ele><time>2026-05-02T14:11:35.75Z</time></trkpt><trkpt lat="41.349334" lon="13.9997015"><ele>343.4</ele><time>2026-05-02T14:11:36.75Z</time></trkpt><trkpt lat="41.3494265" lon="13.9996862"><ele>343.0</ele><time>2026-05-02T14:11:37.749Z</time></trkpt><trkpt lat="41.3495262" lon="13.9996817"><ele>343.0</ele><time>2026-05-02T14:11:38.749Z</time></trkpt><trkpt lat="41.3496277" lon="13.9996762"><ele>343.0</ele><time>2026-05-02T14:11:39.749Z</time></trkpt><trkpt lat="41.3497275" lon="13.9996675"><ele>343.0</ele><time>2026-05-02T14:11:40.749Z</time></trkpt><trkpt lat="41.3498247" lon="13.9996608"><ele>343.0</ele><time>2026-05-02T14:11:41.749Z</time></trkpt><trkpt lat="41.3499255" lon="13.9996652"><ele>343.0</ele><time>2026-05-02T14:11:42.747Z</time></trkpt><trkpt lat="41.3500245" lon="13.9996822"><ele>341.4</ele><time>2026-05-02T14:11:43.75Z</time></trkpt><trkpt lat="41.3501078" lon="13.9996795"><ele>339.79999999999995</ele><time>2026-05-02T14:11:44.747Z</time></trkpt><trkpt lat="41.3501995" lon="13.9996855"><ele>338.2</ele><time>2026-05-02T14:11:45.748Z</time></trkpt><trkpt lat="41.3502932" lon="13.999688"><ele>336.6</ele><time>2026-05-02T14:11:46.749Z</time></trkpt><trkpt lat="41.3503787" lon="13.99969"><ele>335.0</ele><time>2026-05-02T14:11:47.748Z</time></trkpt><trkpt lat="41.350479" lon="13.9996997"><ele>333.4</ele><time>2026-05-02T14:11:48.75Z</time></trkpt><trkpt lat="41.3505858" lon="13.9997057"><ele>331.8</ele><time>2026-05-02T14:11:49.75Z</time></trkpt><trkpt lat="41.3506965" lon="13.9997195"><ele>330.20000000000005</ele><time>2026-05-02T14:11:50.749Z</time></trkpt><trkpt lat="41.3508068" lon="13.9997277"><ele>328.6</ele><time>2026-05-02T14:11:51.749Z</time></trkpt><trkpt lat="41.3509172" lon="13.9997347"><ele>327.0</ele><time>2026-05-02T14:11:52.752Z</time></trkpt><trkpt lat="41.3510278" lon="13.9997385"><ele>327.0</ele><time>2026-05-02T14:11:53.749Z</time></trkpt><trkpt lat="41.3511395" lon="13.999743"><ele>327.0</ele><time>2026-05-02T14:11:54.749Z</time></trkpt><trkpt lat="41.3512485" lon="13.9997513"><ele>327.0</ele><time>2026-05-02T14:11:55.748Z</time></trkpt><trkpt lat="41.3513548" lon="13.9997663"><ele>327.0</ele><time>2026-05-02T14:11:56.748Z</time></trkpt><trkpt lat="41.351455" lon="13.9997968"><ele>327.0</ele><time>2026-05-02T14:11:57.747Z</time></trkpt><trkpt lat="41.3515508" lon="13.9998462"><ele>327.5</ele><time>2026-05-02T14:11:58.746Z</time></trkpt><trkpt lat="41.3516445" lon="13.9999138"><ele>328.0</ele><time>2026-05-02T14:11:59.749Z</time></trkpt><trkpt lat="41.3517415" lon="13.999986"><ele>328.5</ele><time>2026-05-02T14:12:00.75Z</time></trkpt><trkpt lat="41.351846" lon="14.0000612"><ele>329.0</ele><time>2026-05-02T14:12:01.757Z</time></trkpt><trkpt lat="41.351951" lon="14.0001292"><ele>329.0</ele><time>2026-05-02T14:12:02.756Z</time></trkpt><trkpt lat="41.3520588" lon="14.0001937"><ele>329.0</ele><time>2026-05-02T14:12:03.755Z</time></trkpt><trkpt lat="41.3521698" lon="14.000255"><ele>329.0</ele><time>2026-05-02T14:12:04.753Z</time></trkpt><trkpt lat="41.3522755" lon="14.0003138"><ele>329.0</ele><time>2026-05-02T14:12:05.753Z</time></trkpt><trkpt lat="41.3523718" lon="14.0003717"><ele>328.0</ele><time>2026-05-02T14:12:06.752Z</time></trkpt><trkpt lat="41.3524615" lon="14.0004327"><ele>327.0</ele><time>2026-05-02T14:12:07.752Z</time></trkpt><trkpt lat="41.3525487" lon="14.0004992"><ele>326.0</ele><time>2026-05-02T14:12:08.752Z</time></trkpt><trkpt lat="41.3526352" lon="14.000569"><ele>325.0</ele><time>2026-05-02T14:12:09.753Z</time></trkpt><trkpt lat="41.3527227" lon="14.0006415"><ele>324.0</ele><time>2026-05-02T14:12:10.754Z</time></trkpt><trkpt lat="41.3528073" lon="14.0007173"><ele>324.0</ele><time>2026-05-02T14:12:11.751Z</time></trkpt><trkpt lat="41.352887" lon="14.0007928"><ele>324.0</ele><time>2026-05-02T14:12:12.753Z</time></trkpt><trkpt lat="41.3529663" lon="14.0008662"><ele>324.0</ele><time>2026-05-02T14:12:13.75Z</time></trkpt><trkpt lat="41.3530442" lon="14.0009382"><ele>324.0</ele><time>2026-05-02T14:12:14.749Z</time></trkpt><trkpt lat="41.3531192" lon="14.0010088"><ele>324.0</ele><time>2026-05-02T14:12:15.749Z</time></trkpt><trkpt lat="41.3531922" lon="14.0010782"><ele>324.1666666666667</ele><time>2026-05-02T14:12:16.751Z</time></trkpt><trkpt lat="41.353266" lon="14.0011413"><ele>324.3333333333333</ele><time>2026-05-02T14:12:17.751Z</time></trkpt><trkpt lat="41.3533435" lon="14.0011912"><ele>324.5</ele><time>2026-05-02T14:12:18.75Z</time></trkpt><trkpt lat="41.3534252" lon="14.0012195"><ele>324.66666666666663</ele><time>2026-05-02T14:12:19.749Z</time></trkpt><trkpt lat="41.3535098" lon="14.0012283"><ele>324.8333333333333</ele><time>2026-05-02T14:12:20.748Z</time></trkpt><trkpt lat="41.3535947" lon="14.0012208"><ele>325.0</ele><time>2026-05-02T14:12:21.748Z</time></trkpt><trkpt lat="41.3536843" lon="14.001204"><ele>325.0</ele><time>2026-05-02T14:12:22.749Z</time></trkpt><trkpt lat="41.3537792" lon="14.0011852"><ele>325.0</ele><time>2026-05-02T14:12:23.747Z</time></trkpt><trkpt lat="41.3538785" lon="14.0011643"><ele>325.0</ele><time>2026-05-02T14:12:24.749Z</time></trkpt><trkpt lat="41.3539768" lon="14.0011542"><ele>325.0</ele><time>2026-05-02T14:12:25.748Z</time></trkpt><trkpt lat="41.3540742" lon="14.0011512"><ele>325.0</ele><time>2026-05-02T14:12:26.749Z</time></trkpt><trkpt lat="41.3541678" lon="14.001168"><ele>322.6</ele><time>2026-05-02T14:12:27.748Z</time></trkpt><trkpt lat="41.354254" lon="14.0012"><ele>320.2</ele><time>2026-05-02T14:12:28.749Z</time></trkpt><trkpt lat="41.3543405" lon="14.0012358"><ele>317.8</ele><time>2026-05-02T14:12:29.751Z</time></trkpt><trkpt lat="41.3544298" lon="14.0012713"><ele>315.4</ele><time>2026-05-02T14:12:30.75Z</time></trkpt><trkpt lat="41.3545303" lon="14.0013168"><ele>313.0</ele><time>2026-05-02T14:12:31.762Z</time></trkpt><trkpt lat="41.3546383" lon="14.0013577"><ele>310.0</ele><time>2026-05-02T14:12:32.755Z</time></trkpt><trkpt lat="41.3547527" lon="14.001398"><ele>307.0</ele><time>2026-05-02T14:12:33.755Z</time></trkpt><trkpt lat="41.3548695" lon="14.0014372"><ele>304.0</ele><time>2026-05-02T14:12:34.756Z</time></trkpt><trkpt lat="41.3549905" lon="14.0014792"><ele>301.0</ele><time>2026-05-02T14:12:35.753Z</time></trkpt><trkpt lat="41.3551088" lon="14.001523"><ele>301.0</ele><time>2026-05-02T14:12:36.754Z</time></trkpt><trkpt lat="41.355223" lon="14.0015648"><ele>301.0</ele><time>2026-05-02T14:12:37.753Z</time></trkpt><trkpt lat="41.3553307" lon="14.0016062"><ele>301.0</ele><time>2026-05-02T14:12:38.752Z</time></trkpt><trkpt lat="41.3554347" lon="14.0016465"><ele>301.0</ele><time>2026-05-02T14:12:39.752Z</time></trkpt><trkpt lat="41.3555378" lon="14.0016847"><ele>301.0</ele><time>2026-05-02T14:12:40.754Z</time></trkpt><trkpt lat="41.3556412" lon="14.0017187"><ele>301.2</ele><time>2026-05-02T14:12:41.751Z</time></trkpt><trkpt lat="41.3557453" lon="14.0017553"><ele>301.40000000000003</ele><time>2026-05-02T14:12:42.75Z</time></trkpt><trkpt lat="41.3558475" lon="14.001797"><ele>301.6</ele><time>2026-05-02T14:12:43.75Z</time></trkpt><trkpt lat="41.3559512" lon="14.0018465"><ele>301.8</ele><time>2026-05-02T14:12:44.747Z</time></trkpt><trkpt lat="41.3560567" lon="14.0019002"><ele>302.0</ele><time>2026-05-02T14:12:45.747Z</time></trkpt><trkpt lat="41.3561635" lon="14.00196"><ele>302.0</ele><time>2026-05-02T14:12:46.749Z</time></trkpt><trkpt lat="41.3562697" lon="14.0020278"><ele>302.0</ele><time>2026-05-02T14:12:47.748Z</time></trkpt><trkpt lat="41.3563758" lon="14.0021"><ele>302.0</ele><time>2026-05-02T14:12:48.749Z</time></trkpt><trkpt lat="41.3564772" lon="14.0021818"><ele>302.0</ele><time>2026-05-02T14:12:49.751Z</time></trkpt><trkpt lat="41.3565723" lon="14.00226"><ele>302.0</ele><time>2026-05-02T14:12:50.754Z</time></trkpt><trkpt lat="41.356656" lon="14.0023315"><ele>302.0</ele><time>2026-05-02T14:12:51.751Z</time></trkpt><trkpt lat="41.3567333" lon="14.0024033"><ele>302.0</ele><time>2026-05-02T14:12:52.749Z</time></trkpt><trkpt lat="41.3567998" lon="14.0024687"><ele>302.0</ele><time>2026-05-02T14:12:53.748Z</time></trkpt><trkpt lat="41.3568842" lon="14.0025437"><ele>302.0</ele><time>2026-05-02T14:12:54.748Z</time></trkpt><trkpt lat="41.3569685" lon="14.0026092"><ele>302.0</ele><time>2026-05-02T14:12:55.751Z</time></trkpt><trkpt lat="41.3570548" lon="14.0026773"><ele>302.0</ele><time>2026-05-02T14:12:56.748Z</time></trkpt><trkpt lat="41.3571373" lon="14.0027587"><ele>302.0</ele><time>2026-05-02T14:12:57.748Z</time></trkpt><trkpt lat="41.3572352" lon="14.0028382"><ele>302.0</ele><time>2026-05-02T14:12:58.749Z</time></trkpt><trkpt lat="41.3573278" lon="14.0029118"><ele>302.0</ele><time>2026-05-02T14:12:59.749Z</time></trkpt><trkpt lat="41.3574127" lon="14.0029842"><ele>301.0</ele><time>2026-05-02T14:13:00.75Z</time></trkpt><trkpt lat="41.3574948" lon="14.0030495"><ele>300.0</ele><time>2026-05-02T14:13:01.752Z</time></trkpt><trkpt lat="41.3575835" lon="14.003124"><ele>299.0</ele><time>2026-05-02T14:13:02.75Z</time></trkpt><trkpt lat="41.3576732" lon="14.0032067"><ele>298.0</ele><time>2026-05-02T14:13:03.749Z</time></trkpt><trkpt lat="41.3577562" lon="14.0033007"><ele>297.0</ele><time>2026-05-02T14:13:04.751Z</time></trkpt><trkpt lat="41.3578285" lon="14.0034075"><ele>297.0</ele><time>2026-05-02T14:13:05.75Z</time></trkpt><trkpt lat="41.3579048" lon="14.0035265"><ele>297.0</ele><time>2026-05-02T14:13:06.754Z</time></trkpt><trkpt lat="41.357985" lon="14.0036457"><ele>297.0</ele><time>2026-05-02T14:13:07.753Z</time></trkpt><trkpt lat="41.3580675" lon="14.0037575"><ele>297.0</ele><time>2026-05-02T14:13:08.75Z</time></trkpt><trkpt lat="41.3581523" lon="14.0038588"><ele>295.5</ele><time>2026-05-02T14:13:09.75Z</time></trkpt><trkpt lat="41.3582393" lon="14.0039538"><ele>294.0</ele><time>2026-05-02T14:13:10.751Z</time></trkpt><trkpt lat="41.3583258" lon="14.004049"><ele>292.5</ele><time>2026-05-02T14:13:11.749Z</time></trkpt><trkpt lat="41.3584163" lon="14.0041412"><ele>291.0</ele><time>2026-05-02T14:13:12.752Z</time></trkpt><trkpt lat="41.3585127" lon="14.0042272"><ele>291.0</ele><time>2026-05-02T14:13:13.751Z</time></trkpt><trkpt lat="41.358614" lon="14.0043085"><ele>291.0</ele><time>2026-05-02T14:13:14.751Z</time></trkpt><trkpt lat="41.3587192" lon="14.0043762"><ele>291.0</ele><time>2026-05-02T14:13:15.751Z</time></trkpt><trkpt lat="41.3588257" lon="14.004432"><ele>291.0</ele><time>2026-05-02T14:13:16.752Z</time></trkpt><trkpt lat="41.3589357" lon="14.0044802"><ele>291.0</ele><time>2026-05-02T14:13:17.75Z</time></trkpt><trkpt lat="41.3590385" lon="14.0045355"><ele>291.0</ele><time>2026-05-02T14:13:18.75Z</time></trkpt><trkpt lat="41.359134" lon="14.0046037"><ele>291.0</ele><time>2026-05-02T14:13:19.751Z</time></trkpt><trkpt lat="41.3592217" lon="14.0046945"><ele>291.0</ele><time>2026-05-02T14:13:20.75Z</time></trkpt><trkpt lat="41.3593102" lon="14.0047953"><ele>291.0</ele><time>2026-05-02T14:13:21.751Z</time></trkpt><trkpt lat="41.359396" lon="14.004909"><ele>289.75</ele><time>2026-05-02T14:13:22.75Z</time></trkpt><trkpt lat="41.3594812" lon="14.0050313"><ele>288.5</ele><time>2026-05-02T14:13:23.75Z</time></trkpt><trkpt lat="41.3595625" lon="14.0051515"><ele>287.25</ele><time>2026-05-02T14:13:24.75Z</time></trkpt><trkpt lat="41.359644" lon="14.005271"><ele>286.0</ele><time>2026-05-02T14:13:25.751Z</time></trkpt><trkpt lat="41.3597235" lon="14.0053773"><ele>286.0</ele><time>2026-05-02T14:13:26.749Z</time></trkpt><trkpt lat="41.3598062" lon="14.0054813"><ele>286.0</ele><time>2026-05-02T14:13:27.751Z</time></trkpt><trkpt lat="41.3598988" lon="14.0055745"><ele>286.0</ele><time>2026-05-02T14:13:28.75Z</time></trkpt><trkpt lat="41.360001" lon="14.0056613"><ele>286.0</ele><time>2026-05-02T14:13:29.751Z</time></trkpt><trkpt lat="41.3601098" lon="14.0057473"><ele>283.75</ele><time>2026-05-02T14:13:30.749Z</time></trkpt><trkpt lat="41.3602197" lon="14.0058323"><ele>281.5</ele><time>2026-05-02T14:13:31.751Z</time></trkpt><trkpt lat="41.3603253" lon="14.0059183"><ele>279.25</ele><time>2026-05-02T14:13:32.75Z</time></trkpt><trkpt lat="41.360426" lon="14.0060005"><ele>277.0</ele><time>2026-05-02T14:13:33.748Z</time></trkpt><trkpt lat="41.3605243" lon="14.006081"><ele>277.75</ele><time>2026-05-02T14:13:34.749Z</time></trkpt><trkpt lat="41.3606252" lon="14.0061682"><ele>278.5</ele><time>2026-05-02T14:13:35.748Z</time></trkpt><trkpt lat="41.3607303" lon="14.0062552"><ele>279.25</ele><time>2026-05-02T14:13:36.748Z</time></trkpt><trkpt lat="41.360838" lon="14.0063465"><ele>280.0</ele><time>2026-05-02T14:13:37.75Z</time></trkpt><trkpt lat="41.3609422" lon="14.0064262"><ele>280.0</ele><time>2026-05-02T14:13:38.75Z</time></trkpt><trkpt lat="41.3610395" lon="14.0065062"><ele>280.0</ele><time>2026-05-02T14:13:39.751Z</time></trkpt><trkpt lat="41.3611383" lon="14.006584"><ele>280.0</ele><time>2026-05-02T14:13:40.75Z</time></trkpt><trkpt lat="41.3612382" lon="14.006662"><ele>280.0</ele><time>2026-05-02T14:13:41.751Z</time></trkpt><trkpt lat="41.3613422" lon="14.0067383"><ele>278.25</ele><time>2026-05-02T14:13:42.752Z</time></trkpt><trkpt lat="41.361448" lon="14.0068152"><ele>276.5</ele><time>2026-05-02T14:13:43.751Z</time></trkpt><trkpt lat="41.3615457" lon="14.0069038"><ele>274.75</ele><time>2026-05-02T14:13:44.749Z</time></trkpt><trkpt lat="41.3616368" lon="14.0069938"><ele>273.0</ele><time>2026-05-02T14:13:45.75Z</time></trkpt><trkpt lat="41.3617348" lon="14.007072"><ele>273.0</ele><time>2026-05-02T14:13:46.752Z</time></trkpt><trkpt lat="41.3618328" lon="14.0071443"><ele>273.0</ele><time>2026-05-02T14:13:47.75Z</time></trkpt><trkpt lat="41.3619372" lon="14.0072017"><ele>273.0</ele><time>2026-05-02T14:13:48.751Z</time></trkpt><trkpt lat="41.3620475" lon="14.0072442"><ele>273.0</ele><time>2026-05-02T14:13:49.751Z</time></trkpt><trkpt lat="41.3621668" lon="14.0072698"><ele>272.5</ele><time>2026-05-02T14:13:50.75Z</time></trkpt><trkpt lat="41.3622888" lon="14.0073018"><ele>272.0</ele><time>2026-05-02T14:13:51.751Z</time></trkpt><trkpt lat="41.3624163" lon="14.0073415"><ele>271.5</ele><time>2026-05-02T14:13:52.751Z</time></trkpt><trkpt lat="41.3625433" lon="14.0073825"><ele>271.0</ele><time>2026-05-02T14:13:53.75Z</time></trkpt><trkpt lat="41.362662" lon="14.0074217"><ele>271.0</ele><time>2026-05-02T14:13:54.752Z</time></trkpt><trkpt lat="41.362776" lon="14.0074595"><ele>271.0</ele><time>2026-05-02T14:13:55.75Z</time></trkpt><trkpt lat="41.36289" lon="14.0074952"><ele>271.0</ele><time>2026-05-02T14:13:56.751Z</time></trkpt><trkpt lat="41.3630022" lon="14.0075342"><ele>271.0</ele><time>2026-05-02T14:13:57.75Z</time></trkpt><trkpt lat="41.3631092" lon="14.007582"><ele>269.75</ele><time>2026-05-02T14:13:58.749Z</time></trkpt><trkpt lat="41.363211" lon="14.0076578"><ele>268.5</ele><time>2026-05-02T14:13:59.749Z</time></trkpt><trkpt lat="41.3633073" lon="14.0077485"><ele>267.25</ele><time>2026-05-02T14:14:00.749Z</time></trkpt><trkpt lat="41.363386" lon="14.0078665"><ele>266.0</ele><time>2026-05-02T14:14:01.751Z</time></trkpt><trkpt lat="41.3634497" lon="14.0080035"><ele>266.0</ele><time>2026-05-02T14:14:02.752Z</time></trkpt><trkpt lat="41.3635068" lon="14.008157"><ele>266.0</ele><time>2026-05-02T14:14:03.751Z</time></trkpt><trkpt lat="41.3635693" lon="14.0083073"><ele>266.0</ele><time>2026-05-02T14:14:04.752Z</time></trkpt><trkpt lat="41.3636348" lon="14.0084588"><ele>266.0</ele><time>2026-05-02T14:14:05.752Z</time></trkpt><trkpt lat="41.3637037" lon="14.008612"><ele>264.0</ele><time>2026-05-02T14:14:06.751Z</time></trkpt><trkpt lat="41.3637722" lon="14.0087663"><ele>262.0</ele><time>2026-05-02T14:14:07.752Z</time></trkpt><trkpt lat="41.3638365" lon="14.0089228"><ele>260.0</ele><time>2026-05-02T14:14:08.752Z</time></trkpt><trkpt lat="41.3638898" lon="14.0090868"><ele>258.0</ele><time>2026-05-02T14:14:09.751Z</time></trkpt><trkpt lat="41.363931" lon="14.0092612"><ele>257.25</ele><time>2026-05-02T14:14:10.752Z</time></trkpt><trkpt lat="41.3639598" lon="14.0094418"><ele>256.5</ele><time>2026-05-02T14:14:11.75Z</time></trkpt><trkpt lat="41.3639788" lon="14.0096285"><ele>255.75</ele><time>2026-05-02T14:14:12.75Z</time></trkpt><trkpt lat="41.363996" lon="14.0098145"><ele>255.0</ele><time>2026-05-02T14:14:13.75Z</time></trkpt><trkpt lat="41.3640183" lon="14.0099998"><ele>254.25</ele><time>2026-05-02T14:14:14.749Z</time></trkpt><trkpt lat="41.3640492" lon="14.0101788"><ele>253.5</ele><time>2026-05-02T14:14:15.75Z</time></trkpt><trkpt lat="41.3640878" lon="14.0103457"><ele>252.75</ele><time>2026-05-02T14:14:16.752Z</time></trkpt><trkpt lat="41.3641353" lon="14.010499"><ele>252.0</ele><time>2026-05-02T14:14:17.749Z</time></trkpt><trkpt lat="41.3641913" lon="14.0106328"><ele>252.0</ele><time>2026-05-02T14:14:18.751Z</time></trkpt><trkpt lat="41.3642587" lon="14.0107447"><ele>252.0</ele><time>2026-05-02T14:14:19.75Z</time></trkpt><trkpt lat="41.3643255" lon="14.0108528"><ele>252.0</ele><time>2026-05-02T14:14:20.749Z</time></trkpt><trkpt lat="41.364392" lon="14.010958"><ele>252.0</ele><time>2026-05-02T14:14:21.75Z</time></trkpt><trkpt lat="41.3644615" lon="14.0110647"><ele>252.0</ele><time>2026-05-02T14:14:22.748Z</time></trkpt><trkpt lat="41.3645348" lon="14.0111718"><ele>252.6</ele><time>2026-05-02T14:14:23.75Z</time></trkpt><trkpt lat="41.3646113" lon="14.011282"><ele>253.2</ele><time>2026-05-02T14:14:24.748Z</time></trkpt><trkpt lat="41.3646873" lon="14.0113913"><ele>253.8</ele><time>2026-05-02T14:14:25.748Z</time></trkpt><trkpt lat="41.3647593" lon="14.0115008"><ele>254.4</ele><time>2026-05-02T14:14:26.749Z</time></trkpt><trkpt lat="41.3648308" lon="14.0116132"><ele>255.0</ele><time>2026-05-02T14:14:27.75Z</time></trkpt><trkpt lat="41.3649027" lon="14.0117288"><ele>252.25</ele><time>2026-05-02T14:14:28.75Z</time></trkpt><trkpt lat="41.3649765" lon="14.0118465"><ele>249.5</ele><time>2026-05-02T14:14:29.751Z</time></trkpt><trkpt lat="41.3650443" lon="14.0119723"><ele>246.75</ele><time>2026-05-02T14:14:30.75Z</time></trkpt><trkpt lat="41.3651047" lon="14.0121088"><ele>244.0</ele><time>2026-05-02T14:14:31.751Z</time></trkpt><trkpt lat="41.3651553" lon="14.0122507"><ele>244.0</ele><time>2026-05-02T14:14:32.749Z</time></trkpt><trkpt lat="41.3652022" lon="14.0123877"><ele>243.99999999999997</ele><time>2026-05-02T14:14:33.751Z</time></trkpt><trkpt lat="41.365246" lon="14.0125193"><ele>243.99999999999997</ele><time>2026-05-02T14:14:34.749Z</time></trkpt><trkpt lat="41.3652862" lon="14.0126463"><ele>244.0</ele><time>2026-05-02T14:14:35.75Z</time></trkpt><trkpt lat="41.3653245" lon="14.0127683"><ele>244.0</ele><time>2026-05-02T14:14:36.75Z</time></trkpt><trkpt lat="41.365364" lon="14.0128858"><ele>242.6</ele><time>2026-05-02T14:14:37.751Z</time></trkpt><trkpt lat="41.3654035" lon="14.0129997"><ele>241.2</ele><time>2026-05-02T14:14:38.75Z</time></trkpt><trkpt lat="41.3654532" lon="14.0131103"><ele>239.79999999999998</ele><time>2026-05-02T14:14:39.749Z</time></trkpt><trkpt lat="41.3655213" lon="14.013215"><ele>238.39999999999998</ele><time>2026-05-02T14:14:40.749Z</time></trkpt><trkpt lat="41.3656037" lon="14.013309"><ele>237.0</ele><time>2026-05-02T14:14:41.75Z</time></trkpt><trkpt lat="41.3656957" lon="14.0133825"><ele>237.0</ele><time>2026-05-02T14:14:42.749Z</time></trkpt><trkpt lat="41.3657925" lon="14.0134165"><ele>237.0</ele><time>2026-05-02T14:14:43.75Z</time></trkpt><trkpt lat="41.3658712" lon="14.0134158"><ele>237.0</ele><time>2026-05-02T14:14:44.749Z</time></trkpt><trkpt lat="41.3659355" lon="14.0133518"><ele>237.0</ele><time>2026-05-02T14:14:45.749Z</time></trkpt><trkpt lat="41.3660055" lon="14.0132633"><ele>237.0</ele><time>2026-05-02T14:14:46.751Z</time></trkpt><trkpt lat="41.3660793" lon="14.0131648"><ele>237.0</ele><time>2026-05-02T14:14:47.749Z</time></trkpt><trkpt lat="41.366147" lon="14.013063"><ele>237.0</ele><time>2026-05-02T14:14:48.749Z</time></trkpt><trkpt lat="41.3661925" lon="14.0129492"><ele>237.0</ele><time>2026-05-02T14:14:49.751Z</time></trkpt><trkpt lat="41.3662265" lon="14.0128252"><ele>237.0</ele><time>2026-05-02T14:14:50.754Z</time></trkpt><trkpt lat="41.366254" lon="14.0126953"><ele>237.0</ele><time>2026-05-02T14:14:51.753Z</time></trkpt><trkpt lat="41.3662732" lon="14.0125558"><ele>236.5</ele><time>2026-05-02T14:14:52.754Z</time></trkpt><trkpt lat="41.3662702" lon="14.012402"><ele>236.0</ele><time>2026-05-02T14:14:53.749Z</time></trkpt><trkpt lat="41.3662527" lon="14.01225"><ele>235.5</ele><time>2026-05-02T14:14:54.749Z</time></trkpt><trkpt lat="41.3662222" lon="14.012098"><ele>235.0</ele><time>2026-05-02T14:14:55.752Z</time></trkpt><trkpt lat="41.3661852" lon="14.0119428"><ele>235.0</ele><time>2026-05-02T14:14:56.749Z</time></trkpt><trkpt lat="41.366149" lon="14.0117892"><ele>235.0</ele><time>2026-05-02T14:14:57.751Z</time></trkpt><trkpt lat="41.3661138" lon="14.0116433"><ele>235.0</ele><time>2026-05-02T14:14:58.751Z</time></trkpt><trkpt lat="41.3661023" lon="14.0115065"><ele>235.0</ele><time>2026-05-02T14:14:59.749Z</time></trkpt><trkpt lat="41.3661292" lon="14.0113762"><ele>235.0</ele><time>2026-05-02T14:15:00.748Z</time></trkpt><trkpt lat="41.3661868" lon="14.0112757"><ele>234.6</ele><time>2026-05-02T14:15:01.748Z</time></trkpt><trkpt lat="41.3662678" lon="14.0112082"><ele>234.2</ele><time>2026-05-02T14:15:02.75Z</time></trkpt><trkpt lat="41.366371" lon="14.0111703"><ele>233.8</ele><time>2026-05-02T14:15:03.753Z</time></trkpt><trkpt lat="41.3664902" lon="14.0111537"><ele>233.4</ele><time>2026-05-02T14:15:04.751Z</time></trkpt><trkpt lat="41.366616" lon="14.0111438"><ele>233.0</ele><time>2026-05-02T14:15:05.748Z</time></trkpt><trkpt lat="41.3667402" lon="14.0111355"><ele>232.25</ele><time>2026-05-02T14:15:06.749Z</time></trkpt><trkpt lat="41.3668637" lon="14.011127"><ele>231.5</ele><time>2026-05-02T14:15:07.748Z</time></trkpt><trkpt lat="41.3669838" lon="14.0111177"><ele>230.75</ele><time>2026-05-02T14:15:08.748Z</time></trkpt><trkpt lat="41.3670933" lon="14.0111085"><ele>230.0</ele><time>2026-05-02T14:15:09.751Z</time></trkpt><trkpt lat="41.367196" lon="14.0111038"><ele>230.0</ele><time>2026-05-02T14:15:10.75Z</time></trkpt><trkpt lat="41.3672882" lon="14.0111237"><ele>230.0</ele><time>2026-05-02T14:15:11.748Z</time></trkpt><trkpt lat="41.3673727" lon="14.0111742"><ele>230.0</ele><time>2026-05-02T14:15:12.747Z</time></trkpt><trkpt lat="41.3674463" lon="14.0112432"><ele>230.0</ele><time>2026-05-02T14:15:13.748Z</time></trkpt><trkpt lat="41.3675195" lon="14.0113223"><ele>230.0</ele><time>2026-05-02T14:15:14.747Z</time></trkpt><trkpt lat="41.3675942" lon="14.0114123"><ele>230.0</ele><time>2026-05-02T14:15:15.749Z</time></trkpt><trkpt lat="41.3676727" lon="14.0115045"><ele>230.0</ele><time>2026-05-02T14:15:16.75Z</time></trkpt><trkpt lat="41.3677527" lon="14.0115963"><ele>230.0</ele><time>2026-05-02T14:15:17.748Z</time></trkpt><trkpt lat="41.367833" lon="14.011692"><ele>230.0</ele><time>2026-05-02T14:15:18.747Z</time></trkpt><trkpt lat="41.3679157" lon="14.0117858"><ele>230.0</ele><time>2026-05-02T14:15:19.747Z</time></trkpt><trkpt lat="41.3680027" lon="14.0118763"><ele>233.0</ele><time>2026-05-02T14:15:20.748Z</time></trkpt><trkpt lat="41.368076" lon="14.0119883"><ele>236.0</ele><time>2026-05-02T14:15:21.747Z</time></trkpt><trkpt lat="41.3681343" lon="14.0121147"><ele>239.0</ele><time>2026-05-02T14:15:22.751Z</time></trkpt><trkpt lat="41.3681777" lon="14.012257"><ele>242.0</ele><time>2026-05-02T14:15:23.751Z</time></trkpt><trkpt lat="41.3681957" lon="14.0124122"><ele>240.5</ele><time>2026-05-02T14:15:24.749Z</time></trkpt><trkpt lat="41.3681902" lon="14.0125683"><ele>239.0</ele><time>2026-05-02T14:15:25.749Z</time></trkpt><trkpt lat="41.3681647" lon="14.0127293"><ele>237.5</ele><time>2026-05-02T14:15:26.748Z</time></trkpt><trkpt lat="41.3681263" lon="14.0128908"><ele>236.0</ele><time>2026-05-02T14:15:27.749Z</time></trkpt><trkpt lat="41.368085" lon="14.0130425"><ele>236.0</ele><time>2026-05-02T14:15:28.749Z</time></trkpt><trkpt lat="41.3680425" lon="14.0131822"><ele>236.00000000000003</ele><time>2026-05-02T14:15:29.749Z</time></trkpt><trkpt lat="41.3680192" lon="14.0133198"><ele>236.00000000000003</ele><time>2026-05-02T14:15:30.749Z</time></trkpt><trkpt lat="41.3679985" lon="14.0134495"><ele>236.0</ele><time>2026-05-02T14:15:31.75Z</time></trkpt><trkpt lat="41.367983" lon="14.0135798"><ele>236.0</ele><time>2026-05-02T14:15:32.749Z</time></trkpt><trkpt lat="41.3679795" lon="14.0137167"><ele>236.0</ele><time>2026-05-02T14:15:33.749Z</time></trkpt><trkpt lat="41.3679878" lon="14.0138617"><ele>236.0</ele><time>2026-05-02T14:15:34.75Z</time></trkpt><trkpt lat="41.3680003" lon="14.014014"><ele>236.0</ele><time>2026-05-02T14:15:35.75Z</time></trkpt><trkpt lat="41.368015" lon="14.0141722"><ele>236.0</ele><time>2026-05-02T14:15:36.748Z</time></trkpt><trkpt lat="41.3680303" lon="14.0143362"><ele>236.0</ele><time>2026-05-02T14:15:37.749Z</time></trkpt><trkpt lat="41.368046" lon="14.0145043"><ele>236.0</ele><time>2026-05-02T14:15:38.749Z</time></trkpt><trkpt lat="41.3680605" lon="14.014677"><ele>236.0</ele><time>2026-05-02T14:15:39.749Z</time></trkpt><trkpt lat="41.3680763" lon="14.014853"><ele>236.0</ele><time>2026-05-02T14:15:40.754Z</time></trkpt><trkpt lat="41.3680935" lon="14.0150322"><ele>234.5</ele><time>2026-05-02T14:15:41.751Z</time></trkpt><trkpt lat="41.3681092" lon="14.0152137"><ele>233.0</ele><time>2026-05-02T14:15:42.751Z</time></trkpt><trkpt lat="41.3681247" lon="14.0153965"><ele>231.5</ele><time>2026-05-02T14:15:43.75Z</time></trkpt><trkpt lat="41.3681403" lon="14.015581"><ele>230.0</ele><time>2026-05-02T14:15:44.751Z</time></trkpt><trkpt lat="41.3681558" lon="14.0157668"><ele>229.75</ele><time>2026-05-02T14:15:45.751Z</time></trkpt><trkpt lat="41.3681708" lon="14.0159543"><ele>229.5</ele><time>2026-05-02T14:15:46.751Z</time></trkpt><trkpt lat="41.3681857" lon="14.016142"><ele>229.25</ele><time>2026-05-02T14:15:47.751Z</time></trkpt><trkpt lat="41.3682008" lon="14.016328"><ele>229.0</ele><time>2026-05-02T14:15:48.751Z</time></trkpt><trkpt lat="41.3682185" lon="14.01651"><ele>228.0</ele><time>2026-05-02T14:15:49.751Z</time></trkpt><trkpt lat="41.368239" lon="14.0166887"><ele>227.0</ele><time>2026-05-02T14:15:50.749Z</time></trkpt><trkpt lat="41.3682592" lon="14.0168657"><ele>226.0</ele><time>2026-05-02T14:15:51.749Z</time></trkpt><trkpt lat="41.368277" lon="14.0170405"><ele>225.0</ele><time>2026-05-02T14:15:52.751Z</time></trkpt><trkpt lat="41.3682935" lon="14.0172155"><ele>225.0</ele><time>2026-05-02T14:15:53.751Z</time></trkpt><trkpt lat="41.3683087" lon="14.017393"><ele>225.0</ele><time>2026-05-02T14:15:54.753Z</time></trkpt><trkpt lat="41.3683217" lon="14.0175637"><ele>225.0</ele><time>2026-05-02T14:15:55.751Z</time></trkpt><trkpt lat="41.3683325" lon="14.0177215"><ele>225.0</ele><time>2026-05-02T14:15:56.752Z</time></trkpt><trkpt lat="41.3683415" lon="14.0178625"><ele>224.16666666666666</ele><time>2026-05-02T14:15:57.752Z</time></trkpt><trkpt lat="41.3683487" lon="14.0179868"><ele>223.33333333333331</ele><time>2026-05-02T14:15:58.752Z</time></trkpt><trkpt lat="41.3683585" lon="14.0180883"><ele>222.5</ele><time>2026-05-02T14:15:59.75Z</time></trkpt><trkpt lat="41.3683553" lon="14.0182305"><ele>221.66666666666666</ele><time>2026-05-02T14:16:01.75Z</time></trkpt><trkpt lat="41.36834" lon="14.0183285"><ele>220.83333333333331</ele><time>2026-05-02T14:16:03.751Z</time></trkpt><trkpt lat="41.3684052" lon="14.018328"><ele>220.0</ele><time>2026-05-02T14:16:06.754Z</time></trkpt><trkpt lat="41.3683865" lon="14.0182047"><ele>220.0</ele><time>2026-05-02T14:16:08.753Z</time></trkpt><trkpt lat="41.3683757" lon="14.0180948"><ele>220.0</ele><time>2026-05-02T14:16:09.752Z</time></trkpt><trkpt lat="41.3683658" lon="14.0179448"><ele>220.0</ele><time>2026-05-02T14:16:10.753Z</time></trkpt><trkpt lat="41.3683505" lon="14.0177822"><ele>220.0</ele><time>2026-05-02T14:16:11.753Z</time></trkpt><trkpt lat="41.3683378" lon="14.0176283"><ele>220.0</ele><time>2026-05-02T14:16:12.752Z</time></trkpt><trkpt lat="41.3683238" lon="14.0174688"><ele>221.25</ele><time>2026-05-02T14:16:13.754Z</time></trkpt><trkpt lat="41.3683092" lon="14.0172972"><ele>222.5</ele><time>2026-05-02T14:16:14.752Z</time></trkpt><trkpt lat="41.3682935" lon="14.0171085"><ele>223.75</ele><time>2026-05-02T14:16:15.754Z</time></trkpt><trkpt lat="41.3682785" lon="14.0168888"><ele>225.0</ele><time>2026-05-02T14:16:16.754Z</time></trkpt><trkpt lat="41.3682582" lon="14.0166223"><ele>227.0</ele><time>2026-05-02T14:16:17.752Z</time></trkpt><trkpt lat="41.3682337" lon="14.016314"><ele>229.0</ele><time>2026-05-02T14:16:18.751Z</time></trkpt><trkpt lat="41.3682085" lon="14.0160233"><ele>229.33333333333331</ele><time>2026-05-02T14:16:19.753Z</time></trkpt><trkpt lat="41.3681845" lon="14.015758"><ele>229.66666666666669</ele><time>2026-05-02T14:16:20.75Z</time></trkpt><trkpt lat="41.3681612" lon="14.0155158"><ele>230.0</ele><time>2026-05-02T14:16:21.752Z</time></trkpt><trkpt lat="41.3681365" lon="14.015296"><ele>230.0</ele><time>2026-05-02T14:16:22.751Z</time></trkpt><trkpt lat="41.368115" lon="14.0150958"><ele>230.0</ele><time>2026-05-02T14:16:23.75Z</time></trkpt><trkpt lat="41.3680973" lon="14.0149098"><ele>230.0</ele><time>2026-05-02T14:16:24.749Z</time></trkpt><trkpt lat="41.3680812" lon="14.0147243"><ele>230.0</ele><time>2026-05-02T14:16:25.748Z</time></trkpt><trkpt lat="41.3680642" lon="14.0145373"><ele>231.5</ele><time>2026-05-02T14:16:26.749Z</time></trkpt><trkpt lat="41.3680482" lon="14.014348"><ele>233.0</ele><time>2026-05-02T14:16:27.749Z</time></trkpt><trkpt lat="41.368032" lon="14.0141593"><ele>234.5</ele><time>2026-05-02T14:16:28.751Z</time></trkpt><trkpt lat="41.3680187" lon="14.013985"><ele>236.0</ele><time>2026-05-02T14:16:29.752Z</time></trkpt><trkpt lat="41.3680103" lon="14.0138208"><ele>236.0</ele><time>2026-05-02T14:16:30.749Z</time></trkpt><trkpt lat="41.3680103" lon="14.0136572"><ele>236.0</ele><time>2026-05-02T14:16:31.75Z</time></trkpt><trkpt lat="41.3680228" lon="14.0134943"><ele>236.0</ele><time>2026-05-02T14:16:32.75Z</time></trkpt><trkpt lat="41.3680483" lon="14.0133348"><ele>236.0</ele><time>2026-05-02T14:16:33.75Z</time></trkpt><trkpt lat="41.3680793" lon="14.0131803"><ele>236.0</ele><time>2026-05-02T14:16:34.75Z</time></trkpt><trkpt lat="41.3681087" lon="14.0130505"><ele>236.00000000000003</ele><time>2026-05-02T14:16:35.75Z</time></trkpt><trkpt lat="41.368134" lon="14.012952"><ele>236.00000000000003</ele><time>2026-05-02T14:16:36.749Z</time></trkpt><trkpt lat="41.368155" lon="14.0128727"><ele>236.0</ele><time>2026-05-02T14:16:37.751Z</time></trkpt><trkpt lat="41.3681883" lon="14.0127337"><ele>236.0</ele><time>2026-05-02T14:16:39.749Z</time></trkpt><trkpt lat="41.368207" lon="14.012597"><ele>237.00000000000003</ele><time>2026-05-02T14:16:41.75Z</time></trkpt><trkpt lat="41.3682055" lon="14.012437"><ele>238.0</ele><time>2026-05-02T14:16:43.751Z</time></trkpt><trkpt lat="41.3681965" lon="14.012345"><ele>239.0</ele><time>2026-05-02T14:16:44.75Z</time></trkpt><trkpt lat="41.3681792" lon="14.0122498"><ele>240.0</ele><time>2026-05-02T14:16:45.752Z</time></trkpt><trkpt lat="41.368146" lon="14.0121497"><ele>241.00000000000003</ele><time>2026-05-02T14:16:46.75Z</time></trkpt><trkpt lat="41.3680938" lon="14.0120545"><ele>242.0</ele><time>2026-05-02T14:16:47.75Z</time></trkpt><trkpt lat="41.3680298" lon="14.01196"><ele>240.00000000000003</ele><time>2026-05-02T14:16:48.75Z</time></trkpt><trkpt lat="41.3679593" lon="14.0118682"><ele>238.0</ele><time>2026-05-02T14:16:49.748Z</time></trkpt><trkpt lat="41.3678912" lon="14.0117813"><ele>236.0</ele><time>2026-05-02T14:16:50.748Z</time></trkpt><trkpt lat="41.3678322" lon="14.0116993"><ele>234.0</ele><time>2026-05-02T14:16:51.75Z</time></trkpt><trkpt lat="41.3677788" lon="14.0116185"><ele>232.00000000000003</ele><time>2026-05-02T14:16:52.748Z</time></trkpt><trkpt lat="41.3677232" lon="14.0115493"><ele>230.0</ele><time>2026-05-02T14:16:53.75Z</time></trkpt><trkpt lat="41.3676693" lon="14.0114837"><ele>230.00000000000003</ele><time>2026-05-02T14:16:54.75Z</time></trkpt><trkpt lat="41.3676182" lon="14.0114183"><ele>230.0</ele><time>2026-05-02T14:16:55.751Z</time></trkpt><trkpt lat="41.3675685" lon="14.0113565"><ele>230.0</ele><time>2026-05-02T14:16:56.75Z</time></trkpt><trkpt lat="41.3675225" lon="14.0112917"><ele>230.0</ele><time>2026-05-02T14:16:57.75Z</time></trkpt><trkpt lat="41.3674757" lon="14.011231"><ele>230.00000000000003</ele><time>2026-05-02T14:16:58.751Z</time></trkpt><trkpt lat="41.3673868" lon="14.0111332"><ele>230.0</ele><time>2026-05-02T14:17:00.753Z</time></trkpt><trkpt lat="41.3673022" lon="14.0110978"><ele>230.0</ele><time>2026-05-02T14:17:02.753Z</time></trkpt><trkpt lat="41.3672035" lon="14.0110922"><ele>230.0</ele><time>2026-05-02T14:17:04.752Z</time></trkpt><trkpt lat="41.3670893" lon="14.0110892"><ele>230.0</ele><time>2026-05-02T14:17:06.753Z</time></trkpt><trkpt lat="41.3669118" lon="14.0111033"><ele>230.0</ele><time>2026-05-02T14:17:09.754Z</time></trkpt><trkpt lat="41.3667882" lon="14.0111013"><ele>230.75</ele><time>2026-05-02T14:17:11.754Z</time></trkpt><trkpt lat="41.3666718" lon="14.0110995"><ele>231.5</ele><time>2026-05-02T14:17:13.752Z</time></trkpt><trkpt lat="41.3665642" lon="14.0111112"><ele>232.25</ele><time>2026-05-02T14:17:15.75Z</time></trkpt><trkpt lat="41.3664653" lon="14.0111245"><ele>233.0</ele><time>2026-05-02T14:17:17.752Z</time></trkpt><trkpt lat="41.3661755" lon="14.0112552"><ele>233.0</ele><time>2026-05-02T14:17:24.751Z</time></trkpt><trkpt lat="41.366134" lon="14.0113572"><ele>233.0</ele><time>2026-05-02T14:17:26.755Z</time></trkpt><trkpt lat="41.3661175" lon="14.0114663"><ele>233.0</ele><time>2026-05-02T14:17:28.752Z</time></trkpt><trkpt lat="41.366148" lon="14.0116743"><ele>233.0</ele><time>2026-05-02T14:17:32.756Z</time></trkpt><trkpt lat="41.3662188" lon="14.0118967"><ele>233.5</ele><time>2026-05-02T14:17:36.752Z</time></trkpt><trkpt lat="41.3662633" lon="14.0120727"><ele>234.0</ele><time>2026-05-02T14:17:39.751Z</time></trkpt><trkpt lat="41.3662912" lon="14.0121962"><ele>234.5</ele><time>2026-05-02T14:17:41.748Z</time></trkpt><trkpt lat="41.3663088" lon="14.012363"><ele>235.0</ele><time>2026-05-02T14:17:43.752Z</time></trkpt><trkpt lat="41.3662915" lon="14.0126618"><ele>236.0</ele><time>2026-05-02T14:17:47.751Z</time></trkpt><trkpt lat="41.366161" lon="14.0130258"><ele>237.0</ele><time>2026-05-02T14:17:53.755Z</time></trkpt><trkpt lat="41.3660497" lon="14.0131772"><ele>237.0</ele><time>2026-05-02T14:17:56.754Z</time></trkpt><trkpt lat="41.3659207" lon="14.0133507"><ele>237.0</ele><time>2026-05-02T14:18:00.753Z</time></trkpt><trkpt lat="41.36614" lon="14.0130878"><ele>237.0</ele><time>2026-05-02T14:18:09.753Z</time></trkpt><trkpt lat="41.3662618" lon="14.0128655"><ele>237.0</ele><time>2026-05-02T14:18:13.752Z</time></trkpt><trkpt lat="41.3661588" lon="14.0117582"><ele>236.2</ele><time>2026-05-02T14:18:27.749Z</time></trkpt><trkpt lat="41.3660715" lon="14.011566"><ele>235.39999999999998</ele><time>2026-05-02T14:18:33.752Z</time></trkpt><trkpt lat="41.3660012" lon="14.0114913"><ele>234.60000000000002</ele><time>2026-05-02T14:18:56.751Z</time></trkpt><trkpt lat="41.3659688" lon="14.0113997"><ele>233.8</ele><time>2026-05-02T14:19:00.749Z</time></trkpt><trkpt lat="41.3659658" lon="14.011307"><ele>233.0</ele><time>2026-05-02T14:19:02.749Z</time></trkpt><trkpt lat="41.3659617" lon="14.0112107"><ele>233.00000000000003</ele><time>2026-05-02T14:19:04.75Z</time></trkpt><trkpt lat="41.3659532" lon="14.0111092"><ele>233.0</ele><time>2026-05-02T14:19:06.75Z</time></trkpt><trkpt lat="41.3659352" lon="14.0109705"><ele>233.0</ele><time>2026-05-02T14:19:08.75Z</time></trkpt><trkpt lat="41.3659217" lon="14.0108863"><ele>233.0</ele><time>2026-05-02T14:19:09.75Z</time></trkpt><trkpt lat="41.365907" lon="14.0107992"><ele>233.00000000000003</ele><time>2026-05-02T14:19:10.751Z</time></trkpt><trkpt lat="41.3658892" lon="14.010717"><ele>233.0</ele><time>2026-05-02T14:19:11.752Z</time></trkpt><trkpt lat="41.3658632" lon="14.0105708"><ele>232.00000000000003</ele><time>2026-05-02T14:19:13.75Z</time></trkpt><trkpt lat="41.3658558" lon="14.0104405"><ele>231.0</ele><time>2026-05-02T14:19:15.75Z</time></trkpt><trkpt lat="41.3658517" lon="14.0103423"><ele>230.0</ele><time>2026-05-02T14:19:17.748Z</time></trkpt><trkpt lat="41.3658398" lon="14.010237"><ele>229.0</ele><time>2026-05-02T14:19:20.751Z</time></trkpt><trkpt lat="41.365814" lon="14.0101537"><ele>228.00000000000003</ele><time>2026-05-02T14:19:23.751Z</time></trkpt><trkpt lat="41.365764" lon="14.0100532"><ele>227.0</ele><time>2026-05-02T14:19:30.749Z</time></trkpt><trkpt lat="41.3657097" lon="14.0099743"><ele>225.83333333333334</ele><time>2026-05-02T14:19:32.751Z</time></trkpt><trkpt lat="41.3656518" lon="14.0099033"><ele>224.66666666666669</ele><time>2026-05-02T14:19:34.75Z</time></trkpt><trkpt lat="41.3656085" lon="14.0098333"><ele>223.5</ele><time>2026-05-02T14:19:37.75Z</time></trkpt><trkpt lat="41.3656398" lon="14.0097172"><ele>222.33333333333331</ele><time>2026-05-02T14:19:41.748Z</time></trkpt><trkpt lat="41.3657028" lon="14.0098133"><ele>221.16666666666666</ele><time>2026-05-02T14:19:49.75Z</time></trkpt><trkpt lat="41.3657448" lon="14.0099008"><ele>220.0</ele><time>2026-05-02T14:19:51.749Z</time></trkpt><trkpt lat="41.3657748" lon="14.00999"><ele>221.16666666666666</ele><time>2026-05-02T14:19:53.749Z</time></trkpt><trkpt lat="41.3658127" lon="14.0100892"><ele>222.33333333333331</ele><time>2026-05-02T14:19:56.749Z</time></trkpt><trkpt lat="41.3658282" lon="14.0101918"><ele>223.5</ele><time>2026-05-02T14:19:59.749Z</time></trkpt><trkpt lat="41.3658165" lon="14.0102932"><ele>224.66666666666669</ele><time>2026-05-02T14:20:03.75Z</time></trkpt><trkpt lat="41.3659033" lon="14.010229"><ele>225.83333333333334</ele><time>2026-05-02T14:20:17.75Z</time></trkpt><trkpt lat="41.3659858" lon="14.0101935"><ele>227.0</ele><time>2026-05-02T14:20:19.751Z</time></trkpt><trkpt lat="41.3660763" lon="14.0101608"><ele>227.00000000000003</ele><time>2026-05-02T14:20:21.749Z</time></trkpt><trkpt lat="41.3661752" lon="14.010112"><ele>227.0</ele><time>2026-05-02T14:20:23.75Z</time></trkpt><trkpt lat="41.3662387" lon="14.0100912"><ele>227.0</ele><time>2026-05-02T14:20:25.751Z</time></trkpt><trkpt lat="41.3663123" lon="14.0100958"><ele>227.0</ele><time>2026-05-02T14:20:28.749Z</time></trkpt><trkpt lat="41.3662432" lon="14.0101135"><ele>227.00000000000003</ele><time>2026-05-02T14:20:34.75Z</time></trkpt><trkpt lat="41.3661743" lon="14.0101485"><ele>227.0</ele><time>2026-05-02T14:20:36.749Z</time></trkpt><trkpt lat="41.3660915" lon="14.010169"><ele>227.0</ele><time>2026-05-02T14:20:38.75Z</time></trkpt><trkpt lat="41.3659957" lon="14.0102133"><ele>227.0</ele><time>2026-05-02T14:20:40.749Z</time></trkpt><trkpt lat="41.3659233" lon="14.0102748"><ele>227.0</ele><time>2026-05-02T14:20:42.749Z</time></trkpt><trkpt lat="41.3659013" lon="14.0103767"><ele>227.0</ele><time>2026-05-02T14:20:44.75Z</time></trkpt><trkpt lat="41.3659252" lon="14.0105512"><ele>227.0</ele><time>2026-05-02T14:20:46.752Z</time></trkpt><trkpt lat="41.365941" lon="14.010644"><ele>227.0</ele><time>2026-05-02T14:20:47.75Z</time></trkpt><trkpt lat="41.3659575" lon="14.0107425"><ele>227.00000000000003</ele><time>2026-05-02T14:20:48.749Z</time></trkpt><trkpt lat="41.3659692" lon="14.010834"><ele>227.0</ele><time>2026-05-02T14:20:49.75Z</time></trkpt><trkpt lat="41.3659765" lon="14.0109183"><ele>227.0</ele><time>2026-05-02T14:20:50.751Z</time></trkpt><trkpt lat="41.3659825" lon="14.0110043"><ele>227.00000000000003</ele><time>2026-05-02T14:20:51.751Z</time></trkpt><trkpt lat="41.3659823" lon="14.011091"><ele>227.0</ele><time>2026-05-02T14:20:52.749Z</time></trkpt><trkpt lat="41.3659855" lon="14.0111772"><ele>227.0</ele><time>2026-05-02T14:20:53.75Z</time></trkpt><trkpt lat="41.3660017" lon="14.0113183"><ele>228.2</ele><time>2026-05-02T14:20:55.746Z</time></trkpt><trkpt lat="41.3660657" lon="14.0114042"><ele>229.39999999999998</ele><time>2026-05-02T14:20:58.749Z</time></trkpt><trkpt lat="41.3661347" lon="14.0113693"><ele>230.60000000000002</ele><time>2026-05-02T14:21:01.749Z</time></trkpt><trkpt lat="41.3661905" lon="14.0112127"><ele>231.8</ele><time>2026-05-02T14:21:03.749Z</time></trkpt><trkpt lat="41.366273" lon="14.0111407"><ele>233.0</ele><time>2026-05-02T14:21:04.752Z</time></trkpt><trkpt lat="41.366381" lon="14.0110968"><ele>229.60000000000002</ele><time>2026-05-02T14:21:05.752Z</time></trkpt><trkpt lat="41.3664897" lon="14.0110827"><ele>226.20000000000002</ele><time>2026-05-02T14:21:06.753Z</time></trkpt><trkpt lat="41.366595" lon="14.0110772"><ele>222.8</ele><time>2026-05-02T14:21:07.751Z</time></trkpt><trkpt lat="41.3667072" lon="14.0110677"><ele>219.4</ele><time>2026-05-02T14:21:08.75Z</time></trkpt><trkpt lat="41.3668178" lon="14.011054"><ele>216.0</ele><time>2026-05-02T14:21:09.751Z</time></trkpt><trkpt lat="41.3669237" lon="14.0110415"><ele>216.0</ele><time>2026-05-02T14:21:10.751Z</time></trkpt><trkpt lat="41.3670227" lon="14.011035"><ele>216.00000000000003</ele><time>2026-05-02T14:21:11.748Z</time></trkpt><trkpt lat="41.36711" lon="14.0110385"><ele>216.00000000000003</ele><time>2026-05-02T14:21:12.748Z</time></trkpt><trkpt lat="41.3671775" lon="14.011045"><ele>216.0</ele><time>2026-05-02T14:21:13.75Z</time></trkpt><trkpt lat="41.3672937" lon="14.0110628"><ele>216.0</ele><time>2026-05-02T14:21:15.749Z</time></trkpt><trkpt lat="41.3673978" lon="14.011127"><ele>218.0</ele><time>2026-05-02T14:21:17.748Z</time></trkpt><trkpt lat="41.3674485" lon="14.0111775"><ele>220.0</ele><time>2026-05-02T14:21:18.748Z</time></trkpt><trkpt lat="41.3675" lon="14.0112325"><ele>222.0</ele><time>2026-05-02T14:21:19.748Z</time></trkpt><trkpt lat="41.3675542" lon="14.0112985"><ele>224.0</ele><time>2026-05-02T14:21:20.746Z</time></trkpt><trkpt lat="41.3676107" lon="14.0113655"><ele>226.0</ele><time>2026-05-02T14:21:21.747Z</time></trkpt><trkpt lat="41.3676685" lon="14.0114337"><ele>227.99999999999997</ele><time>2026-05-02T14:21:22.748Z</time></trkpt><trkpt lat="41.3677268" lon="14.0115055"><ele>229.99999999999997</ele><time>2026-05-02T14:21:23.749Z</time></trkpt><trkpt lat="41.3677855" lon="14.011578"><ele>230.0</ele><time>2026-05-02T14:21:24.75Z</time></trkpt><trkpt lat="41.3678427" lon="14.0116493"><ele>230.0</ele><time>2026-05-02T14:21:25.751Z</time></trkpt><trkpt lat="41.3679007" lon="14.0117198"><ele>230.0</ele><time>2026-05-02T14:21:26.75Z</time></trkpt><trkpt lat="41.3680243" lon="14.0118658"><ele>230.0</ele><time>2026-05-02T14:21:28.749Z</time></trkpt><trkpt lat="41.3680793" lon="14.0119532"><ele>230.0</ele><time>2026-05-02T14:21:29.75Z</time></trkpt><trkpt lat="41.3681632" lon="14.0121647"><ele>231.5</ele><time>2026-05-02T14:21:31.75Z</time></trkpt><trkpt lat="41.3681853" lon="14.012278"><ele>233.0</ele><time>2026-05-02T14:21:32.749Z</time></trkpt><trkpt lat="41.3681673" lon="14.0126318"><ele>234.5</ele><time>2026-05-02T14:21:35.752Z</time></trkpt><trkpt lat="41.368146" lon="14.0127542"><ele>236.0</ele><time>2026-05-02T14:21:36.751Z</time></trkpt><trkpt lat="41.3680618" lon="14.0131162"><ele>226.0</ele><time>2026-05-02T14:21:39.749Z</time></trkpt><trkpt lat="41.3679933" lon="14.013504"><ele>216.0</ele><time>2026-05-02T14:21:42.749Z</time></trkpt><trkpt lat="41.3679975" lon="14.0139197"><ele>216.0</ele><time>2026-05-02T14:21:45.751Z</time></trkpt><trkpt lat="41.3680113" lon="14.0140522"><ele>216.0</ele><time>2026-05-02T14:21:46.751Z</time></trkpt><trkpt lat="41.3680485" lon="14.0144933"><ele>216.0</ele><time>2026-05-02T14:21:50.751Z</time></trkpt><trkpt lat="41.3680483" lon="14.014707"><ele>221.0</ele><time>2026-05-02T14:21:53.751Z</time></trkpt><trkpt lat="41.3680787" lon="14.0145795"><ele>226.0</ele><time>2026-05-02T14:22:01.751Z</time></trkpt><trkpt lat="41.3680687" lon="14.0144797"><ele>231.0</ele><time>2026-05-02T14:22:02.75Z</time></trkpt><trkpt lat="41.368049" lon="14.014207"><ele>236.0</ele><time>2026-05-02T14:22:05.752Z</time></trkpt><trkpt lat="41.3680427" lon="14.0141163"><ele>231.0</ele><time>2026-05-02T14:22:06.751Z</time></trkpt><trkpt lat="41.3680262" lon="14.0138805"><ele>226.0</ele><time>2026-05-02T14:22:09.748Z</time></trkpt><trkpt lat="41.3680248" lon="14.0137052"><ele>221.0</ele><time>2026-05-02T14:22:12.749Z</time></trkpt><trkpt lat="41.3680055" lon="14.013537"><ele>216.0</ele><time>2026-05-02T14:22:15.753Z</time></trkpt><trkpt lat="41.3679852" lon="14.013413"><ele>219.33333333333334</ele><time>2026-05-02T14:22:19.75Z</time></trkpt><trkpt lat="41.3680303" lon="14.0133268"><ele>222.66666666666669</ele><time>2026-05-02T14:22:40.752Z</time></trkpt><trkpt lat="41.3680667" lon="14.0132025"><ele>226.0</ele><time>2026-05-02T14:22:42.75Z</time></trkpt><trkpt lat="41.3681132" lon="14.0130727"><ele>229.33333333333334</ele><time>2026-05-02T14:22:44.75Z</time></trkpt><trkpt lat="41.3681512" lon="14.0129927"><ele>232.66666666666669</ele><time>2026-05-02T14:22:45.75Z</time></trkpt><trkpt lat="41.3681833" lon="14.0129022"><ele>236.0</ele><time>2026-05-02T14:22:46.75Z</time></trkpt><trkpt lat="41.3682178" lon="14.0128042"><ele>236.0</ele><time>2026-05-02T14:22:47.749Z</time></trkpt><trkpt lat="41.3682398" lon="14.012693"><ele>236.00000000000003</ele><time>2026-05-02T14:22:48.749Z</time></trkpt><trkpt lat="41.3682527" lon="14.012577"><ele>236.00000000000003</ele><time>2026-05-02T14:22:49.752Z</time></trkpt><trkpt lat="41.3682522" lon="14.0124515"><ele>236.0</ele><time>2026-05-02T14:22:50.75Z</time></trkpt><trkpt lat="41.3682335" lon="14.012324"><ele>236.0</ele><time>2026-05-02T14:22:51.748Z</time></trkpt><trkpt lat="41.3681955" lon="14.012203"><ele>237.20000000000002</ele><time>2026-05-02T14:22:52.749Z</time></trkpt><trkpt lat="41.36814" lon="14.0120897"><ele>238.40000000000003</ele><time>2026-05-02T14:22:53.748Z</time></trkpt><trkpt lat="41.3680688" lon="14.0119865"><ele>239.6</ele><time>2026-05-02T14:22:54.748Z</time></trkpt><trkpt lat="41.367992" lon="14.011886"><ele>240.8</ele><time>2026-05-02T14:22:55.749Z</time></trkpt><trkpt lat="41.3679147" lon="14.0117978"><ele>242.0</ele><time>2026-05-02T14:22:56.747Z</time></trkpt><trkpt lat="41.367849" lon="14.0117128"><ele>240.00000000000003</ele><time>2026-05-02T14:22:57.749Z</time></trkpt><trkpt lat="41.3677907" lon="14.0116352"><ele>238.0</ele><time>2026-05-02T14:22:58.749Z</time></trkpt><trkpt lat="41.3677395" lon="14.0115663"><ele>236.0</ele><time>2026-05-02T14:22:59.748Z</time></trkpt><trkpt lat="41.3676963" lon="14.0115025"><ele>234.0</ele><time>2026-05-02T14:23:00.75Z</time></trkpt><trkpt lat="41.3676113" lon="14.0113878"><ele>232.00000000000003</ele><time>2026-05-02T14:23:02.751Z</time></trkpt><trkpt lat="41.3675643" lon="14.011324"><ele>230.0</ele><time>2026-05-02T14:23:03.752Z</time></trkpt><trkpt lat="41.3675083" lon="14.0112588"><ele>230.0</ele><time>2026-05-02T14:23:04.753Z</time></trkpt><trkpt lat="41.3674412" lon="14.0111933"><ele>230.0</ele><time>2026-05-02T14:23:05.752Z</time></trkpt><trkpt lat="41.3673605" lon="14.0111477"><ele>230.0</ele><time>2026-05-02T14:23:06.751Z</time></trkpt><trkpt lat="41.3672688" lon="14.0111278"><ele>230.0</ele><time>2026-05-02T14:23:07.751Z</time></trkpt><trkpt lat="41.3671673" lon="14.0111313"><ele>230.0</ele><time>2026-05-02T14:23:08.751Z</time></trkpt><trkpt lat="41.3670637" lon="14.0111375"><ele>227.2</ele><time>2026-05-02T14:23:09.751Z</time></trkpt><trkpt lat="41.3669632" lon="14.0111433"><ele>224.4</ele><time>2026-05-02T14:23:10.751Z</time></trkpt><trkpt lat="41.3668665" lon="14.0111457"><ele>221.60000000000002</ele><time>2026-05-02T14:23:11.75Z</time></trkpt><trkpt lat="41.3667723" lon="14.0111468"><ele>218.8</ele><time>2026-05-02T14:23:12.75Z</time></trkpt><trkpt lat="41.3666795" lon="14.0111497"><ele>216.0</ele><time>2026-05-02T14:23:13.75Z</time></trkpt><trkpt lat="41.3665897" lon="14.0111542"><ele>216.0</ele><time>2026-05-02T14:23:14.748Z</time></trkpt><trkpt lat="41.3665005" lon="14.0111583"><ele>216.0</ele><time>2026-05-02T14:23:15.749Z</time></trkpt><trkpt lat="41.3664108" lon="14.0111685"><ele>216.0</ele><time>2026-05-02T14:23:16.748Z</time></trkpt><trkpt lat="41.3663233" lon="14.0111913"><ele>216.0</ele><time>2026-05-02T14:23:17.748Z</time></trkpt><trkpt lat="41.3662433" lon="14.0112443"><ele>216.0</ele><time>2026-05-02T14:23:18.75Z</time></trkpt><trkpt lat="41.3661807" lon="14.0113213"><ele>216.0</ele><time>2026-05-02T14:23:19.749Z</time></trkpt><trkpt lat="41.366147" lon="14.0114062"><ele>219.4</ele><time>2026-05-02T14:23:20.749Z</time></trkpt><trkpt lat="41.366107" lon="14.011516"><ele>222.8</ele><time>2026-05-02T14:23:22.749Z</time></trkpt><trkpt lat="41.3660318" lon="14.0115082"><ele>226.20000000000002</ele><time>2026-05-02T14:23:25.749Z</time></trkpt><trkpt lat="41.3659992" lon="14.0114232"><ele>229.60000000000002</ele><time>2026-05-02T14:23:27.747Z</time></trkpt><trkpt lat="41.3659803" lon="14.011298"><ele>233.0</ele><time>2026-05-02T14:23:29.748Z</time></trkpt><trkpt lat="41.3659675" lon="14.0111223"><ele>233.0</ele><time>2026-05-02T14:23:31.748Z</time></trkpt><trkpt lat="41.3659593" lon="14.0110272"><ele>233.0</ele><time>2026-05-02T14:23:32.748Z</time></trkpt><trkpt lat="41.3659457" lon="14.0109318"><ele>233.0</ele><time>2026-05-02T14:23:33.748Z</time></trkpt><trkpt lat="41.3659308" lon="14.010836"><ele>233.0</ele><time>2026-05-02T14:23:34.75Z</time></trkpt><trkpt lat="41.3659118" lon="14.0107455"><ele>233.0</ele><time>2026-05-02T14:23:35.747Z</time></trkpt><trkpt lat="41.3658947" lon="14.0106632"><ele>233.0</ele><time>2026-05-02T14:23:36.748Z</time></trkpt><trkpt lat="41.3658843" lon="14.0105798"><ele>233.0</ele><time>2026-05-02T14:23:37.751Z</time></trkpt><trkpt lat="41.3658728" lon="14.0104945"><ele>232.00000000000003</ele><time>2026-05-02T14:23:38.748Z</time></trkpt><trkpt lat="41.3658595" lon="14.0103597"><ele>231.0</ele><time>2026-05-02T14:23:40.749Z</time></trkpt><trkpt lat="41.3658563" lon="14.0102742"><ele>230.0</ele><time>2026-05-02T14:23:42.75Z</time></trkpt><trkpt lat="41.3658208" lon="14.0101613"><ele>229.0</ele><time>2026-05-02T14:23:44.748Z</time></trkpt><trkpt lat="41.3657908" lon="14.0100847"><ele>228.00000000000003</ele><time>2026-05-02T14:23:46.747Z</time></trkpt><trkpt lat="41.3657398" lon="14.0099972"><ele>227.0</ele><time>2026-05-02T14:23:48.747Z</time></trkpt><trkpt lat="41.365676" lon="14.0098897"><ele>225.83333333333334</ele><time>2026-05-02T14:23:50.75Z</time></trkpt><trkpt lat="41.3656285" lon="14.0097977"><ele>224.66666666666669</ele><time>2026-05-02T14:23:52.747Z</time></trkpt><trkpt lat="41.365606" lon="14.0096817"><ele>223.5</ele><time>2026-05-02T14:23:55.747Z</time></trkpt><trkpt lat="41.3655757" lon="14.009569"><ele>222.33333333333331</ele><time>2026-05-02T14:23:58.75Z</time></trkpt><trkpt lat="41.3655283" lon="14.0094833"><ele>221.16666666666666</ele><time>2026-05-02T14:24:01.747Z</time></trkpt><trkpt lat="41.365505" lon="14.0093953"><ele>220.0</ele><time>2026-05-02T14:24:04.751Z</time></trkpt><trkpt lat="41.3654878" lon="14.0093097"><ele>219.99999999999997</ele><time>2026-05-02T14:24:07.749Z</time></trkpt><trkpt lat="41.3654602" lon="14.0092342"><ele>220.0</ele><time>2026-05-02T14:24:14.752Z</time></trkpt><trkpt lat="41.3654368" lon="14.0091485"><ele>220.0</ele><time>2026-05-02T14:24:28.749Z</time></trkpt><trkpt lat="41.3655003" lon="14.0091382"><ele>220.0</ele><time>2026-05-02T14:24:34.751Z</time></trkpt><trkpt lat="41.3654962" lon="14.0092433"><ele>220.0</ele><time>2026-05-02T14:24:42.749Z</time></trkpt><trkpt lat="41.3655137" lon="14.0093312"><ele>219.99999999999997</ele><time>2026-05-02T14:24:44.751Z</time></trkpt><trkpt lat="41.3655522" lon="14.0094325"><ele>220.0</ele><time>2026-05-02T14:24:46.752Z</time></trkpt><trkpt lat="41.3655917" lon="14.0095333"><ele>220.0</ele><time>2026-05-02T14:24:48.748Z</time></trkpt><trkpt lat="41.3656457" lon="14.0096378"><ele>220.0</ele><time>2026-05-02T14:24:50.75Z</time></trkpt><trkpt lat="41.3657115" lon="14.0097407"><ele>220.0</ele><time>2026-05-02T14:24:52.75Z</time></trkpt><trkpt lat="41.3657742" lon="14.0098518"><ele>220.0</ele><time>2026-05-02T14:24:54.748Z</time></trkpt><trkpt lat="41.36582" lon="14.0099477"><ele>220.0</ele><time>2026-05-02T14:24:56.75Z</time></trkpt><trkpt lat="41.3658612" lon="14.0100838"><ele>221.75</ele><time>2026-05-02T14:24:59.748Z</time></trkpt><trkpt lat="41.365889" lon="14.010203"><ele>223.5</ele><time>2026-05-02T14:25:02.749Z</time></trkpt><trkpt lat="41.3659183" lon="14.0104262"><ele>225.25</ele><time>2026-05-02T14:25:06.751Z</time></trkpt><trkpt lat="41.3659368" lon="14.0105537"><ele>227.0</ele><time>2026-05-02T14:25:08.75Z</time></trkpt><trkpt lat="41.36596" lon="14.010686"><ele>228.5</ele><time>2026-05-02T14:25:10.749Z</time></trkpt><trkpt lat="41.3659808" lon="14.0108798"><ele>230.0</ele><time>2026-05-02T14:25:13.751Z</time></trkpt><trkpt lat="41.3659832" lon="14.0110745"><ele>231.5</ele><time>2026-05-02T14:25:16.751Z</time></trkpt><trkpt lat="41.3659778" lon="14.011237"><ele>233.0</ele><time>2026-05-02T14:25:19.749Z</time></trkpt><trkpt lat="41.366026" lon="14.0113633"><ele>233.0</ele><time>2026-05-02T14:25:23.748Z</time></trkpt><trkpt lat="41.3661018" lon="14.0113902"><ele>233.0</ele><time>2026-05-02T14:25:26.748Z</time></trkpt><trkpt lat="41.366134" lon="14.011238"><ele>233.0</ele><time>2026-05-02T14:25:30.749Z</time></trkpt><trkpt lat="41.3663123" lon="14.0110963"><ele>233.0</ele><time>2026-05-02T14:25:34.751Z</time></trkpt><trkpt lat="41.3664492" lon="14.011078"><ele>228.75</ele><time>2026-05-02T14:25:37.751Z</time></trkpt><trkpt lat="41.3665842" lon="14.0110772"><ele>224.5</ele><time>2026-05-02T14:25:40.75Z</time></trkpt><trkpt lat="41.36668" lon="14.0110707"><ele>220.25</ele><time>2026-05-02T14:25:42.75Z</time></trkpt><trkpt lat="41.3668057" lon="14.0110648"><ele>216.0</ele><time>2026-05-02T14:25:45.751Z</time></trkpt><trkpt lat="41.3669015" lon="14.0110623"><ele>216.0</ele><time>2026-05-02T14:25:47.751Z</time></trkpt><trkpt lat="41.3669858" lon="14.0110597"><ele>216.0</ele><time>2026-05-02T14:25:49.749Z</time></trkpt><trkpt lat="41.3670607" lon="14.0110605"><ele>216.0</ele><time>2026-05-02T14:25:51.75Z</time></trkpt><trkpt lat="41.3671362" lon="14.0110607"><ele>216.0</ele><time>2026-05-02T14:25:53.751Z</time></trkpt><trkpt lat="41.367217" lon="14.0110545"><ele>216.0</ele><time>2026-05-02T14:25:55.753Z</time></trkpt><trkpt lat="41.367302" lon="14.0110715"><ele>216.0</ele><time>2026-05-02T14:25:57.75Z</time></trkpt><trkpt lat="41.3673798" lon="14.0111377"><ele>219.5</ele><time>2026-05-02T14:25:59.75Z</time></trkpt><trkpt lat="41.3674505" lon="14.011223"><ele>223.0</ele><time>2026-05-02T14:26:01.752Z</time></trkpt><trkpt lat="41.3675563" lon="14.011343"><ele>226.5</ele><time>2026-05-02T14:26:04.75Z</time></trkpt><trkpt lat="41.3676235" lon="14.0114268"><ele>230.0</ele><time>2026-05-02T14:26:06.75Z</time></trkpt><trkpt lat="41.3677377" lon="14.0115587"><ele>234.0</ele><time>2026-05-02T14:26:09.749Z</time></trkpt><trkpt lat="41.3678242" lon="14.011664"><ele>238.0</ele><time>2026-05-02T14:26:11.749Z</time></trkpt><trkpt lat="41.3680113" lon="14.0118895"><ele>242.0</ele><time>2026-05-02T14:26:15.749Z</time></trkpt><trkpt lat="41.3681062" lon="14.0120563"><ele>242.0</ele><time>2026-05-02T14:26:17.753Z</time></trkpt><trkpt lat="41.3681402" lon="14.0121567"><ele>242.0</ele><time>2026-05-02T14:26:18.753Z</time></trkpt><trkpt lat="41.368174" lon="14.0123883"><ele>242.0</ele><time>2026-05-02T14:26:20.75Z</time></trkpt><trkpt lat="41.3681542" lon="14.0126485"><ele>240.5</ele><time>2026-05-02T14:26:22.751Z</time></trkpt><trkpt lat="41.3681282" lon="14.0127792"><ele>239.0</ele><time>2026-05-02T14:26:23.751Z</time></trkpt><trkpt lat="41.3680573" lon="14.0130462"><ele>237.5</ele><time>2026-05-02T14:26:25.75Z</time></trkpt><trkpt lat="41.3680187" lon="14.0131873"><ele>236.0</ele><time>2026-05-02T14:26:26.749Z</time></trkpt><trkpt lat="41.367968" lon="14.0134698"><ele>229.33333333333334</ele><time>2026-05-02T14:26:28.75Z</time></trkpt><trkpt lat="41.3679643" lon="14.0137558"><ele>222.66666666666669</ele><time>2026-05-02T14:26:30.75Z</time></trkpt><trkpt lat="41.3679733" lon="14.0138995"><ele>216.0</ele><time>2026-05-02T14:26:31.751Z</time></trkpt><trkpt lat="41.3679965" lon="14.0141815"><ele>215.66666666666669</ele><time>2026-05-02T14:26:33.753Z</time></trkpt><trkpt lat="41.3680093" lon="14.0143225"><ele>215.33333333333334</ele><time>2026-05-02T14:26:34.75Z</time></trkpt><trkpt lat="41.3680373" lon="14.0146008"><ele>215.0</ele><time>2026-05-02T14:26:36.754Z</time></trkpt><trkpt lat="41.3680785" lon="14.0150337"><ele>220.0</ele><time>2026-05-02T14:26:39.749Z</time></trkpt><trkpt lat="41.3680935" lon="14.0151873"><ele>225.0</ele><time>2026-05-02T14:26:40.749Z</time></trkpt><trkpt lat="41.3681247" lon="14.0155112"><ele>230.0</ele><time>2026-05-02T14:26:42.75Z</time></trkpt><trkpt lat="41.3681395" lon="14.015676"><ele>229.5</ele><time>2026-05-02T14:26:43.752Z</time></trkpt><trkpt lat="41.3681687" lon="14.0160223"><ele>229.0</ele><time>2026-05-02T14:26:45.751Z</time></trkpt><trkpt lat="41.3682218" lon="14.0165732"><ele>227.66666666666666</ele><time>2026-05-02T14:26:48.75Z</time></trkpt><trkpt lat="41.3682408" lon="14.0167633"><ele>226.33333333333331</ele><time>2026-05-02T14:26:49.752Z</time></trkpt><trkpt lat="41.368257" lon="14.0169567"><ele>225.0</ele><time>2026-05-02T14:26:50.752Z</time></trkpt><trkpt lat="41.368285" lon="14.0173282"><ele>223.33333333333331</ele><time>2026-05-02T14:26:52.753Z</time></trkpt><trkpt lat="41.3682992" lon="14.0174958"><ele>221.66666666666666</ele><time>2026-05-02T14:26:53.752Z</time></trkpt><trkpt lat="41.368329" lon="14.017819"><ele>220.0</ele><time>2026-05-02T14:26:55.753Z</time></trkpt><trkpt lat="41.368346" lon="14.0179785"><ele>218.0</ele><time>2026-05-02T14:26:56.752Z</time></trkpt><trkpt lat="41.3684353" lon="14.0184465"><ele>216.0</ele><time>2026-05-02T14:26:59.752Z</time></trkpt><trkpt lat="41.3685" lon="14.0185833"><ele>216.0</ele><time>2026-05-02T14:27:00.752Z</time></trkpt><trkpt lat="41.3688032" lon="14.0188887"><ele>216.0</ele><time>2026-05-02T14:27:03.751Z</time></trkpt><trkpt lat="41.3689047" lon="14.0189658"><ele>216.83333333333334</ele><time>2026-05-02T14:27:04.752Z</time></trkpt><trkpt lat="41.3689877" lon="14.0190302"><ele>217.66666666666669</ele><time>2026-05-02T14:27:05.752Z</time></trkpt><trkpt lat="41.3690473" lon="14.0190713"><ele>218.5</ele><time>2026-05-02T14:27:06.751Z</time></trkpt><trkpt lat="41.3691137" lon="14.0190578"><ele>219.33333333333334</ele><time>2026-05-02T14:27:08.752Z</time></trkpt><trkpt lat="41.3691653" lon="14.0189747"><ele>220.16666666666669</ele><time>2026-05-02T14:27:10.752Z</time></trkpt><trkpt lat="41.3692342" lon="14.0188613"><ele>221.0</ele><time>2026-05-02T14:27:12.751Z</time></trkpt><trkpt lat="41.3693325" lon="14.0187588"><ele>221.0</ele><time>2026-05-02T14:27:14.753Z</time></trkpt><trkpt lat="41.3694212" lon="14.0186562"><ele>221.00000000000003</ele><time>2026-05-02T14:27:16.752Z</time></trkpt><trkpt lat="41.3694738" lon="14.0185895"><ele>221.00000000000003</ele><time>2026-05-02T14:27:17.751Z</time></trkpt><trkpt lat="41.3695258" lon="14.0185198"><ele>221.0</ele><time>2026-05-02T14:27:18.75Z</time></trkpt><trkpt lat="41.3695713" lon="14.0184537"><ele>221.0</ele><time>2026-05-02T14:27:19.752Z</time></trkpt><trkpt lat="41.3696535" lon="14.0183315"><ele>222.33333333333334</ele><time>2026-05-02T14:27:21.751Z</time></trkpt><trkpt lat="41.369714" lon="14.0182415"><ele>223.66666666666669</ele><time>2026-05-02T14:27:23.751Z</time></trkpt><trkpt lat="41.3697388" lon="14.0181507"><ele>225.0</ele><time>2026-05-02T14:27:26.749Z</time></trkpt><trkpt lat="41.3696548" lon="14.0181108"><ele>226.33333333333331</ele><time>2026-05-02T14:27:29.749Z</time></trkpt><trkpt lat="41.369607" lon="14.0180005"><ele>227.66666666666666</ele><time>2026-05-02T14:27:32.751Z</time></trkpt><trkpt lat="41.3695678" lon="14.017894"><ele>229.0</ele><time>2026-05-02T14:27:34.755Z</time></trkpt><trkpt lat="41.369526" lon="14.0177708"><ele>229.0</ele><time>2026-05-02T14:27:36.751Z</time></trkpt><trkpt lat="41.369486" lon="14.017646"><ele>228.99999999999997</ele><time>2026-05-02T14:27:38.75Z</time></trkpt><trkpt lat="41.3694557" lon="14.0175522"><ele>228.99999999999997</ele><time>2026-05-02T14:27:40.75Z</time></trkpt><trkpt lat="41.3694007" lon="14.0174783"><ele>229.0</ele><time>2026-05-02T14:27:42.752Z</time></trkpt><trkpt lat="41.3693615" lon="14.0173615"><ele>229.0</ele><time>2026-05-02T14:27:44.752Z</time></trkpt><trkpt lat="41.3693288" lon="14.0172308"><ele>230.33333333333331</ele><time>2026-05-02T14:27:46.751Z</time></trkpt><trkpt lat="41.3692842" lon="14.0171147"><ele>231.66666666666666</ele><time>2026-05-02T14:27:48.75Z</time></trkpt><trkpt lat="41.3692438" lon="14.017007"><ele>233.0</ele><time>2026-05-02T14:27:50.75Z</time></trkpt><trkpt lat="41.3692257" lon="14.016901"><ele>234.33333333333331</ele><time>2026-05-02T14:27:52.751Z</time></trkpt><trkpt lat="41.3692397" lon="14.0168045"><ele>235.66666666666666</ele><time>2026-05-02T14:27:54.75Z</time></trkpt><trkpt lat="41.369256" lon="14.0167122"><ele>237.0</ele><time>2026-05-02T14:27:56.751Z</time></trkpt><trkpt lat="41.369286" lon="14.0166235"><ele>237.4285714285714</ele><time>2026-05-02T14:27:58.753Z</time></trkpt><trkpt lat="41.3693142" lon="14.0165228"><ele>237.85714285714283</ele><time>2026-05-02T14:28:00.751Z</time></trkpt><trkpt lat="41.3693213" lon="14.0164005"><ele>238.28571428571428</ele><time>2026-05-02T14:28:02.751Z</time></trkpt><trkpt lat="41.3693438" lon="14.016316"><ele>238.7142857142857</ele><time>2026-05-02T14:28:04.751Z</time></trkpt><trkpt lat="41.3693917" lon="14.016249"><ele>239.1428571428571</ele><time>2026-05-02T14:28:06.751Z</time></trkpt><trkpt lat="41.3694372" lon="14.0161887"><ele>239.57142857142858</ele><time>2026-05-02T14:28:08.751Z</time></trkpt><trkpt lat="41.3694885" lon="14.0161327"><ele>240.0</ele><time>2026-05-02T14:28:11.753Z</time></trkpt><trkpt lat="41.369546" lon="14.0161877"><ele>240.0</ele><time>2026-05-02T14:28:15.752Z</time></trkpt><trkpt lat="41.3694732" lon="14.0161762"><ele>240.0</ele><time>2026-05-02T14:28:21.754Z</time></trkpt><trkpt lat="41.3694023" lon="14.0161622"><ele>240.0</ele><time>2026-05-02T14:28:24.752Z</time></trkpt><trkpt lat="41.3693485" lon="14.016223"><ele>240.0</ele><time>2026-05-02T14:28:26.751Z</time></trkpt><trkpt lat="41.3693028" lon="14.016281"><ele>240.0</ele><time>2026-05-02T14:28:28.752Z</time></trkpt><trkpt lat="41.3692865" lon="14.0163887"><ele>240.0</ele><time>2026-05-02T14:28:31.75Z</time></trkpt><trkpt lat="41.369283" lon="14.0164817"><ele>240.0</ele><time>2026-05-02T14:28:33.75Z</time></trkpt><trkpt lat="41.3692528" lon="14.0165802"><ele>239.5</ele><time>2026-05-02T14:28:36.753Z</time></trkpt><trkpt lat="41.3692608" lon="14.016682"><ele>239.0</ele><time>2026-05-02T14:30:31.755Z</time></trkpt><trkpt lat="41.3692365" lon="14.0167785"><ele>238.5</ele><time>2026-05-02T14:30:33.753Z</time></trkpt><trkpt lat="41.3692228" lon="14.0168708"><ele>238.0</ele><time>2026-05-02T14:30:35.756Z</time></trkpt><trkpt lat="41.369258" lon="14.0169648"><ele>237.5</ele><time>2026-05-02T14:30:37.76Z</time></trkpt><trkpt lat="41.369315" lon="14.0170953"><ele>237.0</ele><time>2026-05-02T14:30:39.753Z</time></trkpt><trkpt lat="41.369344" lon="14.0171738"><ele>237.0</ele><time>2026-05-02T14:30:40.753Z</time></trkpt><trkpt lat="41.3693842" lon="14.0173137"><ele>237.0</ele><time>2026-05-02T14:30:42.752Z</time></trkpt><trkpt lat="41.3694265" lon="14.0174167"><ele>237.0</ele><time>2026-05-02T14:30:44.751Z</time></trkpt><trkpt lat="41.3694822" lon="14.0174975"><ele>237.0</ele><time>2026-05-02T14:30:47.752Z</time></trkpt><trkpt lat="41.369516" lon="14.0176093"><ele>237.0</ele><time>2026-05-02T14:30:49.753Z</time></trkpt><trkpt lat="41.369562" lon="14.0177545"><ele>235.83333333333334</ele><time>2026-05-02T14:30:51.752Z</time></trkpt><trkpt lat="41.3695898" lon="14.0178327"><ele>234.66666666666669</ele><time>2026-05-02T14:30:52.757Z</time></trkpt><trkpt lat="41.3696278" lon="14.0179705"><ele>233.5</ele><time>2026-05-02T14:30:54.752Z</time></trkpt><trkpt lat="41.369665" lon="14.0180725"><ele>232.33333333333334</ele><time>2026-05-02T14:30:56.754Z</time></trkpt><trkpt lat="41.369717" lon="14.0181515"><ele>231.16666666666669</ele><time>2026-05-02T14:30:58.753Z</time></trkpt><trkpt lat="41.369713" lon="14.0182385"><ele>230.0</ele><time>2026-05-02T14:31:00.753Z</time></trkpt><trkpt lat="41.3696537" lon="14.018322"><ele>228.50000000000003</ele><time>2026-05-02T14:31:02.753Z</time></trkpt><trkpt lat="41.3695582" lon="14.018405"><ele>227.0</ele><time>2026-05-02T14:31:04.753Z</time></trkpt><trkpt lat="41.3695023" lon="14.0184605"><ele>225.5</ele><time>2026-05-02T14:31:05.753Z</time></trkpt><trkpt lat="41.3694467" lon="14.0185167"><ele>224.0</ele><time>2026-05-02T14:31:06.75Z</time></trkpt><trkpt lat="41.3693902" lon="14.0185785"><ele>222.50000000000003</ele><time>2026-05-02T14:31:07.751Z</time></trkpt><trkpt lat="41.3693337" lon="14.018639"><ele>221.0</ele><time>2026-05-02T14:31:08.754Z</time></trkpt><trkpt lat="41.3692787" lon="14.0187077"><ele>221.00000000000003</ele><time>2026-05-02T14:31:09.754Z</time></trkpt><trkpt lat="41.3692267" lon="14.0187818"><ele>221.0</ele><time>2026-05-02T14:31:10.755Z</time></trkpt><trkpt lat="41.3691858" lon="14.0188567"><ele>221.0</ele><time>2026-05-02T14:31:11.755Z</time></trkpt><trkpt lat="41.3691432" lon="14.0189697"><ele>221.0</ele><time>2026-05-02T14:31:13.753Z</time></trkpt><trkpt lat="41.3691778" lon="14.0190883"><ele>221.00000000000003</ele><time>2026-05-02T14:31:16.752Z</time></trkpt><trkpt lat="41.3692485" lon="14.0191628"><ele>221.0</ele><time>2026-05-02T14:31:18.749Z</time></trkpt><trkpt lat="41.3693295" lon="14.0192527"><ele>219.75</ele><time>2026-05-02T14:31:20.747Z</time></trkpt><trkpt lat="41.3694277" lon="14.0193377"><ele>218.5</ele><time>2026-05-02T14:31:22.748Z</time></trkpt><trkpt lat="41.3695075" lon="14.0194422"><ele>217.25</ele><time>2026-05-02T14:31:23.748Z</time></trkpt><trkpt lat="41.3696002" lon="14.0195168"><ele>216.0</ele><time>2026-05-02T14:31:24.749Z</time></trkpt><trkpt lat="41.3697012" lon="14.0195927"><ele>216.0</ele><time>2026-05-02T14:31:25.751Z</time></trkpt><trkpt lat="41.3698092" lon="14.019667"><ele>216.00000000000003</ele><time>2026-05-02T14:31:26.75Z</time></trkpt><trkpt lat="41.3699083" lon="14.0197368"><ele>216.00000000000003</ele><time>2026-05-02T14:31:27.75Z</time></trkpt><trkpt lat="41.3699988" lon="14.0197922"><ele>216.0</ele><time>2026-05-02T14:31:28.751Z</time></trkpt><trkpt lat="41.3700782" lon="14.019834"><ele>216.0</ele><time>2026-05-02T14:31:29.752Z</time></trkpt><trkpt lat="41.3701405" lon="14.019859"><ele>216.0</ele><time>2026-05-02T14:31:30.752Z</time></trkpt><trkpt lat="41.3702377" lon="14.01988"><ele>216.0</ele><time>2026-05-02T14:31:32.753Z</time></trkpt><trkpt lat="41.370149" lon="14.0198282"><ele>216.0</ele><time>2026-05-02T14:31:37.753Z</time></trkpt><trkpt lat="41.3700705" lon="14.0198057"><ele>216.0</ele><time>2026-05-02T14:31:38.754Z</time></trkpt><trkpt lat="41.3699867" lon="14.0197597"><ele>216.0</ele><time>2026-05-02T14:31:39.756Z</time></trkpt><trkpt lat="41.3699237" lon="14.0197148"><ele>216.0</ele><time>2026-05-02T14:31:40.754Z</time></trkpt><trkpt lat="41.3698247" lon="14.0196507"><ele>216.0</ele><time>2026-05-02T14:31:42.754Z</time></trkpt><trkpt lat="41.3698085" lon="14.0195683"><ele>216.0</ele><time>2026-05-02T14:31:44.755Z</time></trkpt><trkpt lat="41.3698443" lon="14.01943"><ele>216.0</ele><time>2026-05-02T14:31:46.759Z</time></trkpt><trkpt lat="41.369868" lon="14.019349"><ele>216.0</ele><time>2026-05-02T14:31:47.753Z</time></trkpt><trkpt lat="41.3699183" lon="14.0192213"><ele>216.0</ele><time>2026-05-02T14:31:49.752Z</time></trkpt><trkpt lat="41.3699683" lon="14.0191283"><ele>216.0</ele><time>2026-05-02T14:31:51.75Z</time></trkpt><trkpt lat="41.3700092" lon="14.0190603"><ele>216.0</ele><time>2026-05-02T14:31:55.75Z</time></trkpt><trkpt lat="41.3700583" lon="14.0189858"><ele>216.00000000000003</ele><time>2026-05-02T14:32:00.751Z</time></trkpt><trkpt lat="41.3701337" lon="14.0188977"><ele>216.00000000000003</ele><time>2026-05-02T14:32:03.753Z</time></trkpt><trkpt lat="41.3700337" lon="14.0189942"><ele>216.0</ele><time>2026-05-02T14:32:28.752Z</time></trkpt><trkpt lat="41.369962" lon="14.0191292"><ele>216.0</ele><time>2026-05-02T14:32:32.75Z</time></trkpt><trkpt lat="41.3699188" lon="14.019261"><ele>216.0</ele><time>2026-05-02T14:32:34.753Z</time></trkpt><trkpt lat="41.3698363" lon="14.0195508"><ele>216.0</ele><time>2026-05-02T14:32:39.754Z</time></trkpt><trkpt lat="41.3699013" lon="14.019657"><ele>216.0</ele><time>2026-05-02T14:32:43.751Z</time></trkpt><trkpt lat="41.3700747" lon="14.0197878"><ele>216.0</ele><time>2026-05-02T14:32:46.751Z</time></trkpt><trkpt lat="41.3702223" lon="14.0198512"><ele>216.0</ele><time>2026-05-02T14:32:48.751Z</time></trkpt><trkpt lat="41.370842" lon="14.0199343"><ele>215.8</ele><time>2026-05-02T14:32:55.754Z</time></trkpt><trkpt lat="41.37094" lon="14.0199433"><ele>215.60000000000002</ele><time>2026-05-02T14:32:56.755Z</time></trkpt><trkpt lat="41.3710392" lon="14.019951"><ele>215.4</ele><time>2026-05-02T14:32:57.754Z</time></trkpt><trkpt lat="41.3711392" lon="14.0199578"><ele>215.2</ele><time>2026-05-02T14:32:58.752Z</time></trkpt><trkpt lat="41.37124" lon="14.0199627"><ele>215.0</ele><time>2026-05-02T14:32:59.755Z</time></trkpt><trkpt lat="41.3713405" lon="14.0199687"><ele>214.8</ele><time>2026-05-02T14:33:00.752Z</time></trkpt><trkpt lat="41.3714413" lon="14.0199772"><ele>214.6</ele><time>2026-05-02T14:33:01.753Z</time></trkpt><trkpt lat="41.3715405" lon="14.019987"><ele>214.39999999999998</ele><time>2026-05-02T14:33:02.752Z</time></trkpt><trkpt lat="41.3716405" lon="14.0199975"><ele>214.2</ele><time>2026-05-02T14:33:03.755Z</time></trkpt><trkpt lat="41.3717387" lon="14.0200062"><ele>214.0</ele><time>2026-05-02T14:33:04.754Z</time></trkpt><trkpt lat="41.3718357" lon="14.0200137"><ele>213.6</ele><time>2026-05-02T14:33:05.752Z</time></trkpt><trkpt lat="41.3719358" lon="14.0200182"><ele>213.2</ele><time>2026-05-02T14:33:06.752Z</time></trkpt><trkpt lat="41.3720358" lon="14.0200232"><ele>212.79999999999998</ele><time>2026-05-02T14:33:07.752Z</time></trkpt><trkpt lat="41.3721367" lon="14.0200292"><ele>212.39999999999998</ele><time>2026-05-02T14:33:08.751Z</time></trkpt><trkpt lat="41.3722342" lon="14.0200392"><ele>212.0</ele><time>2026-05-02T14:33:09.751Z</time></trkpt><trkpt lat="41.3723242" lon="14.0200485"><ele>211.50000000000003</ele><time>2026-05-02T14:33:10.75Z</time></trkpt><trkpt lat="41.3724035" lon="14.0200527"><ele>211.0</ele><time>2026-05-02T14:33:11.751Z</time></trkpt><trkpt lat="41.3724743" lon="14.0200553"><ele>210.5</ele><time>2026-05-02T14:33:12.75Z</time></trkpt><trkpt lat="41.3725417" lon="14.020063"><ele>210.0</ele><time>2026-05-02T14:33:13.754Z</time></trkpt><trkpt lat="41.3726045" lon="14.0200757"><ele>209.50000000000003</ele><time>2026-05-02T14:33:14.751Z</time></trkpt><trkpt lat="41.3726922" lon="14.0200975"><ele>209.0</ele><time>2026-05-02T14:33:16.751Z</time></trkpt><trkpt lat="41.372601" lon="14.020043"><ele>209.00000000000003</ele><time>2026-05-02T14:33:21.754Z</time></trkpt><trkpt lat="41.3724825" lon="14.0200398"><ele>209.0</ele><time>2026-05-02T14:33:23.753Z</time></trkpt><trkpt lat="41.372419" lon="14.0200423"><ele>209.0</ele><time>2026-05-02T14:33:24.752Z</time></trkpt><trkpt lat="41.3723548" lon="14.0200425"><ele>209.0</ele><time>2026-05-02T14:33:25.753Z</time></trkpt><trkpt lat="41.3722908" lon="14.0200407"><ele>209.00000000000003</ele><time>2026-05-02T14:33:26.752Z</time></trkpt><trkpt lat="41.3721847" lon="14.0200278"><ele>209.0</ele><time>2026-05-02T14:33:28.753Z</time></trkpt><trkpt lat="41.3721068" lon="14.019971"><ele>210.0</ele><time>2026-05-02T14:33:30.751Z</time></trkpt><trkpt lat="41.3720748" lon="14.0198252"><ele>211.0</ele><time>2026-05-02T14:33:32.752Z</time></trkpt><trkpt lat="41.3720667" lon="14.0197205"><ele>211.99999999999997</ele><time>2026-05-02T14:33:33.752Z</time></trkpt><trkpt lat="41.3720522" lon="14.0195965"><ele>213.0</ele><time>2026-05-02T14:33:34.751Z</time></trkpt><trkpt lat="41.3720427" lon="14.0194593"><ele>214.0</ele><time>2026-05-02T14:33:35.75Z</time></trkpt><trkpt lat="41.3720383" lon="14.0193297"><ele>213.99999999999997</ele><time>2026-05-02T14:33:36.75Z</time></trkpt><trkpt lat="41.3720352" lon="14.019213"><ele>214.0</ele><time>2026-05-02T14:33:37.752Z</time></trkpt><trkpt lat="41.3720215" lon="14.0191192"><ele>214.0</ele><time>2026-05-02T14:33:38.756Z</time></trkpt><trkpt lat="41.3719765" lon="14.0190027"><ele>214.0</ele><time>2026-05-02T14:33:40.751Z</time></trkpt><trkpt lat="41.3719405" lon="14.0189147"><ele>213.99999999999997</ele><time>2026-05-02T14:33:43.753Z</time></trkpt><trkpt lat="41.371867" lon="14.018892"><ele>214.0</ele><time>2026-05-02T14:33:59.749Z</time></trkpt><trkpt lat="41.3717817" lon="14.018919"><ele>213.99999999999997</ele><time>2026-05-02T14:34:01.749Z</time></trkpt><trkpt lat="41.371703" lon="14.018956"><ele>214.0</ele><time>2026-05-02T14:34:03.753Z</time></trkpt><trkpt lat="41.371776" lon="14.018946"><ele>214.0</ele><time>2026-05-02T14:34:09.752Z</time></trkpt><trkpt lat="41.3718562" lon="14.018907"><ele>214.0</ele><time>2026-05-02T14:34:11.752Z</time></trkpt><trkpt lat="41.371927" lon="14.0188995"><ele>213.99999999999997</ele><time>2026-05-02T14:34:13.753Z</time></trkpt><trkpt lat="41.3719808" lon="14.0189945"><ele>214.0</ele><time>2026-05-02T14:34:15.75Z</time></trkpt><trkpt lat="41.3720263" lon="14.0191557"><ele>213.99999999999997</ele><time>2026-05-02T14:34:17.752Z</time></trkpt><trkpt lat="41.3720378" lon="14.0192632"><ele>214.0</ele><time>2026-05-02T14:34:18.751Z</time></trkpt><trkpt lat="41.3720437" lon="14.0193933"><ele>214.0</ele><time>2026-05-02T14:34:19.751Z</time></trkpt><trkpt lat="41.3720488" lon="14.0195167"><ele>214.0</ele><time>2026-05-02T14:34:20.755Z</time></trkpt><trkpt lat="41.3720538" lon="14.0196265"><ele>213.99999999999997</ele><time>2026-05-02T14:34:21.75Z</time></trkpt><trkpt lat="41.3720558" lon="14.0197225"><ele>214.0</ele><time>2026-05-02T14:34:22.751Z</time></trkpt><trkpt lat="41.3720585" lon="14.0198705"><ele>213.99999999999997</ele><time>2026-05-02T14:34:24.751Z</time></trkpt><trkpt lat="41.3720827" lon="14.0199625"><ele>214.0</ele><time>2026-05-02T14:34:27.752Z</time></trkpt><trkpt lat="41.3721552" lon="14.0199965"><ele>214.0</ele><time>2026-05-02T14:34:29.754Z</time></trkpt><trkpt lat="41.3722238" lon="14.0200087"><ele>214.0</ele><time>2026-05-02T14:34:30.752Z</time></trkpt><trkpt lat="41.3723108" lon="14.0200137"><ele>213.99999999999997</ele><time>2026-05-02T14:34:31.751Z</time></trkpt><trkpt lat="41.3724123" lon="14.0200228"><ele>214.0</ele><time>2026-05-02T14:34:32.752Z</time></trkpt><trkpt lat="41.3725043" lon="14.0200325"><ele>213.16666666666666</ele><time>2026-05-02T14:34:33.753Z</time></trkpt><trkpt lat="41.3725913" lon="14.0200445"><ele>212.33333333333331</ele><time>2026-05-02T14:34:34.751Z</time></trkpt><trkpt lat="41.3726778" lon="14.0200725"><ele>211.5</ele><time>2026-05-02T14:34:35.75Z</time></trkpt><trkpt lat="41.372761" lon="14.020124"><ele>210.66666666666669</ele><time>2026-05-02T14:34:36.752Z</time></trkpt><trkpt lat="41.3728312" lon="14.0202012"><ele>209.83333333333334</ele><time>2026-05-02T14:34:37.752Z</time></trkpt><trkpt lat="41.3728865" lon="14.020276"><ele>209.0</ele><time>2026-05-02T14:34:38.752Z</time></trkpt><trkpt lat="41.3729405" lon="14.0203328"><ele>209.0</ele><time>2026-05-02T14:34:39.758Z</time></trkpt><trkpt lat="41.373053" lon="14.0203213"><ele>209.0</ele><time>2026-05-02T14:34:41.752Z</time></trkpt><trkpt lat="41.373113" lon="14.0202567"><ele>209.0</ele><time>2026-05-02T14:34:42.754Z</time></trkpt><trkpt lat="41.373192" lon="14.020159"><ele>209.0</ele><time>2026-05-02T14:34:43.752Z</time></trkpt><trkpt lat="41.3732897" lon="14.020044"><ele>209.0</ele><time>2026-05-02T14:34:44.751Z</time></trkpt><trkpt lat="41.3734052" lon="14.0199132"><ele>210.66666666666669</ele><time>2026-05-02T14:34:45.753Z</time></trkpt><trkpt lat="41.373539" lon="14.0197717"><ele>212.33333333333331</ele><time>2026-05-02T14:34:46.752Z</time></trkpt><trkpt lat="41.3736833" lon="14.0196162"><ele>214.0</ele><time>2026-05-02T14:34:47.751Z</time></trkpt><trkpt lat="41.3738352" lon="14.0194628"><ele>214.0</ele><time>2026-05-02T14:34:48.75Z</time></trkpt><trkpt lat="41.3739815" lon="14.0193172"><ele>214.0</ele><time>2026-05-02T14:34:49.751Z</time></trkpt><trkpt lat="41.3741265" lon="14.0191682"><ele>214.0</ele><time>2026-05-02T14:34:50.751Z</time></trkpt><trkpt lat="41.3742735" lon="14.019014"><ele>215.33333333333331</ele><time>2026-05-02T14:34:51.752Z</time></trkpt><trkpt lat="41.3744067" lon="14.018864"><ele>216.66666666666669</ele><time>2026-05-02T14:34:52.752Z</time></trkpt><trkpt lat="41.3745203" lon="14.0187163"><ele>218.0</ele><time>2026-05-02T14:34:53.753Z</time></trkpt><trkpt lat="41.3746087" lon="14.0185655"><ele>218.0</ele><time>2026-05-02T14:34:54.753Z</time></trkpt><trkpt lat="41.3746768" lon="14.0184143"><ele>218.0</ele><time>2026-05-02T14:34:55.753Z</time></trkpt><trkpt lat="41.374736" lon="14.018274"><ele>218.0</ele><time>2026-05-02T14:34:56.754Z</time></trkpt><trkpt lat="41.3747868" lon="14.0181445"><ele>218.0</ele><time>2026-05-02T14:34:57.753Z</time></trkpt><trkpt lat="41.374829" lon="14.0180273"><ele>218.33333333333334</ele><time>2026-05-02T14:34:58.754Z</time></trkpt><trkpt lat="41.3748597" lon="14.017925"><ele>218.66666666666669</ele><time>2026-05-02T14:34:59.753Z</time></trkpt><trkpt lat="41.3748707" lon="14.0178262"><ele>219.0</ele><time>2026-05-02T14:35:00.753Z</time></trkpt><trkpt lat="41.3748573" lon="14.0177312"><ele>219.33333333333331</ele><time>2026-05-02T14:35:01.756Z</time></trkpt><trkpt lat="41.3748207" lon="14.0176388"><ele>219.66666666666666</ele><time>2026-05-02T14:35:02.752Z</time></trkpt><trkpt lat="41.3747608" lon="14.0175348"><ele>220.0</ele><time>2026-05-02T14:35:03.753Z</time></trkpt><trkpt lat="41.3746977" lon="14.0174197"><ele>222.5</ele><time>2026-05-02T14:35:04.751Z</time></trkpt><trkpt lat="41.3746285" lon="14.0172935"><ele>225.0</ele><time>2026-05-02T14:35:05.753Z</time></trkpt><trkpt lat="41.3745535" lon="14.0171645"><ele>227.5</ele><time>2026-05-02T14:35:06.752Z</time></trkpt><trkpt lat="41.3744827" lon="14.0170472"><ele>230.0</ele><time>2026-05-02T14:35:07.751Z</time></trkpt><trkpt lat="41.3744202" lon="14.0169403"><ele>230.00000000000003</ele><time>2026-05-02T14:35:08.756Z</time></trkpt><trkpt lat="41.374367" lon="14.0168435"><ele>230.0</ele><time>2026-05-02T14:35:09.753Z</time></trkpt><trkpt lat="41.3743177" lon="14.0167558"><ele>230.0</ele><time>2026-05-02T14:35:10.751Z</time></trkpt><trkpt lat="41.374269" lon="14.0166743"><ele>230.0</ele><time>2026-05-02T14:35:11.752Z</time></trkpt><trkpt lat="41.3742188" lon="14.016599"><ele>230.00000000000003</ele><time>2026-05-02T14:35:12.748Z</time></trkpt><trkpt lat="41.374175" lon="14.0165193"><ele>230.0</ele><time>2026-05-02T14:35:13.75Z</time></trkpt><trkpt lat="41.3741318" lon="14.016445"><ele>230.50000000000003</ele><time>2026-05-02T14:35:14.749Z</time></trkpt><trkpt lat="41.3740823" lon="14.0163818"><ele>231.0</ele><time>2026-05-02T14:35:15.75Z</time></trkpt><trkpt lat="41.3740243" lon="14.0163215"><ele>231.5</ele><time>2026-05-02T14:35:16.753Z</time></trkpt><trkpt lat="41.3739592" lon="14.0162545"><ele>232.0</ele><time>2026-05-02T14:35:17.751Z</time></trkpt><trkpt lat="41.373878" lon="14.0161818"><ele>232.50000000000003</ele><time>2026-05-02T14:35:18.751Z</time></trkpt><trkpt lat="41.3737858" lon="14.0160903"><ele>233.0</ele><time>2026-05-02T14:35:19.751Z</time></trkpt><trkpt lat="41.3736925" lon="14.0159977"><ele>233.75</ele><time>2026-05-02T14:35:20.751Z</time></trkpt><trkpt lat="41.3736218" lon="14.0158817"><ele>234.5</ele><time>2026-05-02T14:35:21.751Z</time></trkpt><trkpt lat="41.373566" lon="14.0157583"><ele>235.25</ele><time>2026-05-02T14:35:22.752Z</time></trkpt><trkpt lat="41.3735065" lon="14.0156177"><ele>236.0</ele><time>2026-05-02T14:35:23.751Z</time></trkpt><trkpt lat="41.3734505" lon="14.0154652"><ele>236.25</ele><time>2026-05-02T14:35:24.75Z</time></trkpt><trkpt lat="41.3734052" lon="14.0153167"><ele>236.5</ele><time>2026-05-02T14:35:25.751Z</time></trkpt><trkpt lat="41.3733655" lon="14.015173"><ele>236.75</ele><time>2026-05-02T14:35:26.751Z</time></trkpt><trkpt lat="41.3733065" lon="14.0150387"><ele>237.0</ele><time>2026-05-02T14:35:27.75Z</time></trkpt><trkpt lat="41.373226" lon="14.0149117"><ele>237.0</ele><time>2026-05-02T14:35:28.751Z</time></trkpt><trkpt lat="41.3731382" lon="14.0147862"><ele>237.0</ele><time>2026-05-02T14:35:29.752Z</time></trkpt><trkpt lat="41.3730457" lon="14.0146637"><ele>237.0</ele><time>2026-05-02T14:35:30.753Z</time></trkpt><trkpt lat="41.3729472" lon="14.014539"><ele>237.0</ele><time>2026-05-02T14:35:31.753Z</time></trkpt><trkpt lat="41.3728417" lon="14.0144092"><ele>238.66666666666669</ele><time>2026-05-02T14:35:32.752Z</time></trkpt><trkpt lat="41.3727337" lon="14.0142677"><ele>240.33333333333334</ele><time>2026-05-02T14:35:33.752Z</time></trkpt><trkpt lat="41.3726245" lon="14.0141143"><ele>242.0</ele><time>2026-05-02T14:35:34.755Z</time></trkpt><trkpt lat="41.372519" lon="14.0139507"><ele>242.66666666666669</ele><time>2026-05-02T14:35:35.752Z</time></trkpt><trkpt lat="41.3724203" lon="14.0137802"><ele>243.33333333333331</ele><time>2026-05-02T14:35:36.751Z</time></trkpt><trkpt lat="41.3723313" lon="14.0136087"><ele>244.0</ele><time>2026-05-02T14:35:37.75Z</time></trkpt><trkpt lat="41.3722495" lon="14.0134498"><ele>245.0</ele><time>2026-05-02T14:35:38.751Z</time></trkpt><trkpt lat="41.372162" lon="14.0133058"><ele>246.0</ele><time>2026-05-02T14:35:39.752Z</time></trkpt><trkpt lat="41.3720588" lon="14.013177"><ele>247.0</ele><time>2026-05-02T14:35:40.753Z</time></trkpt><trkpt lat="41.371938" lon="14.013071"><ele>248.0</ele><time>2026-05-02T14:35:41.753Z</time></trkpt><trkpt lat="41.3717982" lon="14.012986"><ele>248.0</ele><time>2026-05-02T14:35:42.753Z</time></trkpt><trkpt lat="41.3716487" lon="14.0129203"><ele>248.0</ele><time>2026-05-02T14:35:43.753Z</time></trkpt><trkpt lat="41.3714977" lon="14.0128585"><ele>248.0</ele><time>2026-05-02T14:35:44.753Z</time></trkpt><trkpt lat="41.3713498" lon="14.0127823"><ele>247.33333333333334</ele><time>2026-05-02T14:35:45.753Z</time></trkpt><trkpt lat="41.3712063" lon="14.0126833"><ele>246.66666666666669</ele><time>2026-05-02T14:35:46.752Z</time></trkpt><trkpt lat="41.3710618" lon="14.012559"><ele>246.0</ele><time>2026-05-02T14:35:47.75Z</time></trkpt><trkpt lat="41.3709165" lon="14.0124122"><ele>247.66666666666669</ele><time>2026-05-02T14:35:48.751Z</time></trkpt><trkpt lat="41.3707832" lon="14.0122628"><ele>249.33333333333334</ele><time>2026-05-02T14:35:49.753Z</time></trkpt><trkpt lat="41.3706647" lon="14.0121242"><ele>251.0</ele><time>2026-05-02T14:35:50.752Z</time></trkpt><trkpt lat="41.370562" lon="14.0119992"><ele>251.5</ele><time>2026-05-02T14:35:51.752Z</time></trkpt><trkpt lat="41.3704642" lon="14.0118873"><ele>252.0</ele><time>2026-05-02T14:35:52.751Z</time></trkpt><trkpt lat="41.3703677" lon="14.0117823"><ele>252.5</ele><time>2026-05-02T14:35:53.752Z</time></trkpt><trkpt lat="41.37027" lon="14.0116798"><ele>253.0</ele><time>2026-05-02T14:35:54.752Z</time></trkpt><trkpt lat="41.3701708" lon="14.01157"><ele>253.0</ele><time>2026-05-02T14:35:55.753Z</time></trkpt><trkpt lat="41.3700688" lon="14.0114515"><ele>253.0</ele><time>2026-05-02T14:35:56.752Z</time></trkpt><trkpt lat="41.3699738" lon="14.0113353"><ele>253.0</ele><time>2026-05-02T14:35:57.754Z</time></trkpt><trkpt lat="41.3698885" lon="14.0112278"><ele>253.0</ele><time>2026-05-02T14:35:58.754Z</time></trkpt><trkpt lat="41.3698075" lon="14.0111315"><ele>253.0</ele><time>2026-05-02T14:35:59.755Z</time></trkpt><trkpt lat="41.369737" lon="14.0110355"><ele>253.0</ele><time>2026-05-02T14:36:00.753Z</time></trkpt><trkpt lat="41.3696718" lon="14.0109507"><ele>253.0</ele><time>2026-05-02T14:36:01.751Z</time></trkpt><trkpt lat="41.3696185" lon="14.0108873"><ele>253.0</ele><time>2026-05-02T14:36:02.751Z</time></trkpt><trkpt lat="41.3695405" lon="14.0107825"><ele>253.0</ele><time>2026-05-02T14:36:04.755Z</time></trkpt><trkpt lat="41.3694603" lon="14.0106937"><ele>253.8</ele><time>2026-05-02T14:36:06.755Z</time></trkpt><trkpt lat="41.3693617" lon="14.0106195"><ele>254.60000000000002</ele><time>2026-05-02T14:36:08.754Z</time></trkpt><trkpt lat="41.3692598" lon="14.0105582"><ele>255.39999999999998</ele><time>2026-05-02T14:36:10.753Z</time></trkpt><trkpt lat="41.3691702" lon="14.0105135"><ele>256.2</ele><time>2026-05-02T14:36:12.756Z</time></trkpt><trkpt lat="41.369078" lon="14.0104647"><ele>257.0</ele><time>2026-05-02T14:36:14.753Z</time></trkpt><trkpt lat="41.3689673" lon="14.0104085"><ele>257.0</ele><time>2026-05-02T14:36:16.752Z</time></trkpt><trkpt lat="41.3689023" lon="14.0103807"><ele>257.0</ele><time>2026-05-02T14:36:17.753Z</time></trkpt><trkpt lat="41.3688382" lon="14.0103493"><ele>257.0</ele><time>2026-05-02T14:36:18.753Z</time></trkpt><trkpt lat="41.3687752" lon="14.0103112"><ele>257.0</ele><time>2026-05-02T14:36:19.753Z</time></trkpt><trkpt lat="41.3687078" lon="14.0102698"><ele>257.0</ele><time>2026-05-02T14:36:20.754Z</time></trkpt><trkpt lat="41.3686358" lon="14.010222"><ele>257.0</ele><time>2026-05-02T14:36:21.752Z</time></trkpt><trkpt lat="41.3685653" lon="14.0101652"><ele>257.0</ele><time>2026-05-02T14:36:22.753Z</time></trkpt><trkpt lat="41.3684943" lon="14.0101022"><ele>256.8</ele><time>2026-05-02T14:36:23.753Z</time></trkpt><trkpt lat="41.3684193" lon="14.0100322"><ele>256.6</ele><time>2026-05-02T14:36:24.752Z</time></trkpt><trkpt lat="41.3683572" lon="14.009959"><ele>256.40000000000003</ele><time>2026-05-02T14:36:25.751Z</time></trkpt><trkpt lat="41.368299" lon="14.009873"><ele>256.2</ele><time>2026-05-02T14:36:26.749Z</time></trkpt><trkpt lat="41.3682395" lon="14.0097742"><ele>256.0</ele><time>2026-05-02T14:36:27.752Z</time></trkpt><trkpt lat="41.3681808" lon="14.0096673"><ele>256.16666666666663</ele><time>2026-05-02T14:36:28.75Z</time></trkpt><trkpt lat="41.3681185" lon="14.0095562"><ele>256.3333333333333</ele><time>2026-05-02T14:36:29.751Z</time></trkpt><trkpt lat="41.3680578" lon="14.0094307"><ele>256.5</ele><time>2026-05-02T14:36:30.752Z</time></trkpt><trkpt lat="41.3680113" lon="14.0093278"><ele>256.6666666666667</ele><time>2026-05-02T14:36:31.751Z</time></trkpt><trkpt lat="41.3679858" lon="14.0092473"><ele>256.83333333333337</ele><time>2026-05-02T14:36:32.752Z</time></trkpt><trkpt lat="41.3679638" lon="14.0091583"><ele>257.0</ele><time>2026-05-02T14:36:34.752Z</time></trkpt><trkpt lat="41.3679182" lon="14.009088"><ele>258.1666666666667</ele><time>2026-05-02T14:36:37.756Z</time></trkpt><trkpt lat="41.3678943" lon="14.0089772"><ele>259.33333333333337</ele><time>2026-05-02T14:36:39.756Z</time></trkpt><trkpt lat="41.3678775" lon="14.008882"><ele>260.5</ele><time>2026-05-02T14:36:40.753Z</time></trkpt><trkpt lat="41.3678613" lon="14.0087703"><ele>261.6666666666667</ele><time>2026-05-02T14:36:41.752Z</time></trkpt><trkpt lat="41.3678447" lon="14.0086478"><ele>262.8333333333333</ele><time>2026-05-02T14:36:42.752Z</time></trkpt><trkpt lat="41.3678238" lon="14.0085103"><ele>264.0</ele><time>2026-05-02T14:36:43.753Z</time></trkpt><trkpt lat="41.3677933" lon="14.0083685"><ele>264.75</ele><time>2026-05-02T14:36:44.752Z</time></trkpt><trkpt lat="41.3677507" lon="14.0082197"><ele>265.5</ele><time>2026-05-02T14:36:45.753Z</time></trkpt><trkpt lat="41.3676938" lon="14.0080667"><ele>266.25</ele><time>2026-05-02T14:36:46.753Z</time></trkpt><trkpt lat="41.3676262" lon="14.007913"><ele>267.0</ele><time>2026-05-02T14:36:47.751Z</time></trkpt><trkpt lat="41.367552" lon="14.0077602"><ele>267.0</ele><time>2026-05-02T14:36:48.751Z</time></trkpt><trkpt lat="41.3674825" lon="14.0075958"><ele>267.0</ele><time>2026-05-02T14:36:49.75Z</time></trkpt><trkpt lat="41.3674127" lon="14.0074292"><ele>267.0</ele><time>2026-05-02T14:36:50.75Z</time></trkpt><trkpt lat="41.3673447" lon="14.0072628"><ele>267.0</ele><time>2026-05-02T14:36:51.75Z</time></trkpt><trkpt lat="41.3672813" lon="14.007107"><ele>267.4</ele><time>2026-05-02T14:36:52.749Z</time></trkpt><trkpt lat="41.3672258" lon="14.0069658"><ele>267.79999999999995</ele><time>2026-05-02T14:36:53.749Z</time></trkpt><trkpt lat="41.3671738" lon="14.0068448"><ele>268.2</ele><time>2026-05-02T14:36:54.751Z</time></trkpt><trkpt lat="41.3671233" lon="14.0067323"><ele>268.59999999999997</ele><time>2026-05-02T14:36:55.754Z</time></trkpt><trkpt lat="41.3670722" lon="14.0066183"><ele>269.0</ele><time>2026-05-02T14:36:56.753Z</time></trkpt><trkpt lat="41.367022" lon="14.0064937"><ele>269.75</ele><time>2026-05-02T14:36:57.754Z</time></trkpt><trkpt lat="41.3669705" lon="14.0063587"><ele>270.5</ele><time>2026-05-02T14:36:58.753Z</time></trkpt><trkpt lat="41.3669147" lon="14.0062112"><ele>271.25</ele><time>2026-05-02T14:36:59.753Z</time></trkpt><trkpt lat="41.3668547" lon="14.0060552"><ele>272.0</ele><time>2026-05-02T14:37:00.751Z</time></trkpt><trkpt lat="41.3667932" lon="14.0058928"><ele>271.5</ele><time>2026-05-02T14:37:01.751Z</time></trkpt><trkpt lat="41.3667288" lon="14.0057215"><ele>271.0</ele><time>2026-05-02T14:37:02.751Z</time></trkpt><trkpt lat="41.3666642" lon="14.0055473"><ele>270.5</ele><time>2026-05-02T14:37:03.752Z</time></trkpt><trkpt lat="41.3666053" lon="14.0053858"><ele>270.0</ele><time>2026-05-02T14:37:04.753Z</time></trkpt><trkpt lat="41.3665512" lon="14.005236"><ele>270.0</ele><time>2026-05-02T14:37:05.752Z</time></trkpt><trkpt lat="41.3664975" lon="14.0050963"><ele>270.0</ele><time>2026-05-02T14:37:06.753Z</time></trkpt><trkpt lat="41.3664377" lon="14.0049617"><ele>270.0</ele><time>2026-05-02T14:37:07.752Z</time></trkpt><trkpt lat="41.366365" lon="14.0048267"><ele>270.0</ele><time>2026-05-02T14:37:08.753Z</time></trkpt><trkpt lat="41.3662827" lon="14.0046928"><ele>269.75</ele><time>2026-05-02T14:37:09.753Z</time></trkpt><trkpt lat="41.3661968" lon="14.0045613"><ele>269.5</ele><time>2026-05-02T14:37:10.755Z</time></trkpt><trkpt lat="41.3661092" lon="14.0044152"><ele>269.25</ele><time>2026-05-02T14:37:11.753Z</time></trkpt><trkpt lat="41.3660228" lon="14.0042667"><ele>269.0</ele><time>2026-05-02T14:37:12.752Z</time></trkpt><trkpt lat="41.3659427" lon="14.0041198"><ele>269.0</ele><time>2026-05-02T14:37:13.751Z</time></trkpt><trkpt lat="41.3658757" lon="14.0039702"><ele>269.0</ele><time>2026-05-02T14:37:14.749Z</time></trkpt><trkpt lat="41.3658087" lon="14.0038373"><ele>269.0</ele><time>2026-05-02T14:37:15.751Z</time></trkpt><trkpt lat="41.3657555" lon="14.0036975"><ele>269.0</ele><time>2026-05-02T14:37:16.751Z</time></trkpt><trkpt lat="41.3657165" lon="14.0035518"><ele>269.0</ele><time>2026-05-02T14:37:17.751Z</time></trkpt><trkpt lat="41.365697" lon="14.003395"><ele>269.0</ele><time>2026-05-02T14:37:18.751Z</time></trkpt><trkpt lat="41.3656863" lon="14.0032268"><ele>269.0</ele><time>2026-05-02T14:37:19.753Z</time></trkpt><trkpt lat="41.3656745" lon="14.0030468"><ele>269.0</ele><time>2026-05-02T14:37:20.752Z</time></trkpt><trkpt lat="41.3656617" lon="14.0028567"><ele>270.0</ele><time>2026-05-02T14:37:21.752Z</time></trkpt><trkpt lat="41.3656515" lon="14.0026602"><ele>271.0</ele><time>2026-05-02T14:37:22.753Z</time></trkpt><trkpt lat="41.365643" lon="14.002458"><ele>272.0</ele><time>2026-05-02T14:37:23.751Z</time></trkpt><trkpt lat="41.3656343" lon="14.0022547"><ele>272.75</ele><time>2026-05-02T14:37:24.753Z</time></trkpt><trkpt lat="41.365624" lon="14.0020597"><ele>273.5</ele><time>2026-05-02T14:37:25.753Z</time></trkpt><trkpt lat="41.3656107" lon="14.0018657"><ele>274.25</ele><time>2026-05-02T14:37:26.751Z</time></trkpt><trkpt lat="41.3655955" lon="14.0016698"><ele>275.0</ele><time>2026-05-02T14:37:27.752Z</time></trkpt><trkpt lat="41.3655822" lon="14.0014733"><ele>275.75</ele><time>2026-05-02T14:37:28.753Z</time></trkpt><trkpt lat="41.3655735" lon="14.0012782"><ele>276.5</ele><time>2026-05-02T14:37:29.752Z</time></trkpt><trkpt lat="41.365564" lon="14.0010895"><ele>277.25</ele><time>2026-05-02T14:37:30.752Z</time></trkpt><trkpt lat="41.3655435" lon="14.0008932"><ele>278.0</ele><time>2026-05-02T14:37:31.752Z</time></trkpt><trkpt lat="41.365517" lon="14.0006962"><ele>279.33333333333337</ele><time>2026-05-02T14:37:32.753Z</time></trkpt><trkpt lat="41.3654825" lon="14.0004978"><ele>280.6666666666667</ele><time>2026-05-02T14:37:33.752Z</time></trkpt><trkpt lat="41.3654347" lon="14.0002962"><ele>282.0</ele><time>2026-05-02T14:37:34.751Z</time></trkpt><trkpt lat="41.3653747" lon="14.000105"><ele>282.0</ele><time>2026-05-02T14:37:35.752Z</time></trkpt><trkpt lat="41.3653143" lon="13.9999307"><ele>282.0</ele><time>2026-05-02T14:37:36.75Z</time></trkpt><trkpt lat="41.3652628" lon="13.9997645"><ele>282.0</ele><time>2026-05-02T14:37:37.751Z</time></trkpt><trkpt lat="41.36522" lon="13.999593"><ele>282.0</ele><time>2026-05-02T14:37:38.75Z</time></trkpt><trkpt lat="41.3651925" lon="13.9994135"><ele>282.0</ele><time>2026-05-02T14:37:39.751Z</time></trkpt><trkpt lat="41.3651692" lon="13.9992475"><ele>282.0</ele><time>2026-05-02T14:37:40.75Z</time></trkpt><trkpt lat="41.365152" lon="13.9990975"><ele>282.0</ele><time>2026-05-02T14:37:41.752Z</time></trkpt><trkpt lat="41.365143" lon="13.9989472"><ele>282.0</ele><time>2026-05-02T14:37:42.753Z</time></trkpt><trkpt lat="41.3651358" lon="13.9987882"><ele>282.0</ele><time>2026-05-02T14:37:43.752Z</time></trkpt><trkpt lat="41.3651292" lon="13.9986197"><ele>282.0</ele><time>2026-05-02T14:37:44.753Z</time></trkpt><trkpt lat="41.3651202" lon="13.9984378"><ele>282.0</ele><time>2026-05-02T14:37:45.753Z</time></trkpt><trkpt lat="41.3651093" lon="13.9982457"><ele>282.0</ele><time>2026-05-02T14:37:46.753Z</time></trkpt><trkpt lat="41.3651087" lon="13.9980545"><ele>282.0</ele><time>2026-05-02T14:37:47.754Z</time></trkpt><trkpt lat="41.3651257" lon="13.9978615"><ele>282.0</ele><time>2026-05-02T14:37:48.752Z</time></trkpt><trkpt lat="41.3651523" lon="13.9976603"><ele>282.0</ele><time>2026-05-02T14:37:49.752Z</time></trkpt><trkpt lat="41.3651815" lon="13.9974515"><ele>282.0</ele><time>2026-05-02T14:37:50.753Z</time></trkpt><trkpt lat="41.3652058" lon="13.9972355"><ele>282.0</ele><time>2026-05-02T14:37:51.753Z</time></trkpt><trkpt lat="41.3652302" lon="13.9970152"><ele>282.0</ele><time>2026-05-02T14:37:52.752Z</time></trkpt><trkpt lat="41.3652508" lon="13.9967917"><ele>283.6666666666667</ele><time>2026-05-02T14:37:53.752Z</time></trkpt><trkpt lat="41.365269" lon="13.996566"><ele>285.33333333333337</ele><time>2026-05-02T14:37:54.751Z</time></trkpt><trkpt lat="41.3652925" lon="13.9963407"><ele>287.0</ele><time>2026-05-02T14:37:55.754Z</time></trkpt><trkpt lat="41.3653157" lon="13.9961153"><ele>287.0</ele><time>2026-05-02T14:37:56.755Z</time></trkpt><trkpt lat="41.3653388" lon="13.9958908"><ele>287.0</ele><time>2026-05-02T14:37:57.755Z</time></trkpt><trkpt lat="41.3653622" lon="13.9956682"><ele>287.0</ele><time>2026-05-02T14:37:58.755Z</time></trkpt><trkpt lat="41.3653848" lon="13.9954513"><ele>288.5</ele><time>2026-05-02T14:37:59.754Z</time></trkpt><trkpt lat="41.3654082" lon="13.9952542"><ele>290.0</ele><time>2026-05-02T14:38:00.751Z</time></trkpt><trkpt lat="41.3654285" lon="13.9950805"><ele>291.5</ele><time>2026-05-02T14:38:01.751Z</time></trkpt><trkpt lat="41.3654453" lon="13.9949258"><ele>293.0</ele><time>2026-05-02T14:38:02.751Z</time></trkpt><trkpt lat="41.3654483" lon="13.9947913"><ele>294.2</ele><time>2026-05-02T14:38:03.749Z</time></trkpt><trkpt lat="41.3654425" lon="13.9946745"><ele>295.4</ele><time>2026-05-02T14:38:04.749Z</time></trkpt><trkpt lat="41.3654203" lon="13.9945505"><ele>296.59999999999997</ele><time>2026-05-02T14:38:05.754Z</time></trkpt><trkpt lat="41.3653848" lon="13.9944072"><ele>297.8</ele><time>2026-05-02T14:38:06.751Z</time></trkpt><trkpt lat="41.365355" lon="13.9942585"><ele>299.0</ele><time>2026-05-02T14:38:07.754Z</time></trkpt><trkpt lat="41.365315" lon="13.9940983"><ele>299.5</ele><time>2026-05-02T14:38:08.752Z</time></trkpt><trkpt lat="41.3652633" lon="13.9939353"><ele>300.0</ele><time>2026-05-02T14:38:09.754Z</time></trkpt><trkpt lat="41.3652278" lon="13.993782"><ele>300.5</ele><time>2026-05-02T14:38:10.755Z</time></trkpt><trkpt lat="41.3652103" lon="13.9936407"><ele>301.0</ele><time>2026-05-02T14:38:11.754Z</time></trkpt><trkpt lat="41.365207" lon="13.993502"><ele>301.0</ele><time>2026-05-02T14:38:12.755Z</time></trkpt><trkpt lat="41.3652237" lon="13.9933617"><ele>301.0</ele><time>2026-05-02T14:38:13.753Z</time></trkpt><trkpt lat="41.3652505" lon="13.9932228"><ele>301.0</ele><time>2026-05-02T14:38:14.751Z</time></trkpt><trkpt lat="41.3652818" lon="13.9930997"><ele>301.0</ele><time>2026-05-02T14:38:15.752Z</time></trkpt><trkpt lat="41.3653028" lon="13.9929888"><ele>301.0</ele><time>2026-05-02T14:38:16.753Z</time></trkpt><trkpt lat="41.3653185" lon="13.9928708"><ele>301.5</ele><time>2026-05-02T14:38:17.752Z</time></trkpt><trkpt lat="41.3653468" lon="13.9927348"><ele>302.0</ele><time>2026-05-02T14:38:18.753Z</time></trkpt><trkpt lat="41.3653937" lon="13.9925833"><ele>302.5</ele><time>2026-05-02T14:38:19.751Z</time></trkpt><trkpt lat="41.365455" lon="13.9924188"><ele>303.0</ele><time>2026-05-02T14:38:20.752Z</time></trkpt><trkpt lat="41.3655287" lon="13.9922535"><ele>301.0</ele><time>2026-05-02T14:38:21.75Z</time></trkpt><trkpt lat="41.3656218" lon="13.9921028"><ele>299.0</ele><time>2026-05-02T14:38:22.754Z</time></trkpt><trkpt lat="41.3657317" lon="13.9919682"><ele>297.0</ele><time>2026-05-02T14:38:23.753Z</time></trkpt><trkpt lat="41.3658685" lon="13.9918552"><ele>297.0</ele><time>2026-05-02T14:38:24.753Z</time></trkpt><trkpt lat="41.3660258" lon="13.991754"><ele>297.0</ele><time>2026-05-02T14:38:25.752Z</time></trkpt><trkpt lat="41.3661952" lon="13.9916518"><ele>297.0</ele><time>2026-05-02T14:38:26.751Z</time></trkpt><trkpt lat="41.3663688" lon="13.9915493"><ele>294.6666666666667</ele><time>2026-05-02T14:38:27.75Z</time></trkpt><trkpt lat="41.3665502" lon="13.9914467"><ele>292.33333333333337</ele><time>2026-05-02T14:38:28.75Z</time></trkpt><trkpt lat="41.3667313" lon="13.9913457"><ele>290.0</ele><time>2026-05-02T14:38:29.75Z</time></trkpt><trkpt lat="41.3669057" lon="13.991249"><ele>290.0</ele><time>2026-05-02T14:38:30.749Z</time></trkpt><trkpt lat="41.3670718" lon="13.9911532"><ele>290.0</ele><time>2026-05-02T14:38:31.752Z</time></trkpt><trkpt lat="41.36723" lon="13.9910465"><ele>290.0</ele><time>2026-05-02T14:38:32.751Z</time></trkpt><trkpt lat="41.3673702" lon="13.9909168"><ele>289.33333333333337</ele><time>2026-05-02T14:38:33.752Z</time></trkpt><trkpt lat="41.3674898" lon="13.9907555"><ele>288.6666666666667</ele><time>2026-05-02T14:38:34.753Z</time></trkpt><trkpt lat="41.3675938" lon="13.9905648"><ele>288.0</ele><time>2026-05-02T14:38:35.752Z</time></trkpt><trkpt lat="41.3676905" lon="13.990355"><ele>288.0</ele><time>2026-05-02T14:38:36.751Z</time></trkpt><trkpt lat="41.3677822" lon="13.9901315"><ele>288.0</ele><time>2026-05-02T14:38:37.75Z</time></trkpt><trkpt lat="41.3678742" lon="13.9899027"><ele>288.0</ele><time>2026-05-02T14:38:38.751Z</time></trkpt><trkpt lat="41.36797" lon="13.9896677"><ele>286.3333333333333</ele><time>2026-05-02T14:38:39.751Z</time></trkpt><trkpt lat="41.368064" lon="13.9894275"><ele>284.66666666666663</ele><time>2026-05-02T14:38:40.753Z</time></trkpt><trkpt lat="41.3681642" lon="13.9891792"><ele>283.0</ele><time>2026-05-02T14:38:41.753Z</time></trkpt><trkpt lat="41.3682662" lon="13.988927"><ele>283.0</ele><time>2026-05-02T14:38:42.753Z</time></trkpt><trkpt lat="41.368365" lon="13.988685"><ele>283.0</ele><time>2026-05-02T14:38:43.752Z</time></trkpt><trkpt lat="41.3684597" lon="13.9884555"><ele>283.0</ele><time>2026-05-02T14:38:44.751Z</time></trkpt><trkpt lat="41.3685445" lon="13.9882442"><ele>282.25</ele><time>2026-05-02T14:38:45.751Z</time></trkpt><trkpt lat="41.3686205" lon="13.98806"><ele>281.5</ele><time>2026-05-02T14:38:46.751Z</time></trkpt><trkpt lat="41.3686938" lon="13.9879107"><ele>280.75</ele><time>2026-05-02T14:38:47.75Z</time></trkpt><trkpt lat="41.368776" lon="13.98779"><ele>280.0</ele><time>2026-05-02T14:38:48.751Z</time></trkpt><trkpt lat="41.3688783" lon="13.9877018"><ele>277.3333333333333</ele><time>2026-05-02T14:38:49.75Z</time></trkpt><trkpt lat="41.3690147" lon="13.9876415"><ele>274.6666666666667</ele><time>2026-05-02T14:38:50.752Z</time></trkpt><trkpt lat="41.3691733" lon="13.9876028"><ele>272.0</ele><time>2026-05-02T14:38:51.75Z</time></trkpt><trkpt lat="41.3693568" lon="13.9875722"><ele>272.0</ele><time>2026-05-02T14:38:52.75Z</time></trkpt><trkpt lat="41.3695597" lon="13.9875275"><ele>272.0</ele><time>2026-05-02T14:38:53.749Z</time></trkpt><trkpt lat="41.3697752" lon="13.987479"><ele>272.0</ele><time>2026-05-02T14:38:54.75Z</time></trkpt><trkpt lat="41.3700013" lon="13.9874312"><ele>269.0</ele><time>2026-05-02T14:38:55.75Z</time></trkpt><trkpt lat="41.3702355" lon="13.9873805"><ele>266.0</ele><time>2026-05-02T14:38:56.752Z</time></trkpt><trkpt lat="41.3704665" lon="13.9873308"><ele>265.0</ele><time>2026-05-02T14:38:57.752Z</time></trkpt><trkpt lat="41.3706867" lon="13.987285"><ele>264.0</ele><time>2026-05-02T14:38:58.753Z</time></trkpt><trkpt lat="41.3708945" lon="13.9872408"><ele>263.0</ele><time>2026-05-02T14:38:59.752Z</time></trkpt><trkpt lat="41.3710922" lon="13.987196"><ele>263.0</ele><time>2026-05-02T14:39:00.752Z</time></trkpt><trkpt lat="41.3712812" lon="13.9871518"><ele>263.0</ele><time>2026-05-02T14:39:01.752Z</time></trkpt><trkpt lat="41.3714617" lon="13.9871122"><ele>263.0</ele><time>2026-05-02T14:39:02.751Z</time></trkpt><trkpt lat="41.3716398" lon="13.9870825"><ele>262.0</ele><time>2026-05-02T14:39:03.751Z</time></trkpt><trkpt lat="41.3718185" lon="13.987063"><ele>261.0</ele><time>2026-05-02T14:39:04.752Z</time></trkpt><trkpt lat="41.371999" lon="13.9870495"><ele>260.0</ele><time>2026-05-02T14:39:05.751Z</time></trkpt><trkpt lat="41.3721788" lon="13.987037"><ele>259.0</ele><time>2026-05-02T14:39:06.753Z</time></trkpt><trkpt lat="41.3723547" lon="13.9870203"><ele>258.0</ele><time>2026-05-02T14:39:07.752Z</time></trkpt><trkpt lat="41.3725227" lon="13.987001"><ele>257.0</ele><time>2026-05-02T14:39:08.754Z</time></trkpt><trkpt lat="41.3726883" lon="13.9869895"><ele>257.0</ele><time>2026-05-02T14:39:09.75Z</time></trkpt><trkpt lat="41.3728575" lon="13.9869935"><ele>257.0</ele><time>2026-05-02T14:39:10.75Z</time></trkpt><trkpt lat="41.3730267" lon="13.9870087"><ele>257.0</ele><time>2026-05-02T14:39:11.752Z</time></trkpt><trkpt lat="41.373197" lon="13.9870365"><ele>255.33333333333334</ele><time>2026-05-02T14:39:12.752Z</time></trkpt><trkpt lat="41.3733622" lon="13.9870702"><ele>253.66666666666669</ele><time>2026-05-02T14:39:13.751Z</time></trkpt><trkpt lat="41.373526" lon="13.987103"><ele>252.0</ele><time>2026-05-02T14:39:14.751Z</time></trkpt><trkpt lat="41.373695" lon="13.9871365"><ele>250.66666666666669</ele><time>2026-05-02T14:39:15.751Z</time></trkpt><trkpt lat="41.373878" lon="13.9871725"><ele>249.33333333333334</ele><time>2026-05-02T14:39:16.75Z</time></trkpt><trkpt lat="41.3740683" lon="13.987205"><ele>248.0</ele><time>2026-05-02T14:39:17.749Z</time></trkpt><trkpt lat="41.3742647" lon="13.9872343"><ele>248.0</ele><time>2026-05-02T14:39:18.749Z</time></trkpt><trkpt lat="41.374465" lon="13.9872663"><ele>248.0</ele><time>2026-05-02T14:39:19.75Z</time></trkpt><trkpt lat="41.3746642" lon="13.9873"><ele>248.0</ele><time>2026-05-02T14:39:20.75Z</time></trkpt><trkpt lat="41.3748625" lon="13.987335"><ele>247.66666666666669</ele><time>2026-05-02T14:39:21.751Z</time></trkpt><trkpt lat="41.3750593" lon="13.9873685"><ele>247.33333333333331</ele><time>2026-05-02T14:39:22.752Z</time></trkpt><trkpt lat="41.3752537" lon="13.9873983"><ele>247.0</ele><time>2026-05-02T14:39:23.75Z</time></trkpt><trkpt lat="41.3754482" lon="13.9874287"><ele>246.0</ele><time>2026-05-02T14:39:24.75Z</time></trkpt><trkpt lat="41.3756423" lon="13.9874598"><ele>245.0</ele><time>2026-05-02T14:39:25.75Z</time></trkpt><trkpt lat="41.3758365" lon="13.9874947"><ele>244.0</ele><time>2026-05-02T14:39:26.751Z</time></trkpt><trkpt lat="41.3760308" lon="13.9875272"><ele>243.66666666666666</ele><time>2026-05-02T14:39:27.75Z</time></trkpt><trkpt lat="41.3762243" lon="13.987557"><ele>243.33333333333331</ele><time>2026-05-02T14:39:28.75Z</time></trkpt><trkpt lat="41.3764127" lon="13.9875885"><ele>243.0</ele><time>2026-05-02T14:39:29.751Z</time></trkpt><trkpt lat="41.3765928" lon="13.9876218"><ele>241.33333333333331</ele><time>2026-05-02T14:39:30.748Z</time></trkpt><trkpt lat="41.3767612" lon="13.9876475"><ele>239.66666666666666</ele><time>2026-05-02T14:39:31.751Z</time></trkpt><trkpt lat="41.3769222" lon="13.9876742"><ele>238.0</ele><time>2026-05-02T14:39:32.748Z</time></trkpt><trkpt lat="41.3770862" lon="13.9876828"><ele>236.0</ele><time>2026-05-02T14:39:33.748Z</time></trkpt><trkpt lat="41.377252" lon="13.9876598"><ele>234.0</ele><time>2026-05-02T14:39:34.75Z</time></trkpt><trkpt lat="41.3774245" lon="13.9876192"><ele>232.0</ele><time>2026-05-02T14:39:35.749Z</time></trkpt><trkpt lat="41.3776037" lon="13.9875533"><ele>231.33333333333331</ele><time>2026-05-02T14:39:36.749Z</time></trkpt><trkpt lat="41.3777828" lon="13.9874792"><ele>230.66666666666669</ele><time>2026-05-02T14:39:37.748Z</time></trkpt><trkpt lat="41.3779587" lon="13.9873955"><ele>230.0</ele><time>2026-05-02T14:39:38.748Z</time></trkpt><trkpt lat="41.3781267" lon="13.9873092"><ele>230.0</ele><time>2026-05-02T14:39:39.748Z</time></trkpt><trkpt lat="41.378288" lon="13.9872197"><ele>230.0</ele><time>2026-05-02T14:39:40.751Z</time></trkpt><trkpt lat="41.3784497" lon="13.987135"><ele>230.0</ele><time>2026-05-02T14:39:41.749Z</time></trkpt><trkpt lat="41.3786158" lon="13.987076"><ele>230.0</ele><time>2026-05-02T14:39:42.748Z</time></trkpt><trkpt lat="41.3787915" lon="13.9870453"><ele>230.0</ele><time>2026-05-02T14:39:43.749Z</time></trkpt><trkpt lat="41.3789838" lon="13.987032"><ele>230.0</ele><time>2026-05-02T14:39:44.746Z</time></trkpt><trkpt lat="41.379173" lon="13.9870238"><ele>225.33333333333334</ele><time>2026-05-02T14:39:45.749Z</time></trkpt><trkpt lat="41.3793462" lon="13.987026"><ele>220.66666666666669</ele><time>2026-05-02T14:39:46.75Z</time></trkpt><trkpt lat="41.3795155" lon="13.9870092"><ele>216.0</ele><time>2026-05-02T14:39:47.747Z</time></trkpt><trkpt lat="41.3796853" lon="13.9869747"><ele>212.0</ele><time>2026-05-02T14:39:48.749Z</time></trkpt><trkpt lat="41.3798377" lon="13.986894"><ele>208.0</ele><time>2026-05-02T14:39:49.748Z</time></trkpt><trkpt lat="41.3799732" lon="13.9867968"><ele>204.0</ele><time>2026-05-02T14:39:50.748Z</time></trkpt><trkpt lat="41.3801107" lon="13.9867258"><ele>204.0</ele><time>2026-05-02T14:39:51.748Z</time></trkpt><trkpt lat="41.3802727" lon="13.9866937"><ele>204.0</ele><time>2026-05-02T14:39:52.748Z</time></trkpt><trkpt lat="41.3804443" lon="13.9866863"><ele>204.0</ele><time>2026-05-02T14:39:53.747Z</time></trkpt><trkpt lat="41.3806205" lon="13.9866902"><ele>203.33333333333331</ele><time>2026-05-02T14:39:54.748Z</time></trkpt><trkpt lat="41.3808047" lon="13.9867022"><ele>202.66666666666666</ele><time>2026-05-02T14:39:55.75Z</time></trkpt><trkpt lat="41.3809895" lon="13.986716"><ele>202.0</ele><time>2026-05-02T14:39:56.75Z</time></trkpt><trkpt lat="41.3811703" lon="13.9867318"><ele>201.0</ele><time>2026-05-02T14:39:57.755Z</time></trkpt><trkpt lat="41.3813538" lon="13.9867478"><ele>200.0</ele><time>2026-05-02T14:39:58.755Z</time></trkpt><trkpt lat="41.3815388" lon="13.9867608"><ele>199.0</ele><time>2026-05-02T14:39:59.753Z</time></trkpt><trkpt lat="41.381724" lon="13.9867737"><ele>199.0</ele><time>2026-05-02T14:40:00.751Z</time></trkpt><trkpt lat="41.3819107" lon="13.9867865"><ele>199.0</ele><time>2026-05-02T14:40:01.751Z</time></trkpt><trkpt lat="41.3820962" lon="13.9867988"><ele>199.0</ele><time>2026-05-02T14:40:02.752Z</time></trkpt><trkpt lat="41.3822807" lon="13.986812"><ele>199.33333333333331</ele><time>2026-05-02T14:40:03.751Z</time></trkpt><trkpt lat="41.382464" lon="13.9868263"><ele>199.66666666666669</ele><time>2026-05-02T14:40:04.751Z</time></trkpt><trkpt lat="41.3826465" lon="13.9868415"><ele>200.0</ele><time>2026-05-02T14:40:05.749Z</time></trkpt><trkpt lat="41.3828288" lon="13.9868572"><ele>200.0</ele><time>2026-05-02T14:40:06.748Z</time></trkpt><trkpt lat="41.3830113" lon="13.9868725"><ele>200.0</ele><time>2026-05-02T14:40:07.75Z</time></trkpt><trkpt lat="41.3831933" lon="13.9868872"><ele>200.0</ele><time>2026-05-02T14:40:08.75Z</time></trkpt><trkpt lat="41.383374" lon="13.9869002"><ele>200.0</ele><time>2026-05-02T14:40:09.75Z</time></trkpt><trkpt lat="41.3835525" lon="13.9869137"><ele>200.0</ele><time>2026-05-02T14:40:10.75Z</time></trkpt><trkpt lat="41.3837312" lon="13.9869282"><ele>200.0</ele><time>2026-05-02T14:40:11.75Z</time></trkpt><trkpt lat="41.3839108" lon="13.9869435"><ele>200.0</ele><time>2026-05-02T14:40:12.753Z</time></trkpt><trkpt lat="41.3840907" lon="13.9869615"><ele>200.0</ele><time>2026-05-02T14:40:13.753Z</time></trkpt><trkpt lat="41.3842725" lon="13.9869793"><ele>200.0</ele><time>2026-05-02T14:40:14.753Z</time></trkpt><trkpt lat="41.3844548" lon="13.9869962"><ele>200.0</ele><time>2026-05-02T14:40:15.754Z</time></trkpt><trkpt lat="41.3846393" lon="13.987012"><ele>200.0</ele><time>2026-05-02T14:40:16.752Z</time></trkpt><trkpt lat="41.3848253" lon="13.9870278"><ele>200.0</ele><time>2026-05-02T14:40:17.752Z</time></trkpt><trkpt lat="41.3850113" lon="13.9870443"><ele>200.0</ele><time>2026-05-02T14:40:18.751Z</time></trkpt><trkpt lat="41.3851975" lon="13.9870602"><ele>200.0</ele><time>2026-05-02T14:40:19.754Z</time></trkpt><trkpt lat="41.3853842" lon="13.9870758"><ele>200.0</ele><time>2026-05-02T14:40:20.753Z</time></trkpt><trkpt lat="41.3855733" lon="13.9870927"><ele>200.0</ele><time>2026-05-02T14:40:21.751Z</time></trkpt><trkpt lat="41.3857642" lon="13.9871097"><ele>200.0</ele><time>2026-05-02T14:40:22.755Z</time></trkpt><trkpt lat="41.3859517" lon="13.9871242"><ele>200.0</ele><time>2026-05-02T14:40:23.751Z</time></trkpt><trkpt lat="41.3861372" lon="13.987138"><ele>200.0</ele><time>2026-05-02T14:40:24.752Z</time></trkpt><trkpt lat="41.3863217" lon="13.9871498"><ele>200.0</ele><time>2026-05-02T14:40:25.752Z</time></trkpt><trkpt lat="41.3865065" lon="13.9871612"><ele>200.0</ele><time>2026-05-02T14:40:26.751Z</time></trkpt><trkpt lat="41.3866933" lon="13.9871748"><ele>199.33333333333334</ele><time>2026-05-02T14:40:27.752Z</time></trkpt><trkpt lat="41.3868813" lon="13.9871898"><ele>198.66666666666669</ele><time>2026-05-02T14:40:28.753Z</time></trkpt><trkpt lat="41.3870722" lon="13.9872062"><ele>198.0</ele><time>2026-05-02T14:40:29.752Z</time></trkpt><trkpt lat="41.3872665" lon="13.987222"><ele>198.0</ele><time>2026-05-02T14:40:30.751Z</time></trkpt><trkpt lat="41.3874643" lon="13.987236"><ele>198.0</ele><time>2026-05-02T14:40:31.751Z</time></trkpt><trkpt lat="41.3876635" lon="13.9872473"><ele>198.0</ele><time>2026-05-02T14:40:32.748Z</time></trkpt><trkpt lat="41.3878682" lon="13.9872653"><ele>195.5</ele><time>2026-05-02T14:40:33.748Z</time></trkpt><trkpt lat="41.3880932" lon="13.98728"><ele>193.0</ele><time>2026-05-02T14:40:34.75Z</time></trkpt><trkpt lat="41.3883388" lon="13.9872978"><ele>193.0</ele><time>2026-05-02T14:40:35.751Z</time></trkpt><trkpt lat="41.388599" lon="13.9873183"><ele>193.0</ele><time>2026-05-02T14:40:36.752Z</time></trkpt><trkpt lat="41.3888657" lon="13.9873413"><ele>189.0</ele><time>2026-05-02T14:40:37.751Z</time></trkpt><trkpt lat="41.3891243" lon="13.987363"><ele>185.0</ele><time>2026-05-02T14:40:38.751Z</time></trkpt><trkpt lat="41.389372" lon="13.9873805"><ele>185.0</ele><time>2026-05-02T14:40:39.749Z</time></trkpt><trkpt lat="41.389617" lon="13.9873992"><ele>185.0</ele><time>2026-05-02T14:40:40.753Z</time></trkpt><trkpt lat="41.3898637" lon="13.9874178"><ele>181.5</ele><time>2026-05-02T14:40:41.752Z</time></trkpt><trkpt lat="41.3901113" lon="13.9874397"><ele>178.0</ele><time>2026-05-02T14:40:42.752Z</time></trkpt><trkpt lat="41.390359" lon="13.9874645"><ele>177.5</ele><time>2026-05-02T14:40:43.754Z</time></trkpt><trkpt lat="41.3906003" lon="13.9874902"><ele>177.0</ele><time>2026-05-02T14:40:44.752Z</time></trkpt><trkpt lat="41.3908315" lon="13.9875117"><ele>178.0</ele><time>2026-05-02T14:40:45.751Z</time></trkpt><trkpt lat="41.3910582" lon="13.9875233"><ele>179.0</ele><time>2026-05-02T14:40:46.752Z</time></trkpt><trkpt lat="41.3912767" lon="13.987516"><ele>180.0</ele><time>2026-05-02T14:40:47.751Z</time></trkpt><trkpt lat="41.3914827" lon="13.9874875"><ele>177.33333333333334</ele><time>2026-05-02T14:40:48.75Z</time></trkpt><trkpt lat="41.3916735" lon="13.9874193"><ele>174.66666666666669</ele><time>2026-05-02T14:40:49.75Z</time></trkpt><trkpt lat="41.3918533" lon="13.9873038"><ele>172.0</ele><time>2026-05-02T14:40:50.754Z</time></trkpt><trkpt lat="41.3920262" lon="13.9871412"><ele>171.0</ele><time>2026-05-02T14:40:51.751Z</time></trkpt><trkpt lat="41.3921937" lon="13.9869403"><ele>170.0</ele><time>2026-05-02T14:40:52.752Z</time></trkpt><trkpt lat="41.3923598" lon="13.986709"><ele>169.0</ele><time>2026-05-02T14:40:53.752Z</time></trkpt><trkpt lat="41.3925117" lon="13.9864912"><ele>168.0</ele><time>2026-05-02T14:40:54.752Z</time></trkpt><trkpt lat="41.3926485" lon="13.9863023"><ele>167.0</ele><time>2026-05-02T14:40:55.752Z</time></trkpt><trkpt lat="41.392779" lon="13.986125"><ele>167.0</ele><time>2026-05-02T14:40:56.749Z</time></trkpt><trkpt lat="41.3929017" lon="13.9859495"><ele>167.0</ele><time>2026-05-02T14:40:57.749Z</time></trkpt><trkpt lat="41.393015" lon="13.9857755"><ele>167.0</ele><time>2026-05-02T14:40:58.753Z</time></trkpt><trkpt lat="41.39312" lon="13.9856075"><ele>167.0</ele><time>2026-05-02T14:40:59.755Z</time></trkpt><trkpt lat="41.3932205" lon="13.9854457"><ele>167.0</ele><time>2026-05-02T14:41:00.753Z</time></trkpt><trkpt lat="41.3933153" lon="13.9852897"><ele>167.0</ele><time>2026-05-02T14:41:01.755Z</time></trkpt><trkpt lat="41.3934058" lon="13.985139"><ele>164.5</ele><time>2026-05-02T14:41:02.754Z</time></trkpt><trkpt lat="41.3934937" lon="13.984998"><ele>162.0</ele><time>2026-05-02T14:41:03.754Z</time></trkpt><trkpt lat="41.3935807" lon="13.9848612"><ele>159.5</ele><time>2026-05-02T14:41:04.755Z</time></trkpt><trkpt lat="41.3936642" lon="13.9847308"><ele>157.0</ele><time>2026-05-02T14:41:05.753Z</time></trkpt><trkpt lat="41.393746" lon="13.9846093"><ele>157.0</ele><time>2026-05-02T14:41:06.754Z</time></trkpt><trkpt lat="41.3938295" lon="13.9844982"><ele>157.0</ele><time>2026-05-02T14:41:07.753Z</time></trkpt><trkpt lat="41.3939182" lon="13.9843957"><ele>157.0</ele><time>2026-05-02T14:41:08.757Z</time></trkpt><trkpt lat="41.3940128" lon="13.9843005"><ele>157.0</ele><time>2026-05-02T14:41:09.757Z</time></trkpt><trkpt lat="41.3941113" lon="13.984212"><ele>156.75</ele><time>2026-05-02T14:41:10.756Z</time></trkpt><trkpt lat="41.3942115" lon="13.9841295"><ele>156.5</ele><time>2026-05-02T14:41:11.756Z</time></trkpt><trkpt lat="41.3943135" lon="13.9840527"><ele>156.25</ele><time>2026-05-02T14:41:12.752Z</time></trkpt><trkpt lat="41.3944185" lon="13.983986"><ele>156.0</ele><time>2026-05-02T14:41:13.752Z</time></trkpt><trkpt lat="41.3945273" lon="13.9839328"><ele>156.0</ele><time>2026-05-02T14:41:14.752Z</time></trkpt><trkpt lat="41.3946403" lon="13.983893"><ele>156.0</ele><time>2026-05-02T14:41:15.751Z</time></trkpt><trkpt lat="41.394756" lon="13.983865"><ele>156.0</ele><time>2026-05-02T14:41:16.754Z</time></trkpt><trkpt lat="41.3948708" lon="13.983847"><ele>156.0</ele><time>2026-05-02T14:41:17.752Z</time></trkpt><trkpt lat="41.3949788" lon="13.983839"><ele>156.33333333333334</ele><time>2026-05-02T14:41:18.751Z</time></trkpt><trkpt lat="41.3950798" lon="13.9838445"><ele>156.66666666666666</ele><time>2026-05-02T14:41:19.751Z</time></trkpt><trkpt lat="41.395171" lon="13.9838597"><ele>157.0</ele><time>2026-05-02T14:41:20.752Z</time></trkpt><trkpt lat="41.3952455" lon="13.9838632"><ele>157.33333333333331</ele><time>2026-05-02T14:41:21.752Z</time></trkpt><trkpt lat="41.3953288" lon="13.9837878"><ele>157.66666666666666</ele><time>2026-05-02T14:41:23.752Z</time></trkpt><trkpt lat="41.3952938" lon="13.9837057"><ele>158.0</ele><time>2026-05-02T14:41:25.753Z</time></trkpt><trkpt lat="41.3952128" lon="13.9837297"><ele>158.0</ele><time>2026-05-02T14:41:27.751Z</time></trkpt><trkpt lat="41.3950823" lon="13.983773"><ele>158.0</ele><time>2026-05-02T14:41:29.752Z</time></trkpt><trkpt lat="41.3949632" lon="13.9837962"><ele>158.0</ele><time>2026-05-02T14:41:30.755Z</time></trkpt><trkpt lat="41.3948307" lon="13.983809"><ele>158.0</ele><time>2026-05-02T14:41:31.757Z</time></trkpt><trkpt lat="41.3946865" lon="13.9838342"><ele>157.33333333333331</ele><time>2026-05-02T14:41:32.755Z</time></trkpt><trkpt lat="41.3945447" lon="13.983885"><ele>156.66666666666666</ele><time>2026-05-02T14:41:33.755Z</time></trkpt><trkpt lat="41.3943975" lon="13.9839652"><ele>156.0</ele><time>2026-05-02T14:41:34.753Z</time></trkpt><trkpt lat="41.3942437" lon="13.9840737"><ele>156.33333333333334</ele><time>2026-05-02T14:41:35.754Z</time></trkpt><trkpt lat="41.3940858" lon="13.9842078"><ele>156.66666666666669</ele><time>2026-05-02T14:41:36.753Z</time></trkpt><trkpt lat="41.3939407" lon="13.9843558"><ele>157.0</ele><time>2026-05-02T14:41:37.755Z</time></trkpt><trkpt lat="41.3938077" lon="13.9845223"><ele>157.0</ele><time>2026-05-02T14:41:38.757Z</time></trkpt><trkpt lat="41.3936848" lon="13.984704"><ele>157.0</ele><time>2026-05-02T14:41:39.754Z</time></trkpt><trkpt lat="41.3935768" lon="13.9848738"><ele>157.0</ele><time>2026-05-02T14:41:40.755Z</time></trkpt><trkpt lat="41.3934787" lon="13.9850308"><ele>159.5</ele><time>2026-05-02T14:41:41.752Z</time></trkpt><trkpt lat="41.3933845" lon="13.9851817"><ele>162.0</ele><time>2026-05-02T14:41:42.753Z</time></trkpt><trkpt lat="41.393294" lon="13.9853315"><ele>164.5</ele><time>2026-05-02T14:41:43.751Z</time></trkpt><trkpt lat="41.3932123" lon="13.9854688"><ele>167.0</ele><time>2026-05-02T14:41:44.753Z</time></trkpt><trkpt lat="41.3931367" lon="13.985587"><ele>167.0</ele><time>2026-05-02T14:41:45.75Z</time></trkpt><trkpt lat="41.3930618" lon="13.9856825"><ele>167.0</ele><time>2026-05-02T14:41:46.75Z</time></trkpt><trkpt lat="41.3929878" lon="13.9857533"><ele>167.0</ele><time>2026-05-02T14:41:47.752Z</time></trkpt><trkpt lat="41.3929112" lon="13.9857992"><ele>167.0</ele><time>2026-05-02T14:41:48.753Z</time></trkpt><trkpt lat="41.3928303" lon="13.9858105"><ele>167.0</ele><time>2026-05-02T14:41:49.753Z</time></trkpt><trkpt lat="41.3927537" lon="13.9857685"><ele>167.0</ele><time>2026-05-02T14:41:50.755Z</time></trkpt><trkpt lat="41.3926905" lon="13.9856828"><ele>166.0</ele><time>2026-05-02T14:41:51.754Z</time></trkpt><trkpt lat="41.3926447" lon="13.9855662"><ele>165.0</ele><time>2026-05-02T14:41:52.753Z</time></trkpt><trkpt lat="41.3926297" lon="13.9854325"><ele>164.0</ele><time>2026-05-02T14:41:53.754Z</time></trkpt><trkpt lat="41.392649" lon="13.98529"><ele>163.0</ele><time>2026-05-02T14:41:54.751Z</time></trkpt><trkpt lat="41.3926965" lon="13.9851497"><ele>162.0</ele><time>2026-05-02T14:41:55.752Z</time></trkpt><trkpt lat="41.3927812" lon="13.9850167"><ele>160.33333333333334</ele><time>2026-05-02T14:41:56.752Z</time></trkpt><trkpt lat="41.3928927" lon="13.9848735"><ele>158.66666666666669</ele><time>2026-05-02T14:41:57.753Z</time></trkpt><trkpt lat="41.3930253" lon="13.9847097"><ele>157.0</ele><time>2026-05-02T14:41:58.755Z</time></trkpt><trkpt lat="41.3931633" lon="13.9845375"><ele>157.0</ele><time>2026-05-02T14:41:59.753Z</time></trkpt><trkpt lat="41.3932962" lon="13.9843715"><ele>157.0</ele><time>2026-05-02T14:42:00.751Z</time></trkpt><trkpt lat="41.3934225" lon="13.9842103"><ele>157.0</ele><time>2026-05-02T14:42:01.752Z</time></trkpt><trkpt lat="41.3935355" lon="13.9840465"><ele>155.66666666666669</ele><time>2026-05-02T14:42:02.751Z</time></trkpt><trkpt lat="41.3936238" lon="13.9838635"><ele>154.33333333333334</ele><time>2026-05-02T14:42:03.752Z</time></trkpt><trkpt lat="41.3936703" lon="13.9836632"><ele>153.0</ele><time>2026-05-02T14:42:04.753Z</time></trkpt><trkpt lat="41.3936683" lon="13.9834557"><ele>151.33333333333334</ele><time>2026-05-02T14:42:05.752Z</time></trkpt><trkpt lat="41.3936313" lon="13.9832428"><ele>149.66666666666669</ele><time>2026-05-02T14:42:06.751Z</time></trkpt><trkpt lat="41.3935853" lon="13.9830277"><ele>148.0</ele><time>2026-05-02T14:42:07.752Z</time></trkpt><trkpt lat="41.3935415" lon="13.9828107"><ele>148.0</ele><time>2026-05-02T14:42:08.75Z</time></trkpt><trkpt lat="41.3934962" lon="13.9825968"><ele>148.0</ele><time>2026-05-02T14:42:09.751Z</time></trkpt><trkpt lat="41.3934038" lon="13.9821677"><ele>143.5</ele><time>2026-05-02T14:42:11.755Z</time></trkpt><trkpt lat="41.3933595" lon="13.98196"><ele>139.0</ele><time>2026-05-02T14:42:12.754Z</time></trkpt><trkpt lat="41.3932345" lon="13.9813745"><ele>139.0</ele><time>2026-05-02T14:42:15.752Z</time></trkpt><trkpt lat="41.3931958" lon="13.9811883"><ele>139.0</ele><time>2026-05-02T14:42:16.753Z</time></trkpt><trkpt lat="41.3931573" lon="13.9810075"><ele>139.0</ele><time>2026-05-02T14:42:17.751Z</time></trkpt><trkpt lat="41.3931068" lon="13.9808372"><ele>139.0</ele><time>2026-05-02T14:42:18.751Z</time></trkpt><trkpt lat="41.3930295" lon="13.9806827"><ele>140.5</ele><time>2026-05-02T14:42:19.753Z</time></trkpt><trkpt lat="41.3929307" lon="13.9805433"><ele>142.0</ele><time>2026-05-02T14:42:20.754Z</time></trkpt><trkpt lat="41.392818" lon="13.9804105"><ele>143.5</ele><time>2026-05-02T14:42:21.754Z</time></trkpt><trkpt lat="41.3926985" lon="13.9802823"><ele>145.0</ele><time>2026-05-02T14:42:22.754Z</time></trkpt><trkpt lat="41.392576" lon="13.9801603"><ele>145.0</ele><time>2026-05-02T14:42:23.752Z</time></trkpt><trkpt lat="41.392454" lon="13.9800427"><ele>145.0</ele><time>2026-05-02T14:42:24.752Z</time></trkpt><trkpt lat="41.3923327" lon="13.9799165"><ele>145.0</ele><time>2026-05-02T14:42:25.754Z</time></trkpt><trkpt lat="41.3922012" lon="13.9797862"><ele>147.0</ele><time>2026-05-02T14:42:26.753Z</time></trkpt><trkpt lat="41.3920675" lon="13.9796445"><ele>149.0</ele><time>2026-05-02T14:42:27.754Z</time></trkpt><trkpt lat="41.3919282" lon="13.9795"><ele>151.0</ele><time>2026-05-02T14:42:28.753Z</time></trkpt><trkpt lat="41.3917888" lon="13.9793553"><ele>151.0</ele><time>2026-05-02T14:42:29.753Z</time></trkpt><trkpt lat="41.3916595" lon="13.9792252"><ele>151.0</ele><time>2026-05-02T14:42:30.754Z</time></trkpt><trkpt lat="41.3915378" lon="13.9791052"><ele>151.0</ele><time>2026-05-02T14:42:31.754Z</time></trkpt><trkpt lat="41.3914175" lon="13.9789862"><ele>152.25</ele><time>2026-05-02T14:42:32.75Z</time></trkpt><trkpt lat="41.391301" lon="13.978868"><ele>153.5</ele><time>2026-05-02T14:42:33.75Z</time></trkpt><trkpt lat="41.3911852" lon="13.9787553"><ele>154.75</ele><time>2026-05-02T14:42:34.753Z</time></trkpt><trkpt lat="41.3910603" lon="13.9786588"><ele>156.0</ele><time>2026-05-02T14:42:35.751Z</time></trkpt><trkpt lat="41.3909277" lon="13.9785905"><ele>156.0</ele><time>2026-05-02T14:42:36.753Z</time></trkpt><trkpt lat="41.390798" lon="13.9785443"><ele>156.0</ele><time>2026-05-02T14:42:37.752Z</time></trkpt><trkpt lat="41.3906813" lon="13.978496"><ele>156.0</ele><time>2026-05-02T14:42:38.752Z</time></trkpt><trkpt lat="41.3906042" lon="13.9784453"><ele>156.0</ele><time>2026-05-02T14:42:39.752Z</time></trkpt><trkpt lat="41.3905597" lon="13.9783568"><ele>156.0</ele><time>2026-05-02T14:42:41.752Z</time></trkpt><trkpt lat="41.3906513" lon="13.9782888"><ele>159.25</ele><time>2026-05-02T14:42:44.75Z</time></trkpt><trkpt lat="41.3907905" lon="13.978231"><ele>162.5</ele><time>2026-05-02T14:42:46.75Z</time></trkpt><trkpt lat="41.3908865" lon="13.978184"><ele>165.75</ele><time>2026-05-02T14:42:47.75Z</time></trkpt><trkpt lat="41.3909868" lon="13.9781298"><ele>169.0</ele><time>2026-05-02T14:42:48.75Z</time></trkpt><trkpt lat="41.3910947" lon="13.9780795"><ele>169.0</ele><time>2026-05-02T14:42:49.749Z</time></trkpt><trkpt lat="41.3912047" lon="13.9780375"><ele>169.0</ele><time>2026-05-02T14:42:50.753Z</time></trkpt><trkpt lat="41.39132" lon="13.9779953"><ele>169.0</ele><time>2026-05-02T14:42:51.753Z</time></trkpt><trkpt lat="41.3914252" lon="13.9779495"><ele>169.0</ele><time>2026-05-02T14:42:52.753Z</time></trkpt><trkpt lat="41.3915042" lon="13.9778845"><ele>169.0</ele><time>2026-05-02T14:42:53.752Z</time></trkpt><trkpt lat="41.3915433" lon="13.9777952"><ele>169.0</ele><time>2026-05-02T14:42:54.75Z</time></trkpt><trkpt lat="41.3915457" lon="13.9776832"><ele>169.0</ele><time>2026-05-02T14:42:55.75Z</time></trkpt><trkpt lat="41.3915182" lon="13.9775615"><ele>169.0</ele><time>2026-05-02T14:42:56.75Z</time></trkpt><trkpt lat="41.3914782" lon="13.977442"><ele>169.0</ele><time>2026-05-02T14:42:57.75Z</time></trkpt><trkpt lat="41.3914338" lon="13.977323"><ele>169.0</ele><time>2026-05-02T14:42:58.749Z</time></trkpt><trkpt lat="41.391387" lon="13.9771925"><ele>172.5</ele><time>2026-05-02T14:42:59.749Z</time></trkpt><trkpt lat="41.391334" lon="13.977047"><ele>176.0</ele><time>2026-05-02T14:43:00.748Z</time></trkpt><trkpt lat="41.3912785" lon="13.976894"><ele>179.5</ele><time>2026-05-02T14:43:01.747Z</time></trkpt><trkpt lat="41.3912207" lon="13.9767408"><ele>183.0</ele><time>2026-05-02T14:43:02.749Z</time></trkpt><trkpt lat="41.39116" lon="13.976601"><ele>183.75</ele><time>2026-05-02T14:43:03.751Z</time></trkpt><trkpt lat="41.3910897" lon="13.9764785"><ele>184.5</ele><time>2026-05-02T14:43:04.751Z</time></trkpt><trkpt lat="41.3909898" lon="13.9763877"><ele>185.25</ele><time>2026-05-02T14:43:05.75Z</time></trkpt><trkpt lat="41.39087" lon="13.9763248"><ele>186.0</ele><time>2026-05-02T14:43:06.749Z</time></trkpt><trkpt lat="41.3907408" lon="13.9762815"><ele>186.0</ele><time>2026-05-02T14:43:07.749Z</time></trkpt><trkpt lat="41.3906057" lon="13.9762393"><ele>186.0</ele><time>2026-05-02T14:43:08.749Z</time></trkpt><trkpt lat="41.3904652" lon="13.976198"><ele>186.0</ele><time>2026-05-02T14:43:09.752Z</time></trkpt><trkpt lat="41.3903217" lon="13.9761582"><ele>186.0</ele><time>2026-05-02T14:43:10.752Z</time></trkpt><trkpt lat="41.3901867" lon="13.9761095"><ele>186.75</ele><time>2026-05-02T14:43:11.752Z</time></trkpt><trkpt lat="41.3900522" lon="13.976071"><ele>187.5</ele><time>2026-05-02T14:43:12.749Z</time></trkpt><trkpt lat="41.3899117" lon="13.9760338"><ele>188.25</ele><time>2026-05-02T14:43:13.749Z</time></trkpt><trkpt lat="41.3897723" lon="13.975992"><ele>189.0</ele><time>2026-05-02T14:43:14.75Z</time></trkpt><trkpt lat="41.389632" lon="13.9759473"><ele>189.5</ele><time>2026-05-02T14:43:15.751Z</time></trkpt><trkpt lat="41.3894898" lon="13.9759118"><ele>190.0</ele><time>2026-05-02T14:43:16.752Z</time></trkpt><trkpt lat="41.3893482" lon="13.9758783"><ele>190.5</ele><time>2026-05-02T14:43:17.752Z</time></trkpt><trkpt lat="41.3892058" lon="13.9758388"><ele>191.0</ele><time>2026-05-02T14:43:18.749Z</time></trkpt><trkpt lat="41.3890627" lon="13.9757945"><ele>191.0</ele><time>2026-05-02T14:43:19.75Z</time></trkpt><trkpt lat="41.3889188" lon="13.9757397"><ele>191.0</ele><time>2026-05-02T14:43:20.75Z</time></trkpt><trkpt lat="41.3887753" lon="13.9756767"><ele>191.0</ele><time>2026-05-02T14:43:21.748Z</time></trkpt><trkpt lat="41.3886302" lon="13.9756083"><ele>193.33333333333331</ele><time>2026-05-02T14:43:22.749Z</time></trkpt><trkpt lat="41.3884833" lon="13.97554"><ele>195.66666666666666</ele><time>2026-05-02T14:43:23.747Z</time></trkpt><trkpt lat="41.3883317" lon="13.9754843"><ele>198.0</ele><time>2026-05-02T14:43:24.748Z</time></trkpt><trkpt lat="41.3881745" lon="13.9754547"><ele>198.0</ele><time>2026-05-02T14:43:25.749Z</time></trkpt><trkpt lat="41.3880118" lon="13.9754387"><ele>198.0</ele><time>2026-05-02T14:43:26.751Z</time></trkpt><trkpt lat="41.387848" lon="13.9754298"><ele>198.0</ele><time>2026-05-02T14:43:27.75Z</time></trkpt><trkpt lat="41.3876902" lon="13.9754145"><ele>198.25</ele><time>2026-05-02T14:43:28.749Z</time></trkpt><trkpt lat="41.3875425" lon="13.9754018"><ele>198.5</ele><time>2026-05-02T14:43:29.749Z</time></trkpt><trkpt lat="41.3874037" lon="13.9753822"><ele>198.75</ele><time>2026-05-02T14:43:30.748Z</time></trkpt><trkpt lat="41.3872672" lon="13.975363"><ele>199.0</ele><time>2026-05-02T14:43:31.748Z</time></trkpt><trkpt lat="41.3871327" lon="13.9753353"><ele>199.5</ele><time>2026-05-02T14:43:32.748Z</time></trkpt><trkpt lat="41.3870032" lon="13.9752797"><ele>200.0</ele><time>2026-05-02T14:43:33.75Z</time></trkpt><trkpt lat="41.3868798" lon="13.9751833"><ele>200.5</ele><time>2026-05-02T14:43:34.752Z</time></trkpt><trkpt lat="41.3867643" lon="13.9750508"><ele>201.0</ele><time>2026-05-02T14:43:35.751Z</time></trkpt><trkpt lat="41.3866638" lon="13.9748917"><ele>198.33333333333331</ele><time>2026-05-02T14:43:36.751Z</time></trkpt><trkpt lat="41.3865682" lon="13.9747128"><ele>195.66666666666666</ele><time>2026-05-02T14:43:37.751Z</time></trkpt><trkpt lat="41.386474" lon="13.9745255"><ele>193.0</ele><time>2026-05-02T14:43:38.749Z</time></trkpt><trkpt lat="41.3863813" lon="13.9743375"><ele>194.66666666666666</ele><time>2026-05-02T14:43:39.75Z</time></trkpt><trkpt lat="41.3862892" lon="13.9741453"><ele>196.33333333333331</ele><time>2026-05-02T14:43:40.75Z</time></trkpt><trkpt lat="41.3861923" lon="13.973953"><ele>198.0</ele><time>2026-05-02T14:43:41.752Z</time></trkpt><trkpt lat="41.3860963" lon="13.9737623"><ele>198.0</ele><time>2026-05-02T14:43:42.752Z</time></trkpt><trkpt lat="41.3860092" lon="13.9735798"><ele>198.0</ele><time>2026-05-02T14:43:43.752Z</time></trkpt><trkpt lat="41.3859298" lon="13.9734085"><ele>198.0</ele><time>2026-05-02T14:43:44.753Z</time></trkpt><trkpt lat="41.385849" lon="13.9732547"><ele>197.5</ele><time>2026-05-02T14:43:45.751Z</time></trkpt><trkpt lat="41.3857558" lon="13.973117"><ele>197.0</ele><time>2026-05-02T14:43:46.748Z</time></trkpt><trkpt lat="41.3856417" lon="13.972996"><ele>196.5</ele><time>2026-05-02T14:43:47.748Z</time></trkpt><trkpt lat="41.3855353" lon="13.972898"><ele>196.0</ele><time>2026-05-02T14:43:48.748Z</time></trkpt><trkpt lat="41.3854575" lon="13.9728268"><ele>196.0</ele><time>2026-05-02T14:43:49.749Z</time></trkpt><trkpt lat="41.3853977" lon="13.9727045"><ele>196.0</ele><time>2026-05-02T14:43:51.75Z</time></trkpt><trkpt lat="41.3854317" lon="13.9725368"><ele>196.0</ele><time>2026-05-02T14:43:53.754Z</time></trkpt><trkpt lat="41.3854758" lon="13.9724173"><ele>196.0</ele><time>2026-05-02T14:43:54.754Z</time></trkpt><trkpt lat="41.385525" lon="13.9722728"><ele>196.25</ele><time>2026-05-02T14:43:55.756Z</time></trkpt><trkpt lat="41.385572" lon="13.972128"><ele>196.5</ele><time>2026-05-02T14:43:56.754Z</time></trkpt><trkpt lat="41.3856173" lon="13.9719838"><ele>196.75</ele><time>2026-05-02T14:43:57.752Z</time></trkpt><trkpt lat="41.3856668" lon="13.9718458"><ele>197.0</ele><time>2026-05-02T14:43:58.752Z</time></trkpt><trkpt lat="41.3857142" lon="13.9717093"><ele>198.39999999999998</ele><time>2026-05-02T14:43:59.752Z</time></trkpt><trkpt lat="41.3857612" lon="13.9715853"><ele>199.79999999999998</ele><time>2026-05-02T14:44:00.753Z</time></trkpt><trkpt lat="41.3858163" lon="13.9714717"><ele>201.2</ele><time>2026-05-02T14:44:01.752Z</time></trkpt><trkpt lat="41.3858642" lon="13.971349"><ele>202.6</ele><time>2026-05-02T14:44:02.753Z</time></trkpt><trkpt lat="41.3858975" lon="13.9712205"><ele>204.0</ele><time>2026-05-02T14:44:03.752Z</time></trkpt><trkpt lat="41.3859185" lon="13.971105"><ele>204.0</ele><time>2026-05-02T14:44:04.751Z</time></trkpt><trkpt lat="41.3859238" lon="13.9710158"><ele>204.0</ele><time>2026-05-02T14:44:05.749Z</time></trkpt><trkpt lat="41.3858777" lon="13.9708713"><ele>204.0</ele><time>2026-05-02T14:44:07.75Z</time></trkpt><trkpt lat="41.385828" lon="13.9708035"><ele>204.0</ele><time>2026-05-02T14:44:08.75Z</time></trkpt><trkpt lat="41.3857813" lon="13.9707127"><ele>204.0</ele><time>2026-05-02T14:44:09.749Z</time></trkpt><trkpt lat="41.3857372" lon="13.970616"><ele>204.0</ele><time>2026-05-02T14:44:10.748Z</time></trkpt><trkpt lat="41.3856992" lon="13.9705217"><ele>205.39999999999998</ele><time>2026-05-02T14:44:11.748Z</time></trkpt><trkpt lat="41.3856532" lon="13.970416"><ele>206.8</ele><time>2026-05-02T14:44:12.748Z</time></trkpt><trkpt lat="41.3856178" lon="13.9702963"><ele>208.2</ele><time>2026-05-02T14:44:13.75Z</time></trkpt><trkpt lat="41.3855913" lon="13.9701677"><ele>209.60000000000002</ele><time>2026-05-02T14:44:14.751Z</time></trkpt><trkpt lat="41.3855698" lon="13.9700333"><ele>211.0</ele><time>2026-05-02T14:44:15.752Z</time></trkpt><trkpt lat="41.3855502" lon="13.9698955"><ele>212.60000000000002</ele><time>2026-05-02T14:44:16.754Z</time></trkpt><trkpt lat="41.3855392" lon="13.969754"><ele>214.2</ele><time>2026-05-02T14:44:17.75Z</time></trkpt><trkpt lat="41.385534" lon="13.9696132"><ele>215.79999999999998</ele><time>2026-05-02T14:44:18.749Z</time></trkpt><trkpt lat="41.3855282" lon="13.9694757"><ele>217.39999999999998</ele><time>2026-05-02T14:44:19.749Z</time></trkpt><trkpt lat="41.3855142" lon="13.969343"><ele>219.0</ele><time>2026-05-02T14:44:20.751Z</time></trkpt><trkpt lat="41.3854895" lon="13.9692175"><ele>221.2</ele><time>2026-05-02T14:44:21.752Z</time></trkpt><trkpt lat="41.3854562" lon="13.9691055"><ele>223.39999999999998</ele><time>2026-05-02T14:44:22.752Z</time></trkpt><trkpt lat="41.3854182" lon="13.9689995"><ele>225.6</ele><time>2026-05-02T14:44:23.751Z</time></trkpt><trkpt lat="41.3853945" lon="13.9688995"><ele>227.8</ele><time>2026-05-02T14:44:24.751Z</time></trkpt><trkpt lat="41.3854207" lon="13.9687538"><ele>230.0</ele><time>2026-05-02T14:44:26.754Z</time></trkpt><trkpt lat="41.3855292" lon="13.9687047"><ele>230.6</ele><time>2026-05-02T14:44:28.751Z</time></trkpt><trkpt lat="41.3856052" lon="13.9687115"><ele>231.2</ele><time>2026-05-02T14:44:29.75Z</time></trkpt><trkpt lat="41.3856965" lon="13.9687215"><ele>231.8</ele><time>2026-05-02T14:44:30.752Z</time></trkpt><trkpt lat="41.3857935" lon="13.968758"><ele>232.4</ele><time>2026-05-02T14:44:31.753Z</time></trkpt><trkpt lat="41.3858947" lon="13.9688235"><ele>233.0</ele><time>2026-05-02T14:44:32.752Z</time></trkpt><trkpt lat="41.3859975" lon="13.968902"><ele>233.0</ele><time>2026-05-02T14:44:33.75Z</time></trkpt><trkpt lat="41.3860977" lon="13.9689802"><ele>233.0</ele><time>2026-05-02T14:44:34.752Z</time></trkpt><trkpt lat="41.3861848" lon="13.9690507"><ele>233.0</ele><time>2026-05-02T14:44:35.749Z</time></trkpt><trkpt lat="41.3862653" lon="13.9691052"><ele>233.0</ele><time>2026-05-02T14:44:36.748Z</time></trkpt><trkpt lat="41.3863512" lon="13.9691425"><ele>233.0</ele><time>2026-05-02T14:44:37.751Z</time></trkpt><trkpt lat="41.386445" lon="13.9691718"><ele>231.0</ele><time>2026-05-02T14:44:38.748Z</time></trkpt><trkpt lat="41.3865353" lon="13.9692045"><ele>229.0</ele><time>2026-05-02T14:44:39.752Z</time></trkpt><trkpt lat="41.3866165" lon="13.9692453"><ele>227.0</ele><time>2026-05-02T14:44:40.753Z</time></trkpt><trkpt lat="41.3866935" lon="13.9692962"><ele>225.0</ele><time>2026-05-02T14:44:41.754Z</time></trkpt><trkpt lat="41.3867797" lon="13.9693572"><ele>223.0</ele><time>2026-05-02T14:44:42.753Z</time></trkpt><trkpt lat="41.3868705" lon="13.9694218"><ele>223.0</ele><time>2026-05-02T14:44:43.752Z</time></trkpt><trkpt lat="41.3869563" lon="13.9694868"><ele>223.0</ele><time>2026-05-02T14:44:44.751Z</time></trkpt><trkpt lat="41.3870393" lon="13.9695503"><ele>223.0</ele><time>2026-05-02T14:44:45.753Z</time></trkpt><trkpt lat="41.387126" lon="13.9696112"><ele>223.0</ele><time>2026-05-02T14:44:46.75Z</time></trkpt><trkpt lat="41.3872178" lon="13.9696828"><ele>223.0</ele><time>2026-05-02T14:44:47.751Z</time></trkpt><trkpt lat="41.3873142" lon="13.9697592"><ele>222.25</ele><time>2026-05-02T14:44:48.751Z</time></trkpt><trkpt lat="41.3874142" lon="13.9698433"><ele>221.5</ele><time>2026-05-02T14:44:49.753Z</time></trkpt><trkpt lat="41.3875173" lon="13.9699293"><ele>220.75</ele><time>2026-05-02T14:44:50.753Z</time></trkpt><trkpt lat="41.3876187" lon="13.9700145"><ele>220.0</ele><time>2026-05-02T14:44:51.755Z</time></trkpt><trkpt lat="41.3877143" lon="13.9700868"><ele>220.0</ele><time>2026-05-02T14:44:52.755Z</time></trkpt><trkpt lat="41.3878087" lon="13.9701502"><ele>220.0</ele><time>2026-05-02T14:44:53.75Z</time></trkpt><trkpt lat="41.3879028" lon="13.9702057"><ele>220.0</ele><time>2026-05-02T14:44:54.751Z</time></trkpt><trkpt lat="41.387996" lon="13.9702542"><ele>220.0</ele><time>2026-05-02T14:44:55.753Z</time></trkpt><trkpt lat="41.3881047" lon="13.9702988"><ele>220.0</ele><time>2026-05-02T14:44:56.749Z</time></trkpt><trkpt lat="41.3882233" lon="13.9703415"><ele>221.0</ele><time>2026-05-02T14:44:57.751Z</time></trkpt><trkpt lat="41.3883455" lon="13.9703927"><ele>222.0</ele><time>2026-05-02T14:44:58.751Z</time></trkpt><trkpt lat="41.388471" lon="13.970445"><ele>223.0</ele><time>2026-05-02T14:44:59.748Z</time></trkpt><trkpt lat="41.388597" lon="13.9704945"><ele>224.0</ele><time>2026-05-02T14:45:00.748Z</time></trkpt><trkpt lat="41.3887212" lon="13.9705368"><ele>223.75</ele><time>2026-05-02T14:45:01.75Z</time></trkpt><trkpt lat="41.3888447" lon="13.9705677"><ele>223.5</ele><time>2026-05-02T14:45:02.746Z</time></trkpt><trkpt lat="41.3889725" lon="13.9705898"><ele>223.25</ele><time>2026-05-02T14:45:03.748Z</time></trkpt><trkpt lat="41.3891035" lon="13.9705993"><ele>223.0</ele><time>2026-05-02T14:45:04.752Z</time></trkpt><trkpt lat="41.389233" lon="13.9705902"><ele>223.0</ele><time>2026-05-02T14:45:05.751Z</time></trkpt><trkpt lat="41.3893688" lon="13.9705682"><ele>223.0</ele><time>2026-05-02T14:45:06.753Z</time></trkpt><trkpt lat="41.3895052" lon="13.9705405"><ele>223.0</ele><time>2026-05-02T14:45:07.752Z</time></trkpt><trkpt lat="41.3896363" lon="13.9705135"><ele>223.0</ele><time>2026-05-02T14:45:08.751Z</time></trkpt><trkpt lat="41.389766" lon="13.9704868"><ele>220.25</ele><time>2026-05-02T14:45:09.754Z</time></trkpt><trkpt lat="41.3898872" lon="13.9704457"><ele>217.5</ele><time>2026-05-02T14:45:10.753Z</time></trkpt><trkpt lat="41.390002" lon="13.9703788"><ele>214.75</ele><time>2026-05-02T14:45:11.754Z</time></trkpt><trkpt lat="41.3901112" lon="13.9702992"><ele>212.0</ele><time>2026-05-02T14:45:12.751Z</time></trkpt><trkpt lat="41.3902095" lon="13.9702203"><ele>212.00000000000003</ele><time>2026-05-02T14:45:13.752Z</time></trkpt><trkpt lat="41.390296" lon="13.970152"><ele>212.0</ele><time>2026-05-02T14:45:14.75Z</time></trkpt><trkpt lat="41.3903762" lon="13.9701083"><ele>212.0</ele><time>2026-05-02T14:45:15.75Z</time></trkpt><trkpt lat="41.3904468" lon="13.9700963"><ele>212.0</ele><time>2026-05-02T14:45:16.755Z</time></trkpt><trkpt lat="41.390518" lon="13.9701165"><ele>212.00000000000003</ele><time>2026-05-02T14:45:17.752Z</time></trkpt><trkpt lat="41.3905937" lon="13.9701857"><ele>212.0</ele><time>2026-05-02T14:45:18.752Z</time></trkpt><trkpt lat="41.3906767" lon="13.9702695"><ele>209.8</ele><time>2026-05-02T14:45:19.75Z</time></trkpt><trkpt lat="41.3907692" lon="13.9703323"><ele>207.6</ele><time>2026-05-02T14:45:20.753Z</time></trkpt><trkpt lat="41.3908675" lon="13.9703597"><ele>205.4</ele><time>2026-05-02T14:45:21.753Z</time></trkpt><trkpt lat="41.3909782" lon="13.9703473"><ele>203.20000000000002</ele><time>2026-05-02T14:45:22.753Z</time></trkpt><trkpt lat="41.3910952" lon="13.9702977"><ele>201.0</ele><time>2026-05-02T14:45:23.752Z</time></trkpt><trkpt lat="41.3912138" lon="13.970232"><ele>201.0</ele><time>2026-05-02T14:45:24.748Z</time></trkpt><trkpt lat="41.3913402" lon="13.970163"><ele>201.0</ele><time>2026-05-02T14:45:25.75Z</time></trkpt><trkpt lat="41.3914705" lon="13.9700945"><ele>201.0</ele><time>2026-05-02T14:45:26.749Z</time></trkpt><trkpt lat="41.3915918" lon="13.9700353"><ele>201.0</ele><time>2026-05-02T14:45:27.751Z</time></trkpt><trkpt lat="41.391698" lon="13.9699948"><ele>201.75</ele><time>2026-05-02T14:45:28.751Z</time></trkpt><trkpt lat="41.391798" lon="13.9699803"><ele>202.5</ele><time>2026-05-02T14:45:29.749Z</time></trkpt><trkpt lat="41.3919137" lon="13.9699818"><ele>203.25</ele><time>2026-05-02T14:45:30.75Z</time></trkpt><trkpt lat="41.3920382" lon="13.9699867"><ele>204.0</ele><time>2026-05-02T14:45:31.751Z</time></trkpt><trkpt lat="41.3921588" lon="13.969992"><ele>201.79999999999998</ele><time>2026-05-02T14:45:32.752Z</time></trkpt><trkpt lat="41.3922747" lon="13.9699927"><ele>199.6</ele><time>2026-05-02T14:45:33.752Z</time></trkpt><trkpt lat="41.3923788" lon="13.969991"><ele>197.4</ele><time>2026-05-02T14:45:34.751Z</time></trkpt><trkpt lat="41.3924785" lon="13.9700027"><ele>195.2</ele><time>2026-05-02T14:45:35.751Z</time></trkpt><trkpt lat="41.3925725" lon="13.970046"><ele>193.0</ele><time>2026-05-02T14:45:36.751Z</time></trkpt><trkpt lat="41.3926607" lon="13.970112"><ele>191.0</ele><time>2026-05-02T14:45:37.752Z</time></trkpt><trkpt lat="41.3927557" lon="13.9701808"><ele>189.0</ele><time>2026-05-02T14:45:38.752Z</time></trkpt><trkpt lat="41.3928568" lon="13.9702345"><ele>187.0</ele><time>2026-05-02T14:45:39.75Z</time></trkpt><trkpt lat="41.3929617" lon="13.9702597"><ele>185.0</ele><time>2026-05-02T14:45:40.75Z</time></trkpt><trkpt lat="41.3930783" lon="13.9702688"><ele>183.0</ele><time>2026-05-02T14:45:41.751Z</time></trkpt><trkpt lat="41.3932075" lon="13.970272"><ele>180.5</ele><time>2026-05-02T14:45:42.752Z</time></trkpt><trkpt lat="41.3933468" lon="13.9702778"><ele>178.0</ele><time>2026-05-02T14:45:43.754Z</time></trkpt><trkpt lat="41.3934955" lon="13.970286"><ele>175.5</ele><time>2026-05-02T14:45:44.751Z</time></trkpt><trkpt lat="41.3936513" lon="13.9702932"><ele>173.0</ele><time>2026-05-02T14:45:45.751Z</time></trkpt><trkpt lat="41.3938082" lon="13.970297"><ele>169.66666666666666</ele><time>2026-05-02T14:45:46.75Z</time></trkpt><trkpt lat="41.3939595" lon="13.9703012"><ele>166.33333333333334</ele><time>2026-05-02T14:45:47.749Z</time></trkpt><trkpt lat="41.3941097" lon="13.9703067"><ele>163.0</ele><time>2026-05-02T14:45:48.749Z</time></trkpt><trkpt lat="41.3942603" lon="13.9703155"><ele>163.0</ele><time>2026-05-02T14:45:49.75Z</time></trkpt><trkpt lat="41.3944098" lon="13.970323"><ele>163.0</ele><time>2026-05-02T14:45:50.747Z</time></trkpt><trkpt lat="41.394558" lon="13.9703292"><ele>163.0</ele><time>2026-05-02T14:45:51.749Z</time></trkpt><trkpt lat="41.3947083" lon="13.9703358"><ele>163.0</ele><time>2026-05-02T14:45:52.751Z</time></trkpt><trkpt lat="41.3948602" lon="13.9703415"><ele>160.75</ele><time>2026-05-02T14:45:53.75Z</time></trkpt><trkpt lat="41.3950095" lon="13.9703488"><ele>158.5</ele><time>2026-05-02T14:45:54.75Z</time></trkpt><trkpt lat="41.3951513" lon="13.9703568"><ele>156.25</ele><time>2026-05-02T14:45:55.751Z</time></trkpt><trkpt lat="41.3952865" lon="13.970362"><ele>154.0</ele><time>2026-05-02T14:45:56.751Z</time></trkpt><trkpt lat="41.3954112" lon="13.970367"><ele>153.2</ele><time>2026-05-02T14:45:57.75Z</time></trkpt><trkpt lat="41.3955208" lon="13.9703733"><ele>152.4</ele><time>2026-05-02T14:45:58.752Z</time></trkpt><trkpt lat="41.3956252" lon="13.970389"><ele>151.6</ele><time>2026-05-02T14:45:59.752Z</time></trkpt><trkpt lat="41.3957155" lon="13.9704237"><ele>150.8</ele><time>2026-05-02T14:46:00.749Z</time></trkpt><trkpt lat="41.395797" lon="13.9704902"><ele>150.0</ele><time>2026-05-02T14:46:01.749Z</time></trkpt><trkpt lat="41.395883" lon="13.9705833"><ele>150.0</ele><time>2026-05-02T14:46:02.747Z</time></trkpt><trkpt lat="41.3959748" lon="13.970696"><ele>150.0</ele><time>2026-05-02T14:46:03.751Z</time></trkpt><trkpt lat="41.3960612" lon="13.970801"><ele>150.0</ele><time>2026-05-02T14:46:04.75Z</time></trkpt><trkpt lat="41.396137" lon="13.9708828"><ele>150.0</ele><time>2026-05-02T14:46:05.751Z</time></trkpt><trkpt lat="41.3962162" lon="13.970954"><ele>150.0</ele><time>2026-05-02T14:46:06.748Z</time></trkpt><trkpt lat="41.3963055" lon="13.9710167"><ele>148.0</ele><time>2026-05-02T14:46:07.746Z</time></trkpt><trkpt lat="41.396413" lon="13.9710682"><ele>146.0</ele><time>2026-05-02T14:46:08.75Z</time></trkpt><trkpt lat="41.3965317" lon="13.9711037"><ele>144.0</ele><time>2026-05-02T14:46:09.751Z</time></trkpt><trkpt lat="41.396651" lon="13.9711215"><ele>142.0</ele><time>2026-05-02T14:46:10.751Z</time></trkpt><trkpt lat="41.3967618" lon="13.9711057"><ele>142.0</ele><time>2026-05-02T14:46:11.756Z</time></trkpt><trkpt lat="41.3968648" lon="13.9710608"><ele>142.0</ele><time>2026-05-02T14:46:12.75Z</time></trkpt><trkpt lat="41.3969665" lon="13.970988"><ele>142.0</ele><time>2026-05-02T14:46:13.749Z</time></trkpt><trkpt lat="41.3970517" lon="13.9708965"><ele>142.0</ele><time>2026-05-02T14:46:14.749Z</time></trkpt><trkpt lat="41.3971208" lon="13.97082"><ele>142.0</ele><time>2026-05-02T14:46:15.75Z</time></trkpt><trkpt lat="41.3971752" lon="13.970771"><ele>142.0</ele><time>2026-05-02T14:46:16.748Z</time></trkpt><trkpt lat="41.397293" lon="13.9708275"><ele>142.0</ele><time>2026-05-02T14:46:18.75Z</time></trkpt><trkpt lat="41.3973542" lon="13.9709185"><ele>142.0</ele><time>2026-05-02T14:46:19.751Z</time></trkpt><trkpt lat="41.3974288" lon="13.9710262"><ele>142.0</ele><time>2026-05-02T14:46:20.752Z</time></trkpt><trkpt lat="41.3975263" lon="13.97113"><ele>142.0</ele><time>2026-05-02T14:46:21.751Z</time></trkpt><trkpt lat="41.3976385" lon="13.9712287"><ele>142.0</ele><time>2026-05-02T14:46:22.753Z</time></trkpt><trkpt lat="41.3977393" lon="13.9713327"><ele>142.0</ele><time>2026-05-02T14:46:23.755Z</time></trkpt><trkpt lat="41.3978298" lon="13.971444"><ele>142.0</ele><time>2026-05-02T14:46:24.751Z</time></trkpt><trkpt lat="41.3979142" lon="13.971554"><ele>142.0</ele><time>2026-05-02T14:46:25.75Z</time></trkpt><trkpt lat="41.3980022" lon="13.9716448"><ele>142.0</ele><time>2026-05-02T14:46:26.75Z</time></trkpt><trkpt lat="41.3980998" lon="13.971719"><ele>142.0</ele><time>2026-05-02T14:46:27.75Z</time></trkpt><trkpt lat="41.3982095" lon="13.971779"><ele>142.0</ele><time>2026-05-02T14:46:28.757Z</time></trkpt><trkpt lat="41.3983237" lon="13.9718315"><ele>141.2</ele><time>2026-05-02T14:46:29.753Z</time></trkpt><trkpt lat="41.3984175" lon="13.9718817"><ele>140.39999999999998</ele><time>2026-05-02T14:46:30.752Z</time></trkpt><trkpt lat="41.3984973" lon="13.9719567"><ele>139.60000000000002</ele><time>2026-05-02T14:46:31.751Z</time></trkpt><trkpt lat="41.398568" lon="13.9720643"><ele>138.8</ele><time>2026-05-02T14:46:32.751Z</time></trkpt><trkpt lat="41.3986247" lon="13.9722043"><ele>138.0</ele><time>2026-05-02T14:46:33.753Z</time></trkpt><trkpt lat="41.3986867" lon="13.9723623"><ele>138.0</ele><time>2026-05-02T14:46:34.752Z</time></trkpt><trkpt lat="41.3987575" lon="13.9725143"><ele>138.0</ele><time>2026-05-02T14:46:35.752Z</time></trkpt><trkpt lat="41.3988362" lon="13.9726657"><ele>138.0</ele><time>2026-05-02T14:46:36.751Z</time></trkpt><trkpt lat="41.3989168" lon="13.9728013"><ele>138.0</ele><time>2026-05-02T14:46:37.752Z</time></trkpt><trkpt lat="41.399001" lon="13.9729202"><ele>137.25</ele><time>2026-05-02T14:46:38.752Z</time></trkpt><trkpt lat="41.3990903" lon="13.9730218"><ele>136.5</ele><time>2026-05-02T14:46:39.752Z</time></trkpt><trkpt lat="41.39918" lon="13.9731247"><ele>135.75</ele><time>2026-05-02T14:46:40.751Z</time></trkpt><trkpt lat="41.399261" lon="13.973252"><ele>135.0</ele><time>2026-05-02T14:46:41.751Z</time></trkpt><trkpt lat="41.3993385" lon="13.9734093"><ele>134.0</ele><time>2026-05-02T14:46:42.754Z</time></trkpt><trkpt lat="41.3994182" lon="13.973578"><ele>133.0</ele><time>2026-05-02T14:46:43.755Z</time></trkpt><trkpt lat="41.3995043" lon="13.9737472"><ele>132.0</ele><time>2026-05-02T14:46:44.754Z</time></trkpt><trkpt lat="41.3995903" lon="13.9739107"><ele>131.75</ele><time>2026-05-02T14:46:45.752Z</time></trkpt><trkpt lat="41.3996683" lon="13.9740587"><ele>131.5</ele><time>2026-05-02T14:46:46.753Z</time></trkpt><trkpt lat="41.3997385" lon="13.974188"><ele>131.25</ele><time>2026-05-02T14:46:47.751Z</time></trkpt><trkpt lat="41.3998065" lon="13.9742967"><ele>131.0</ele><time>2026-05-02T14:46:48.752Z</time></trkpt><trkpt lat="41.3998768" lon="13.9743715"><ele>131.0</ele><time>2026-05-02T14:46:49.752Z</time></trkpt><trkpt lat="41.3999565" lon="13.9743993"><ele>131.0</ele><time>2026-05-02T14:46:50.751Z</time></trkpt><trkpt lat="41.4000535" lon="13.9743885"><ele>131.0</ele><time>2026-05-02T14:46:51.75Z</time></trkpt><trkpt lat="41.400167" lon="13.9743457"><ele>131.0</ele><time>2026-05-02T14:46:52.753Z</time></trkpt><trkpt lat="41.4002885" lon="13.9742795"><ele>131.0</ele><time>2026-05-02T14:46:53.752Z</time></trkpt><trkpt lat="41.4004125" lon="13.9742005"><ele>131.33333333333331</ele><time>2026-05-02T14:46:54.755Z</time></trkpt><trkpt lat="41.4005363" lon="13.9741058"><ele>131.66666666666666</ele><time>2026-05-02T14:46:55.751Z</time></trkpt><trkpt lat="41.4006522" lon="13.9739845"><ele>132.0</ele><time>2026-05-02T14:46:56.751Z</time></trkpt><trkpt lat="41.4007673" lon="13.9738242"><ele>132.0</ele><time>2026-05-02T14:46:57.755Z</time></trkpt><trkpt lat="41.4008848" lon="13.9736268"><ele>132.0</ele><time>2026-05-02T14:46:58.756Z</time></trkpt><trkpt lat="41.4010032" lon="13.9734138"><ele>132.0</ele><time>2026-05-02T14:46:59.755Z</time></trkpt><trkpt lat="41.4011218" lon="13.9732043"><ele>132.33333333333334</ele><time>2026-05-02T14:47:00.752Z</time></trkpt><trkpt lat="41.4012452" lon="13.9729942"><ele>132.66666666666669</ele><time>2026-05-02T14:47:01.751Z</time></trkpt><trkpt lat="41.4013675" lon="13.9727895"><ele>133.0</ele><time>2026-05-02T14:47:02.753Z</time></trkpt><trkpt lat="41.4014918" lon="13.972586"><ele>133.33333333333334</ele><time>2026-05-02T14:47:03.753Z</time></trkpt><trkpt lat="41.4016063" lon="13.9723958"><ele>133.66666666666666</ele><time>2026-05-02T14:47:04.753Z</time></trkpt><trkpt lat="41.4017143" lon="13.9722103"><ele>134.0</ele><time>2026-05-02T14:47:05.752Z</time></trkpt><trkpt lat="41.4018232" lon="13.9720173"><ele>134.0</ele><time>2026-05-02T14:47:06.754Z</time></trkpt><trkpt lat="41.4019378" lon="13.9718157"><ele>134.0</ele><time>2026-05-02T14:47:07.752Z</time></trkpt><trkpt lat="41.402057" lon="13.9716085"><ele>134.0</ele><time>2026-05-02T14:47:08.755Z</time></trkpt><trkpt lat="41.4021782" lon="13.9713952"><ele>134.33333333333331</ele><time>2026-05-02T14:47:09.752Z</time></trkpt><trkpt lat="41.4022978" lon="13.9711728"><ele>134.66666666666666</ele><time>2026-05-02T14:47:10.754Z</time></trkpt><trkpt lat="41.4024112" lon="13.9709382"><ele>135.0</ele><time>2026-05-02T14:47:11.754Z</time></trkpt><trkpt lat="41.4025202" lon="13.9706957"><ele>135.66666666666666</ele><time>2026-05-02T14:47:12.752Z</time></trkpt><trkpt lat="41.4026263" lon="13.9704562"><ele>136.33333333333331</ele><time>2026-05-02T14:47:13.751Z</time></trkpt><trkpt lat="41.4027292" lon="13.9702412"><ele>137.0</ele><time>2026-05-02T14:47:14.752Z</time></trkpt><trkpt lat="41.4028363" lon="13.9700605"><ele>136.5</ele><time>2026-05-02T14:47:15.751Z</time></trkpt><trkpt lat="41.4029558" lon="13.9699255"><ele>136.0</ele><time>2026-05-02T14:47:16.752Z</time></trkpt><trkpt lat="41.4030845" lon="13.9698343"><ele>135.5</ele><time>2026-05-02T14:47:17.753Z</time></trkpt><trkpt lat="41.4032175" lon="13.969784"><ele>135.0</ele><time>2026-05-02T14:47:18.753Z</time></trkpt><trkpt lat="41.403324" lon="13.9697482"><ele>135.0</ele><time>2026-05-02T14:47:19.753Z</time></trkpt><trkpt lat="41.4033898" lon="13.9697213"><ele>135.0</ele><time>2026-05-02T14:47:20.753Z</time></trkpt><trkpt lat="41.403461" lon="13.9696415"><ele>135.0</ele><time>2026-05-02T14:47:23.753Z</time></trkpt><trkpt lat="41.4034732" lon="13.9694957"><ele>135.0</ele><time>2026-05-02T14:47:25.75Z</time></trkpt><trkpt lat="41.4034733" lon="13.969373"><ele>135.0</ele><time>2026-05-02T14:47:26.75Z</time></trkpt><trkpt lat="41.403471" lon="13.9692128"><ele>139.5</ele><time>2026-05-02T14:47:27.752Z</time></trkpt><trkpt lat="41.4034665" lon="13.9690287"><ele>144.0</ele><time>2026-05-02T14:47:28.751Z</time></trkpt><trkpt lat="41.4034613" lon="13.9688477"><ele>148.5</ele><time>2026-05-02T14:47:29.748Z</time></trkpt><trkpt lat="41.4034558" lon="13.9686528"><ele>153.0</ele><time>2026-05-02T14:47:30.748Z</time></trkpt><trkpt lat="41.403452" lon="13.9684493"><ele>154.5</ele><time>2026-05-02T14:47:31.75Z</time></trkpt><trkpt lat="41.4034503" lon="13.9682503"><ele>156.0</ele><time>2026-05-02T14:47:32.751Z</time></trkpt><trkpt lat="41.4034533" lon="13.9680513"><ele>157.5</ele><time>2026-05-02T14:47:33.755Z</time></trkpt><trkpt lat="41.4034558" lon="13.9678522"><ele>159.0</ele><time>2026-05-02T14:47:34.754Z</time></trkpt><trkpt lat="41.4034472" lon="13.9676517"><ele>159.25</ele><time>2026-05-02T14:47:35.751Z</time></trkpt><trkpt lat="41.4034248" lon="13.9674548"><ele>159.5</ele><time>2026-05-02T14:47:36.75Z</time></trkpt><trkpt lat="41.4033915" lon="13.9672657"><ele>159.75</ele><time>2026-05-02T14:47:37.753Z</time></trkpt><trkpt lat="41.4033487" lon="13.9670845"><ele>160.0</ele><time>2026-05-02T14:47:38.752Z</time></trkpt><trkpt lat="41.4032948" lon="13.9669098"><ele>160.0</ele><time>2026-05-02T14:47:39.752Z</time></trkpt><trkpt lat="41.4032343" lon="13.9667413"><ele>160.0</ele><time>2026-05-02T14:47:40.753Z</time></trkpt><trkpt lat="41.403171" lon="13.9665765"><ele>160.0</ele><time>2026-05-02T14:47:41.749Z</time></trkpt><trkpt lat="41.4031083" lon="13.9664107"><ele>160.0</ele><time>2026-05-02T14:47:42.75Z</time></trkpt><trkpt lat="41.403043" lon="13.9662388"><ele>165.0</ele><time>2026-05-02T14:47:43.754Z</time></trkpt><trkpt lat="41.4029765" lon="13.966062"><ele>170.0</ele><time>2026-05-02T14:47:44.753Z</time></trkpt><trkpt lat="41.4029143" lon="13.9658682"><ele>175.0</ele><time>2026-05-02T14:47:45.752Z</time></trkpt><trkpt lat="41.4028603" lon="13.9656533"><ele>175.0</ele><time>2026-05-02T14:47:46.752Z</time></trkpt><trkpt lat="41.4028113" lon="13.965436"><ele>175.0</ele><time>2026-05-02T14:47:47.748Z</time></trkpt><trkpt lat="41.4027658" lon="13.9652192"><ele>175.0</ele><time>2026-05-02T14:47:48.75Z</time></trkpt><trkpt lat="41.4027418" lon="13.9650153"><ele>172.75</ele><time>2026-05-02T14:47:49.749Z</time></trkpt><trkpt lat="41.4027357" lon="13.9648183"><ele>170.5</ele><time>2026-05-02T14:47:50.748Z</time></trkpt><trkpt lat="41.4027433" lon="13.9646218"><ele>168.25</ele><time>2026-05-02T14:47:51.749Z</time></trkpt><trkpt lat="41.402757" lon="13.9644242"><ele>166.0</ele><time>2026-05-02T14:47:52.751Z</time></trkpt><trkpt lat="41.4027702" lon="13.9642285"><ele>169.25</ele><time>2026-05-02T14:47:53.749Z</time></trkpt><trkpt lat="41.4027887" lon="13.964037"><ele>172.5</ele><time>2026-05-02T14:47:54.747Z</time></trkpt><trkpt lat="41.4028033" lon="13.9638452"><ele>175.75</ele><time>2026-05-02T14:47:55.752Z</time></trkpt><trkpt lat="41.4028127" lon="13.9636552"><ele>179.0</ele><time>2026-05-02T14:47:56.752Z</time></trkpt><trkpt lat="41.4028128" lon="13.9634678"><ele>183.66666666666666</ele><time>2026-05-02T14:47:57.752Z</time></trkpt><trkpt lat="41.4027915" lon="13.9632737"><ele>188.33333333333331</ele><time>2026-05-02T14:47:58.75Z</time></trkpt><trkpt lat="41.402748" lon="13.9630722"><ele>193.0</ele><time>2026-05-02T14:47:59.748Z</time></trkpt><trkpt lat="41.4026898" lon="13.962854"><ele>193.0</ele><time>2026-05-02T14:48:00.748Z</time></trkpt><trkpt lat="41.402627" lon="13.9626243"><ele>193.0</ele><time>2026-05-02T14:48:01.75Z</time></trkpt><trkpt lat="41.4025823" lon="13.9623933"><ele>193.0</ele><time>2026-05-02T14:48:02.748Z</time></trkpt><trkpt lat="41.4025638" lon="13.9621748"><ele>194.0</ele><time>2026-05-02T14:48:03.749Z</time></trkpt><trkpt lat="41.4025533" lon="13.961976"><ele>195.0</ele><time>2026-05-02T14:48:04.75Z</time></trkpt><trkpt lat="41.4025533" lon="13.9618007"><ele>196.0</ele><time>2026-05-02T14:48:05.75Z</time></trkpt><trkpt lat="41.4025625" lon="13.9616238"><ele>197.0</ele><time>2026-05-02T14:48:06.751Z</time></trkpt><trkpt lat="41.4025847" lon="13.9614403"><ele>199.33333333333334</ele><time>2026-05-02T14:48:07.748Z</time></trkpt><trkpt lat="41.4026125" lon="13.9612452"><ele>201.66666666666669</ele><time>2026-05-02T14:48:08.749Z</time></trkpt><trkpt lat="41.4026495" lon="13.9610505"><ele>204.0</ele><time>2026-05-02T14:48:09.75Z</time></trkpt><trkpt lat="41.4026933" lon="13.9608448"><ele>208.66666666666669</ele><time>2026-05-02T14:48:10.75Z</time></trkpt><trkpt lat="41.4027473" lon="13.9606325"><ele>213.33333333333334</ele><time>2026-05-02T14:48:11.749Z</time></trkpt><trkpt lat="41.4028025" lon="13.9604198"><ele>218.0</ele><time>2026-05-02T14:48:12.75Z</time></trkpt><trkpt lat="41.4028698" lon="13.9602225"><ele>222.66666666666669</ele><time>2026-05-02T14:48:13.751Z</time></trkpt><trkpt lat="41.4029437" lon="13.9600283"><ele>227.33333333333331</ele><time>2026-05-02T14:48:14.751Z</time></trkpt><trkpt lat="41.4030123" lon="13.9598392"><ele>232.0</ele><time>2026-05-02T14:48:15.748Z</time></trkpt><trkpt lat="41.4030757" lon="13.9596443"><ele>223.66666666666666</ele><time>2026-05-02T14:48:16.748Z</time></trkpt><trkpt lat="41.4031372" lon="13.9594452"><ele>215.33333333333331</ele><time>2026-05-02T14:48:17.753Z</time></trkpt><trkpt lat="41.4031928" lon="13.9592443"><ele>207.0</ele><time>2026-05-02T14:48:18.75Z</time></trkpt><trkpt lat="41.4032377" lon="13.9590393"><ele>207.0</ele><time>2026-05-02T14:48:19.752Z</time></trkpt><trkpt lat="41.4032745" lon="13.958826"><ele>207.0</ele><time>2026-05-02T14:48:20.752Z</time></trkpt><trkpt lat="41.4033037" lon="13.9586117"><ele>207.0</ele><time>2026-05-02T14:48:21.743Z</time></trkpt><trkpt lat="41.403325" lon="13.958401"><ele>210.0</ele><time>2026-05-02T14:48:22.753Z</time></trkpt><trkpt lat="41.4033413" lon="13.9581858"><ele>213.0</ele><time>2026-05-02T14:48:23.751Z</time></trkpt><trkpt lat="41.4033533" lon="13.9579717"><ele>216.0</ele><time>2026-05-02T14:48:24.751Z</time></trkpt><trkpt lat="41.4033608" lon="13.9577485"><ele>220.0</ele><time>2026-05-02T14:48:25.751Z</time></trkpt><trkpt lat="41.4033692" lon="13.9575232"><ele>224.0</ele><time>2026-05-02T14:48:26.752Z</time></trkpt><trkpt lat="41.4033787" lon="13.957298"><ele>228.0</ele><time>2026-05-02T14:48:27.752Z</time></trkpt><trkpt lat="41.4033903" lon="13.9570678"><ele>228.0</ele><time>2026-05-02T14:48:28.751Z</time></trkpt><trkpt lat="41.403411" lon="13.9568333"><ele>228.0</ele><time>2026-05-02T14:48:29.748Z</time></trkpt><trkpt lat="41.4034427" lon="13.9565982"><ele>228.0</ele><time>2026-05-02T14:48:30.749Z</time></trkpt><trkpt lat="41.403484" lon="13.9563647"><ele>232.33333333333331</ele><time>2026-05-02T14:48:31.75Z</time></trkpt><trkpt lat="41.4035318" lon="13.956135"><ele>236.66666666666666</ele><time>2026-05-02T14:48:32.753Z</time></trkpt><trkpt lat="41.4035793" lon="13.9559125"><ele>241.0</ele><time>2026-05-02T14:48:33.748Z</time></trkpt><trkpt lat="41.4036275" lon="13.9556965"><ele>245.66666666666666</ele><time>2026-05-02T14:48:34.75Z</time></trkpt><trkpt lat="41.4036773" lon="13.9554893"><ele>250.33333333333331</ele><time>2026-05-02T14:48:35.748Z</time></trkpt><trkpt lat="41.4037275" lon="13.9552883"><ele>255.0</ele><time>2026-05-02T14:48:36.747Z</time></trkpt><trkpt lat="41.403754" lon="13.9550823"><ele>256.0</ele><time>2026-05-02T14:48:37.747Z</time></trkpt><trkpt lat="41.4037645" lon="13.9548775"><ele>257.0</ele><time>2026-05-02T14:48:38.747Z</time></trkpt><trkpt lat="41.4037618" lon="13.9546808"><ele>258.0</ele><time>2026-05-02T14:48:39.75Z</time></trkpt><trkpt lat="41.403739" lon="13.9544872"><ele>259.0</ele><time>2026-05-02T14:48:40.751Z</time></trkpt><trkpt lat="41.4036973" lon="13.9542818"><ele>261.3333333333333</ele><time>2026-05-02T14:48:41.747Z</time></trkpt><trkpt lat="41.4036442" lon="13.9540685"><ele>263.6666666666667</ele><time>2026-05-02T14:48:42.747Z</time></trkpt><trkpt lat="41.4035872" lon="13.953845"><ele>266.0</ele><time>2026-05-02T14:48:43.751Z</time></trkpt><trkpt lat="41.4035298" lon="13.9536203"><ele>266.0</ele><time>2026-05-02T14:48:44.751Z</time></trkpt><trkpt lat="41.4034775" lon="13.953405"><ele>266.0</ele><time>2026-05-02T14:48:45.752Z</time></trkpt><trkpt lat="41.4034228" lon="13.9531973"><ele>266.0</ele><time>2026-05-02T14:48:46.751Z</time></trkpt><trkpt lat="41.4033685" lon="13.9529922"><ele>267.0</ele><time>2026-05-02T14:48:47.749Z</time></trkpt><trkpt lat="41.403313" lon="13.9527795"><ele>268.0</ele><time>2026-05-02T14:48:48.748Z</time></trkpt><trkpt lat="41.4032615" lon="13.952563"><ele>269.0</ele><time>2026-05-02T14:48:49.749Z</time></trkpt><trkpt lat="41.4032097" lon="13.9523565"><ele>270.0</ele><time>2026-05-02T14:48:50.749Z</time></trkpt><trkpt lat="41.4031662" lon="13.9521477"><ele>271.0</ele><time>2026-05-02T14:48:51.747Z</time></trkpt><trkpt lat="41.4031123" lon="13.9519318"><ele>272.0</ele><time>2026-05-02T14:48:52.749Z</time></trkpt><trkpt lat="41.4030775" lon="13.9517088"><ele>272.0</ele><time>2026-05-02T14:48:53.749Z</time></trkpt><trkpt lat="41.4030482" lon="13.9514775"><ele>272.0</ele><time>2026-05-02T14:48:54.749Z</time></trkpt><trkpt lat="41.4030237" lon="13.9512423"><ele>272.0</ele><time>2026-05-02T14:48:55.751Z</time></trkpt><trkpt lat="41.4030053" lon="13.9510088"><ele>278.25</ele><time>2026-05-02T14:48:56.748Z</time></trkpt><trkpt lat="41.4029863" lon="13.9508003"><ele>284.5</ele><time>2026-05-02T14:48:57.751Z</time></trkpt><trkpt lat="41.4029558" lon="13.95061"><ele>290.75</ele><time>2026-05-02T14:48:58.748Z</time></trkpt><trkpt lat="41.4029155" lon="13.9504483"><ele>297.0</ele><time>2026-05-02T14:48:59.749Z</time></trkpt><trkpt lat="41.4028617" lon="13.9503138"><ele>297.0</ele><time>2026-05-02T14:49:00.749Z</time></trkpt><trkpt lat="41.4027865" lon="13.9502348"><ele>297.0</ele><time>2026-05-02T14:49:01.749Z</time></trkpt><trkpt lat="41.4027033" lon="13.950219"><ele>297.0</ele><time>2026-05-02T14:49:02.75Z</time></trkpt><trkpt lat="41.4026328" lon="13.9502623"><ele>297.0</ele><time>2026-05-02T14:49:03.751Z</time></trkpt><trkpt lat="41.4025698" lon="13.950347"><ele>297.0</ele><time>2026-05-02T14:49:04.749Z</time></trkpt><trkpt lat="41.4025125" lon="13.9504712"><ele>297.0</ele><time>2026-05-02T14:49:05.748Z</time></trkpt><trkpt lat="41.4024535" lon="13.9506263"><ele>297.0</ele><time>2026-05-02T14:49:06.746Z</time></trkpt><trkpt lat="41.4023913" lon="13.950802"><ele>297.0</ele><time>2026-05-02T14:49:07.746Z</time></trkpt><trkpt lat="41.4023173" lon="13.9509932"><ele>297.0</ele><time>2026-05-02T14:49:08.75Z</time></trkpt><trkpt lat="41.402239" lon="13.9512015"><ele>304.3333333333333</ele><time>2026-05-02T14:49:09.748Z</time></trkpt><trkpt lat="41.4021567" lon="13.9514297"><ele>311.66666666666663</ele><time>2026-05-02T14:49:10.749Z</time></trkpt><trkpt lat="41.402065" lon="13.9516793"><ele>319.0</ele><time>2026-05-02T14:49:11.749Z</time></trkpt><trkpt lat="41.401969" lon="13.9519528"><ele>319.0</ele><time>2026-05-02T14:49:12.748Z</time></trkpt><trkpt lat="41.401871" lon="13.9522373"><ele>319.0</ele><time>2026-05-02T14:49:13.749Z</time></trkpt><trkpt lat="41.4017782" lon="13.9524992"><ele>318.3333333333333</ele><time>2026-05-02T14:49:14.747Z</time></trkpt><trkpt lat="41.4016948" lon="13.9527385"><ele>317.6666666666667</ele><time>2026-05-02T14:49:15.75Z</time></trkpt><trkpt lat="41.4016137" lon="13.9529685"><ele>317.0</ele><time>2026-05-02T14:49:16.75Z</time></trkpt><trkpt lat="41.4015285" lon="13.9532002"><ele>313.6666666666667</ele><time>2026-05-02T14:49:17.749Z</time></trkpt><trkpt lat="41.40144" lon="13.9534328"><ele>310.3333333333333</ele><time>2026-05-02T14:49:18.748Z</time></trkpt><trkpt lat="41.4013482" lon="13.9536625"><ele>307.0</ele><time>2026-05-02T14:49:19.746Z</time></trkpt><trkpt lat="41.4012552" lon="13.9538912"><ele>314.66666666666663</ele><time>2026-05-02T14:49:20.747Z</time></trkpt><trkpt lat="41.4011637" lon="13.9541172"><ele>322.3333333333333</ele><time>2026-05-02T14:49:21.747Z</time></trkpt><trkpt lat="41.4010768" lon="13.9543395"><ele>330.0</ele><time>2026-05-02T14:49:22.752Z</time></trkpt><trkpt lat="41.4009923" lon="13.9545535"><ele>330.0</ele><time>2026-05-02T14:49:23.75Z</time></trkpt><trkpt lat="41.4009122" lon="13.9547627"><ele>330.0</ele><time>2026-05-02T14:49:24.749Z</time></trkpt><trkpt lat="41.4008342" lon="13.9549642"><ele>330.0</ele><time>2026-05-02T14:49:25.749Z</time></trkpt><trkpt lat="41.4007637" lon="13.9551482"><ele>330.0</ele><time>2026-05-02T14:49:26.753Z</time></trkpt><trkpt lat="41.4007058" lon="13.9553072"><ele>330.0</ele><time>2026-05-02T14:49:27.751Z</time></trkpt><trkpt lat="41.4006593" lon="13.9554392"><ele>330.0</ele><time>2026-05-02T14:49:28.751Z</time></trkpt><trkpt lat="41.4006193" lon="13.9555538"><ele>330.0</ele><time>2026-05-02T14:49:29.75Z</time></trkpt><trkpt lat="41.4005838" lon="13.9556498"><ele>330.0</ele><time>2026-05-02T14:49:30.746Z</time></trkpt><trkpt lat="41.400548" lon="13.955738"><ele>330.0</ele><time>2026-05-02T14:49:31.749Z</time></trkpt><trkpt lat="41.400511" lon="13.9558255"><ele>330.0</ele><time>2026-05-02T14:49:32.748Z</time></trkpt><trkpt lat="41.4004782" lon="13.955912"><ele>330.0</ele><time>2026-05-02T14:49:33.753Z</time></trkpt><trkpt lat="41.4004437" lon="13.9560063"><ele>330.0</ele><time>2026-05-02T14:49:34.751Z</time></trkpt><trkpt lat="41.4004062" lon="13.9561062"><ele>330.0</ele><time>2026-05-02T14:49:35.75Z</time></trkpt><trkpt lat="41.4003737" lon="13.9562103"><ele>330.0</ele><time>2026-05-02T14:49:36.749Z</time></trkpt><trkpt lat="41.4003363" lon="13.9563132"><ele>334.6666666666667</ele><time>2026-05-02T14:49:37.75Z</time></trkpt><trkpt lat="41.4003013" lon="13.956419"><ele>339.3333333333333</ele><time>2026-05-02T14:49:38.75Z</time></trkpt><trkpt lat="41.4002663" lon="13.9565247"><ele>344.0</ele><time>2026-05-02T14:49:39.749Z</time></trkpt><trkpt lat="41.4002288" lon="13.9566307"><ele>348.66666666666663</ele><time>2026-05-02T14:49:40.748Z</time></trkpt><trkpt lat="41.4001903" lon="13.9567353"><ele>353.3333333333333</ele><time>2026-05-02T14:49:41.748Z</time></trkpt><trkpt lat="41.4001433" lon="13.9568345"><ele>358.0</ele><time>2026-05-02T14:49:42.751Z</time></trkpt><trkpt lat="41.4001003" lon="13.9569333"><ele>358.16666666666663</ele><time>2026-05-02T14:49:43.751Z</time></trkpt><trkpt lat="41.400061" lon="13.9570345"><ele>358.3333333333333</ele><time>2026-05-02T14:49:44.752Z</time></trkpt><trkpt lat="41.400023" lon="13.957135"><ele>358.5</ele><time>2026-05-02T14:49:45.749Z</time></trkpt><trkpt lat="41.399972" lon="13.9572268"><ele>358.6666666666667</ele><time>2026-05-02T14:49:46.752Z</time></trkpt><trkpt lat="41.3999023" lon="13.9572893"><ele>358.83333333333337</ele><time>2026-05-02T14:49:47.751Z</time></trkpt><trkpt lat="41.3998372" lon="13.9573163"><ele>359.0</ele><time>2026-05-02T14:49:48.752Z</time></trkpt><trkpt lat="41.39974" lon="13.9572398"><ele>359.0</ele><time>2026-05-02T14:49:50.747Z</time></trkpt><trkpt lat="41.3997285" lon="13.9571273"><ele>359.0</ele><time>2026-05-02T14:49:51.748Z</time></trkpt><trkpt lat="41.399734" lon="13.9569978"><ele>359.0</ele><time>2026-05-02T14:49:52.748Z</time></trkpt><trkpt lat="41.399741" lon="13.95686"><ele>359.0</ele><time>2026-05-02T14:49:53.748Z</time></trkpt><trkpt lat="41.3997562" lon="13.9567143"><ele>359.0</ele><time>2026-05-02T14:49:54.747Z</time></trkpt><trkpt lat="41.3997673" lon="13.956582"><ele>358.79999999999995</ele><time>2026-05-02T14:49:55.748Z</time></trkpt><trkpt lat="41.3997675" lon="13.9564505"><ele>358.59999999999997</ele><time>2026-05-02T14:49:56.745Z</time></trkpt><trkpt lat="41.3997712" lon="13.956324"><ele>358.4</ele><time>2026-05-02T14:49:57.746Z</time></trkpt><trkpt lat="41.3997678" lon="13.9561955"><ele>358.2</ele><time>2026-05-02T14:49:58.748Z</time></trkpt><trkpt lat="41.3997603" lon="13.9560717"><ele>358.0</ele><time>2026-05-02T14:49:59.75Z</time></trkpt><trkpt lat="41.3997487" lon="13.955955"><ele>358.2</ele><time>2026-05-02T14:50:00.752Z</time></trkpt><trkpt lat="41.399751" lon="13.9558347"><ele>358.4</ele><time>2026-05-02T14:50:01.751Z</time></trkpt><trkpt lat="41.3997562" lon="13.9557133"><ele>358.59999999999997</ele><time>2026-05-02T14:50:02.751Z</time></trkpt><trkpt lat="41.399762" lon="13.95559"><ele>358.79999999999995</ele><time>2026-05-02T14:50:03.747Z</time></trkpt><trkpt lat="41.399768" lon="13.9554677"><ele>359.0</ele><time>2026-05-02T14:50:04.75Z</time></trkpt><trkpt lat="41.399777" lon="13.9553468"><ele>359.0</ele><time>2026-05-02T14:50:05.75Z</time></trkpt><trkpt lat="41.3997842" lon="13.9552268"><ele>359.0</ele><time>2026-05-02T14:50:06.75Z</time></trkpt><trkpt lat="41.3997932" lon="13.9551068"><ele>359.0</ele><time>2026-05-02T14:50:07.748Z</time></trkpt><trkpt lat="41.3998042" lon="13.9549848"><ele>359.0</ele><time>2026-05-02T14:50:08.748Z</time></trkpt><trkpt lat="41.3998287" lon="13.9548707"><ele>359.0</ele><time>2026-05-02T14:50:09.748Z</time></trkpt><trkpt lat="41.3998505" lon="13.9547625"><ele>359.0</ele><time>2026-05-02T14:50:10.756Z</time></trkpt><trkpt lat="41.3998658" lon="13.954635"><ele>359.79999999999995</ele><time>2026-05-02T14:50:11.752Z</time></trkpt><trkpt lat="41.399873" lon="13.9544945"><ele>360.59999999999997</ele><time>2026-05-02T14:50:12.75Z</time></trkpt><trkpt lat="41.3998732" lon="13.9543428"><ele>361.4</ele><time>2026-05-02T14:50:13.748Z</time></trkpt><trkpt lat="41.3998728" lon="13.9541887"><ele>362.2</ele><time>2026-05-02T14:50:14.748Z</time></trkpt><trkpt lat="41.399873" lon="13.9540383"><ele>363.0</ele><time>2026-05-02T14:50:15.748Z</time></trkpt><trkpt lat="41.399871" lon="13.9538968"><ele>364.75</ele><time>2026-05-02T14:50:16.748Z</time></trkpt><trkpt lat="41.399866" lon="13.9537513"><ele>366.5</ele><time>2026-05-02T14:50:17.748Z</time></trkpt><trkpt lat="41.3998612" lon="13.9535987"><ele>368.25</ele><time>2026-05-02T14:50:18.745Z</time></trkpt><trkpt lat="41.3998652" lon="13.953443"><ele>370.0</ele><time>2026-05-02T14:50:19.746Z</time></trkpt><trkpt lat="41.399873" lon="13.953292"><ele>370.25</ele><time>2026-05-02T14:50:20.744Z</time></trkpt><trkpt lat="41.3998692" lon="13.9531508"><ele>370.5</ele><time>2026-05-02T14:50:21.746Z</time></trkpt><trkpt lat="41.3998673" lon="13.9530073"><ele>370.75</ele><time>2026-05-02T14:50:22.75Z</time></trkpt><trkpt lat="41.3998582" lon="13.9528498"><ele>371.0</ele><time>2026-05-02T14:50:23.748Z</time></trkpt><trkpt lat="41.3998628" lon="13.952692"><ele>371.25</ele><time>2026-05-02T14:50:24.745Z</time></trkpt><trkpt lat="41.3998667" lon="13.9525345"><ele>371.5</ele><time>2026-05-02T14:50:25.747Z</time></trkpt><trkpt lat="41.3998727" lon="13.9523802"><ele>371.75</ele><time>2026-05-02T14:50:26.749Z</time></trkpt><trkpt lat="41.3998792" lon="13.9522312"><ele>372.0</ele><time>2026-05-02T14:50:27.749Z</time></trkpt><trkpt lat="41.3998832" lon="13.9520808"><ele>372.0</ele><time>2026-05-02T14:50:28.748Z</time></trkpt><trkpt lat="41.3998958" lon="13.9519373"><ele>372.0</ele><time>2026-05-02T14:50:29.751Z</time></trkpt><trkpt lat="41.3998998" lon="13.951792"><ele>372.0</ele><time>2026-05-02T14:50:30.746Z</time></trkpt><trkpt lat="41.399906" lon="13.9516468"><ele>372.0</ele><time>2026-05-02T14:50:31.747Z</time></trkpt><trkpt lat="41.3999095" lon="13.95151"><ele>372.0</ele><time>2026-05-02T14:50:32.748Z</time></trkpt><trkpt lat="41.399902" lon="13.951389"><ele>373.20000000000005</ele><time>2026-05-02T14:50:33.746Z</time></trkpt><trkpt lat="41.3998618" lon="13.9513075"><ele>374.4</ele><time>2026-05-02T14:50:34.75Z</time></trkpt><trkpt lat="41.3997597" lon="13.9512585"><ele>375.6</ele><time>2026-05-02T14:50:36.75Z</time></trkpt><trkpt lat="41.39969" lon="13.9512977"><ele>376.79999999999995</ele><time>2026-05-02T14:50:37.748Z</time></trkpt><trkpt lat="41.3996162" lon="13.951372"><ele>378.0</ele><time>2026-05-02T14:50:38.748Z</time></trkpt><trkpt lat="41.3995517" lon="13.9514838"><ele>385.0</ele><time>2026-05-02T14:50:39.751Z</time></trkpt><trkpt lat="41.399495" lon="13.95162"><ele>392.0</ele><time>2026-05-02T14:50:40.754Z</time></trkpt><trkpt lat="41.3994323" lon="13.9517627"><ele>399.0</ele><time>2026-05-02T14:50:41.751Z</time></trkpt><trkpt lat="41.3993672" lon="13.9519088"><ele>406.0</ele><time>2026-05-02T14:50:42.75Z</time></trkpt><trkpt lat="41.3993055" lon="13.9520508"><ele>406.0</ele><time>2026-05-02T14:50:43.748Z</time></trkpt><trkpt lat="41.3992475" lon="13.9521915"><ele>406.0</ele><time>2026-05-02T14:50:44.749Z</time></trkpt><trkpt lat="41.3991902" lon="13.9523375"><ele>406.0</ele><time>2026-05-02T14:50:45.748Z</time></trkpt><trkpt lat="41.399128" lon="13.95248"><ele>406.0</ele><time>2026-05-02T14:50:46.75Z</time></trkpt><trkpt lat="41.3990702" lon="13.9526257"><ele>405.0</ele><time>2026-05-02T14:50:47.748Z</time></trkpt><trkpt lat="41.3990138" lon="13.952767"><ele>404.0</ele><time>2026-05-02T14:50:48.748Z</time></trkpt><trkpt lat="41.3989598" lon="13.9529037"><ele>403.0</ele><time>2026-05-02T14:50:49.748Z</time></trkpt><trkpt lat="41.3989038" lon="13.9530327"><ele>402.0</ele><time>2026-05-02T14:50:50.749Z</time></trkpt><trkpt lat="41.398853" lon="13.9531645"><ele>407.5</ele><time>2026-05-02T14:50:51.749Z</time></trkpt><trkpt lat="41.3988038" lon="13.9532927"><ele>413.0</ele><time>2026-05-02T14:50:52.751Z</time></trkpt><trkpt lat="41.3987558" lon="13.953415"><ele>418.5</ele><time>2026-05-02T14:50:53.747Z</time></trkpt><trkpt lat="41.398701" lon="13.9535127"><ele>424.0</ele><time>2026-05-02T14:50:54.749Z</time></trkpt><trkpt lat="41.3986415" lon="13.953572"><ele>429.5</ele><time>2026-05-02T14:50:55.747Z</time></trkpt><trkpt lat="41.3985783" lon="13.9535957"><ele>435.0</ele><time>2026-05-02T14:50:56.749Z</time></trkpt><trkpt lat="41.39851" lon="13.9535777"><ele>435.0</ele><time>2026-05-02T14:50:57.75Z</time></trkpt><trkpt lat="41.3984493" lon="13.9535353"><ele>435.0</ele><time>2026-05-02T14:50:58.751Z</time></trkpt><trkpt lat="41.398395" lon="13.9534543"><ele>435.0</ele><time>2026-05-02T14:50:59.747Z</time></trkpt><trkpt lat="41.3983858" lon="13.9533395"><ele>435.0</ele><time>2026-05-02T14:51:00.748Z</time></trkpt><trkpt lat="41.3983837" lon="13.9532312"><ele>435.0</ele><time>2026-05-02T14:51:01.748Z</time></trkpt><trkpt lat="41.3983882" lon="13.9531167"><ele>435.0</ele><time>2026-05-02T14:51:02.748Z</time></trkpt><trkpt lat="41.3983867" lon="13.9529955"><ele>435.0</ele><time>2026-05-02T14:51:03.749Z</time></trkpt><trkpt lat="41.3983837" lon="13.9528667"><ele>435.0</ele><time>2026-05-02T14:51:04.747Z</time></trkpt><trkpt lat="41.3983818" lon="13.9527258"><ele>435.0</ele><time>2026-05-02T14:51:05.749Z</time></trkpt><trkpt lat="41.3983865" lon="13.9526012"><ele>435.0</ele><time>2026-05-02T14:51:06.75Z</time></trkpt><trkpt lat="41.3983907" lon="13.9524873"><ele>435.0</ele><time>2026-05-02T14:51:07.749Z</time></trkpt><trkpt lat="41.3983983" lon="13.952359"><ele>436.6</ele><time>2026-05-02T14:51:08.748Z</time></trkpt><trkpt lat="41.3983925" lon="13.9522215"><ele>438.2</ele><time>2026-05-02T14:51:09.746Z</time></trkpt><trkpt lat="41.3983922" lon="13.9520828"><ele>439.79999999999995</ele><time>2026-05-02T14:51:10.745Z</time></trkpt><trkpt lat="41.3983927" lon="13.9519405"><ele>441.4</ele><time>2026-05-02T14:51:11.748Z</time></trkpt><trkpt lat="41.3983887" lon="13.9517982"><ele>443.0</ele><time>2026-05-02T14:51:12.748Z</time></trkpt><trkpt lat="41.3983965" lon="13.9516537"><ele>444.25</ele><time>2026-05-02T14:51:13.749Z</time></trkpt><trkpt lat="41.3984093" lon="13.9515117"><ele>445.5</ele><time>2026-05-02T14:51:14.749Z</time></trkpt><trkpt lat="41.3984323" lon="13.951366"><ele>446.75</ele><time>2026-05-02T14:51:15.749Z</time></trkpt><trkpt lat="41.3984645" lon="13.951219"><ele>448.0</ele><time>2026-05-02T14:51:16.749Z</time></trkpt><trkpt lat="41.3985158" lon="13.9510767"><ele>448.0</ele><time>2026-05-02T14:51:17.747Z</time></trkpt><trkpt lat="41.398578" lon="13.9509433"><ele>448.0</ele><time>2026-05-02T14:51:18.748Z</time></trkpt><trkpt lat="41.3986493" lon="13.9508133"><ele>448.0</ele><time>2026-05-02T14:51:19.748Z</time></trkpt><trkpt lat="41.3987168" lon="13.950682"><ele>448.0</ele><time>2026-05-02T14:51:20.747Z</time></trkpt><trkpt lat="41.3987845" lon="13.9505465"><ele>449.5</ele><time>2026-05-02T14:51:21.75Z</time></trkpt><trkpt lat="41.3988545" lon="13.950405"><ele>451.0</ele><time>2026-05-02T14:51:22.751Z</time></trkpt><trkpt lat="41.3989275" lon="13.9502608"><ele>452.5</ele><time>2026-05-02T14:51:23.751Z</time></trkpt><trkpt lat="41.3989983" lon="13.950112"><ele>454.0</ele><time>2026-05-02T14:51:24.749Z</time></trkpt><trkpt lat="41.3990592" lon="13.9499502"><ele>454.0</ele><time>2026-05-02T14:51:25.75Z</time></trkpt><trkpt lat="41.399102" lon="13.9497772"><ele>454.0</ele><time>2026-05-02T14:51:26.749Z</time></trkpt><trkpt lat="41.3991402" lon="13.9495997"><ele>454.0</ele><time>2026-05-02T14:51:27.75Z</time></trkpt><trkpt lat="41.3991793" lon="13.9494238"><ele>454.0</ele><time>2026-05-02T14:51:28.749Z</time></trkpt><trkpt lat="41.399219" lon="13.9492468"><ele>459.75</ele><time>2026-05-02T14:51:29.747Z</time></trkpt><trkpt lat="41.3992558" lon="13.94907"><ele>465.5</ele><time>2026-05-02T14:51:30.748Z</time></trkpt><trkpt lat="41.3992902" lon="13.9488975"><ele>471.25</ele><time>2026-05-02T14:51:31.749Z</time></trkpt><trkpt lat="41.3993235" lon="13.948732"><ele>477.0</ele><time>2026-05-02T14:51:32.747Z</time></trkpt><trkpt lat="41.3993542" lon="13.9485688"><ele>477.0</ele><time>2026-05-02T14:51:33.747Z</time></trkpt><trkpt lat="41.3993888" lon="13.9484078"><ele>477.0</ele><time>2026-05-02T14:51:34.748Z</time></trkpt><trkpt lat="41.3994307" lon="13.9482527"><ele>477.0</ele><time>2026-05-02T14:51:35.748Z</time></trkpt><trkpt lat="41.399483" lon="13.9481035"><ele>477.0</ele><time>2026-05-02T14:51:36.749Z</time></trkpt><trkpt lat="41.3995505" lon="13.947974"><ele>472.5</ele><time>2026-05-02T14:51:37.749Z</time></trkpt><trkpt lat="41.3996428" lon="13.9478748"><ele>468.0</ele><time>2026-05-02T14:51:38.749Z</time></trkpt><trkpt lat="41.3997473" lon="13.9478055"><ele>463.5</ele><time>2026-05-02T14:51:39.748Z</time></trkpt><trkpt lat="41.3998638" lon="13.9477537"><ele>459.0</ele><time>2026-05-02T14:51:40.75Z</time></trkpt><trkpt lat="41.3999933" lon="13.9476993"><ele>459.0</ele><time>2026-05-02T14:51:41.749Z</time></trkpt><trkpt lat="41.400119" lon="13.9476197"><ele>459.0</ele><time>2026-05-02T14:51:42.751Z</time></trkpt><trkpt lat="41.4002377" lon="13.9475172"><ele>459.0</ele><time>2026-05-02T14:51:43.75Z</time></trkpt><trkpt lat="41.4003445" lon="13.9474007"><ele>459.0</ele><time>2026-05-02T14:51:44.75Z</time></trkpt><trkpt lat="41.4004497" lon="13.9472725"><ele>460.0</ele><time>2026-05-02T14:51:45.748Z</time></trkpt><trkpt lat="41.4005485" lon="13.9471413"><ele>461.0</ele><time>2026-05-02T14:51:46.75Z</time></trkpt><trkpt lat="41.4006443" lon="13.9470087"><ele>462.0</ele><time>2026-05-02T14:51:47.747Z</time></trkpt><trkpt lat="41.4007297" lon="13.9468755"><ele>463.0</ele><time>2026-05-02T14:51:48.747Z</time></trkpt><trkpt lat="41.400812" lon="13.946744"><ele>471.0</ele><time>2026-05-02T14:51:49.747Z</time></trkpt><trkpt lat="41.4008975" lon="13.9466123"><ele>479.0</ele><time>2026-05-02T14:51:50.746Z</time></trkpt><trkpt lat="41.4009762" lon="13.9464752"><ele>487.0</ele><time>2026-05-02T14:51:51.748Z</time></trkpt><trkpt lat="41.4010493" lon="13.9463353"><ele>495.0</ele><time>2026-05-02T14:51:52.749Z</time></trkpt><trkpt lat="41.4011213" lon="13.9461918"><ele>495.0</ele><time>2026-05-02T14:51:53.747Z</time></trkpt><trkpt lat="41.401198" lon="13.9460437"><ele>495.0</ele><time>2026-05-02T14:51:54.748Z</time></trkpt><trkpt lat="41.4012732" lon="13.9458933"><ele>495.0</ele><time>2026-05-02T14:51:55.747Z</time></trkpt><trkpt lat="41.4013472" lon="13.9457377"><ele>495.0</ele><time>2026-05-02T14:51:56.747Z</time></trkpt><trkpt lat="41.4014133" lon="13.9455775"><ele>492.0</ele><time>2026-05-02T14:51:57.746Z</time></trkpt><trkpt lat="41.4014793" lon="13.9454117"><ele>489.0</ele><time>2026-05-02T14:51:58.746Z</time></trkpt><trkpt lat="41.4015423" lon="13.9452385"><ele>486.0</ele><time>2026-05-02T14:51:59.745Z</time></trkpt><trkpt lat="41.4015987" lon="13.9450563"><ele>483.0</ele><time>2026-05-02T14:52:00.749Z</time></trkpt><trkpt lat="41.4016493" lon="13.944869"><ele>489.0</ele><time>2026-05-02T14:52:01.752Z</time></trkpt><trkpt lat="41.4016983" lon="13.9446898"><ele>495.0</ele><time>2026-05-02T14:52:02.748Z</time></trkpt><trkpt lat="41.4017503" lon="13.944514"><ele>501.0</ele><time>2026-05-02T14:52:03.747Z</time></trkpt><trkpt lat="41.4018043" lon="13.9443452"><ele>507.0</ele><time>2026-05-02T14:52:04.748Z</time></trkpt><trkpt lat="41.4018848" lon="13.944179"><ele>510.75</ele><time>2026-05-02T14:52:05.75Z</time></trkpt><trkpt lat="41.4019627" lon="13.9440123"><ele>514.5</ele><time>2026-05-02T14:52:06.749Z</time></trkpt><trkpt lat="41.4020335" lon="13.9438342"><ele>518.25</ele><time>2026-05-02T14:52:07.748Z</time></trkpt><trkpt lat="41.4020902" lon="13.9436477"><ele>522.0</ele><time>2026-05-02T14:52:08.749Z</time></trkpt><trkpt lat="41.4021447" lon="13.94346"><ele>512.6666666666666</ele><time>2026-05-02T14:52:09.749Z</time></trkpt><trkpt lat="41.402202" lon="13.9432717"><ele>503.3333333333333</ele><time>2026-05-02T14:52:10.748Z</time></trkpt><trkpt lat="41.4022648" lon="13.9430843"><ele>494.0</ele><time>2026-05-02T14:52:11.749Z</time></trkpt><trkpt lat="41.4023213" lon="13.9428938"><ele>494.0</ele><time>2026-05-02T14:52:12.749Z</time></trkpt><trkpt lat="41.4023798" lon="13.9427018"><ele>494.0</ele><time>2026-05-02T14:52:13.748Z</time></trkpt><trkpt lat="41.4024393" lon="13.9425087"><ele>494.0</ele><time>2026-05-02T14:52:14.749Z</time></trkpt><trkpt lat="41.4024963" lon="13.9423137"><ele>500.3333333333333</ele><time>2026-05-02T14:52:15.749Z</time></trkpt><trkpt lat="41.4025555" lon="13.9421178"><ele>506.66666666666663</ele><time>2026-05-02T14:52:16.748Z</time></trkpt><trkpt lat="41.4026178" lon="13.9419238"><ele>513.0</ele><time>2026-05-02T14:52:17.749Z</time></trkpt><trkpt lat="41.4026775" lon="13.9417343"><ele>517.0</ele><time>2026-05-02T14:52:18.748Z</time></trkpt><trkpt lat="41.4027285" lon="13.9415407"><ele>521.0</ele><time>2026-05-02T14:52:19.75Z</time></trkpt><trkpt lat="41.4027592" lon="13.9413452"><ele>525.0</ele><time>2026-05-02T14:52:20.748Z</time></trkpt><trkpt lat="41.4027755" lon="13.941138"><ele>525.0</ele><time>2026-05-02T14:52:21.749Z</time></trkpt><trkpt lat="41.402779" lon="13.9409255"><ele>525.0</ele><time>2026-05-02T14:52:22.748Z</time></trkpt><trkpt lat="41.4027792" lon="13.940707"><ele>525.0</ele><time>2026-05-02T14:52:23.747Z</time></trkpt><trkpt lat="41.4027765" lon="13.9405007"><ele>525.6666666666666</ele><time>2026-05-02T14:52:24.747Z</time></trkpt><trkpt lat="41.4027717" lon="13.9402965"><ele>526.3333333333333</ele><time>2026-05-02T14:52:25.748Z</time></trkpt><trkpt lat="41.4027748" lon="13.9400902"><ele>527.0</ele><time>2026-05-02T14:52:26.75Z</time></trkpt><trkpt lat="41.4027952" lon="13.939885"><ele>524.0</ele><time>2026-05-02T14:52:27.749Z</time></trkpt><trkpt lat="41.4028225" lon="13.939679"><ele>521.0</ele><time>2026-05-02T14:52:28.752Z</time></trkpt><trkpt lat="41.4028498" lon="13.9394693"><ele>518.0</ele><time>2026-05-02T14:52:29.749Z</time></trkpt><trkpt lat="41.4028835" lon="13.9392622"><ele>516.3333333333333</ele><time>2026-05-02T14:52:30.748Z</time></trkpt><trkpt lat="41.4029143" lon="13.9390535"><ele>514.6666666666666</ele><time>2026-05-02T14:52:31.747Z</time></trkpt><trkpt lat="41.4029467" lon="13.9388483"><ele>513.0</ele><time>2026-05-02T14:52:32.747Z</time></trkpt><trkpt lat="41.4029777" lon="13.9386473"><ele>518.0</ele><time>2026-05-02T14:52:33.748Z</time></trkpt><trkpt lat="41.4030087" lon="13.9384477"><ele>523.0</ele><time>2026-05-02T14:52:34.75Z</time></trkpt><trkpt lat="41.4030368" lon="13.9382492"><ele>528.0</ele><time>2026-05-02T14:52:35.748Z</time></trkpt><trkpt lat="41.403069" lon="13.9380528"><ele>528.0</ele><time>2026-05-02T14:52:36.749Z</time></trkpt><trkpt lat="41.403101" lon="13.9378558"><ele>528.0</ele><time>2026-05-02T14:52:37.748Z</time></trkpt><trkpt lat="41.4031373" lon="13.9376578"><ele>528.0</ele><time>2026-05-02T14:52:38.748Z</time></trkpt><trkpt lat="41.4031638" lon="13.9374603"><ele>526.75</ele><time>2026-05-02T14:52:39.749Z</time></trkpt><trkpt lat="41.4031758" lon="13.9372623"><ele>525.5</ele><time>2026-05-02T14:52:40.748Z</time></trkpt><trkpt lat="41.4031635" lon="13.9370638"><ele>524.25</ele><time>2026-05-02T14:52:41.748Z</time></trkpt><trkpt lat="41.4031315" lon="13.9368675"><ele>523.0</ele><time>2026-05-02T14:52:42.748Z</time></trkpt><trkpt lat="41.4030852" lon="13.9366767"><ele>522.3333333333334</ele><time>2026-05-02T14:52:43.748Z</time></trkpt><trkpt lat="41.4030262" lon="13.9364908"><ele>521.6666666666666</ele><time>2026-05-02T14:52:44.747Z</time></trkpt><trkpt lat="41.4029582" lon="13.9363063"><ele>521.0</ele><time>2026-05-02T14:52:45.746Z</time></trkpt><trkpt lat="41.4028885" lon="13.9361255"><ele>518.5</ele><time>2026-05-02T14:52:46.746Z</time></trkpt><trkpt lat="41.4028173" lon="13.9359458"><ele>516.0</ele><time>2026-05-02T14:52:47.748Z</time></trkpt><trkpt lat="41.402747" lon="13.93577"><ele>513.5</ele><time>2026-05-02T14:52:48.747Z</time></trkpt><trkpt lat="41.4026707" lon="13.9356018"><ele>511.0</ele><time>2026-05-02T14:52:49.751Z</time></trkpt><trkpt lat="41.402586" lon="13.93544"><ele>511.0</ele><time>2026-05-02T14:52:50.751Z</time></trkpt><trkpt lat="41.4024937" lon="13.9352838"><ele>511.0</ele><time>2026-05-02T14:52:51.75Z</time></trkpt><trkpt lat="41.4023937" lon="13.9351385"><ele>511.0</ele><time>2026-05-02T14:52:52.751Z</time></trkpt><trkpt lat="41.4022898" lon="13.935003"><ele>511.0</ele><time>2026-05-02T14:52:53.749Z</time></trkpt><trkpt lat="41.4021795" lon="13.9348742"><ele>511.75</ele><time>2026-05-02T14:52:54.749Z</time></trkpt><trkpt lat="41.4020583" lon="13.9347572"><ele>512.5</ele><time>2026-05-02T14:52:55.75Z</time></trkpt><trkpt lat="41.40193" lon="13.9346597"><ele>513.25</ele><time>2026-05-02T14:52:56.749Z</time></trkpt><trkpt lat="41.4017977" lon="13.9345815"><ele>514.0</ele><time>2026-05-02T14:52:57.749Z</time></trkpt><trkpt lat="41.401669" lon="13.9345068"><ele>514.0</ele><time>2026-05-02T14:52:58.75Z</time></trkpt><trkpt lat="41.4015548" lon="13.9344355"><ele>514.0</ele><time>2026-05-02T14:52:59.75Z</time></trkpt><trkpt lat="41.4014518" lon="13.9343753"><ele>514.0</ele><time>2026-05-02T14:53:00.75Z</time></trkpt><trkpt lat="41.401352" lon="13.934328"><ele>514.0</ele><time>2026-05-02T14:53:01.75Z</time></trkpt><trkpt lat="41.4012512" lon="13.9342977"><ele>514.0</ele><time>2026-05-02T14:53:02.75Z</time></trkpt><trkpt lat="41.4011468" lon="13.9342893"><ele>515.8</ele><time>2026-05-02T14:53:03.75Z</time></trkpt><trkpt lat="41.4010443" lon="13.934292"><ele>517.5999999999999</ele><time>2026-05-02T14:53:04.751Z</time></trkpt><trkpt lat="41.4009393" lon="13.9343172"><ele>519.4</ele><time>2026-05-02T14:53:05.751Z</time></trkpt><trkpt lat="41.4008343" lon="13.9343737"><ele>521.1999999999999</ele><time>2026-05-02T14:53:06.75Z</time></trkpt><trkpt lat="41.4007335" lon="13.9344617"><ele>523.0</ele><time>2026-05-02T14:53:07.752Z</time></trkpt><trkpt lat="41.4006382" lon="13.9345692"><ele>523.0</ele><time>2026-05-02T14:53:08.752Z</time></trkpt><trkpt lat="41.4005503" lon="13.934678"><ele>523.0</ele><time>2026-05-02T14:53:09.749Z</time></trkpt><trkpt lat="41.4004608" lon="13.9347917"><ele>523.0</ele><time>2026-05-02T14:53:10.749Z</time></trkpt><trkpt lat="41.4003702" lon="13.9348967"><ele>523.0</ele><time>2026-05-02T14:53:11.747Z</time></trkpt><trkpt lat="41.400278" lon="13.9349757"><ele>523.0</ele><time>2026-05-02T14:53:12.747Z</time></trkpt><trkpt lat="41.4001843" lon="13.9350245"><ele>523.0</ele><time>2026-05-02T14:53:13.749Z</time></trkpt><trkpt lat="41.4000822" lon="13.9350498"><ele>523.0</ele><time>2026-05-02T14:53:14.75Z</time></trkpt><trkpt lat="41.399972" lon="13.9350597"><ele>523.0</ele><time>2026-05-02T14:53:15.749Z</time></trkpt><trkpt lat="41.3998657" lon="13.9350468"><ele>523.0</ele><time>2026-05-02T14:53:16.75Z</time></trkpt><trkpt lat="41.3997758" lon="13.9350005"><ele>523.0</ele><time>2026-05-02T14:53:17.748Z</time></trkpt><trkpt lat="41.3996885" lon="13.9349198"><ele>523.0</ele><time>2026-05-02T14:53:18.751Z</time></trkpt><trkpt lat="41.3996325" lon="13.9348042"><ele>523.0</ele><time>2026-05-02T14:53:19.749Z</time></trkpt><trkpt lat="41.3995997" lon="13.9346892"><ele>523.0</ele><time>2026-05-02T14:53:20.748Z</time></trkpt><trkpt lat="41.3996182" lon="13.9345723"><ele>523.0</ele><time>2026-05-02T14:53:21.748Z</time></trkpt><trkpt lat="41.3996535" lon="13.9344623"><ele>523.0</ele><time>2026-05-02T14:53:22.749Z</time></trkpt><trkpt lat="41.3997017" lon="13.9343508"><ele>523.0</ele><time>2026-05-02T14:53:23.748Z</time></trkpt><trkpt lat="41.3997552" lon="13.9342287"><ele>523.0</ele><time>2026-05-02T14:53:24.749Z</time></trkpt><trkpt lat="41.3998102" lon="13.934104"><ele>523.0</ele><time>2026-05-02T14:53:25.748Z</time></trkpt><trkpt lat="41.3998698" lon="13.9339757"><ele>523.0</ele><time>2026-05-02T14:53:26.748Z</time></trkpt><trkpt lat="41.3999223" lon="13.9338312"><ele>523.6</ele><time>2026-05-02T14:53:27.749Z</time></trkpt><trkpt lat="41.3999772" lon="13.9336935"><ele>524.1999999999999</ele><time>2026-05-02T14:53:28.75Z</time></trkpt><trkpt lat="41.4000322" lon="13.9335753"><ele>524.8</ele><time>2026-05-02T14:53:29.749Z</time></trkpt><trkpt lat="41.4000542" lon="13.9334607"><ele>525.4</ele><time>2026-05-02T14:53:30.749Z</time></trkpt><trkpt lat="41.4000288" lon="13.9333162"><ele>526.0</ele><time>2026-05-02T14:53:31.749Z</time></trkpt><trkpt lat="41.3999853" lon="13.9331818"><ele>526.8333333333334</ele><time>2026-05-02T14:53:32.749Z</time></trkpt><trkpt lat="41.3999195" lon="13.9330838"><ele>527.6666666666667</ele><time>2026-05-02T14:53:33.749Z</time></trkpt><trkpt lat="41.3998503" lon="13.9330323"><ele>528.5</ele><time>2026-05-02T14:53:34.748Z</time></trkpt><trkpt lat="41.399782" lon="13.933027"><ele>529.3333333333334</ele><time>2026-05-02T14:53:35.746Z</time></trkpt><trkpt lat="41.3997115" lon="13.9330737"><ele>530.1666666666666</ele><time>2026-05-02T14:53:36.745Z</time></trkpt><trkpt lat="41.3996417" lon="13.93315"><ele>531.0</ele><time>2026-05-02T14:53:37.746Z</time></trkpt><trkpt lat="41.3995585" lon="13.9332288"><ele>532.75</ele><time>2026-05-02T14:53:38.748Z</time></trkpt><trkpt lat="41.399461" lon="13.9333102"><ele>534.5</ele><time>2026-05-02T14:53:39.746Z</time></trkpt><trkpt lat="41.3993543" lon="13.93339"><ele>536.25</ele><time>2026-05-02T14:53:40.75Z</time></trkpt><trkpt lat="41.3992457" lon="13.9334533"><ele>538.0</ele><time>2026-05-02T14:53:41.749Z</time></trkpt><trkpt lat="41.3991373" lon="13.933479"><ele>538.0</ele><time>2026-05-02T14:53:42.749Z</time></trkpt><trkpt lat="41.3990395" lon="13.9334698"><ele>538.0</ele><time>2026-05-02T14:53:43.749Z</time></trkpt><trkpt lat="41.398945" lon="13.9334282"><ele>538.0</ele><time>2026-05-02T14:53:44.749Z</time></trkpt><trkpt lat="41.398859" lon="13.9333692"><ele>538.0</ele><time>2026-05-02T14:53:45.749Z</time></trkpt><trkpt lat="41.3987827" lon="13.9332958"><ele>538.0</ele><time>2026-05-02T14:53:46.748Z</time></trkpt><trkpt lat="41.3987152" lon="13.9332133"><ele>539.6</ele><time>2026-05-02T14:53:47.748Z</time></trkpt><trkpt lat="41.3986628" lon="13.9331152"><ele>541.1999999999999</ele><time>2026-05-02T14:53:48.748Z</time></trkpt><trkpt lat="41.3986188" lon="13.9330073"><ele>542.8</ele><time>2026-05-02T14:53:49.75Z</time></trkpt><trkpt lat="41.398586" lon="13.932895"><ele>544.4</ele><time>2026-05-02T14:53:50.747Z</time></trkpt><trkpt lat="41.398538" lon="13.9327648"><ele>546.0</ele><time>2026-05-02T14:53:51.748Z</time></trkpt><trkpt lat="41.3984983" lon="13.9326182"><ele>544.5</ele><time>2026-05-02T14:53:52.748Z</time></trkpt><trkpt lat="41.3984647" lon="13.9324563"><ele>543.0</ele><time>2026-05-02T14:53:53.749Z</time></trkpt><trkpt lat="41.3984298" lon="13.9322853"><ele>541.5</ele><time>2026-05-02T14:53:54.749Z</time></trkpt><trkpt lat="41.3983912" lon="13.9321098"><ele>540.0</ele><time>2026-05-02T14:53:55.748Z</time></trkpt><trkpt lat="41.3983382" lon="13.931931"><ele>540.0</ele><time>2026-05-02T14:53:56.748Z</time></trkpt><trkpt lat="41.398263" lon="13.9317648"><ele>540.0</ele><time>2026-05-02T14:53:57.748Z</time></trkpt><trkpt lat="41.3981643" lon="13.9316182"><ele>540.0</ele><time>2026-05-02T14:53:58.748Z</time></trkpt><trkpt lat="41.3980683" lon="13.931487"><ele>540.0</ele><time>2026-05-02T14:53:59.747Z</time></trkpt><trkpt lat="41.398002" lon="13.9313633"><ele>539.5</ele><time>2026-05-02T14:54:00.746Z</time></trkpt><trkpt lat="41.3979492" lon="13.9312268"><ele>539.0</ele><time>2026-05-02T14:54:01.748Z</time></trkpt><trkpt lat="41.3979115" lon="13.9310727"><ele>538.5</ele><time>2026-05-02T14:54:02.747Z</time></trkpt><trkpt lat="41.3978895" lon="13.9309035"><ele>538.0</ele><time>2026-05-02T14:54:03.748Z</time></trkpt><trkpt lat="41.3978682" lon="13.9307262"><ele>538.0</ele><time>2026-05-02T14:54:04.748Z</time></trkpt><trkpt lat="41.3978382" lon="13.930559"><ele>538.0</ele><time>2026-05-02T14:54:05.747Z</time></trkpt><trkpt lat="41.3978067" lon="13.9304203"><ele>538.0</ele><time>2026-05-02T14:54:06.747Z</time></trkpt><trkpt lat="41.3977833" lon="13.9303137"><ele>538.0</ele><time>2026-05-02T14:54:07.749Z</time></trkpt><trkpt lat="41.3977812" lon="13.9302278"><ele>538.0</ele><time>2026-05-02T14:54:08.748Z</time></trkpt><trkpt lat="41.3978617" lon="13.9301858"><ele>538.0</ele><time>2026-05-02T14:54:10.749Z</time></trkpt><trkpt lat="41.3979278" lon="13.9303058"><ele>538.0</ele><time>2026-05-02T14:54:12.749Z</time></trkpt><trkpt lat="41.3979597" lon="13.9303983"><ele>538.0</ele><time>2026-05-02T14:54:13.75Z</time></trkpt><trkpt lat="41.3980122" lon="13.9305025"><ele>538.0</ele><time>2026-05-02T14:54:14.75Z</time></trkpt><trkpt lat="41.3980818" lon="13.9306067"><ele>538.0</ele><time>2026-05-02T14:54:15.75Z</time></trkpt><trkpt lat="41.3981647" lon="13.9307045"><ele>532.1999999999999</ele><time>2026-05-02T14:54:16.749Z</time></trkpt><trkpt lat="41.3982647" lon="13.9307808"><ele>526.4</ele><time>2026-05-02T14:54:17.75Z</time></trkpt><trkpt lat="41.3983695" lon="13.9308173"><ele>520.5999999999999</ele><time>2026-05-02T14:54:18.75Z</time></trkpt><trkpt lat="41.3984578" lon="13.9308103"><ele>514.8</ele><time>2026-05-02T14:54:19.751Z</time></trkpt><trkpt lat="41.3985152" lon="13.9307663"><ele>509.0</ele><time>2026-05-02T14:54:20.75Z</time></trkpt><trkpt lat="41.3985267" lon="13.9306113"><ele>509.0</ele><time>2026-05-02T14:54:22.75Z</time></trkpt><trkpt lat="41.3984908" lon="13.9305203"><ele>509.0</ele><time>2026-05-02T14:54:23.748Z</time></trkpt><trkpt lat="41.3984473" lon="13.9304138"><ele>509.0</ele><time>2026-05-02T14:54:24.747Z</time></trkpt><trkpt lat="41.3984078" lon="13.9303"><ele>509.0</ele><time>2026-05-02T14:54:25.748Z</time></trkpt><trkpt lat="41.3983697" lon="13.9301627"><ele>509.0</ele><time>2026-05-02T14:54:26.746Z</time></trkpt><trkpt lat="41.3983412" lon="13.9300083"><ele>506.25</ele><time>2026-05-02T14:54:27.747Z</time></trkpt><trkpt lat="41.3983315" lon="13.9298405"><ele>503.5</ele><time>2026-05-02T14:54:28.749Z</time></trkpt><trkpt lat="41.3983375" lon="13.9296602"><ele>500.75</ele><time>2026-05-02T14:54:29.746Z</time></trkpt><trkpt lat="41.398352" lon="13.9294693"><ele>498.0</ele><time>2026-05-02T14:54:30.748Z</time></trkpt><trkpt lat="41.3983657" lon="13.9292708"><ele>495.33333333333337</ele><time>2026-05-02T14:54:31.749Z</time></trkpt><trkpt lat="41.3983735" lon="13.9290647"><ele>492.6666666666667</ele><time>2026-05-02T14:54:32.749Z</time></trkpt><trkpt lat="41.398376" lon="13.9288555"><ele>490.0</ele><time>2026-05-02T14:54:33.747Z</time></trkpt><trkpt lat="41.3983778" lon="13.9286485"><ele>490.0</ele><time>2026-05-02T14:54:34.75Z</time></trkpt><trkpt lat="41.3983782" lon="13.9284415"><ele>490.0</ele><time>2026-05-02T14:54:35.747Z</time></trkpt><trkpt lat="41.398379" lon="13.9282407"><ele>490.0</ele><time>2026-05-02T14:54:36.748Z</time></trkpt><trkpt lat="41.3983785" lon="13.9280455"><ele>487.6</ele><time>2026-05-02T14:54:37.75Z</time></trkpt><trkpt lat="41.3983777" lon="13.927877"><ele>485.2</ele><time>2026-05-02T14:54:38.749Z</time></trkpt><trkpt lat="41.3983808" lon="13.927732"><ele>482.79999999999995</ele><time>2026-05-02T14:54:39.75Z</time></trkpt><trkpt lat="41.3983897" lon="13.9276218"><ele>480.4</ele><time>2026-05-02T14:54:40.749Z</time></trkpt><trkpt lat="41.3984642" lon="13.9275232"><ele>478.0</ele><time>2026-05-02T14:54:42.748Z</time></trkpt><trkpt lat="41.3985663" lon="13.9276115"><ele>478.0</ele><time>2026-05-02T14:54:44.75Z</time></trkpt><trkpt lat="41.3986102" lon="13.9277103"><ele>477.99999999999994</ele><time>2026-05-02T14:54:45.748Z</time></trkpt><trkpt lat="41.3986638" lon="13.9278278"><ele>477.99999999999994</ele><time>2026-05-02T14:54:46.75Z</time></trkpt><trkpt lat="41.398734" lon="13.9279327"><ele>478.0</ele><time>2026-05-02T14:54:47.748Z</time></trkpt><trkpt lat="41.3988105" lon="13.9279962"><ele>478.0</ele><time>2026-05-02T14:54:48.747Z</time></trkpt><trkpt lat="41.3988778" lon="13.9279992"><ele>475.2</ele><time>2026-05-02T14:54:49.747Z</time></trkpt><trkpt lat="41.398943" lon="13.9279543"><ele>472.4</ele><time>2026-05-02T14:54:50.748Z</time></trkpt><trkpt lat="41.3989848" lon="13.9278668"><ele>469.59999999999997</ele><time>2026-05-02T14:54:51.749Z</time></trkpt><trkpt lat="41.3990057" lon="13.9277485"><ele>466.79999999999995</ele><time>2026-05-02T14:54:52.752Z</time></trkpt><trkpt lat="41.3990218" lon="13.9276057"><ele>464.0</ele><time>2026-05-02T14:54:53.749Z</time></trkpt><trkpt lat="41.399031" lon="13.927445"><ele>462.5</ele><time>2026-05-02T14:54:54.75Z</time></trkpt><trkpt lat="41.3990193" lon="13.927279"><ele>461.0</ele><time>2026-05-02T14:54:55.751Z</time></trkpt><trkpt lat="41.3989835" lon="13.9271222"><ele>459.5</ele><time>2026-05-02T14:54:56.75Z</time></trkpt><trkpt lat="41.398923" lon="13.926972"><ele>458.0</ele><time>2026-05-02T14:54:57.749Z</time></trkpt><trkpt lat="41.3988472" lon="13.9268187"><ele>458.0</ele><time>2026-05-02T14:54:58.751Z</time></trkpt><trkpt lat="41.3987612" lon="13.9266595"><ele>458.0</ele><time>2026-05-02T14:54:59.75Z</time></trkpt><trkpt lat="41.3986595" lon="13.9265048"><ele>458.0</ele><time>2026-05-02T14:55:00.75Z</time></trkpt><trkpt lat="41.3985457" lon="13.9263542"><ele>458.0</ele><time>2026-05-02T14:55:01.749Z</time></trkpt><trkpt lat="41.3984312" lon="13.9262098"><ele>458.0</ele><time>2026-05-02T14:55:02.749Z</time></trkpt><trkpt lat="41.3983175" lon="13.9260757"><ele>458.0</ele><time>2026-05-02T14:55:03.749Z</time></trkpt><trkpt lat="41.3982125" lon="13.9259358"><ele>458.75</ele><time>2026-05-02T14:55:04.75Z</time></trkpt><trkpt lat="41.3981172" lon="13.9257922"><ele>459.5</ele><time>2026-05-02T14:55:05.748Z</time></trkpt><trkpt lat="41.398036" lon="13.925643"><ele>460.25</ele><time>2026-05-02T14:55:06.749Z</time></trkpt><trkpt lat="41.3979725" lon="13.9254847"><ele>461.0</ele><time>2026-05-02T14:55:07.75Z</time></trkpt><trkpt lat="41.3979215" lon="13.92531"><ele>461.0</ele><time>2026-05-02T14:55:08.748Z</time></trkpt><trkpt lat="41.3978745" lon="13.9251183"><ele>461.0</ele><time>2026-05-02T14:55:09.749Z</time></trkpt><trkpt lat="41.3978288" lon="13.924913"><ele>461.0</ele><time>2026-05-02T14:55:10.751Z</time></trkpt><trkpt lat="41.3977842" lon="13.9247117"><ele>458.3333333333333</ele><time>2026-05-02T14:55:11.749Z</time></trkpt><trkpt lat="41.3977392" lon="13.9245203"><ele>455.66666666666663</ele><time>2026-05-02T14:55:12.749Z</time></trkpt><trkpt lat="41.3976872" lon="13.9243282"><ele>453.0</ele><time>2026-05-02T14:55:13.748Z</time></trkpt><trkpt lat="41.3976227" lon="13.9241305"><ele>449.33333333333337</ele><time>2026-05-02T14:55:14.747Z</time></trkpt><trkpt lat="41.3975478" lon="13.9239268"><ele>445.6666666666667</ele><time>2026-05-02T14:55:15.748Z</time></trkpt><trkpt lat="41.397477" lon="13.923714"><ele>442.0</ele><time>2026-05-02T14:55:16.751Z</time></trkpt><trkpt lat="41.3974047" lon="13.9234947"><ele>437.33333333333337</ele><time>2026-05-02T14:55:17.749Z</time></trkpt><trkpt lat="41.3973365" lon="13.9232857"><ele>432.66666666666663</ele><time>2026-05-02T14:55:18.75Z</time></trkpt><trkpt lat="41.397273" lon="13.9230858"><ele>428.0</ele><time>2026-05-02T14:55:19.749Z</time></trkpt><trkpt lat="41.3972187" lon="13.9228852"><ele>428.0</ele><time>2026-05-02T14:55:20.75Z</time></trkpt><trkpt lat="41.3971705" lon="13.9226782"><ele>428.0</ele><time>2026-05-02T14:55:21.747Z</time></trkpt><trkpt lat="41.3971278" lon="13.92247"><ele>428.0</ele><time>2026-05-02T14:55:22.749Z</time></trkpt><trkpt lat="41.3970932" lon="13.9222608"><ele>427.0</ele><time>2026-05-02T14:55:23.748Z</time></trkpt><trkpt lat="41.3970638" lon="13.922051"><ele>426.0</ele><time>2026-05-02T14:55:24.748Z</time></trkpt><trkpt lat="41.3970352" lon="13.9218397"><ele>425.0</ele><time>2026-05-02T14:55:25.749Z</time></trkpt><trkpt lat="41.3969987" lon="13.9216387"><ele>425.0</ele><time>2026-05-02T14:55:26.748Z</time></trkpt><trkpt lat="41.3969402" lon="13.9214512"><ele>425.0</ele><time>2026-05-02T14:55:27.749Z</time></trkpt><trkpt lat="41.3968523" lon="13.9212702"><ele>425.0</ele><time>2026-05-02T14:55:28.75Z</time></trkpt><trkpt lat="41.3967472" lon="13.9210907"><ele>425.0</ele><time>2026-05-02T14:55:29.748Z</time></trkpt><trkpt lat="41.3966355" lon="13.9209098"><ele>425.0</ele><time>2026-05-02T14:55:30.748Z</time></trkpt><trkpt lat="41.3965348" lon="13.9207298"><ele>425.0</ele><time>2026-05-02T14:55:31.749Z</time></trkpt><trkpt lat="41.3964428" lon="13.9205513"><ele>425.66666666666663</ele><time>2026-05-02T14:55:32.749Z</time></trkpt><trkpt lat="41.3963543" lon="13.9203717"><ele>426.33333333333337</ele><time>2026-05-02T14:55:33.748Z</time></trkpt><trkpt lat="41.3962757" lon="13.9201908"><ele>427.0</ele><time>2026-05-02T14:55:34.75Z</time></trkpt><trkpt lat="41.3962053" lon="13.9200022"><ele>427.0</ele><time>2026-05-02T14:55:35.748Z</time></trkpt><trkpt lat="41.3961355" lon="13.919801"><ele>427.0</ele><time>2026-05-02T14:55:36.747Z</time></trkpt><trkpt lat="41.3960653" lon="13.91959"><ele>427.0</ele><time>2026-05-02T14:55:37.746Z</time></trkpt><trkpt lat="41.395993" lon="13.919374"><ele>419.33333333333337</ele><time>2026-05-02T14:55:38.75Z</time></trkpt><trkpt lat="41.3959178" lon="13.9191557"><ele>411.66666666666663</ele><time>2026-05-02T14:55:39.746Z</time></trkpt><trkpt lat="41.3958462" lon="13.9189477"><ele>404.0</ele><time>2026-05-02T14:55:40.748Z</time></trkpt><trkpt lat="41.3957945" lon="13.9187503"><ele>404.0</ele><time>2026-05-02T14:55:41.749Z</time></trkpt><trkpt lat="41.3957663" lon="13.9185435"><ele>404.0</ele><time>2026-05-02T14:55:42.751Z</time></trkpt><trkpt lat="41.3957475" lon="13.9183317"><ele>404.0</ele><time>2026-05-02T14:55:43.748Z</time></trkpt><trkpt lat="41.3957277" lon="13.9181127"><ele>400.3333333333333</ele><time>2026-05-02T14:55:44.748Z</time></trkpt><trkpt lat="41.3957163" lon="13.9178955"><ele>396.66666666666663</ele><time>2026-05-02T14:55:45.748Z</time></trkpt><trkpt lat="41.3957043" lon="13.917689"><ele>393.0</ele><time>2026-05-02T14:55:46.748Z</time></trkpt><trkpt lat="41.395692" lon="13.9174957"><ele>391.75</ele><time>2026-05-02T14:55:47.749Z</time></trkpt><trkpt lat="41.3956803" lon="13.9173058"><ele>390.5</ele><time>2026-05-02T14:55:48.75Z</time></trkpt><trkpt lat="41.3956685" lon="13.9171223"><ele>389.25</ele><time>2026-05-02T14:55:49.75Z</time></trkpt><trkpt lat="41.3956408" lon="13.916956"><ele>388.0</ele><time>2026-05-02T14:55:50.75Z</time></trkpt><trkpt lat="41.3955847" lon="13.9168217"><ele>387.5</ele><time>2026-05-02T14:55:51.751Z</time></trkpt><trkpt lat="41.3954968" lon="13.916715"><ele>387.0</ele><time>2026-05-02T14:55:52.752Z</time></trkpt><trkpt lat="41.3953843" lon="13.9166368"><ele>386.5</ele><time>2026-05-02T14:55:53.75Z</time></trkpt><trkpt lat="41.3952502" lon="13.9165935"><ele>386.0</ele><time>2026-05-02T14:55:54.75Z</time></trkpt><trkpt lat="41.3950922" lon="13.9165808"><ele>386.0</ele><time>2026-05-02T14:55:55.752Z</time></trkpt><trkpt lat="41.3949142" lon="13.9166027"><ele>386.0</ele><time>2026-05-02T14:55:56.75Z</time></trkpt><trkpt lat="41.394739" lon="13.9166425"><ele>386.0</ele><time>2026-05-02T14:55:57.749Z</time></trkpt><trkpt lat="41.3945697" lon="13.91668"><ele>382.3333333333333</ele><time>2026-05-02T14:55:58.752Z</time></trkpt><trkpt lat="41.3944038" lon="13.9167043"><ele>378.66666666666663</ele><time>2026-05-02T14:55:59.749Z</time></trkpt><trkpt lat="41.3942428" lon="13.9167073"><ele>375.0</ele><time>2026-05-02T14:56:00.75Z</time></trkpt><trkpt lat="41.3940863" lon="13.9166925"><ele>375.0</ele><time>2026-05-02T14:56:01.749Z</time></trkpt><trkpt lat="41.393939" lon="13.9166698"><ele>375.0</ele><time>2026-05-02T14:56:02.748Z</time></trkpt><trkpt lat="41.3938027" lon="13.9166465"><ele>375.0</ele><time>2026-05-02T14:56:03.748Z</time></trkpt><trkpt lat="41.3936828" lon="13.9166303"><ele>375.0</ele><time>2026-05-02T14:56:04.748Z</time></trkpt><trkpt lat="41.3935835" lon="13.916612"><ele>372.4</ele><time>2026-05-02T14:56:05.749Z</time></trkpt><trkpt lat="41.3935122" lon="13.9165715"><ele>369.8</ele><time>2026-05-02T14:56:06.75Z</time></trkpt><trkpt lat="41.3934997" lon="13.9164555"><ele>367.20000000000005</ele><time>2026-05-02T14:56:08.749Z</time></trkpt><trkpt lat="41.3936168" lon="13.9163623"><ele>364.6</ele><time>2026-05-02T14:56:10.749Z</time></trkpt><trkpt lat="41.3937163" lon="13.9163107"><ele>362.0</ele><time>2026-05-02T14:56:11.752Z</time></trkpt><trkpt lat="41.3938335" lon="13.9162415"><ele>364.6</ele><time>2026-05-02T14:56:12.751Z</time></trkpt><trkpt lat="41.393954" lon="13.9161725"><ele>367.20000000000005</ele><time>2026-05-02T14:56:13.75Z</time></trkpt><trkpt lat="41.3940637" lon="13.9161115"><ele>369.8</ele><time>2026-05-02T14:56:14.751Z</time></trkpt><trkpt lat="41.3941448" lon="13.9160508"><ele>372.4</ele><time>2026-05-02T14:56:15.749Z</time></trkpt><trkpt lat="41.394184" lon="13.9159822"><ele>375.0</ele><time>2026-05-02T14:56:16.75Z</time></trkpt><trkpt lat="41.3941408" lon="13.9158217"><ele>369.0</ele><time>2026-05-02T14:56:18.749Z</time></trkpt><trkpt lat="41.394057" lon="13.9157468"><ele>363.0</ele><time>2026-05-02T14:56:19.751Z</time></trkpt><trkpt lat="41.3939632" lon="13.9156667"><ele>357.0</ele><time>2026-05-02T14:56:20.749Z</time></trkpt><trkpt lat="41.3938717" lon="13.9155892"><ele>351.0</ele><time>2026-05-02T14:56:21.749Z</time></trkpt><trkpt lat="41.3937675" lon="13.9155392"><ele>345.0</ele><time>2026-05-02T14:56:22.749Z</time></trkpt><trkpt lat="41.3936485" lon="13.9155272"><ele>343.25</ele><time>2026-05-02T14:56:23.751Z</time></trkpt><trkpt lat="41.3935148" lon="13.9155272"><ele>341.5</ele><time>2026-05-02T14:56:24.751Z</time></trkpt><trkpt lat="41.3933783" lon="13.9155198"><ele>339.75</ele><time>2026-05-02T14:56:25.749Z</time></trkpt><trkpt lat="41.3932432" lon="13.9155102"><ele>338.0</ele><time>2026-05-02T14:56:26.748Z</time></trkpt><trkpt lat="41.3931078" lon="13.9155037"><ele>332.25</ele><time>2026-05-02T14:56:27.748Z</time></trkpt><trkpt lat="41.3929745" lon="13.9155083"><ele>326.5</ele><time>2026-05-02T14:56:28.747Z</time></trkpt><trkpt lat="41.3928433" lon="13.9155392"><ele>320.75</ele><time>2026-05-02T14:56:29.747Z</time></trkpt><trkpt lat="41.3927157" lon="13.9156025"><ele>315.0</ele><time>2026-05-02T14:56:30.749Z</time></trkpt><trkpt lat="41.392586" lon="13.9156928"><ele>315.0</ele><time>2026-05-02T14:56:31.749Z</time></trkpt><trkpt lat="41.3924562" lon="13.9158035"><ele>315.0</ele><time>2026-05-02T14:56:32.749Z</time></trkpt><trkpt lat="41.3923355" lon="13.9159255"><ele>315.0</ele><time>2026-05-02T14:56:33.749Z</time></trkpt><trkpt lat="41.392229" lon="13.916063"><ele>313.75</ele><time>2026-05-02T14:56:34.749Z</time></trkpt><trkpt lat="41.392139" lon="13.9162092"><ele>312.5</ele><time>2026-05-02T14:56:35.75Z</time></trkpt><trkpt lat="41.392063" lon="13.9163457"><ele>311.25</ele><time>2026-05-02T14:56:36.75Z</time></trkpt><trkpt lat="41.3919888" lon="13.9164578"><ele>310.0</ele><time>2026-05-02T14:56:37.75Z</time></trkpt><trkpt lat="41.3919112" lon="13.9165347"><ele>310.0</ele><time>2026-05-02T14:56:38.749Z</time></trkpt><trkpt lat="41.3918282" lon="13.9165765"><ele>310.0</ele><time>2026-05-02T14:56:39.748Z</time></trkpt><trkpt lat="41.3917513" lon="13.9165763"><ele>310.0</ele><time>2026-05-02T14:56:40.75Z</time></trkpt><trkpt lat="41.3916822" lon="13.9165225"><ele>310.0</ele><time>2026-05-02T14:56:41.749Z</time></trkpt><trkpt lat="41.391621" lon="13.916432"><ele>310.0</ele><time>2026-05-02T14:56:42.749Z</time></trkpt><trkpt lat="41.3915473" lon="13.9163307"><ele>310.0</ele><time>2026-05-02T14:56:43.751Z</time></trkpt><trkpt lat="41.391456" lon="13.9162655"><ele>310.0</ele><time>2026-05-02T14:56:44.749Z</time></trkpt><trkpt lat="41.3913505" lon="13.9162112"><ele>310.0</ele><time>2026-05-02T14:56:45.749Z</time></trkpt><trkpt lat="41.3912352" lon="13.916146"><ele>310.0</ele><time>2026-05-02T14:56:46.749Z</time></trkpt><trkpt lat="41.3911195" lon="13.916073"><ele>310.0</ele><time>2026-05-02T14:56:47.749Z</time></trkpt><trkpt lat="41.3910225" lon="13.9160012"><ele>310.8</ele><time>2026-05-02T14:56:48.753Z</time></trkpt><trkpt lat="41.3909353" lon="13.9159338"><ele>311.6</ele><time>2026-05-02T14:56:49.752Z</time></trkpt><trkpt lat="41.3908577" lon="13.9158562"><ele>312.4</ele><time>2026-05-02T14:56:50.748Z</time></trkpt><trkpt lat="41.3907942" lon="13.9157598"><ele>313.2</ele><time>2026-05-02T14:56:51.75Z</time></trkpt><trkpt lat="41.3907473" lon="13.9156503"><ele>314.0</ele><time>2026-05-02T14:56:52.749Z</time></trkpt><trkpt lat="41.3907047" lon="13.9155188"><ele>306.25</ele><time>2026-05-02T14:56:53.751Z</time></trkpt><trkpt lat="41.3906612" lon="13.9153703"><ele>298.5</ele><time>2026-05-02T14:56:54.753Z</time></trkpt><trkpt lat="41.3906102" lon="13.9152075"><ele>290.75</ele><time>2026-05-02T14:56:55.753Z</time></trkpt><trkpt lat="41.3905595" lon="13.9150428"><ele>283.0</ele><time>2026-05-02T14:56:56.754Z</time></trkpt><trkpt lat="41.3905083" lon="13.9148818"><ele>279.75</ele><time>2026-05-02T14:56:57.75Z</time></trkpt><trkpt lat="41.3904595" lon="13.9147238"><ele>276.5</ele><time>2026-05-02T14:56:58.751Z</time></trkpt><trkpt lat="41.3904105" lon="13.9145702"><ele>273.25</ele><time>2026-05-02T14:56:59.753Z</time></trkpt><trkpt lat="41.390367" lon="13.9144307"><ele>270.0</ele><time>2026-05-02T14:57:00.753Z</time></trkpt><trkpt lat="41.3903342" lon="13.914302"><ele>269.0</ele><time>2026-05-02T14:57:01.754Z</time></trkpt><trkpt lat="41.3903193" lon="13.9141738"><ele>268.0</ele><time>2026-05-02T14:57:02.753Z</time></trkpt><trkpt lat="41.3903213" lon="13.914038"><ele>267.0</ele><time>2026-05-02T14:57:03.752Z</time></trkpt><trkpt lat="41.3903365" lon="13.913892"><ele>266.0</ele><time>2026-05-02T14:57:04.753Z</time></trkpt><trkpt lat="41.3903658" lon="13.913729"><ele>265.0</ele><time>2026-05-02T14:57:05.753Z</time></trkpt><trkpt lat="41.3904032" lon="13.9135558"><ele>261.5</ele><time>2026-05-02T14:57:06.751Z</time></trkpt><trkpt lat="41.390448" lon="13.9133762"><ele>258.0</ele><time>2026-05-02T14:57:07.752Z</time></trkpt><trkpt lat="41.3904942" lon="13.9131903"><ele>254.5</ele><time>2026-05-02T14:57:08.752Z</time></trkpt><trkpt lat="41.3905422" lon="13.9130113"><ele>251.0</ele><time>2026-05-02T14:57:09.751Z</time></trkpt><trkpt lat="41.3905942" lon="13.9128428"><ele>251.0</ele><time>2026-05-02T14:57:10.751Z</time></trkpt><trkpt lat="41.3906427" lon="13.912696"><ele>251.00000000000003</ele><time>2026-05-02T14:57:11.75Z</time></trkpt><trkpt lat="41.3906928" lon="13.9125635"><ele>251.00000000000003</ele><time>2026-05-02T14:57:12.753Z</time></trkpt><trkpt lat="41.3907363" lon="13.9124477"><ele>251.0</ele><time>2026-05-02T14:57:13.754Z</time></trkpt><trkpt lat="41.3907618" lon="13.9123465"><ele>251.0</ele><time>2026-05-02T14:57:14.751Z</time></trkpt><trkpt lat="41.3907258" lon="13.9122185"><ele>249.16666666666669</ele><time>2026-05-02T14:57:16.749Z</time></trkpt><trkpt lat="41.3906383" lon="13.9121897"><ele>247.33333333333334</ele><time>2026-05-02T14:57:18.753Z</time></trkpt><trkpt lat="41.3905733" lon="13.9121553"><ele>245.5</ele><time>2026-05-02T14:57:22.75Z</time></trkpt><trkpt lat="41.3904968" lon="13.912186"><ele>243.66666666666669</ele><time>2026-05-02T14:57:24.75Z</time></trkpt><trkpt lat="41.3904285" lon="13.9122258"><ele>241.83333333333334</ele><time>2026-05-02T14:57:25.755Z</time></trkpt><trkpt lat="41.3903462" lon="13.9122803"><ele>240.0</ele><time>2026-05-02T14:57:26.754Z</time></trkpt><trkpt lat="41.3902458" lon="13.9123442"><ele>238.0</ele><time>2026-05-02T14:57:27.753Z</time></trkpt><trkpt lat="41.3901428" lon="13.912412"><ele>236.0</ele><time>2026-05-02T14:57:28.752Z</time></trkpt><trkpt lat="41.390031" lon="13.9124882"><ele>234.0</ele><time>2026-05-02T14:57:29.752Z</time></trkpt><trkpt lat="41.3899162" lon="13.9125715"><ele>232.0</ele><time>2026-05-02T14:57:30.753Z</time></trkpt><trkpt lat="41.389803" lon="13.9126515"><ele>233.25</ele><time>2026-05-02T14:57:31.752Z</time></trkpt><trkpt lat="41.3896957" lon="13.9127222"><ele>234.5</ele><time>2026-05-02T14:57:32.751Z</time></trkpt><trkpt lat="41.3895905" lon="13.912785"><ele>235.75</ele><time>2026-05-02T14:57:33.752Z</time></trkpt><trkpt lat="41.3894895" lon="13.9128457"><ele>237.0</ele><time>2026-05-02T14:57:34.751Z</time></trkpt><trkpt lat="41.3893925" lon="13.9129062"><ele>237.0</ele><time>2026-05-02T14:57:35.751Z</time></trkpt><trkpt lat="41.3892958" lon="13.9129648"><ele>237.0</ele><time>2026-05-02T14:57:36.749Z</time></trkpt><trkpt lat="41.3891993" lon="13.9130085"><ele>237.0</ele><time>2026-05-02T14:57:37.754Z</time></trkpt><trkpt lat="41.3891083" lon="13.9130263"><ele>237.0</ele><time>2026-05-02T14:57:38.752Z</time></trkpt><trkpt lat="41.3890223" lon="13.9130113"><ele>237.0</ele><time>2026-05-02T14:57:39.75Z</time></trkpt><trkpt lat="41.388941" lon="13.9129597"><ele>237.0</ele><time>2026-05-02T14:57:40.749Z</time></trkpt><trkpt lat="41.3888698" lon="13.9128738"><ele>237.0</ele><time>2026-05-02T14:57:41.746Z</time></trkpt><trkpt lat="41.3887992" lon="13.9127862"><ele>237.0</ele><time>2026-05-02T14:57:42.75Z</time></trkpt><trkpt lat="41.3887322" lon="13.912714"><ele>237.0</ele><time>2026-05-02T14:57:43.753Z</time></trkpt><trkpt lat="41.3886792" lon="13.9126448"><ele>237.0</ele><time>2026-05-02T14:57:44.751Z</time></trkpt><trkpt lat="41.38867" lon="13.9124862"><ele>237.25</ele><time>2026-05-02T14:57:46.75Z</time></trkpt><trkpt lat="41.3887092" lon="13.912382"><ele>237.5</ele><time>2026-05-02T14:57:47.752Z</time></trkpt><trkpt lat="41.3887588" lon="13.9122502"><ele>237.75</ele><time>2026-05-02T14:57:48.752Z</time></trkpt><trkpt lat="41.3888178" lon="13.9120955"><ele>238.0</ele><time>2026-05-02T14:57:49.751Z</time></trkpt><trkpt lat="41.388903" lon="13.9119615"><ele>233.5</ele><time>2026-05-02T14:57:50.754Z</time></trkpt><trkpt lat="41.3889967" lon="13.911846"><ele>229.0</ele><time>2026-05-02T14:57:51.749Z</time></trkpt><trkpt lat="41.389076" lon="13.9117242"><ele>224.5</ele><time>2026-05-02T14:57:52.75Z</time></trkpt><trkpt lat="41.389115" lon="13.911574"><ele>220.0</ele><time>2026-05-02T14:57:53.752Z</time></trkpt><trkpt lat="41.3891142" lon="13.9114177"><ele>219.2</ele><time>2026-05-02T14:57:54.75Z</time></trkpt><trkpt lat="41.3890795" lon="13.9112687"><ele>218.4</ele><time>2026-05-02T14:57:55.752Z</time></trkpt><trkpt lat="41.3890475" lon="13.911131"><ele>217.60000000000002</ele><time>2026-05-02T14:57:56.749Z</time></trkpt><trkpt lat="41.3890358" lon="13.9110157"><ele>216.8</ele><time>2026-05-02T14:57:57.75Z</time></trkpt><trkpt lat="41.3891207" lon="13.9109062"><ele>216.0</ele><time>2026-05-02T14:57:59.748Z</time></trkpt><trkpt lat="41.389195" lon="13.910941"><ele>216.0</ele><time>2026-05-02T14:58:00.748Z</time></trkpt><trkpt lat="41.3892572" lon="13.911027"><ele>216.00000000000003</ele><time>2026-05-02T14:58:01.748Z</time></trkpt><trkpt lat="41.3893108" lon="13.9111457"><ele>216.00000000000003</ele><time>2026-05-02T14:58:02.748Z</time></trkpt><trkpt lat="41.3893863" lon="13.9112535"><ele>216.0</ele><time>2026-05-02T14:58:03.746Z</time></trkpt><trkpt lat="41.3894698" lon="13.9113187"><ele>216.0</ele><time>2026-05-02T14:58:04.747Z</time></trkpt><trkpt lat="41.3895555" lon="13.9113255"><ele>216.0</ele><time>2026-05-02T14:58:05.749Z</time></trkpt><trkpt lat="41.389648" lon="13.9112772"><ele>216.0</ele><time>2026-05-02T14:58:06.75Z</time></trkpt><trkpt lat="41.3897252" lon="13.9111795"><ele>216.0</ele><time>2026-05-02T14:58:07.751Z</time></trkpt><trkpt lat="41.3898012" lon="13.9110393"><ele>216.0</ele><time>2026-05-02T14:58:08.751Z</time></trkpt><trkpt lat="41.3898733" lon="13.9108888"><ele>211.5</ele><time>2026-05-02T14:58:09.749Z</time></trkpt><trkpt lat="41.3899457" lon="13.9107427"><ele>207.0</ele><time>2026-05-02T14:58:10.751Z</time></trkpt><trkpt lat="41.3900143" lon="13.9105805"><ele>202.5</ele><time>2026-05-02T14:58:11.751Z</time></trkpt><trkpt lat="41.3900802" lon="13.9104032"><ele>198.0</ele><time>2026-05-02T14:58:12.751Z</time></trkpt><trkpt lat="41.3901372" lon="13.910211"><ele>196.66666666666669</ele><time>2026-05-02T14:58:13.75Z</time></trkpt><trkpt lat="41.3901915" lon="13.9099978"><ele>195.33333333333334</ele><time>2026-05-02T14:58:14.75Z</time></trkpt><trkpt lat="41.3902527" lon="13.9097672"><ele>194.0</ele><time>2026-05-02T14:58:15.752Z</time></trkpt><trkpt lat="41.3903177" lon="13.9095447"><ele>194.0</ele><time>2026-05-02T14:58:16.752Z</time></trkpt><trkpt lat="41.390378" lon="13.9093272"><ele>194.0</ele><time>2026-05-02T14:58:17.753Z</time></trkpt><trkpt lat="41.3904202" lon="13.9091098"><ele>194.0</ele><time>2026-05-02T14:58:18.751Z</time></trkpt><trkpt lat="41.3904287" lon="13.908884"><ele>193.66666666666669</ele><time>2026-05-02T14:58:19.75Z</time></trkpt><trkpt lat="41.3904132" lon="13.908644"><ele>193.33333333333331</ele><time>2026-05-02T14:58:20.752Z</time></trkpt><trkpt lat="41.3903867" lon="13.9083997"><ele>193.0</ele><time>2026-05-02T14:58:21.751Z</time></trkpt><trkpt lat="41.3903582" lon="13.9081543"><ele>192.66666666666666</ele><time>2026-05-02T14:58:22.752Z</time></trkpt><trkpt lat="41.3903348" lon="13.9079153"><ele>192.33333333333331</ele><time>2026-05-02T14:58:23.751Z</time></trkpt><trkpt lat="41.3903225" lon="13.907684"><ele>192.0</ele><time>2026-05-02T14:58:24.749Z</time></trkpt><trkpt lat="41.3903145" lon="13.9074743"><ele>190.6</ele><time>2026-05-02T14:58:25.753Z</time></trkpt><trkpt lat="41.3903072" lon="13.9072938"><ele>189.2</ele><time>2026-05-02T14:58:26.75Z</time></trkpt><trkpt lat="41.3903053" lon="13.9071493"><ele>187.8</ele><time>2026-05-02T14:58:27.751Z</time></trkpt><trkpt lat="41.3903127" lon="13.9070398"><ele>186.4</ele><time>2026-05-02T14:58:28.749Z</time></trkpt><trkpt lat="41.3903877" lon="13.9069628"><ele>185.0</ele><time>2026-05-02T14:58:30.749Z</time></trkpt><trkpt lat="41.3904542" lon="13.9070837"><ele>185.0</ele><time>2026-05-02T14:58:32.751Z</time></trkpt><trkpt lat="41.3904703" lon="13.9071858"><ele>185.0</ele><time>2026-05-02T14:58:33.752Z</time></trkpt><trkpt lat="41.3904952" lon="13.907307"><ele>185.0</ele><time>2026-05-02T14:58:34.755Z</time></trkpt><trkpt lat="41.3905353" lon="13.9074435"><ele>185.0</ele><time>2026-05-02T14:58:35.753Z</time></trkpt><trkpt lat="41.3905908" lon="13.907593"><ele>185.0</ele><time>2026-05-02T14:58:36.752Z</time></trkpt><trkpt lat="41.3906627" lon="13.9077627"><ele>180.33333333333331</ele><time>2026-05-02T14:58:37.752Z</time></trkpt><trkpt lat="41.3907438" lon="13.9079528"><ele>175.66666666666666</ele><time>2026-05-02T14:58:38.754Z</time></trkpt><trkpt lat="41.3908258" lon="13.9081402"><ele>171.0</ele><time>2026-05-02T14:58:39.753Z</time></trkpt><trkpt lat="41.39091" lon="13.9083048"><ele>171.25</ele><time>2026-05-02T14:58:40.752Z</time></trkpt><trkpt lat="41.391006" lon="13.908433"><ele>171.5</ele><time>2026-05-02T14:58:41.749Z</time></trkpt><trkpt lat="41.3911153" lon="13.9085138"><ele>171.75</ele><time>2026-05-02T14:58:42.749Z</time></trkpt><trkpt lat="41.3912338" lon="13.90855"><ele>172.0</ele><time>2026-05-02T14:58:43.751Z</time></trkpt><trkpt lat="41.39136" lon="13.9085458"><ele>172.0</ele><time>2026-05-02T14:58:44.753Z</time></trkpt><trkpt lat="41.3914737" lon="13.9085033"><ele>172.0</ele><time>2026-05-02T14:58:45.754Z</time></trkpt><trkpt lat="41.3915612" lon="13.9084163"><ele>172.0</ele><time>2026-05-02T14:58:46.753Z</time></trkpt><trkpt lat="41.3916275" lon="13.9082845"><ele>172.0</ele><time>2026-05-02T14:58:47.751Z</time></trkpt><trkpt lat="41.3916782" lon="13.9081235"><ele>170.0</ele><time>2026-05-02T14:58:48.748Z</time></trkpt><trkpt lat="41.3917145" lon="13.9079263"><ele>168.0</ele><time>2026-05-02T14:58:49.752Z</time></trkpt><trkpt lat="41.391753" lon="13.9077127"><ele>166.0</ele><time>2026-05-02T14:58:50.75Z</time></trkpt><trkpt lat="41.391782" lon="13.9074987"><ele>164.25</ele><time>2026-05-02T14:58:51.751Z</time></trkpt><trkpt lat="41.3917867" lon="13.9072953"><ele>162.5</ele><time>2026-05-02T14:58:52.751Z</time></trkpt><trkpt lat="41.3917722" lon="13.9071035"><ele>160.75</ele><time>2026-05-02T14:58:53.75Z</time></trkpt><trkpt lat="41.3917467" lon="13.9069252"><ele>159.0</ele><time>2026-05-02T14:58:54.749Z</time></trkpt><trkpt lat="41.391717" lon="13.9067583"><ele>157.25</ele><time>2026-05-02T14:58:55.75Z</time></trkpt><trkpt lat="41.3916833" lon="13.9065993"><ele>155.5</ele><time>2026-05-02T14:58:56.757Z</time></trkpt><trkpt lat="41.3916437" lon="13.906445"><ele>153.75</ele><time>2026-05-02T14:58:57.752Z</time></trkpt><trkpt lat="41.3915977" lon="13.9062978"><ele>152.0</ele><time>2026-05-02T14:58:58.753Z</time></trkpt><trkpt lat="41.3915458" lon="13.9061575"><ele>152.0</ele><time>2026-05-02T14:58:59.75Z</time></trkpt><trkpt lat="41.3914887" lon="13.9060275"><ele>152.0</ele><time>2026-05-02T14:59:00.752Z</time></trkpt><trkpt lat="41.3914313" lon="13.9059103"><ele>152.0</ele><time>2026-05-02T14:59:01.752Z</time></trkpt><trkpt lat="41.3913723" lon="13.9058043"><ele>152.0</ele><time>2026-05-02T14:59:02.753Z</time></trkpt><trkpt lat="41.3913165" lon="13.9056903"><ele>152.0</ele><time>2026-05-02T14:59:03.752Z</time></trkpt><trkpt lat="41.39127" lon="13.905562"><ele>151.0</ele><time>2026-05-02T14:59:04.751Z</time></trkpt><trkpt lat="41.3912367" lon="13.9054153"><ele>150.0</ele><time>2026-05-02T14:59:05.751Z</time></trkpt><trkpt lat="41.391217" lon="13.9052507"><ele>149.0</ele><time>2026-05-02T14:59:06.753Z</time></trkpt><trkpt lat="41.3912057" lon="13.9050768"><ele>148.0</ele><time>2026-05-02T14:59:07.754Z</time></trkpt><trkpt lat="41.3912042" lon="13.9048925"><ele>146.25</ele><time>2026-05-02T14:59:08.754Z</time></trkpt><trkpt lat="41.3912103" lon="13.9046965"><ele>144.5</ele><time>2026-05-02T14:59:09.751Z</time></trkpt><trkpt lat="41.391231" lon="13.9045067"><ele>142.75</ele><time>2026-05-02T14:59:10.753Z</time></trkpt><trkpt lat="41.391267" lon="13.9043258"><ele>141.0</ele><time>2026-05-02T14:59:11.757Z</time></trkpt><trkpt lat="41.3913212" lon="13.9041612"><ele>139.25</ele><time>2026-05-02T14:59:12.753Z</time></trkpt><trkpt lat="41.3913847" lon="13.9040085"><ele>137.5</ele><time>2026-05-02T14:59:13.754Z</time></trkpt><trkpt lat="41.3914502" lon="13.9038617"><ele>135.75</ele><time>2026-05-02T14:59:14.75Z</time></trkpt><trkpt lat="41.3915182" lon="13.9037145"><ele>134.0</ele><time>2026-05-02T14:59:15.752Z</time></trkpt><trkpt lat="41.3915952" lon="13.9035623"><ele>132.0</ele><time>2026-05-02T14:59:16.75Z</time></trkpt><trkpt lat="41.3916838" lon="13.9034063"><ele>130.0</ele><time>2026-05-02T14:59:17.75Z</time></trkpt><trkpt lat="41.3917777" lon="13.9032495"><ele>128.0</ele><time>2026-05-02T14:59:18.751Z</time></trkpt><trkpt lat="41.391875" lon="13.9030948"><ele>126.0</ele><time>2026-05-02T14:59:19.751Z</time></trkpt><trkpt lat="41.3919747" lon="13.9029468"><ele>126.0</ele><time>2026-05-02T14:59:20.749Z</time></trkpt><trkpt lat="41.392079" lon="13.9028167"><ele>126.0</ele><time>2026-05-02T14:59:21.753Z</time></trkpt><trkpt lat="41.392194" lon="13.9027178"><ele>126.0</ele><time>2026-05-02T14:59:22.756Z</time></trkpt><trkpt lat="41.3923217" lon="13.9026433"><ele>126.0</ele><time>2026-05-02T14:59:23.752Z</time></trkpt><trkpt lat="41.392461" lon="13.9025887"><ele>123.33333333333334</ele><time>2026-05-02T14:59:24.751Z</time></trkpt><trkpt lat="41.3926055" lon="13.902527"><ele>120.66666666666667</ele><time>2026-05-02T14:59:25.753Z</time></trkpt><trkpt lat="41.3927513" lon="13.902449"><ele>118.0</ele><time>2026-05-02T14:59:26.753Z</time></trkpt><trkpt lat="41.3929002" lon="13.9023477"><ele>117.33333333333334</ele><time>2026-05-02T14:59:27.753Z</time></trkpt><trkpt lat="41.3930297" lon="13.9022145"><ele>116.66666666666666</ele><time>2026-05-02T14:59:28.753Z</time></trkpt><trkpt lat="41.3931418" lon="13.9020583"><ele>116.0</ele><time>2026-05-02T14:59:29.752Z</time></trkpt><trkpt lat="41.3932383" lon="13.9018695"><ele>113.0</ele><time>2026-05-02T14:59:30.753Z</time></trkpt><trkpt lat="41.393325" lon="13.9016627"><ele>110.0</ele><time>2026-05-02T14:59:31.753Z</time></trkpt><trkpt lat="41.3934105" lon="13.9014388"><ele>107.0</ele><time>2026-05-02T14:59:32.753Z</time></trkpt><trkpt lat="41.3935012" lon="13.9012045"><ele>107.0</ele><time>2026-05-02T14:59:33.751Z</time></trkpt><trkpt lat="41.39359" lon="13.9009782"><ele>107.0</ele><time>2026-05-02T14:59:34.753Z</time></trkpt><trkpt lat="41.3936735" lon="13.9007617"><ele>107.0</ele><time>2026-05-02T14:59:35.753Z</time></trkpt><trkpt lat="41.3937545" lon="13.9005508"><ele>105.66666666666666</ele><time>2026-05-02T14:59:36.752Z</time></trkpt><trkpt lat="41.3938357" lon="13.900347"><ele>104.33333333333334</ele><time>2026-05-02T14:59:37.752Z</time></trkpt><trkpt lat="41.3939183" lon="13.9001442"><ele>103.0</ele><time>2026-05-02T14:59:38.751Z</time></trkpt><trkpt lat="41.3940003" lon="13.899941"><ele>101.0</ele><time>2026-05-02T14:59:39.751Z</time></trkpt><trkpt lat="41.3940783" lon="13.899742"><ele>99.0</ele><time>2026-05-02T14:59:40.752Z</time></trkpt><trkpt lat="41.3941578" lon="13.8995582"><ele>97.0</ele><time>2026-05-02T14:59:41.749Z</time></trkpt><trkpt lat="41.3942277" lon="13.8993828"><ele>96.5</ele><time>2026-05-02T14:59:42.748Z</time></trkpt><trkpt lat="41.3942795" lon="13.8992173"><ele>96.0</ele><time>2026-05-02T14:59:43.748Z</time></trkpt><trkpt lat="41.3943008" lon="13.8990575"><ele>95.5</ele><time>2026-05-02T14:59:44.75Z</time></trkpt><trkpt lat="41.3942808" lon="13.8988912"><ele>95.0</ele><time>2026-05-02T14:59:45.749Z</time></trkpt><trkpt lat="41.3942402" lon="13.8987252"><ele>95.0</ele><time>2026-05-02T14:59:46.753Z</time></trkpt><trkpt lat="41.3941995" lon="13.8985492"><ele>95.0</ele><time>2026-05-02T14:59:47.754Z</time></trkpt><trkpt lat="41.3941772" lon="13.8983585"><ele>95.0</ele><time>2026-05-02T14:59:48.753Z</time></trkpt><trkpt lat="41.3941712" lon="13.8981545"><ele>95.0</ele><time>2026-05-02T14:59:49.751Z</time></trkpt><trkpt lat="41.3941778" lon="13.897942"><ele>93.33333333333334</ele><time>2026-05-02T14:59:50.753Z</time></trkpt><trkpt lat="41.3941872" lon="13.8977278"><ele>91.66666666666667</ele><time>2026-05-02T14:59:51.754Z</time></trkpt><trkpt lat="41.3942092" lon="13.8975267"><ele>90.0</ele><time>2026-05-02T14:59:52.753Z</time></trkpt><trkpt lat="41.3942547" lon="13.897348"><ele>89.0</ele><time>2026-05-02T14:59:53.749Z</time></trkpt><trkpt lat="41.394314" lon="13.8971893"><ele>88.0</ele><time>2026-05-02T14:59:54.751Z</time></trkpt><trkpt lat="41.394375" lon="13.8970517"><ele>87.0</ele><time>2026-05-02T14:59:55.752Z</time></trkpt><trkpt lat="41.3944292" lon="13.8969247"><ele>86.0</ele><time>2026-05-02T14:59:56.754Z</time></trkpt><trkpt lat="41.394479" lon="13.8968168"><ele>85.19999999999999</ele><time>2026-05-02T14:59:57.753Z</time></trkpt><trkpt lat="41.3945257" lon="13.8967122"><ele>84.39999999999999</ele><time>2026-05-02T14:59:58.751Z</time></trkpt><trkpt lat="41.3945745" lon="13.8965923"><ele>83.6</ele><time>2026-05-02T14:59:59.751Z</time></trkpt><trkpt lat="41.3946293" lon="13.896463"><ele>82.8</ele><time>2026-05-02T15:00:00.752Z</time></trkpt><trkpt lat="41.3946928" lon="13.8963177"><ele>82.0</ele><time>2026-05-02T15:00:01.751Z</time></trkpt><trkpt lat="41.3947628" lon="13.8961567"><ele>81.33333333333333</ele><time>2026-05-02T15:00:02.751Z</time></trkpt><trkpt lat="41.3948468" lon="13.8959833"><ele>80.66666666666667</ele><time>2026-05-02T15:00:03.75Z</time></trkpt><trkpt lat="41.394945" lon="13.8957983"><ele>80.0</ele><time>2026-05-02T15:00:04.752Z</time></trkpt><trkpt lat="41.3950582" lon="13.8956088"><ele>78.66666666666667</ele><time>2026-05-02T15:00:05.75Z</time></trkpt><trkpt lat="41.3951835" lon="13.8954162"><ele>77.33333333333333</ele><time>2026-05-02T15:00:06.751Z</time></trkpt><trkpt lat="41.3953285" lon="13.895222"><ele>76.0</ele><time>2026-05-02T15:00:07.753Z</time></trkpt><trkpt lat="41.395495" lon="13.8950227"><ele>73.0</ele><time>2026-05-02T15:00:08.753Z</time></trkpt><trkpt lat="41.3956783" lon="13.8948247"><ele>70.0</ele><time>2026-05-02T15:00:09.751Z</time></trkpt><trkpt lat="41.3958573" lon="13.8946438"><ele>70.0</ele><time>2026-05-02T15:00:10.755Z</time></trkpt><trkpt lat="41.3960238" lon="13.8944677"><ele>70.0</ele><time>2026-05-02T15:00:11.754Z</time></trkpt><trkpt lat="41.3961762" lon="13.894291"><ele>70.0</ele><time>2026-05-02T15:00:12.755Z</time></trkpt><trkpt lat="41.3963157" lon="13.894125"><ele>68.33333333333333</ele><time>2026-05-02T15:00:13.754Z</time></trkpt><trkpt lat="41.3964413" lon="13.89398"><ele>66.66666666666667</ele><time>2026-05-02T15:00:14.754Z</time></trkpt><trkpt lat="41.3965625" lon="13.8938487"><ele>65.0</ele><time>2026-05-02T15:00:15.753Z</time></trkpt><trkpt lat="41.3966825" lon="13.8937355"><ele>65.0</ele><time>2026-05-02T15:00:16.752Z</time></trkpt><trkpt lat="41.396802" lon="13.8936512"><ele>65.0</ele><time>2026-05-02T15:00:17.749Z</time></trkpt><trkpt lat="41.3969232" lon="13.8935953"><ele>65.0</ele><time>2026-05-02T15:00:18.753Z</time></trkpt><trkpt lat="41.3970437" lon="13.8935627"><ele>65.0</ele><time>2026-05-02T15:00:19.753Z</time></trkpt><trkpt lat="41.3971618" lon="13.8935593"><ele>65.0</ele><time>2026-05-02T15:00:20.751Z</time></trkpt><trkpt lat="41.397274" lon="13.8935872"><ele>58.0</ele><time>2026-05-02T15:00:21.752Z</time></trkpt><trkpt lat="41.3973783" lon="13.8936408"><ele>58.0</ele><time>2026-05-02T15:00:22.75Z</time></trkpt></trkseg></trk></gpx>